<
# Wetter Temperatur Luftdruck Luftfeuchtigkeit Sichtweite Windgeschwindigkeit Windrichtung Zeit
1 Clouds 20 1012 94 7000 3.6 70 22:27 24.01.2020
2 Thunderstorm 20 1012 94 4000 2.6 30 21:58 24.01.2020
3 Rain 20 1012 94 4100 3.1 70 21:39 24.01.2020
4 Rain 20 1012 94 4100 3.1 70 21:18 24.01.2020
5 Mist 20 1013 94 5000 3.6 70 20:43 24.01.2020
6 Mist 20 1013 94 5000 3.6 70 20:22 24.01.2020
7 Rain 20 1013 94 4300 3.1 70 19:58 24.01.2020
8 Clouds 20 1013 94 7000 3.6 70 19:40 24.01.2020
9 Clouds 20 1013 94 7000 3.6 70 19:21 24.01.2020
10 Clouds 20 1014 94 7000 3.1 90 18:44 24.01.2020
11 Clouds 20 1014 94 7000 3.1 90 18:25 24.01.2020
12 Mist 21 1014 94 5000 2.6 80 17:59 24.01.2020
13 Clouds 21 1014 94 6000 3.1 70 17:41 24.01.2020
14 Clouds 21 1014 94 6000 3.1 70 17:20 24.01.2020
15 Clouds 21 1014 94 6000 3.1 80 16:40 24.01.2020
16 Clouds 21 1014 94 6000 3.1 80 16:21 24.01.2020
17 Clouds 21 1014 94 7000 2.1 60 15:56 24.01.2020
18 Clouds 21 1014 94 6000 2.6 70 15:38 24.01.2020
19 Clouds 21 1014 94 6000 2.6 70 15:19 24.01.2020
20 Clouds 21 1013 94 7000 4.1 100 14:41 24.01.2020
21 Clouds 21 1013 94 7000 4.1 100 14:22 24.01.2020
22 Clouds 21 1013 94 8000 2.6 90 13:45 24.01.2020
23 Rain 21 1013 94 10000 4.1 130 13:24 24.01.2020
24 Thunderstorm 21 1013 94 2000 2.1 0 12:45 24.01.2020
25 Thunderstorm 21 1013 94 2000 2.1 0 12:45 24.01.2020
26 Thunderstorm 21 1013 94 3200 2.6 70 12:24 24.01.2020
27 Rain 21 1012 94 3200 4.6 80 11:59 24.01.2020
28 Thunderstorm 22 1012 88 800 6.7 360 11:40 24.01.2020
29 Thunderstorm 22 1012 88 800 6.7 360 11:18 24.01.2020
30 Clouds 22 1011 94 7000 4.6 120 10:43 24.01.2020
31 Clouds 22 1011 94 7000 4.6 120 10:21 24.01.2020
32 Mist 22 1011 94 4900 5.7 110 09:55 24.01.2020
33 Mist 22 1012 94 3900 4.6 120 09:37 24.01.2020
34 Mist 22 1012 94 3900 4.6 120 09:18 24.01.2020
35 Rain 22 1013 94 8000 4.1 130 08:39 24.01.2020
36 Rain 22 1013 94 8000 4.1 130 08:19 24.01.2020
37 Rain 21 1013 94 6000 4.6 130 07:49 24.01.2020
38 Thunderstorm 22 1014 94 1500 2.6 280 07:24 24.01.2020
39 Drizzle 22 1013 94 1900 5.1 140 06:45 24.01.2020
40 Drizzle 22 1014 94 1500 4.1 140 06:24 24.01.2020
41 Clouds 23 1015 83 9000 5.7 120 05:37 24.01.2020
42 Clouds 23 1016 88 8000 5.1 110 03:47 24.01.2020
43 Drizzle 22 1016 94 3700 2.6 100 02:41 24.01.2020
44 Drizzle 22 1016 94 3700 2.6 100 02:22 24.01.2020
45 Drizzle 22 1015 88 4500 3.1 110 01:39 24.01.2020
46 Drizzle 21 1014 94 4000 2.6 100 00:52 24.01.2020
47 Clouds 22 1014 88 6000 2.6 90 00:19 24.01.2020
48 Clouds 22 1013 94 6000 2.1 90 23:42 23.01.2020
49 Clouds 22 1013 94 6000 2.1 90 23:23 23.01.2020
50 Clouds 22 1013 94 6000 2.1 90 22:58 23.01.2020
51 Mist 22 1013 88 6000 2.6 100 22:37 23.01.2020
52 Mist 22 1013 88 6000 2.6 100 22:37 23.01.2020
53 Mist 22 1013 88 6000 2.6 100 22:18 23.01.2020
54 Clouds 22 1013 88 6000 2.6 100 21:55 23.01.2020
55 Clouds 22 1013 88 7000 2.6 120 21:37 23.01.2020
56 Clouds 22 1013 88 7000 2.6 120 21:19 23.01.2020
57 Clouds 22 1013 88 7000 2.6 120 21:19 23.01.2020
58 Clouds 22 1014 88 6000 1.5 120 20:55 23.01.2020
59 Clouds 21 1014 94 5000 3.1 80 20:37 23.01.2020
60 Clouds 21 1014 94 5000 3.1 80 20:18 23.01.2020
61 Clouds 22 1014 88 7000 2.1 80 19:42 23.01.2020
62 Clouds 22 1014 88 7000 3.6 100 19:23 23.01.2020
63 Clouds 22 1015 88 6000 4.1 120 18:57 23.01.2020
64 Rain 21 1015 94 6000 3.6 120 18:38 23.01.2020
65 Rain 21 1015 94 6000 3.6 120 18:19 23.01.2020
66 Drizzle 22 1015 88 4200 2.6 120 17:45 23.01.2020
67 Drizzle 22 1015 88 4200 2.6 120 17:21 23.01.2020
68 Clouds 22 1015 88 6000 4.1 140 16:59 23.01.2020
69 Clouds 23 1015 83 9000 4.6 130 16:39 23.01.2020
70 Clouds 23 1015 83 9000 4.6 130 16:20 23.01.2020
71 Clouds 23 1015 88 8000 3.1 150 15:58 23.01.2020
72 Clouds 23 1015 83 10000 4.6 120 15:39 23.01.2020
73 Clouds 23 1015 83 10000 4.6 120 15:19 23.01.2020
74 Clouds 23 1014 83 10000 4.1 120 14:58 23.01.2020
75 Clouds 23 1014 83 10000 4.1 120 14:40 23.01.2020
76 Clouds 23 1014 83 10000 4.1 120 14:22 23.01.2020
77 Clouds 24 1014 78 10000 4.6 130 13:54 23.01.2020
78 Clouds 24 1013 78 10000 5.7 120 13:36 23.01.2020
79 Clouds 24 1013 78 10000 5.7 120 13:18 23.01.2020
80 Clouds 24 1012 78 10000 6.7 120 12:40 23.01.2020
81 Clouds 24 1012 78 10000 6.7 120 12:22 23.01.2020
82 Clouds 25 1012 73 10000 4.6 120 11:54 23.01.2020
83 Clouds 25 1011 73 10000 5.7 130 11:36 23.01.2020
84 Clouds 25 1011 73 10000 5.7 130 11:18 23.01.2020
85 Clouds 25 1011 73 10000 6.7 130 10:41 23.01.2020
86 Clouds 25 1011 73 10000 6.7 130 10:19 23.01.2020
87 Clouds 25 1011 73 10000 6.7 130 10:19 23.01.2020
88 Clouds 27 1011 61 10000 5.7 160 09:41 23.01.2020
89 Clouds 27 1011 61 10000 5.7 160 09:22 23.01.2020
90 Clouds 27 1011 61 10000 5.1 160 08:56 23.01.2020
91 Clouds 27 1012 61 10000 5.1 170 08:38 23.01.2020
92 Clouds 27 1012 61 10000 5.1 170 08:19 23.01.2020
93 Clouds 27 1013 65 10000 4.6 150 07:39 23.01.2020
94 Clouds 27 1013 65 10000 4.6 150 07:18 23.01.2020
95 Clouds 26 1014 69 10000 5.1 170 06:44 23.01.2020
96 Clouds 26 1015 65 10000 5.7 170 06:18 23.01.2020
97 Clouds 24 1017 78 7000 4.1 130 04:25 23.01.2020
98 Clouds 23 1016 83 6000 4.1 120 03:36 23.01.2020
99 Mist 21 1015 94 4100 2.6 100 01:55 23.01.2020
100 Clouds 22 1014 88 6000 2.6 100 00:44 23.01.2020
101 Clouds 22 1014 88 6000 2.6 100 00:24 23.01.2020
102 Clouds 21 1013 94 6000 3.6 100 23:46 22.01.2020
103 Clouds 21 1013 94 6000 3.6 100 23:28 22.01.2020
104 Clouds 21 1013 94 6000 2.6 110 22:43 22.01.2020
105 Clouds 22 1013 88 6000 2.1 110 22:25 22.01.2020
106 Clouds 22 1014 88 6000 2.6 120 21:59 22.01.2020
107 Clouds 21 1014 94 6000 3.6 110 21:38 22.01.2020
108 Clouds 21 1014 94 6000 3.6 110 21:38 22.01.2020
109 Clouds 21 1014 94 6000 3.6 110 21:19 22.01.2020
110 Clouds 21 1014 94 6000 3.6 110 21:19 22.01.2020
111 Clouds 22 1015 88 6000 3.6 110 20:42 22.01.2020
112 Clouds 22 1015 88 6000 3.6 110 20:23 22.01.2020
113 Clouds 22 1015 88 6000 4.1 110 19:59 22.01.2020
114 Clouds 22 1015 88 6000 3.6 100 19:41 22.01.2020
115 Clouds 22 1015 88 6000 3.6 100 19:21 22.01.2020
116 Clouds 22 1015 88 6000 4.1 100 18:59 22.01.2020
117 Clouds 22 1015 88 6000 4.1 110 18:40 22.01.2020
118 Clouds 22 1015 88 6000 4.1 110 18:21 22.01.2020
119 Clouds 22 1016 88 7000 3.6 110 17:57 22.01.2020
120 Clouds 22 1016 88 7000 3.6 110 17:57 22.01.2020
121 Clouds 22 1016 88 6000 3.6 110 17:39 22.01.2020
122 Clouds 22 1016 88 6000 3.6 110 17:19 22.01.2020
123 Clouds 22 1016 88 7000 4.1 120 16:54 22.01.2020
124 Clouds 22 1016 88 7000 3.6 110 16:36 22.01.2020
125 Clouds 22 1016 88 7000 3.6 110 16:18 22.01.2020
126 Clouds 23 1015 83 8000 3.6 120 15:41 22.01.2020
127 Clouds 23 1015 83 8000 3.6 120 15:23 22.01.2020
128 Clouds 23 1015 83 7000 4.1 120 14:58 22.01.2020
129 Clouds 23 1015 83 7000 3.6 110 14:37 22.01.2020
130 Clouds 23 1015 83 7000 3.6 110 14:19 22.01.2020
131 Clouds 23 1014 83 8000 3.6 110 13:55 22.01.2020
132 Clouds 24 1014 73 10000 3.6 130 13:36 22.01.2020
133 Clouds 24 1014 73 10000 3.6 130 13:18 22.01.2020
134 Clouds 24 1014 73 10000 4.1 140 12:56 22.01.2020
135 Clouds 24 1014 73 10000 3.1 140 12:37 22.01.2020
136 Clouds 24 1014 73 10000 3.1 140 12:18 22.01.2020
137 Mist 24 1013 73 4000 2.1 120 11:56 22.01.2020
138 Mist 24 1013 73 4000 2.1 120 11:56 22.01.2020
139 Mist 24 1013 78 2600 2.1 90 11:37 22.01.2020
140 Mist 24 1013 78 2600 2.1 90 11:18 22.01.2020
141 Mist 24 1013 73 4100 2.6 170 10:44 22.01.2020
142 Mist 24 1013 73 4300 2.6 190 10:20 22.01.2020
143 Mist 24 1013 73 4200 2.1 210 09:44 22.01.2020
144 Mist 24 1013 73 3800 2.1 200 09:25 22.01.2020
145 Mist 24 1014 73 3800 2.1 180 08:58 22.01.2020
146 Mist 23 1014 78 3800 2.1 170 08:40 22.01.2020
147 Mist 23 1014 78 3800 2.1 170 08:21 22.01.2020
148 Mist 22 1015 83 3300 0.5 0 07:54 22.01.2020
149 Mist 21 1016 83 3100 0.5 0 07:36 22.01.2020
150 Mist 21 1016 83 3100 0.5 0 07:18 22.01.2020
151 Mist 20 1017 88 3200 2.1 320 06:30 22.01.2020
152 Mist 19 1018 93 2900 2.1 240 05:41 22.01.2020
153 Mist 18 1019 100 2000 2.6 260 04:18 22.01.2020
154 Drizzle 18 1019 100 1500 2.6 270 03:22 22.01.2020
155 Drizzle 18 1017 93 1000 2.6 290 01:44 22.01.2020
156 Mist 18 1017 93 2200 2.1 260 00:44 22.01.2020
157 Mist 18 1016 93 1900 2.1 260 00:26 22.01.2020
158 Mist 18 1016 93 1900 1.5 270 23:39 21.01.2020
159 Mist 18 1016 93 1900 1.5 270 23:21 21.01.2020
160 Mist 18 1016 93 1400 1.5 300 22:59 21.01.2020
161 Mist 18 1016 93 1600 1 0 22:39 21.01.2020
162 Mist 18 1016 93 1600 1 0 22:20 21.01.2020
163 Mist 18 1016 93 1300 2.6 280 21:56 21.01.2020
164 Rain 18 1016 93 1900 1 280 21:37 21.01.2020
165 Rain 18 1016 93 1900 1 280 21:19 21.01.2020
166 Mist 18 1017 93 2800 2.1 300 20:55 21.01.2020
167 Mist 19 1017 88 3700 1.5 290 20:37 21.01.2020
168 Mist 19 1017 88 3700 1.5 290 20:18 21.01.2020
169 Mist 19 1017 88 3700 1.5 290 20:18 21.01.2020
170 Mist 19 1017 88 4000 2.1 310 19:55 21.01.2020
171 Mist 19 1017 88 4400 1 0 19:36 21.01.2020
172 Mist 19 1017 88 4400 1 0 19:18 21.01.2020
173 Mist 19 1018 88 4300 2.1 230 18:54 21.01.2020
174 Mist 19 1018 88 3100 2.1 0 18:36 21.01.2020
175 Mist 19 1018 88 3100 2.1 0 18:18 21.01.2020
176 Mist 20 1018 88 2900 1.5 180 17:42 21.01.2020
177 Mist 20 1018 88 2900 1.5 180 17:19 21.01.2020
178 Mist 20 1019 88 2800 1 0 16:56 21.01.2020
179 Mist 20 1019 94 3100 1.5 150 16:36 21.01.2020
180 Mist 20 1019 94 3100 1.5 150 16:18 21.01.2020
181 Mist 20 1018 88 2700 1 0 15:40 21.01.2020
182 Mist 20 1018 88 2700 1 0 15:20 21.01.2020
183 Mist 20 1018 88 2500 3.1 120 14:55 21.01.2020
184 Mist 19 1017 88 2000 2.1 90 14:36 21.01.2020
185 Mist 19 1017 88 2000 2.1 90 14:18 21.01.2020
186 Mist 19 1017 88 2600 2.6 100 13:38 21.01.2020
187 Mist 19 1017 88 2600 2.6 100 13:18 21.01.2020
188 Mist 19 1017 88 3000 1.5 80 12:43 21.01.2020
189 Mist 19 1017 88 3000 1.5 80 12:43 21.01.2020
190 Mist 20 1017 82 2500 2.6 110 12:24 21.01.2020
191 Mist 21 1017 77 2000 3.6 120 11:56 21.01.2020
192 Mist 21 1016 77 2100 4.1 110 11:38 21.01.2020
193 Mist 21 1016 77 2100 4.1 110 11:38 21.01.2020
194 Mist 21 1016 77 2100 4.1 110 11:38 21.01.2020
195 Mist 21 1016 77 2100 4.1 110 11:19 21.01.2020
196 Mist 21 1016 77 2300 4.6 120 10:43 21.01.2020
197 Mist 21 1016 77 2400 4.1 120 10:23 21.01.2020
198 Mist 22 1016 73 2500 3.6 100 09:57 21.01.2020
199 Mist 21 1017 77 2300 3.1 100 09:39 21.01.2020
200 Mist 21 1017 77 2300 3.1 100 09:21 21.01.2020
201 Mist 20 1017 77 2500 3.1 110 08:45 21.01.2020
202 Mist 20 1017 77 2500 3.1 120 08:27 21.01.2020
203 Mist 20 1018 77 2800 2.6 120 07:44 21.01.2020
204 Mist 19 1019 82 3100 2.1 140 07:25 21.01.2020
205 Mist 19 1019 82 3000 1.5 220 06:58 21.01.2020
206 Mist 19 1020 82 3100 1 0 06:38 21.01.2020
207 Mist 19 1021 82 2900 1.5 270 05:55 21.01.2020
208 Mist 19 1021 82 2900 1.5 270 05:55 21.01.2020
209 Mist 18 1021 82 3100 1 0 05:32 21.01.2020
210 Mist 17 1022 93 2600 1.5 200 04:38 21.01.2020
211 Mist 16 1020 93 1300 0.5 0 02:27 21.01.2020
212 Drizzle 15 1020 100 700 1 340 01:36 21.01.2020
213 Drizzle 15 1020 100 700 0.5 310 00:45 21.01.2020
214 Drizzle 15 1019 100 650 0.5 330 00:25 21.01.2020
215 Fog 15 1019 93 500 1 290 23:56 20.01.2020
216 Fog 15 1019 93 500 1 310 23:36 20.01.2020
217 Fog 15 1019 93 500 1 310 23:18 20.01.2020
218 Fog 15 1019 93 750 0.5 0 22:40 20.01.2020
219 Fog 15 1019 93 750 0.5 0 22:21 20.01.2020
220 Mist 15 1019 93 1200 0.5 0 21:58 20.01.2020
221 Mist 15 1019 93 1400 1 0 21:38 20.01.2020
222 Mist 15 1019 93 1400 1 0 21:20 20.01.2020
223 Mist 15 1019 93 2400 1 0 20:58 20.01.2020
224 Mist 15 1019 93 2700 1.5 30 20:39 20.01.2020
225 Mist 15 1019 93 2700 1.5 30 20:20 20.01.2020
226 Mist 15 1020 93 3100 1 0 19:58 20.01.2020
227 Mist 15 1020 93 3000 1 0 19:40 20.01.2020
228 Mist 15 1020 93 3000 1 0 19:19 20.01.2020
229 Mist 15 1020 93 3400 0.5 0 18:45 20.01.2020
230 Mist 15 1020 93 3000 1 0 18:24 20.01.2020
231 Mist 15 1021 93 3000 0.5 0 17:59 20.01.2020
232 Mist 15 1021 93 3100 1 0 17:38 20.01.2020
233 Mist 15 1021 93 3100 1 0 17:18 20.01.2020
234 Mist 15 1021 93 2700 1 360 16:45 20.01.2020
235 Mist 15 1021 93 3700 1.5 20 16:25 20.01.2020
236 Mist 15 1021 93 5000 1.5 30 15:58 20.01.2020
237 Mist 15 1021 93 5000 1.5 30 15:58 20.01.2020
238 Mist 15 1021 93 4400 2.1 40 15:40 20.01.2020
239 Mist 15 1021 93 4400 2.1 40 15:21 20.01.2020
240 Mist 15 1020 93 4600 2.1 60 14:55 20.01.2020
241 Mist 15 1020 93 5000 1.5 60 14:36 20.01.2020
242 Mist 15 1020 93 5000 1.5 60 14:18 20.01.2020
243 Drizzle 15 1019 93 3700 2.1 60 13:41 20.01.2020
244 Drizzle 15 1019 93 3700 2.1 60 13:23 20.01.2020
245 Drizzle 15 1019 87 2900 2.1 80 12:56 20.01.2020
246 Mist 15 1019 87 5000 2.6 70 12:38 20.01.2020
247 Mist 15 1019 87 5000 2.6 70 12:19 20.01.2020
248 Mist 15 1019 87 3700 3.1 80 11:43 20.01.2020
249 Mist 15 1019 87 3700 3.1 80 11:43 20.01.2020
250 Mist 15 1018 87 2600 2.6 80 11:24 20.01.2020
251 Mist 15 1018 87 3100 2.6 70 10:57 20.01.2020
252 Mist 15 1018 87 4000 2.6 50 10:39 20.01.2020
253 Mist 15 1018 87 4000 2.6 50 10:19 20.01.2020
254 Mist 15 1019 87 4800 2.6 40 09:41 20.01.2020
255 Mist 15 1019 87 4800 2.6 40 09:41 20.01.2020
256 Mist 15 1019 87 4800 2.6 40 09:21 20.01.2020
257 Mist 15 1019 87 3400 2.1 50 08:49 20.01.2020
258 Mist 15 1019 82 5000 2.1 50 08:30 20.01.2020
259 Mist 15 1020 87 4600 1.5 60 07:54 20.01.2020
260 Clouds 15 1020 82 6000 2.1 20 07:30 20.01.2020
261 Mist 14 1021 93 5000 2.6 20 06:59 20.01.2020
262 Mist 14 1021 93 3000 2.6 10 06:30 20.01.2020
263 Mist 14 1022 93 3800 1.5 10 05:44 20.01.2020
264 Drizzle 14 1022 93 3200 1.5 40 05:25 20.01.2020
265 Drizzle 14 1023 93 3200 1.5 30 04:49 20.01.2020
266 Clouds 14 1022 87 6000 2.6 360 02:59 20.01.2020
267 Clouds 14 1021 82 7000 2.1 50 01:57 20.01.2020
268 Clouds 14 1021 82 7000 2.1 10 01:37 20.01.2020
269 Clouds 14 1020 82 9000 2.1 10 00:45 20.01.2020
270 Clouds 14 1020 87 9000 2.6 40 00:25 20.01.2020
271 Clouds 14 1019 87 8000 2.1 40 23:40 19.01.2020
272 Clouds 14 1019 87 8000 2.1 40 23:20 19.01.2020
273 Clouds 14 1019 82 9000 2.6 50 22:58 19.01.2020
274 Clouds 14 1019 82 9000 1.5 40 22:40 19.01.2020
275 Clouds 14 1019 82 9000 1.5 40 22:21 19.01.2020
276 Clouds 14 1019 82 9000 1.5 40 22:21 19.01.2020
277 Clouds 14 1019 82 8000 1.5 40 21:57 19.01.2020
278 Clouds 13 1019 87 7000 2.6 40 21:39 19.01.2020
279 Clouds 13 1019 87 7000 2.6 40 21:20 19.01.2020
280 Clouds 13 1020 93 7000 2.6 10 20:57 19.01.2020
281 Clouds 13 1020 93 7000 2.6 10 20:57 19.01.2020
282 Clouds 13 1020 93 6000 2.1 360 20:39 19.01.2020
283 Clouds 13 1020 93 6000 2.1 360 20:21 19.01.2020
284 Mist 13 1020 93 5000 2.6 50 19:57 19.01.2020
285 Clouds 13 1020 93 6000 2.1 40 19:39 19.01.2020
286 Clouds 13 1020 93 6000 2.1 40 19:21 19.01.2020
287 Clouds 13 1021 93 6000 2.6 50 18:59 19.01.2020
288 Clouds 13 1021 93 7000 1.5 40 18:41 19.01.2020
289 Clouds 13 1021 93 7000 1.5 40 18:41 19.01.2020
290 Clouds 13 1021 93 7000 1.5 40 18:21 19.01.2020
291 Drizzle 13 1021 93 6000 2.6 10 17:58 19.01.2020
292 Clouds 14 1022 82 7000 2.6 30 17:40 19.01.2020
293 Clouds 14 1022 82 7000 2.6 30 17:40 19.01.2020
294 Clouds 14 1022 82 7000 2.6 30 17:21 19.01.2020
295 Clouds 14 1021 82 10000 2.1 40 16:59 19.01.2020
296 Clouds 14 1021 82 10000 2.6 30 16:40 19.01.2020
297 Clouds 14 1021 82 10000 2.6 30 16:21 19.01.2020
298 Clouds 15 1021 77 10000 2.6 30 15:59 19.01.2020
299 Clouds 15 1021 77 10000 2.1 30 15:39 19.01.2020
300 Clouds 15 1021 77 10000 2.1 30 15:20 19.01.2020
301 Clouds 15 1021 77 10000 3.1 360 14:58 19.01.2020
302 Clouds 15 1021 72 10000 2.1 30 14:39 19.01.2020
303 Clouds 15 1021 72 10000 2.1 30 14:18 19.01.2020
304 Clouds 15 1021 72 10000 2.1 40 13:57 19.01.2020
305 Clouds 15 1021 72 10000 2.6 40 13:38 19.01.2020
306 Clouds 15 1021 72 10000 2.6 40 13:19 19.01.2020
307 Clouds 15 1020 72 10000 2.6 40 12:55 19.01.2020
308 Clouds 15 1020 72 10000 3.1 30 12:37 19.01.2020
309 Clouds 15 1020 72 10000 3.1 30 12:19 19.01.2020
310 Clouds 16 1020 67 10000 3.6 30 11:42 19.01.2020
311 Clouds 16 1020 67 10000 3.6 30 11:20 19.01.2020
312 Clouds 16 1020 67 10000 4.1 50 10:56 19.01.2020
313 Clouds 16 1020 67 10000 3.6 40 10:38 19.01.2020
314 Clouds 16 1020 67 10000 3.6 40 10:19 19.01.2020
315 Clouds 16 1019 63 10000 3.6 40 09:55 19.01.2020
316 Clouds 16 1019 63 10000 3.6 40 09:55 19.01.2020
317 Clouds 16 1020 63 10000 4.6 30 09:36 19.01.2020
318 Clouds 16 1020 63 10000 4.6 30 09:18 19.01.2020
319 Clouds 16 1020 63 10000 4.6 20 08:44 19.01.2020
320 Clouds 15 1020 72 10000 4.1 20 08:26 19.01.2020
321 Clouds 15 1021 67 10000 4.6 30 07:42 19.01.2020
322 Clouds 15 1021 67 10000 4.6 30 07:22 19.01.2020
323 Clouds 15 1021 67 10000 4.6 30 07:22 19.01.2020
324 Clouds 15 1021 72 10000 4.6 30 06:51 19.01.2020
325 Clouds 14 1023 76 10000 4.1 30 05:41 19.01.2020
326 Clouds 14 1022 82 10000 4.6 30 02:44 19.01.2020
327 Clouds 14 1022 82 10000 4.6 30 02:21 19.01.2020
328 Clouds 14 1021 87 10000 5.1 30 01:25 19.01.2020
329 Clouds 14 1021 87 10000 5.1 30 01:25 19.01.2020
330 Clouds 14 1020 87 10000 3.6 30 00:46 19.01.2020
331 Clouds 14 1019 87 10000 4.1 30 00:28 19.01.2020
332 Clouds 14 1019 87 10000 4.1 30 23:56 18.01.2020
333 Clouds 14 1019 87 10000 3.6 40 23:38 18.01.2020
334 Clouds 14 1019 87 10000 3.6 40 23:19 18.01.2020
335 Clouds 14 1019 93 10000 3.6 30 22:55 18.01.2020
336 Clouds 14 1018 93 10000 2.6 10 22:36 18.01.2020
337 Clouds 14 1018 93 10000 2.6 10 22:18 18.01.2020
338 Clouds 15 1018 87 9000 4.1 20 21:56 18.01.2020
339 Clouds 15 1018 87 9000 3.6 30 21:37 18.01.2020
340 Clouds 15 1018 87 9000 3.6 30 21:18 18.01.2020
341 Clouds 15 1018 87 8000 3.6 40 20:42 18.01.2020
342 Clouds 15 1018 93 7000 3.1 40 20:21 18.01.2020
343 Mist 15 1018 93 5000 2.6 50 19:55 18.01.2020
344 Mist 15 1018 93 5000 2.6 40 19:37 18.01.2020
345 Mist 15 1018 93 5000 2.6 40 19:19 18.01.2020
346 Drizzle 15 1019 93 3800 3.1 40 18:41 18.01.2020
347 Drizzle 15 1019 93 3800 3.1 40 18:21 18.01.2020
348 Mist 15 1019 93 4200 2.6 40 17:41 18.01.2020
349 Mist 15 1019 93 4200 2.6 40 17:21 18.01.2020
350 Rain 15 1019 93 4000 2.6 40 16:59 18.01.2020
351 Rain 15 1018 93 3700 2.6 40 16:41 18.01.2020
352 Rain 15 1018 93 3700 2.6 40 16:22 18.01.2020
353 Drizzle 15 1018 87 3500 2.1 40 15:57 18.01.2020
354 Mist 15 1018 87 5000 2.6 30 15:39 18.01.2020
355 Mist 15 1018 87 5000 2.6 30 15:20 18.01.2020
356 Mist 15 1017 87 5000 2.1 40 14:42 18.01.2020
357 Mist 15 1017 87 5000 2.1 40 14:20 18.01.2020
358 Mist 15 1017 87 5000 2.1 40 13:58 18.01.2020
359 Mist 15 1017 87 5000 3.1 60 13:39 18.01.2020
360 Mist 15 1017 87 5000 3.1 60 13:20 18.01.2020
361 Mist 15 1016 93 5000 3.1 50 12:43 18.01.2020
362 Mist 15 1016 93 4700 3.1 60 12:22 18.01.2020
363 Mist 15 1016 93 4700 3.1 60 12:22 18.01.2020
364 Mist 15 1016 93 2900 3.1 70 11:58 18.01.2020
365 Mist 15 1016 93 1800 2.6 50 11:40 18.01.2020
366 Mist 15 1016 93 1800 2.6 50 11:20 18.01.2020
367 Drizzle 15 1016 93 1700 3.1 50 10:43 18.01.2020
368 Drizzle 15 1016 93 1900 3.1 40 10:22 18.01.2020
369 Mist 15 1016 93 2600 3.6 40 09:56 18.01.2020
370 Mist 15 1016 93 2600 3.6 40 09:38 18.01.2020
371 Mist 15 1016 93 2600 3.6 40 09:18 18.01.2020
372 Mist 15 1016 93 5000 3.1 50 08:42 18.01.2020
373 Mist 15 1016 93 5000 3.1 50 08:20 18.01.2020
374 Clouds 15 1017 87 6000 3.6 50 07:56 18.01.2020
375 Clouds 15 1017 87 6000 3.1 50 07:37 18.01.2020
376 Mist 15 1018 87 4600 2.6 40 06:50 18.01.2020
377 Mist 15 1018 87 4500 3.1 40 06:22 18.01.2020
378 Mist 15 1019 87 5000 3.1 30 05:45 18.01.2020
379 Mist 15 1020 87 4000 3.1 50 04:19 18.01.2020
380 Drizzle 14 1019 93 4000 3.1 50 02:33 18.01.2020
381 Drizzle 14 1019 93 4500 3.6 50 01:36 18.01.2020
382 Drizzle 14 1018 93 5000 3.1 50 00:39 18.01.2020
383 Drizzle 14 1018 93 5000 3.1 50 00:19 18.01.2020
384 Drizzle 14 1018 93 6000 3.1 50 23:45 17.01.2020
385 Drizzle 14 1018 93 4700 2.6 50 23:21 17.01.2020
386 Drizzle 14 1018 93 3800 3.1 50 22:59 17.01.2020
387 Drizzle 14 1018 93 4500 3.1 50 22:40 17.01.2020
388 Drizzle 14 1018 93 4500 3.1 50 22:19 17.01.2020
389 Rain 14 1017 93 3500 3.6 60 21:42 17.01.2020
390 Rain 14 1017 93 3500 3.6 60 21:24 17.01.2020
391 Mist 14 1018 93 4100 3.6 50 20:59 17.01.2020
392 Mist 14 1018 93 4600 3.1 40 20:41 17.01.2020
393 Mist 14 1018 93 4600 3.1 40 20:20 17.01.2020
394 Mist 14 1018 93 4600 3.1 40 20:20 17.01.2020
395 Mist 14 1019 93 4700 2.6 50 19:57 17.01.2020
396 Mist 14 1019 93 4600 2.6 50 19:38 17.01.2020
397 Mist 14 1019 93 4600 2.6 50 19:19 17.01.2020
398 Mist 14 1019 93 4200 3.1 50 18:57 17.01.2020
399 Mist 14 1019 93 3700 2.6 50 18:37 17.01.2020
400 Mist 14 1019 93 3700 2.6 50 18:19 17.01.2020
401 Mist 14 1020 93 4800 3.1 40 17:39 17.01.2020
402 Mist 14 1020 93 4800 3.1 40 17:21 17.01.2020
403 Mist 15 1020 87 5000 3.1 40 16:44 17.01.2020
404 Clouds 15 1020 87 7000 3.1 50 16:21 17.01.2020
405 Clouds 15 1020 87 6000 2.6 40 15:58 17.01.2020
406 Clouds 15 1020 87 6000 2.6 40 15:58 17.01.2020
407 Clouds 15 1020 82 6000 2.6 40 15:40 17.01.2020
408 Clouds 15 1020 82 6000 2.6 40 15:22 17.01.2020
409 Clouds 15 1020 82 6000 3.1 40 14:43 17.01.2020
410 Clouds 15 1019 82 6000 2.6 40 14:25 17.01.2020
411 Clouds 15 1019 82 6000 3.1 40 13:46 17.01.2020
412 Clouds 15 1019 82 7000 3.6 40 13:23 17.01.2020
413 Clouds 15 1018 82 7000 3.6 40 12:48 17.01.2020
414 Clouds 15 1018 82 7000 3.1 30 12:23 17.01.2020
415 Mist 15 1018 82 5000 3.1 30 11:44 17.01.2020
416 Mist 16 1018 77 5000 3.1 30 11:20 17.01.2020
417 Mist 16 1018 77 5000 3.1 30 11:20 17.01.2020
418 Mist 16 1018 77 5000 3.1 30 11:20 17.01.2020
419 Clouds 16 1018 77 7000 4.1 60 10:58 17.01.2020
420 Clouds 16 1018 77 9000 4.1 50 10:40 17.01.2020
421 Clouds 16 1018 77 9000 4.1 50 10:21 17.01.2020
422 Clouds 16 1017 77 9000 4.1 40 09:56 17.01.2020
423 Clouds 16 1018 72 8000 4.1 50 09:37 17.01.2020
424 Clouds 16 1018 72 8000 4.1 50 09:18 17.01.2020
425 Clouds 16 1018 77 9000 3.6 30 08:42 17.01.2020
426 Clouds 16 1018 77 9000 3.6 30 08:23 17.01.2020
427 Clouds 16 1019 77 9000 4.6 40 07:49 17.01.2020
428 Clouds 16 1019 77 9000 3.6 30 07:30 17.01.2020
429 Clouds 16 1020 72 10000 5.7 40 06:56 17.01.2020
430 Clouds 16 1021 72 10000 5.1 50 06:37 17.01.2020
431 Clouds 15 1021 75 0 3.4 27 05:22 17.01.2020
432 Clouds 15 1021 75 0 3.4 27 03:38 17.01.2020
433 Clouds 15 1021 75 0 3.4 27 02:43 17.01.2020
434 Rain 14 1019 82 0 4.09 31 01:45 17.01.2020
435 Rain 14 1019 82 0 4.09 31 01:27 17.01.2020
436 Clouds 15 1019 77 0 4.23 34 00:43 17.01.2020
437 Clouds 17 1018 72 10000 6.7 50 00:19 17.01.2020
438 Clouds 17 1018 72 10000 6.7 50 23:41 16.01.2020
439 Clouds 17 1018 72 10000 6.7 50 23:23 16.01.2020
440 Clouds 17 1017 72 10000 6.2 50 22:43 16.01.2020
441 Clouds 17 1017 72 10000 6.2 50 22:22 16.01.2020
442 Clouds 17 1017 72 10000 6.2 50 22:22 16.01.2020
443 Clouds 17 1017 72 10000 5.7 60 21:57 16.01.2020
444 Clouds 17 1017 72 10000 6.7 50 21:38 16.01.2020
445 Clouds 17 1017 72 10000 6.7 50 21:38 16.01.2020
446 Clouds 17 1017 72 10000 6.7 50 21:19 16.01.2020
447 -273 0 0 0 0 0 20:58 16.01.2020
448 Clouds 18 1018 72 10000 6.2 50 20:39 16.01.2020
449 Clouds 18 1018 72 10000 6.2 50 20:19 16.01.2020
450 Clouds 18 1018 72 10000 5.7 50 19:56 16.01.2020
451 Clouds 18 1018 72 10000 6.2 50 19:37 16.01.2020
452 Clouds 18 1018 72 10000 6.2 50 19:19 16.01.2020
453 Clouds 18 1018 72 10000 6.7 60 18:55 16.01.2020
454 Clouds 18 1018 72 10000 5.1 50 18:37 16.01.2020
455 Clouds 18 1018 72 10000 5.1 50 18:18 16.01.2020
456 Clouds 19 1018 77 10000 6.2 60 17:42 16.01.2020
457 Clouds 19 1018 77 10000 6.2 60 17:23 16.01.2020
458 Clouds 19 1018 77 10000 6.2 60 16:57 16.01.2020
459 Rain 19 1018 77 10000 5.1 50 16:38 16.01.2020
460 Rain 19 1018 77 10000 5.1 50 16:19 16.01.2020
461 Rain 19 1018 77 10000 5.1 50 16:19 16.01.2020
462 Clouds 21 1017 73 10000 6.2 70 15:44 16.01.2020
463 Clouds 21 1017 73 10000 6.2 70 15:22 16.01.2020
464 Clouds 22 1017 83 8000 4.6 100 14:57 16.01.2020
465 Clouds 22 1016 83 8000 5.1 110 14:38 16.01.2020
466 Clouds 22 1016 83 8000 5.1 110 14:20 16.01.2020
467 Rain 23 1016 78 8000 4.1 130 13:44 16.01.2020
468 Clouds 23 1015 78 8000 4.6 130 13:25 16.01.2020
469 Rain 24 1015 73 10000 5.7 130 12:46 16.01.2020
470 Rain 24 1014 73 9000 4.6 130 12:28 16.01.2020
471 Clouds 25 1013 69 10000 5.1 130 11:58 16.01.2020
472 Clouds 25 1013 69 10000 5.1 120 11:39 16.01.2020
473 Clouds 25 1013 69 10000 5.1 120 11:21 16.01.2020
474 Clouds 26 1013 61 10000 5.1 110 10:40 16.01.2020
475 Clouds 26 1013 61 10000 5.1 110 10:21 16.01.2020
476 Clouds 26 1013 65 10000 5.1 110 09:58 16.01.2020
477 Clouds 26 1013 65 10000 4.1 110 09:40 16.01.2020
478 Clouds 26 1013 65 10000 4.1 110 09:22 16.01.2020
479 Clouds 26 1013 65 10000 4.1 110 08:53 16.01.2020
480 Clouds 26 1013 65 10000 4.1 120 08:35 16.01.2020
481 Clouds 26 1014 69 10000 3.1 100 07:59 16.01.2020
482 Clouds 25 1014 73 10000 3.1 110 07:39 16.01.2020
483 Clouds 25 1015 69 10000 4.1 90 07:21 16.01.2020
484 Clouds 25 1015 69 10000 4.1 90 06:43 16.01.2020
485 Clouds 26 1016 69 10000 4.6 100 06:21 16.01.2020
486 Clouds 24 1017 73 7000 3.6 80 05:45 16.01.2020
487 Rain 22 1017 83 7000 3.1 70 04:40 16.01.2020
488 Clouds 22 1017 83 8000 4.1 120 03:28 16.01.2020
489 Clouds 22 1016 83 8000 4.1 100 02:43 16.01.2020
490 Clouds 21 1015 88 8000 3.1 110 00:54 16.01.2020
491 Clouds 21 1014 88 7000 3.6 110 00:24 16.01.2020
492 Clouds 21 1014 88 6000 3.6 120 23:50 15.01.2020
493 Clouds 21 1013 88 8000 4.1 130 23:23 15.01.2020
494 Clouds 21 1013 88 9000 3.6 120 22:58 15.01.2020
495 Clouds 22 1013 83 9000 3.6 120 22:40 15.01.2020
496 Clouds 22 1013 83 9000 3.6 120 22:19 15.01.2020
497 Clouds 22 1013 83 9000 4.6 120 21:58 15.01.2020
498 Clouds 22 1013 83 10000 4.6 110 21:39 15.01.2020
499 Clouds 22 1013 83 10000 4.6 110 21:20 15.01.2020
500 Clouds 22 1013 83 10000 5.1 120 20:58 15.01.2020
501 Clouds 22 1013 83 10000 5.1 110 20:40 15.01.2020
502 Clouds 22 1013 83 10000 5.1 110 20:20 15.01.2020
503 Clouds 22 1013 83 10000 5.1 110 19:55 15.01.2020
504 Clouds 22 1013 83 10000 5.1 120 19:37 15.01.2020
505 Clouds 22 1013 83 10000 5.1 120 19:19 15.01.2020
506 Clouds 22 1013 83 10000 5.7 130 18:57 15.01.2020
507 Clouds 22 1013 83 10000 5.7 110 18:38 15.01.2020
508 Clouds 22 1013 83 10000 5.7 110 18:20 15.01.2020
509 Clouds 22 1013 83 10000 4.1 100 17:58 15.01.2020
510 Clouds 22 1013 83 10000 4.6 110 17:38 15.01.2020
511 Clouds 22 1013 83 10000 4.6 110 17:19 15.01.2020
512 Clouds 23 1013 78 10000 4.1 130 16:41 15.01.2020
513 Clouds 23 1013 78 10000 4.1 130 16:41 15.01.2020
514 Clouds 23 1013 78 10000 4.1 130 16:22 15.01.2020
515 Clouds 23 1013 78 10000 4.1 120 15:58 15.01.2020
516 Clouds 22 1013 78 10000 4.6 120 15:39 15.01.2020
517 Clouds 22 1013 78 10000 4.6 120 15:20 15.01.2020
518 Clouds 23 1013 73 10000 4.6 120 14:43 15.01.2020
519 Clouds 23 1012 73 10000 5.1 140 14:20 15.01.2020
520 Clouds 23 1012 73 10000 5.1 130 13:46 15.01.2020
521 Clouds 24 1012 69 10000 5.1 130 13:27 15.01.2020
522 Clouds 24 1011 69 10000 5.1 130 12:59 15.01.2020
523 Clouds 24 1011 69 10000 4.6 140 12:40 15.01.2020
524 Clouds 24 1011 69 10000 4.6 140 12:20 15.01.2020
525 Clouds 25 1011 65 10000 6.2 150 11:58 15.01.2020
526 Clouds 25 1011 65 10000 6.7 150 11:37 15.01.2020
527 Clouds 25 1011 65 10000 6.7 150 11:19 15.01.2020
528 Clouds 25 1011 65 10000 6.2 150 10:46 15.01.2020
529 Clouds 25 1010 65 10000 6.2 150 10:27 15.01.2020
530 Clouds 25 1010 65 10000 6.2 150 09:46 15.01.2020
531 Clouds 26 1011 61 10000 6.2 150 09:26 15.01.2020
532 Clouds 26 1011 61 10000 7.2 160 08:59 15.01.2020
533 Clouds 26 1011 61 10000 7.2 160 08:59 15.01.2020
534 Clouds 27 1012 61 10000 7.2 160 08:41 15.01.2020
535 Clouds 27 1012 61 10000 7.2 160 08:22 15.01.2020
536 Clouds 27 1012 61 10000 7.2 160 07:52 15.01.2020
537 Clouds 26 1012 65 10000 6.2 160 07:32 15.01.2020
538 Clouds 25 1013 69 10000 6.7 150 06:46 15.01.2020
539 Clouds 25 1014 73 10000 6.2 150 06:20 15.01.2020
540 Clouds 24 1015 78 10000 5.7 160 04:44 15.01.2020
541 Clouds 21 1015 88 6000 4.6 130 02:38 15.01.2020
542 Clouds 21 1014 88 7000 4.1 130 01:28 15.01.2020
543 Clouds 21 1014 88 9000 4.1 120 00:46 15.01.2020
544 Clouds 21 1014 88 7000 3.1 120 00:27 15.01.2020
545 Clouds 21 1013 88 7000 4.1 120 23:56 14.01.2020
546 Clouds 21 1013 94 6000 3.6 110 23:38 14.01.2020
547 Clouds 21 1013 94 6000 3.6 110 23:19 14.01.2020
548 Mist 20 1013 94 2900 3.1 100 22:41 14.01.2020
549 Mist 20 1013 94 2900 3.1 100 22:19 14.01.2020
550 Mist 20 1013 94 2500 3.6 100 21:58 14.01.2020
551 Mist 20 1013 94 2500 3.6 100 21:58 14.01.2020
552 Mist 20 1013 94 1900 3.6 100 21:40 14.01.2020
553 Mist 20 1013 94 1900 3.6 100 21:21 14.01.2020
554 Mist 20 1013 94 2300 4.1 120 20:58 14.01.2020
555 Mist 20 1013 94 2500 2.6 110 20:40 14.01.2020
556 Mist 20 1013 94 2500 2.6 110 20:19 14.01.2020
557 Mist 20 1013 94 2500 2.6 110 19:56 14.01.2020
558 Mist 21 1014 88 3300 3.1 100 19:37 14.01.2020
559 Mist 21 1014 88 3300 3.1 100 19:18 14.01.2020
560 Mist 20 1014 94 3400 3.6 110 18:41 14.01.2020
561 Mist 20 1014 94 3400 3.6 110 18:21 14.01.2020
562 Mist 20 1014 94 3400 3.6 110 17:59 14.01.2020
563 Mist 20 1014 94 2600 2.6 120 17:37 14.01.2020
564 Mist 20 1014 94 2600 2.6 120 17:19 14.01.2020
565 Mist 20 1014 88 2500 1 0 16:55 14.01.2020
566 Mist 19 1014 93 2400 1.5 100 16:37 14.01.2020
567 Mist 19 1014 93 2400 1.5 100 16:18 14.01.2020
568 Mist 20 1014 88 2700 1 100 15:42 14.01.2020
569 Mist 20 1014 88 2700 1 100 15:19 14.01.2020
570 Mist 20 1014 88 2800 0.5 0 14:47 14.01.2020
571 Mist 20 1014 88 2800 0.5 0 14:23 14.01.2020
572 Mist 20 1014 88 3000 1 0 13:59 14.01.2020
573 Mist 20 1014 88 3000 1 0 13:59 14.01.2020
574 Mist 20 1013 88 3000 1 0 13:40 14.01.2020
575 Mist 20 1013 88 3000 1 0 13:19 14.01.2020
576 Mist 21 1013 83 3100 1 300 12:42 14.01.2020
577 Mist 21 1013 83 3100 1 300 12:23 14.01.2020
578 Mist 21 1013 83 2100 1 0 11:57 14.01.2020
579 Mist 21 1012 83 1800 1.5 330 11:38 14.01.2020
580 Mist 21 1012 83 1800 1.5 330 11:20 14.01.2020
581 Mist 21 1012 77 1900 1.5 330 10:55 14.01.2020
582 Mist 21 1013 77 1900 1.5 210 10:36 14.01.2020
583 Mist 21 1013 77 1900 1.5 210 10:18 14.01.2020
584 Mist 21 1013 77 1900 1.5 210 10:18 14.01.2020
585 Mist 22 1013 78 1900 1.5 0 09:42 14.01.2020
586 Mist 22 1013 78 1900 1.5 0 09:21 14.01.2020
587 Mist 21 1013 77 1900 1.5 280 08:57 14.01.2020
588 Mist 21 1013 83 1900 2.1 240 08:39 14.01.2020
589 Mist 21 1013 83 1900 2.1 240 08:20 14.01.2020
590 Mist 21 1014 83 1700 2.6 260 07:38 14.01.2020
591 Mist 21 1015 83 1500 2.1 280 06:59 14.01.2020
592 Mist 20 1015 82 1300 1.5 290 06:40 14.01.2020
593 Mist 19 1017 88 1300 2.1 290 05:33 14.01.2020
594 Mist 19 1017 88 1500 1.5 300 04:22 14.01.2020
595 Mist 18 1017 93 1800 1 0 03:35 14.01.2020
596 Mist 18 1016 93 1300 1 0 02:26 14.01.2020
597 Mist 18 1016 88 1700 1 50 01:18 14.01.2020
598 Mist 18 1015 88 2400 1.5 80 00:39 14.01.2020
599 Mist 18 1015 88 2600 1 0 23:59 13.01.2020
600 Mist 18 1014 88 2800 1 70 23:37 13.01.2020
601 Mist 18 1014 88 2800 1 70 23:18 13.01.2020
602 Mist 18 1014 88 2900 0.5 60 22:45 13.01.2020
603 Mist 17 1014 93 2900 0.5 0 22:22 13.01.2020
604 Mist 17 1014 93 3000 1 50 21:58 13.01.2020
605 Mist 18 1015 88 3300 0.5 0 21:39 13.01.2020
606 Mist 18 1015 88 3300 0.5 0 21:19 13.01.2020
607 Mist 18 1015 88 4100 1 0 20:59 13.01.2020
608 Mist 18 1015 88 4200 0.5 0 20:41 13.01.2020
609 Mist 18 1015 88 4200 0.5 0 20:22 13.01.2020
610 Mist 18 1015 88 4200 0.5 0 20:22 13.01.2020
611 Mist 18 1015 88 4200 0.5 0 20:22 13.01.2020
612 Mist 18 1015 88 4100 1.5 70 19:59 13.01.2020
613 Mist 17 1015 93 4400 1.5 80 19:40 13.01.2020
614 Mist 17 1015 93 4400 1.5 80 19:20 13.01.2020
615 Mist 17 1015 93 4400 2.1 90 18:57 13.01.2020
616 Mist 18 1015 88 4500 1.5 80 18:37 13.01.2020
617 Mist 18 1015 88 4500 1.5 80 18:37 13.01.2020
618 Mist 18 1015 88 4500 1.5 80 18:19 13.01.2020
619 Mist 18 1016 88 5000 1 0 17:44 13.01.2020
620 Mist 17 1016 93 4100 1.5 350 17:25 13.01.2020
621 Clouds 20 1016 87 0 2.82 117 16:58 13.01.2020
622 Clouds 20 1016 87 0 2.82 117 16:38 13.01.2020
623 Clouds 20 1016 87 0 2.82 117 16:20 13.01.2020
624 Clouds 20 1016 87 0 2.82 117 15:54 13.01.2020
625 Clouds 20 1016 87 0 2.82 117 15:36 13.01.2020
626 Clouds 20 1016 87 0 2.82 117 15:18 13.01.2020
627 Clouds 20 1016 87 0 2.82 117 14:40 13.01.2020
628 Clouds 20 1014 84 0 3.33 122 14:22 13.01.2020
629 Clouds 20 1014 84 0 3.33 122 13:56 13.01.2020
630 Clouds 20 1014 84 0 3.33 122 13:56 13.01.2020
631 Clouds 20 1014 84 0 3.33 122 13:37 13.01.2020
632 Clouds 20 1014 81 0 3.38 126 13:19 13.01.2020
633 Mist 18 1014 82 3800 1 0 12:43 13.01.2020
634 Mist 18 1014 82 3800 1 0 12:23 13.01.2020
635 Mist 18 1014 82 3800 1 0 12:23 13.01.2020
636 Mist 18 1014 82 3800 1 0 11:58 13.01.2020
637 Mist 17 1014 82 3400 1 0 11:38 13.01.2020
638 Mist 17 1014 82 3400 1 0 11:38 13.01.2020
639 Mist 17 1014 82 3400 1 0 11:19 13.01.2020
640 Mist 17 1013 88 3200 1.5 10 10:56 13.01.2020
641 Mist 17 1014 88 3800 1 0 10:38 13.01.2020
642 Mist 17 1014 88 3800 1 0 10:19 13.01.2020
643 Mist 17 1013 88 3600 1.5 70 09:44 13.01.2020
644 Mist 17 1013 88 4200 1.5 70 09:24 13.01.2020
645 Mist 17 1014 88 3500 1.5 50 08:57 13.01.2020
646 Mist 17 1014 88 3500 1.5 50 08:57 13.01.2020
647 Mist 17 1014 88 3400 1.5 50 08:37 13.01.2020
648 Mist 17 1014 88 3400 1.5 50 08:18 13.01.2020
649 Mist 16 1015 93 2800 2.1 50 07:43 13.01.2020
650 Mist 16 1015 93 2700 2.1 50 07:24 13.01.2020
651 Drizzle 16 1016 87 2000 1 0 06:37 13.01.2020
652 Drizzle 16 1016 87 2000 1 0 06:37 13.01.2020
653 Drizzle 16 1018 93 1700 1.5 50 05:37 13.01.2020
654 Drizzle 16 1018 93 1700 1.5 50 05:37 13.01.2020
655 Drizzle 16 1018 93 1700 1.5 50 05:18 13.01.2020
656 Drizzle 15 1018 93 1200 0.5 0 03:41 13.01.2020
657 Drizzle 15 1017 93 1700 1 0 02:50 13.01.2020
658 Drizzle 15 1017 93 1600 1.5 60 02:30 13.01.2020
659 Drizzle 15 1017 93 1600 1.5 60 02:30 13.01.2020
660 Drizzle 15 1017 87 2900 2.6 40 01:33 13.01.2020
661 Mist 15 1016 87 5000 2.1 50 00:44 13.01.2020
662 Mist 15 1016 87 5000 1.5 50 00:26 13.01.2020
663 Clouds 15 1016 87 7000 2.6 40 23:57 12.01.2020
664 Clouds 16 1016 77 8000 3.1 40 23:39 12.01.2020
665 Clouds 16 1016 77 8000 3.1 40 23:21 12.01.2020
666 Clouds 16 1016 77 9000 2.6 50 22:45 12.01.2020
667 Clouds 16 1016 77 10000 1.5 30 22:27 12.01.2020
668 Clouds 16 1016 77 10000 1 0 21:59 12.01.2020
669 Clouds 16 1016 77 10000 1 360 21:40 12.01.2020
670 Clouds 16 1016 77 10000 1 360 21:20 12.01.2020
671 Clouds 17 1016 72 10000 1.5 360 20:58 12.01.2020
672 Clouds 17 1016 72 10000 1.5 360 20:39 12.01.2020
673 Clouds 17 1016 72 10000 1.5 360 20:21 12.01.2020
674 Clouds 17 1016 77 10000 1 0 19:56 12.01.2020
675 Clouds 17 1016 77 10000 1 0 19:56 12.01.2020
676 Clouds 17 1016 77 10000 1 0 19:56 12.01.2020
677 Clouds 17 1016 72 10000 1 0 19:38 12.01.2020
678 Clouds 17 1016 72 10000 1 0 19:38 12.01.2020
679 Clouds 17 1016 72 10000 1 0 19:19 12.01.2020
680 Clouds 17 1017 72 9000 1 50 18:58 12.01.2020
681 Clouds 17 1017 72 9000 1 50 18:58 12.01.2020
682 Clouds 17 1017 72 8000 1 0 18:40 12.01.2020
683 Clouds 17 1017 72 8000 1 0 18:40 12.01.2020
684 Clouds 17 1017 72 8000 1 0 18:21 12.01.2020
685 Clouds 17 1017 67 9000 1.5 120 17:58 12.01.2020
686 Clouds 17 1017 67 8000 2.1 100 17:38 12.01.2020
687 Clouds 17 1017 67 8000 2.1 100 17:19 12.01.2020
688 Clouds 17 1017 67 9000 1.5 90 16:55 12.01.2020
689 Clouds 17 1017 72 9000 1.5 70 16:37 12.01.2020
690 Clouds 17 1017 72 9000 1.5 70 16:18 12.01.2020
691 Clouds 17 1017 67 10000 1 0 15:42 12.01.2020
692 Clouds 17 1017 67 10000 1 0 15:24 12.01.2020
693 Clouds 17 1017 67 10000 2.1 110 14:57 12.01.2020
694 Clouds 17 1016 67 10000 2.1 90 14:38 12.01.2020
695 Clouds 17 1016 67 10000 2.1 90 14:19 12.01.2020
696 Clouds 17 1016 63 10000 2.1 120 13:43 12.01.2020
697 Clouds 17 1016 63 10000 2.1 150 13:24 12.01.2020
698 Clouds 17 1016 67 10000 1.5 100 12:58 12.01.2020
699 Clouds 17 1016 67 10000 1.5 90 12:38 12.01.2020
700 Clouds 17 1016 67 10000 1.5 90 12:20 12.01.2020
701 Clouds 17 1016 67 10000 1.5 80 11:57 12.01.2020
702 Clouds 17 1016 67 10000 1.5 70 11:38 12.01.2020
703 Clouds 17 1016 67 10000 1.5 70 11:19 12.01.2020
704 Clouds 18 1015 59 10000 2.1 90 10:41 12.01.2020
705 Clouds 18 1015 59 10000 2.1 90 10:21 12.01.2020
706 Clouds 18 1015 59 10000 2.1 80 09:56 12.01.2020
707 Clouds 18 1015 59 10000 2.6 80 09:38 12.01.2020
708 Clouds 18 1015 59 10000 2.6 80 09:18 12.01.2020
709 Clouds 18 1016 55 10000 2.6 50 08:42 12.01.2020
710 Clouds 18 1016 55 10000 2.6 50 08:19 12.01.2020
711 Clouds 18 1017 55 10000 3.6 40 07:40 12.01.2020
712 Clouds 18 1017 55 10000 3.6 40 07:21 12.01.2020
713 Clouds 18 1019 55 10000 3.6 10 06:43 12.01.2020
714 Clouds 18 1019 55 10000 3.6 10 06:19 12.01.2020
715 Clouds 16 1021 63 10000 3.6 360 05:23 12.01.2020
716 Clouds 16 1021 67 10000 3.6 10 03:47 12.01.2020
717 Clouds 16 1021 67 10000 3.1 360 03:22 12.01.2020
718 Clouds 15 1020 72 10000 3.1 10 02:30 12.01.2020
719 Clouds 15 1019 77 10000 2.6 20 01:42 12.01.2020
720 Clouds 15 1019 77 10000 2.6 20 01:21 12.01.2020
721 Clouds 15 1019 77 10000 2.6 20 01:21 12.01.2020
722 Clouds 15 1019 72 10000 3.6 10 00:40 12.01.2020
723 Clouds 15 1019 72 10000 3.6 10 00:19 12.01.2020
724 Clouds 15 1018 72 10000 4.6 10 23:42 11.01.2020
725 Clouds 15 1018 72 10000 4.6 10 23:19 11.01.2020
726 Clouds 15 1018 77 10000 2.6 30 22:57 11.01.2020
727 Rain 15 1018 77 10000 4.1 40 22:39 11.01.2020
728 Rain 15 1018 77 10000 4.1 40 22:20 11.01.2020
729 Rain 15 1018 77 10000 3.6 30 21:54 11.01.2020
730 Clouds 15 1018 77 10000 3.6 20 21:36 11.01.2020
731 Clouds 15 1018 77 10000 3.6 20 21:18 11.01.2020
732 Rain 14 1018 82 10000 4.6 30 20:40 11.01.2020
733 Rain 14 1018 82 10000 4.6 30 20:20 11.01.2020
734 Clouds 15 1017 77 10000 5.7 40 19:58 11.01.2020
735 Clouds 14 1018 82 10000 5.1 10 19:38 11.01.2020
736 Clouds 14 1018 82 10000 5.1 10 19:38 11.01.2020
737 Clouds 14 1018 82 10000 5.1 10 19:20 11.01.2020
738 Rain 14 1018 82 10000 4.6 20 18:56 11.01.2020
739 Clouds 17 1017 63 10000 3.6 40 18:37 11.01.2020
740 Clouds 17 1017 63 10000 3.6 40 18:19 11.01.2020
741 Clouds 17 1017 63 10000 3.6 40 17:57 11.01.2020
742 Clouds 17 1017 67 10000 3.1 50 17:39 11.01.2020
743 Clouds 17 1017 67 10000 3.1 50 17:18 11.01.2020
744 Clouds 17 1017 63 10000 4.1 50 16:44 11.01.2020
745 Clouds 17 1016 63 10000 5.7 50 16:25 11.01.2020
746 Clouds 17 1016 67 10000 6.2 50 15:56 11.01.2020
747 Clouds 17 1016 67 10000 7.2 50 15:38 11.01.2020
748 Clouds 17 1016 67 10000 7.2 50 15:19 11.01.2020
749 Clouds 17 1016 67 10000 6.2 50 14:46 11.01.2020
750 Clouds 18 1016 68 10000 6.7 50 14:25 11.01.2020
751 Clouds 18 1015 68 10000 7.2 50 13:57 11.01.2020
752 Clouds 18 1015 72 10000 7.7 50 13:37 11.01.2020
753 Clouds 18 1015 72 10000 7.7 50 13:19 11.01.2020
754 Rain 18 1014 77 10000 7.2 50 12:44 11.01.2020
755 Rain 18 1014 77 10000 7.2 50 12:26 11.01.2020
756 Rain 19 1014 82 10000 6.7 50 11:56 11.01.2020
757 Rain 21 1013 73 7000 7.7 70 11:38 11.01.2020
758 Rain 21 1013 73 7000 7.7 70 11:18 11.01.2020
759 Clouds 23 1013 78 8000 4.6 70 10:44 11.01.2020
760 Clouds 23 1012 78 8000 5.1 80 10:24 11.01.2020
761 Clouds 23 1012 78 9000 5.1 70 09:42 11.01.2020
762 Clouds 23 1012 78 9000 5.1 70 09:21 11.01.2020
763 Clouds 24 1012 73 7000 5.1 80 08:43 11.01.2020
764 Clouds 24 1012 73 8000 5.7 80 08:23 11.01.2020
765 Clouds 25 1013 69 9000 4.6 90 07:45 11.01.2020
766 Clouds 25 1013 69 9000 4.6 90 07:26 11.01.2020
767 Clouds 26 1013 61 10000 3.6 130 06:56 11.01.2020
768 Clouds 26 1014 61 10000 3.6 160 06:28 11.01.2020
769 Clouds 25 1015 69 10000 3.1 130 04:49 11.01.2020
770 Clouds 24 1016 73 8000 3.6 120 04:30 11.01.2020
771 Mist 24 1016 78 5000 2.6 120 03:58 11.01.2020
772 Mist 22 1015 88 3000 3.6 110 02:43 11.01.2020
773 Mist 21 1014 94 2500 3.1 90 01:44 11.01.2020
774 Mist 21 1014 94 4000 3.1 110 01:21 11.01.2020
775 Mist 21 1014 94 4000 3.1 110 01:21 11.01.2020
776 Mist 21 1014 88 5000 2.6 100 00:47 11.01.2020
777 Clouds 21 1013 88 6000 2.6 100 00:20 11.01.2020
778 Clouds 21 1013 94 6000 3.1 130 23:41 10.01.2020
779 Clouds 21 1013 94 6000 3.1 130 23:22 10.01.2020
780 Clouds 21 1013 94 7000 3.6 130 22:59 10.01.2020
781 Clouds 21 1013 94 6000 3.6 130 22:40 10.01.2020
782 Clouds 21 1013 94 6000 3.6 130 22:21 10.01.2020
783 Mist 21 1013 94 5000 3.1 110 21:58 10.01.2020
784 Mist 21 1013 94 5000 4.1 130 21:39 10.01.2020
785 Mist 21 1013 94 5000 4.1 130 21:19 10.01.2020
786 Mist 21 1013 94 4200 4.1 120 20:55 10.01.2020
787 Mist 21 1013 94 3300 3.1 100 20:37 10.01.2020
788 Mist 21 1013 94 3300 3.1 100 20:18 10.01.2020
789 Mist 20 1013 94 4200 2.1 80 19:39 10.01.2020
790 Mist 20 1013 94 4200 2.1 80 19:20 10.01.2020
791 Mist 21 1013 88 4700 3.1 100 18:44 10.01.2020
792 Mist 21 1013 88 4700 2.1 80 18:20 10.01.2020
793 Clear 21 1013 88 8000 3.6 100 17:58 10.01.2020
794 Clear 21 1013 88 9000 3.6 110 17:39 10.01.2020
795 Clear 21 1013 88 9000 3.6 110 17:21 10.01.2020
796 Clear 22 1013 83 10000 4.1 120 16:59 10.01.2020
797 Clear 22 1013 83 10000 4.6 130 16:40 10.01.2020
798 Clear 22 1013 83 10000 4.6 130 16:21 10.01.2020
799 Clear 22 1013 83 10000 4.6 130 16:21 10.01.2020
800 Clear 23 1013 78 10000 4.6 130 15:56 10.01.2020
801 Clear 23 1013 78 10000 4.6 120 15:37 10.01.2020
802 Clear 23 1013 78 10000 4.6 120 15:18 10.01.2020
803 Clear 23 1013 78 10000 4.1 120 14:56 10.01.2020
804 Clear 24 1012 69 10000 4.1 120 14:38 10.01.2020
805 Clouds 24 1012 64 10000 4.6 130 14:18 10.01.2020
806 Clouds 25 1012 61 10000 3.1 130 13:44 10.01.2020
807 Clouds 25 1012 61 10000 3.1 130 13:26 10.01.2020
808 Clouds 26 1011 57 10000 3.6 130 12:59 10.01.2020
809 Clouds 26 1011 57 10000 3.1 140 12:39 10.01.2020
810 Clouds 26 1011 57 10000 3.1 140 12:21 10.01.2020
811 Clouds 27 1011 54 10000 4.1 150 11:56 10.01.2020
812 Clouds 27 1011 54 10000 4.6 160 11:38 10.01.2020
813 Clouds 27 1011 54 10000 4.6 160 11:38 10.01.2020
814 Clouds 27 1011 54 10000 4.6 160 11:18 10.01.2020
815 Clouds 28 1011 51 10000 5.7 140 10:58 10.01.2020
816 Clouds 27 1011 54 10000 5.7 160 10:36 10.01.2020
817 Clouds 27 1011 54 10000 5.7 160 10:18 10.01.2020
818 Clouds 28 1011 51 10000 5.1 160 09:43 10.01.2020
819 Clouds 28 1011 51 10000 5.7 150 09:24 10.01.2020
820 Clouds 27 1012 54 10000 4.1 170 08:43 10.01.2020
821 Clouds 27 1012 54 10000 4.1 170 08:24 10.01.2020
822 Clouds 27 1012 57 10000 4.1 160 07:48 10.01.2020
823 Clouds 28 1013 54 10000 4.1 170 07:30 10.01.2020
824 Clouds 27 1013 57 10000 4.6 160 06:56 10.01.2020
825 Clouds 27 1014 57 10000 4.6 160 06:27 10.01.2020
826 Clouds 26 1015 65 10000 4.6 170 05:59 10.01.2020
827 Clouds 25 1016 69 10000 4.6 160 03:50 10.01.2020
828 Clouds 24 1016 78 8000 4.6 140 03:31 10.01.2020
829 Clouds 24 1015 78 6000 3.6 130 02:51 10.01.2020
830 Mist 22 1015 88 3200 4.1 120 01:53 10.01.2020
831 Mist 22 1014 88 2600 3.6 130 01:29 10.01.2020
832 Mist 21 1014 94 3900 4.1 130 00:48 10.01.2020
833 Mist 21 1014 94 3600 3.1 110 00:30 10.01.2020
834 Mist 21 1013 94 4900 3.6 130 23:40 09.01.2020
835 Mist 21 1013 94 4900 3.6 130 23:21 09.01.2020
836 Mist 21 1013 94 4900 3.6 130 23:21 09.01.2020
837 Mist 22 1013 88 5000 3.1 140 22:58 09.01.2020
838 Clouds 22 1013 88 6000 3.6 130 22:39 09.01.2020
839 Clouds 22 1013 88 6000 3.6 130 22:19 09.01.2020
840 Clouds 22 1013 88 6000 3.6 130 22:19 09.01.2020
841 Clouds 22 1013 88 6000 3.1 120 21:57 09.01.2020
842 Clouds 22 1013 88 6000 3.1 120 21:57 09.01.2020
843 Clouds 22 1013 88 6000 3.1 140 21:39 09.01.2020
844 Clouds 22 1013 88 6000 3.1 140 21:20 09.01.2020
845 Clouds 22 1013 88 7000 3.1 140 20:58 09.01.2020
846 Clouds 22 1013 88 7000 3.1 140 20:39 09.01.2020
847 Clouds 22 1013 88 7000 4.1 130 20:20 09.01.2020
848 Clouds 22 1013 88 7000 4.1 130 20:20 09.01.2020
849 Clouds 22 1013 88 7000 4.1 130 19:59 09.01.2020
850 Clouds 22 1013 88 8000 4.1 140 19:39 09.01.2020
851 Clouds 22 1013 88 8000 4.1 140 19:20 09.01.2020
852 Clouds 22 1014 88 8000 4.1 140 18:56 09.01.2020
853 Clouds 22 1014 88 9000 4.1 140 18:38 09.01.2020
854 Clouds 22 1014 88 9000 4.1 140 18:20 09.01.2020
855 Clouds 23 1014 83 9000 4.1 150 17:41 09.01.2020
856 Clouds 23 1013 83 7000 3.6 130 17:19 09.01.2020
857 Clouds 22 1013 88 8000 4.1 120 16:56 09.01.2020
858 Clouds 23 1013 83 9000 4.1 130 16:37 09.01.2020
859 Clouds 23 1013 83 9000 4.1 130 16:19 09.01.2020
860 Clouds 23 1013 78 8000 4.6 130 15:41 09.01.2020
861 Clear 23 1014 83 7000 4.1 120 15:21 09.01.2020
862 Clear 23 1013 83 9000 4.6 120 14:55 09.01.2020
863 Clear 24 1013 78 9000 4.6 120 14:37 09.01.2020
864 Clouds 24 1013 78 9000 4.6 120 14:18 09.01.2020
865 Clouds 24 1013 78 10000 5.1 130 13:55 09.01.2020
866 Clouds 25 1013 73 10000 4.1 110 13:36 09.01.2020
867 Clouds 25 1013 73 10000 4.1 110 13:18 09.01.2020
868 Clouds 25 1013 73 10000 4.1 130 12:42 09.01.2020
869 Clouds 26 1012 65 10000 4.1 130 12:42 09.01.2020
870 Clouds 26 1012 65 10000 4.1 130 12:23 09.01.2020
871 Clouds 26 1012 65 10000 4.6 130 11:59 09.01.2020
872 Clouds 26 1012 65 10000 4.6 130 11:41 09.01.2020
873 Clouds 27 1012 57 10000 4.1 140 11:22 09.01.2020
874 Clouds 27 1012 57 10000 3.1 0 10:45 09.01.2020
875 Clouds 28 1012 54 10000 3.6 140 10:23 09.01.2020
876 Clouds 28 1012 54 10000 2.6 170 09:59 09.01.2020
877 Clouds 28 1012 54 10000 2.6 190 09:40 09.01.2020
878 Clouds 28 1012 54 10000 2.6 190 09:21 09.01.2020
879 Clouds 27 1013 57 10000 3.6 200 08:56 09.01.2020
880 Clouds 28 1013 54 10000 3.1 210 08:37 09.01.2020
881 Clouds 28 1013 54 10000 3.1 210 08:19 09.01.2020
882 Clouds 26 1014 65 9000 3.6 150 07:42 09.01.2020
883 Clouds 26 1014 65 9000 3.6 150 07:24 09.01.2020
884 Clouds 25 1017 69 6000 2.1 130 06:39 09.01.2020
885 Clouds 25 1017 69 6000 2.1 130 06:20 09.01.2020
886 Clouds 25 1017 69 6000 2.1 130 05:50 09.01.2020
887 Clouds 25 1017 69 6000 2.1 130 05:50 09.01.2020
888 Mist 23 1018 73 4700 3.1 100 04:44 09.01.2020
889 Mist 22 1018 78 4700 2.6 70 03:54 09.01.2020
890 Mist 21 1017 88 3500 2.6 70 02:54 09.01.2020
891 Mist 21 1017 88 3400 2.1 60 02:28 09.01.2020
892 Mist 21 1016 88 4400 2.1 70 01:39 09.01.2020
893 Mist 21 1016 88 5000 1.5 70 00:43 09.01.2020
894 Mist 21 1016 88 5000 1.5 70 00:21 09.01.2020
895 Clouds 21 1015 88 7000 1.5 80 23:44 08.01.2020
896 Clouds 21 1015 88 8000 1 90 23:25 08.01.2020
897 Clouds 21 1015 83 7000 1.5 70 22:59 08.01.2020
898 Clouds 21 1015 83 7000 2.1 80 22:39 08.01.2020
899 Clouds 21 1015 83 7000 2.1 80 22:20 08.01.2020
900 Clouds 21 1015 83 9000 2.6 80 21:57 08.01.2020
901 Clouds 21 1015 83 8000 2.6 80 21:38 08.01.2020
902 Clouds 21 1015 83 8000 2.6 80 21:19 08.01.2020
903 Clouds 21 1015 83 10000 2.6 100 20:58 08.01.2020
904 Clouds 22 1016 78 9000 3.1 130 20:38 08.01.2020
905 Clouds 22 1016 78 9000 3.1 130 20:20 08.01.2020
906 Clouds 22 1016 78 8000 3.6 130 19:56 08.01.2020
907 Clouds 22 1016 78 8000 3.6 130 19:56 08.01.2020
908 Clouds 22 1016 78 8000 3.6 140 19:36 08.01.2020
909 Clouds 22 1016 78 8000 3.6 140 19:36 08.01.2020
910 Clouds 22 1016 78 8000 3.6 140 19:18 08.01.2020
911 Clouds 22 1016 78 8000 3.1 140 18:55 08.01.2020
912 Clouds 22 1016 78 8000 3.1 140 18:55 08.01.2020
913 Clouds 22 1016 78 8000 3.1 140 18:55 08.01.2020
914 Clouds 22 1016 78 9000 4.1 130 18:36 08.01.2020
915 Clouds 22 1016 78 9000 4.1 130 18:18 08.01.2020
916 Clouds 21 1016 83 7000 2.6 150 17:45 08.01.2020
917 Clouds 21 1016 83 8000 4.1 150 17:24 08.01.2020
918 Clouds 21 1016 88 10000 3.6 140 16:57 08.01.2020
919 Clouds 22 1016 78 10000 2.6 0 16:39 08.01.2020
920 Clouds 22 1016 78 10000 2.6 0 16:19 08.01.2020
921 Clouds 22 1016 78 10000 2.6 0 16:19 08.01.2020
922 Clouds 22 1016 73 9000 4.1 150 15:56 08.01.2020
923 Clouds 22 1016 73 10000 4.1 140 15:38 08.01.2020
924 Clouds 22 1016 73 10000 4.1 140 15:18 08.01.2020
925 Clouds 23 1016 69 10000 4.1 130 14:41 08.01.2020
926 Clouds 23 1016 64 10000 3.1 120 14:21 08.01.2020
927 Clouds 23 1015 64 10000 4.1 130 13:56 08.01.2020
928 Clouds 24 1015 64 10000 5.1 130 13:37 08.01.2020
929 Clouds 24 1015 64 10000 5.1 130 13:18 08.01.2020
930 Clouds 25 1014 65 10000 5.1 140 12:40 08.01.2020
931 Clouds 25 1014 65 10000 5.1 140 12:18 08.01.2020
932 Clouds 25 1014 65 10000 6.7 130 11:48 08.01.2020
933 Clouds 26 1014 61 10000 7.2 130 11:20 08.01.2020
934 Clouds 26 1014 61 10000 6.2 140 10:59 08.01.2020
935 Clouds 28 1014 51 10000 4.1 170 10:40 08.01.2020
936 Clouds 28 1014 51 10000 4.1 170 10:21 08.01.2020
937 Clouds 28 1014 54 10000 5.1 150 09:43 08.01.2020
938 Clouds 28 1014 54 10000 4.6 160 09:20 08.01.2020
939 Clouds 28 1014 58 10000 4.6 160 08:59 08.01.2020
940 Clouds 28 1014 58 10000 4.6 160 08:41 08.01.2020
941 Clouds 28 1015 58 10000 4.6 150 08:22 08.01.2020
942 Clouds 27 1015 61 10000 4.6 160 07:52 08.01.2020
943 Clouds 27 1015 61 10000 4.6 160 07:52 08.01.2020
944 Clouds 27 1016 61 10000 4.1 150 07:34 08.01.2020
945 Clouds 27 1017 61 10000 3.6 150 06:58 08.01.2020
946 Clouds 26 1017 69 9000 3.6 120 06:40 08.01.2020
947 Clouds 26 1018 65 8000 4.1 140 05:55 08.01.2020
948 Clouds 25 1019 73 6000 2.6 130 05:25 08.01.2020
949 Clouds 24 1019 78 6000 3.1 110 04:36 08.01.2020
950 Mist 22 1019 88 3100 3.1 90 02:46 08.01.2020
951 Mist 21 1018 94 2800 3.1 90 02:28 08.01.2020
952 Mist 21 1018 94 2100 2.1 80 01:55 08.01.2020
953 Mist 21 1017 94 2200 1.5 70 01:29 08.01.2020
954 Mist 21 1017 94 3500 2.1 80 00:42 08.01.2020
955 Mist 21 1017 88 3900 2.1 80 00:21 08.01.2020
956 Mist 21 1017 88 3900 2.6 80 23:45 07.01.2020
957 Mist 21 1016 88 4100 2.6 80 23:20 07.01.2020
958 Mist 21 1016 88 4100 2.6 80 22:41 07.01.2020
959 Mist 21 1016 88 4100 2.6 80 22:21 07.01.2020
960 Clouds 21 1016 88 6000 2.6 80 21:58 07.01.2020
961 Clouds 21 1017 88 6000 1 0 21:40 07.01.2020
962 Clouds 21 1017 88 6000 1 0 21:21 07.01.2020
963 Clouds 21 1017 88 7000 1 0 20:57 07.01.2020
964 Clouds 21 1017 88 8000 2.1 90 20:38 07.01.2020
965 Clouds 21 1017 88 8000 2.1 90 20:20 07.01.2020
966 Clouds 22 1017 83 8000 1.5 90 19:56 07.01.2020
967 Clouds 22 1017 83 9000 2.1 120 19:37 07.01.2020
968 Clouds 22 1017 83 9000 2.1 120 19:18 07.01.2020
969 Clouds 22 1017 83 9000 2.1 120 19:18 07.01.2020
970 Clouds 22 1017 83 9000 2.1 150 18:55 07.01.2020
971 Clouds 22 1017 83 8000 3.1 150 18:36 07.01.2020
972 Clouds 22 1017 83 8000 3.1 150 18:18 07.01.2020
973 Mist 22 1017 88 4000 2.6 120 17:40 07.01.2020
974 Mist 22 1017 88 4000 2.6 120 17:22 07.01.2020
975 Mist 22 1017 88 3500 2.1 120 16:57 07.01.2020
976 Mist 21 1017 94 3200 1.5 90 16:38 07.01.2020
977 Mist 21 1017 94 3200 1.5 90 16:19 07.01.2020
978 Mist 22 1017 88 3800 2.6 110 15:58 07.01.2020
979 Mist 21 1016 88 3900 1.5 90 15:40 07.01.2020
980 Mist 21 1016 88 3900 1.5 90 15:22 07.01.2020
981 Mist 21 1016 94 4700 2.1 90 14:55 07.01.2020
982 Mist 22 1016 88 4700 1 80 14:36 07.01.2020
983 Mist 22 1016 88 4700 1 80 14:18 07.01.2020
984 Mist 22 1016 88 5000 2.1 100 13:39 07.01.2020
985 Mist 22 1016 88 5000 2.1 100 13:19 07.01.2020
986 Clouds 23 1015 83 6000 1.5 70 12:41 07.01.2020
987 Mist 23 1015 83 5000 1.5 50 12:19 07.01.2020
988 Mist 24 1015 78 5000 2.1 50 11:45 07.01.2020
989 Clouds 25 1015 69 6000 1.5 50 11:24 07.01.2020
990 Clouds 25 1015 69 8000 1.5 120 10:59 07.01.2020
991 Clouds 25 1015 69 6000 0.5 0 10:41 07.01.2020
992 Clouds 25 1015 69 6000 0.5 0 10:41 07.01.2020
993 Clouds 25 1015 69 6000 0.5 0 10:23 07.01.2020
994 Clouds 25 1015 73 6000 1 0 09:57 07.01.2020
995 Mist 25 1015 69 5000 1 0 09:38 07.01.2020
996 Mist 25 1015 69 5000 1 0 09:20 07.01.2020
997 Mist 24 1015 78 5000 1 0 08:42 07.01.2020
998 Mist 24 1015 78 5000 2.1 220 08:22 07.01.2020
999 Mist 24 1016 78 4600 1.5 0 07:54 07.01.2020
1000 Mist 24 1016 78 4700 2.1 170 07:27 07.01.2020
1001 Mist 23 1017 83 4600 2.6 190 06:53 07.01.2020
1002 Mist 23 1017 83 5000 1 0 06:32 07.01.2020
1003 Mist 22 1019 88 3500 1 0 05:49 07.01.2020
1004 Mist 21 1019 94 2700 2.1 60 04:33 07.01.2020
1005 Drizzle 21 1018 94 2100 2.6 70 03:26 07.01.2020
1006 Rain 20 1017 94 1300 2.6 60 02:21 07.01.2020
1007 Mist 20 1017 94 1900 3.6 50 01:51 07.01.2020
1008 Drizzle 20 1016 94 1700 2.1 50 01:26 07.01.2020
1009 Drizzle 20 1016 100 2700 2.6 70 00:23 07.01.2020
1010 Mist 21 1015 94 3400 3.1 80 23:59 06.01.2020
1011 Drizzle 21 1015 94 2900 3.1 80 23:39 06.01.2020
1012 Drizzle 21 1015 94 2900 3.1 80 23:21 06.01.2020
1013 Mist 21 1015 94 3500 2.6 80 22:56 06.01.2020
1014 Mist 21 1015 94 4000 2.6 80 22:37 06.01.2020
1015 Mist 21 1015 94 4000 2.6 80 22:19 06.01.2020
1016 Mist 21 1015 88 4700 2.6 70 21:55 06.01.2020
1017 Mist 21 1015 88 3700 2.1 60 21:36 06.01.2020
1018 Mist 21 1015 88 3700 2.1 60 21:36 06.01.2020
1019 Mist 21 1015 88 3700 2.1 60 21:18 06.01.2020
1020 Mist 21 1015 88 4100 2.6 80 20:54 06.01.2020
1021 Mist 21 1015 88 4100 2.6 80 20:54 06.01.2020
1022 Mist 21 1015 94 5000 3.6 110 20:36 06.01.2020
1023 Mist 21 1015 94 5000 3.6 110 20:18 06.01.2020
1024 Mist 21 1015 94 5000 4.1 100 19:55 06.01.2020
1025 Clouds 21 1015 88 6000 4.1 100 19:36 06.01.2020
1026 Clouds 21 1015 88 6000 4.1 100 19:36 06.01.2020
1027 Clouds 21 1015 88 6000 4.1 100 19:18 06.01.2020
1028 Clouds 21 1016 88 6000 3.6 110 18:43 06.01.2020
1029 Clouds 21 1016 88 6000 3.6 110 18:20 06.01.2020
1030 Mist 21 1016 94 5000 4.1 130 17:39 06.01.2020
1031 Mist 21 1016 94 5000 4.1 130 17:20 06.01.2020
1032 Clouds 21 1016 88 6000 4.1 130 16:57 06.01.2020
1033 Clouds 21 1016 94 6000 4.6 110 16:38 06.01.2020
1034 Clouds 21 1016 94 6000 4.6 110 16:19 06.01.2020
1035 Clouds 22 1016 88 7000 4.1 110 15:43 06.01.2020
1036 Clouds 22 1016 88 8000 5.1 140 15:21 06.01.2020
1037 Clouds 22 1015 88 8000 5.1 120 14:59 06.01.2020
1038 Clear 22 1014 83 7000 4.1 100 14:41 06.01.2020
1039 Clouds 22 1014 83 7000 4.1 100 14:22 06.01.2020
1040 Clouds 22 1014 83 8000 5.1 110 13:58 06.01.2020
1041 Clouds 24 1015 69 10000 4.1 120 13:38 06.01.2020
1042 Clouds 24 1015 69 10000 4.1 120 13:20 06.01.2020
1043 Clouds 24 1014 69 10000 3.6 120 12:44 06.01.2020
1044 Clouds 24 1014 69 10000 3.6 130 12:21 06.01.2020
1045 Clouds 25 1013 65 10000 5.1 140 11:59 06.01.2020
1046 Clouds 26 1013 61 10000 5.1 150 11:41 06.01.2020
1047 Clouds 26 1013 61 10000 5.1 150 11:23 06.01.2020
1048 Clouds 26 1013 61 10000 6.2 150 10:57 06.01.2020
1049 Clouds 26 1013 65 10000 5.7 140 10:39 06.01.2020
1050 Clouds 26 1013 65 10000 5.7 140 10:20 06.01.2020
1051 Clouds 26 1013 65 10000 5.7 130 09:39 06.01.2020
1052 Clouds 26 1013 65 10000 5.7 130 09:19 06.01.2020
1053 Clouds 26 1014 65 10000 5.7 130 08:46 06.01.2020
1054 Clouds 27 1014 57 10000 7.2 150 08:26 06.01.2020
1055 Clouds 26 1015 61 10000 6.2 150 07:53 06.01.2020
1056 Clouds 26 1015 65 10000 5.7 170 07:32 06.01.2020
1057 Clouds 25 1016 69 10000 6.2 160 06:45 06.01.2020
1058 Clouds 25 1017 69 10000 4.6 140 06:20 06.01.2020
1059 Clouds 25 1018 69 9000 4.1 160 05:45 06.01.2020
1060 Mist 23 1019 78 5000 5.1 120 04:37 06.01.2020
1061 Mist 23 1019 78 5000 5.1 120 04:18 06.01.2020
1062 Mist 22 1019 83 3500 4.1 110 02:46 06.01.2020
1063 Mist 21 1018 88 2700 4.1 110 02:23 06.01.2020
1064 Mist 21 1018 88 2500 3.1 100 01:44 06.01.2020
1065 Mist 20 1018 94 2300 2.1 90 01:24 06.01.2020
1066 Mist 20 1017 94 4600 2.6 120 00:41 06.01.2020
1067 Mist 20 1017 94 4600 2.6 120 00:20 06.01.2020
1068 Mist 20 1016 94 3800 2.6 110 23:41 05.01.2020
1069 Mist 20 1016 94 3800 2.6 110 23:22 05.01.2020
1070 Mist 20 1016 94 4600 2.1 110 22:55 05.01.2020
1071 Mist 20 1016 94 4100 2.6 100 22:37 05.01.2020
1072 Mist 20 1016 94 4100 2.6 100 22:19 05.01.2020
1073 Mist 20 1016 94 5000 3.6 100 21:41 05.01.2020
1074 Mist 20 1016 94 5000 3.6 100 21:21 05.01.2020
1075 Mist 20 1016 88 4200 3.6 110 20:59 05.01.2020
1076 Mist 20 1017 94 5000 3.6 110 20:40 05.01.2020
1077 Mist 20 1017 94 5000 3.6 110 20:20 05.01.2020
1078 Mist 20 1017 94 5000 3.6 110 20:20 05.01.2020
1079 Clouds 21 1017 88 6000 3.1 120 19:59 05.01.2020
1080 Clouds 21 1017 88 6000 3.1 120 19:41 05.01.2020
1081 Clouds 21 1017 88 6000 3.1 120 19:21 05.01.2020
1082 Clouds 21 1017 83 6000 2.6 130 18:56 05.01.2020
1083 Clouds 21 1017 83 7000 1.5 110 18:38 05.01.2020
1084 Clouds 21 1017 83 7000 1.5 110 18:19 05.01.2020
1085 Clouds 20 1018 88 6000 0.5 0 17:59 05.01.2020
1086 Clouds 20 1018 88 7000 2.1 120 17:39 05.01.2020
1087 Clouds 20 1018 88 7000 2.1 120 17:20 05.01.2020
1088 Clouds 21 1018 83 8000 1.5 100 16:57 05.01.2020
1089 Clouds 21 1018 83 9000 3.6 140 16:39 05.01.2020
1090 Clouds 21 1018 83 9000 3.6 140 16:20 05.01.2020
1091 Clouds 21 1018 83 9000 3.6 120 15:40 05.01.2020
1092 Clouds 21 1017 88 7000 4.6 130 15:22 05.01.2020
1093 Clouds 21 1017 88 6000 4.1 120 14:57 05.01.2020
1094 Clouds 21 1017 88 6000 4.1 120 14:57 05.01.2020
1095 Clouds 21 1017 88 6000 5.1 120 14:38 05.01.2020
1096 Clouds 21 1017 88 6000 5.1 120 14:20 05.01.2020
1097 Clouds 21 1017 88 8000 4.6 140 13:57 05.01.2020
1098 Clouds 21 1017 88 8000 3.6 140 13:38 05.01.2020
1099 Clouds 21 1017 88 8000 3.6 140 13:38 05.01.2020
1100 Clouds 21 1017 88 8000 3.6 140 13:20 05.01.2020
1101 Clouds 21 1017 88 8000 3.6 140 13:20 05.01.2020
1102 Clouds 21 1016 94 6000 4.1 130 12:56 05.01.2020
1103 Clouds 21 1016 94 6000 4.1 130 12:56 05.01.2020
1104 Rain 21 1016 94 4500 3.6 160 12:37 05.01.2020
1105 Rain 21 1016 94 4500 3.6 160 12:19 05.01.2020
1106 Rain 21 1016 94 4500 3.6 160 12:19 05.01.2020
1107 Mist 22 1016 88 4500 3.1 160 11:44 05.01.2020
1108 Rain 22 1016 88 4300 2.6 210 11:20 05.01.2020
1109 Mist 23 1016 83 5000 3.1 200 11:00 05.01.2020
1110 Mist 23 1016 83 4600 3.1 200 10:40 05.01.2020
1111 Mist 23 1016 83 4600 3.1 200 10:19 05.01.2020
1112 Clouds 23 1015 83 6000 3.1 200 09:42 05.01.2020
1113 Clouds 23 1015 83 6000 3.1 200 09:22 05.01.2020
1114 Rain 23 1016 83 4600 3.1 200 08:52 05.01.2020
1115 Clouds 24 1016 73 10000 3.1 200 08:32 05.01.2020
1116 Clouds 24 1016 69 10000 2.1 180 07:59 05.01.2020
1117 Clouds 24 1017 73 10000 3.6 180 07:39 05.01.2020
1118 Clouds 24 1017 73 10000 3.6 180 07:39 05.01.2020
1119 Clouds 24 1017 73 10000 3.6 180 07:20 05.01.2020
1120 Clouds 24 1018 73 10000 3.1 140 06:40 05.01.2020
1121 Clouds 24 1019 73 7000 4.1 120 05:38 05.01.2020
1122 Mist 23 1019 78 5000 3.6 120 04:49 05.01.2020
1123 Mist 22 1020 83 4400 3.1 120 04:18 05.01.2020
1124 Mist 22 1020 83 4400 3.1 120 04:18 05.01.2020
1125 Mist 21 1020 88 2900 2.1 70 03:18 05.01.2020
1126 Mist 20 1019 94 2000 2.1 90 02:32 05.01.2020
1127 Mist 20 1019 94 2000 1 0 01:49 05.01.2020
1128 Mist 20 1018 94 2200 0.5 0 01:20 05.01.2020
1129 Mist 20 1018 94 2800 2.1 80 00:56 05.01.2020
1130 Mist 20 1017 94 3100 1.5 90 00:37 05.01.2020
1131 Mist 20 1017 94 3100 1.5 90 00:19 05.01.2020
1132 Mist 20 1017 94 3100 0.5 0 23:40 04.01.2020
1133 Mist 20 1017 94 3000 1.5 90 23:20 04.01.2020
1134 Mist 20 1017 94 3100 1.5 70 22:40 04.01.2020
1135 Mist 20 1016 94 2800 1.5 80 22:22 04.01.2020
1136 Mist 20 1016 94 2800 1.5 80 22:22 04.01.2020
1137 Mist 20 1016 94 2800 1.5 80 22:22 04.01.2020
1138 Mist 20 1017 94 2700 0.5 0 21:58 04.01.2020
1139 Mist 20 1017 94 2700 0.5 0 21:40 04.01.2020
1140 Mist 20 1017 88 2700 1 100 21:21 04.01.2020
1141 Mist 20 1017 94 3000 1.5 120 20:59 04.01.2020
1142 Mist 20 1017 94 3500 2.1 120 20:40 04.01.2020
1143 Mist 20 1017 94 3500 2.1 120 20:22 04.01.2020
1144 Mist 20 1018 94 4100 1 160 19:57 04.01.2020
1145 Mist 20 1018 94 4500 1 0 19:38 04.01.2020
1146 Mist 20 1018 94 4500 1 0 19:20 04.01.2020
1147 Mist 19 1018 93 1400 2.09 138 18:56 04.01.2020
1148 Mist 19 1018 93 2700 0.5 50 18:37 04.01.2020
1149 Mist 19 1018 93 2700 0.5 50 18:18 04.01.2020
1150 Mist 20 1019 94 4500 0.5 0 17:41 04.01.2020
1151 Mist 20 1019 94 4500 0.5 0 17:23 04.01.2020
1152 Mist 20 1019 88 5000 1 0 16:58 04.01.2020
1153 Clouds 20 1019 88 6000 1.5 90 16:39 04.01.2020
1154 Clouds 20 1019 88 6000 1.5 90 16:39 04.01.2020
1155 Clouds 20 1019 88 6000 1.5 90 16:21 04.01.2020
1156 Clouds 20 1019 88 6000 2.1 100 15:54 04.01.2020
1157 Clouds 21 1019 88 6000 1.5 70 15:36 04.01.2020
1158 Clouds 21 1019 88 6000 1.5 70 15:18 04.01.2020
1159 Clouds 20 1018 94 7000 2.1 90 14:42 04.01.2020
1160 Clouds 21 1018 88 7000 2.6 100 14:20 04.01.2020
1161 Clouds 21 1018 88 8000 3.6 110 13:59 04.01.2020
1162 Clouds 21 1017 88 9000 4.6 120 13:38 04.01.2020
1163 Clouds 21 1017 88 9000 4.6 120 13:19 04.01.2020
1164 Clouds 22 1017 83 10000 4.6 110 12:57 04.01.2020
1165 Clouds 22 1016 83 10000 4.6 130 12:38 04.01.2020
1166 Clouds 22 1016 83 10000 4.6 130 12:18 04.01.2020
1167 Clouds 22 1016 83 10000 5.7 120 11:55 04.01.2020
1168 Clouds 23 1016 78 10000 6.2 130 11:36 04.01.2020
1169 Clouds 23 1016 78 10000 6.2 130 11:18 04.01.2020
1170 Clouds 24 1016 73 10000 4.1 120 10:40 04.01.2020
1171 Clouds 24 1016 73 10000 4.1 120 10:21 04.01.2020
1172 Clouds 24 1016 73 10000 4.6 110 09:47 04.01.2020
1173 Clouds 25 1016 73 10000 4.1 140 09:26 04.01.2020
1174 Clouds 24 1016 78 7000 3.1 110 08:49 04.01.2020
1175 Clouds 23 1017 83 7000 2.6 110 08:29 04.01.2020
1176 Mist 23 1017 88 3900 2.1 90 07:56 04.01.2020
1177 Mist 22 1017 88 3000 2.1 60 07:38 04.01.2020
1178 Rain 21 1019 94 1300 1.5 150 06:44 04.01.2020
1179 Rain 21 1020 88 1700 1 0 05:59 04.01.2020
1180 Rain 21 1021 88 4800 2.1 70 04:51 04.01.2020
1181 Mist 21 1021 88 5000 2.6 70 04:30 04.01.2020
1182 Mist 20 1021 94 3700 2.6 50 03:29 04.01.2020
1183 Rain 20 1021 94 2200 2.6 50 02:49 04.01.2020
1184 Rain 20 1020 94 1800 2.6 50 02:18 04.01.2020
1185 Rain 20 1020 94 1800 2.6 50 02:18 04.01.2020
1186 Drizzle 20 1020 94 1400 3.1 70 01:42 04.01.2020
1187 Rain 20 1020 94 2200 2.1 60 01:23 04.01.2020
1188 Mist 20 1019 94 4300 2.1 50 00:29 04.01.2020
1189 Rain 20 1019 94 4500 2.6 90 23:57 03.01.2020
1190 Rain 21 1019 83 6000 2.1 80 23:30 03.01.2020
1191 Rain 21 1019 83 6000 2.1 80 23:30 03.01.2020
1192 Clouds 21 1018 83 6000 2.1 60 22:59 03.01.2020
1193 Mist 21 1018 83 5000 1.5 80 22:40 03.01.2020
1194 Mist 21 1018 83 5000 1.5 80 22:19 03.01.2020
1195 Clouds 21 1018 83 7000 2.1 70 21:57 03.01.2020
1196 Clouds 21 1018 83 6000 2.6 100 21:38 03.01.2020
1197 Clouds 21 1018 83 6000 2.6 100 21:19 03.01.2020
1198 Clouds 21 1019 83 6000 2.6 120 20:55 03.01.2020
1199 Clouds 21 1019 83 6000 2.6 120 20:55 03.01.2020
1200 Clouds 21 1019 83 8000 2.1 110 20:36 03.01.2020
1201 Clouds 21 1019 83 8000 2.1 110 20:18 03.01.2020
1202 Clouds 21 1019 83 8000 2.1 110 20:18 03.01.2020
1203 Clouds 21 1019 83 8000 2.1 110 19:42 03.01.2020
1204 Clouds 21 1019 83 8000 2.1 110 19:23 03.01.2020
1205 Clouds 21 1019 83 8000 1.5 70 18:54 03.01.2020
1206 Clouds 21 1020 83 8000 2.1 130 18:36 03.01.2020
1207 Clouds 21 1020 83 8000 2.1 130 18:18 03.01.2020
1208 Clouds 21 1020 83 8000 3.1 130 17:41 03.01.2020
1209 Clouds 21 1020 83 8000 3.1 130 17:21 03.01.2020
1210 Clouds 21 1020 83 9000 3.6 130 16:45 03.01.2020
1211 Clouds 22 1021 78 10000 4.1 140 16:26 03.01.2020
1212 Clouds 22 1021 78 10000 4.1 140 16:00 03.01.2020
1213 Clouds 22 1020 78 10000 4.6 140 15:41 03.01.2020
1214 Clouds 22 1020 78 10000 4.6 140 15:19 03.01.2020
1215 Clouds 22 1020 78 10000 4.6 140 14:40 03.01.2020
1216 Clouds 22 1020 78 10000 4.6 140 14:40 03.01.2020
1217 Clouds 22 1020 78 10000 4.6 140 14:20 03.01.2020
1218 Clouds 23 1020 73 10000 5.1 150 13:57 03.01.2020
1219 Clouds 23 1020 73 10000 5.1 140 13:39 03.01.2020
1220 Clouds 23 1020 73 10000 5.1 140 13:39 03.01.2020
1221 Clouds 23 1020 73 10000 5.1 140 13:20 03.01.2020
1222 Clouds 24 1019 69 10000 4.6 150 12:41 03.01.2020
1223 Clouds 24 1019 69 10000 4.6 150 12:22 03.01.2020
1224 Clouds 25 1018 65 10000 3.6 150 11:53 03.01.2020
1225 Clouds 25 1018 65 10000 3.6 140 11:34 03.01.2020
1226 Clouds 25 1018 65 10000 4.1 130 10:58 03.01.2020
1227 Clouds 26 1018 61 10000 3.1 170 10:39 03.01.2020
1228 Clouds 26 1018 61 10000 3.1 170 10:21 03.01.2020
1229 Rain 25 1018 65 10000 2.6 170 09:55 03.01.2020
1230 Rain 26 1018 61 10000 3.1 140 09:37 03.01.2020
1231 Rain 26 1018 61 10000 3.1 140 09:19 03.01.2020
1232 Clouds 25 1018 65 10000 3.6 170 08:44 03.01.2020
1233 Clouds 26 1018 61 10000 3.1 150 08:22 03.01.2020
1234 Clouds 25 1019 65 10000 2.1 180 07:43 03.01.2020
1235 Clouds 25 1019 65 10000 2.6 120 07:19 03.01.2020
1236 Clouds 25 1020 65 9000 3.1 130 06:59 03.01.2020
1237 Clouds 25 1020 65 10000 2.1 120 06:40 03.01.2020
1238 Clouds 25 1020 65 10000 2.1 120 06:22 03.01.2020
1239 Clouds 25 1020 65 10000 2.1 120 06:22 03.01.2020
1240 Clouds 24 1022 73 9000 2.6 100 04:45 03.01.2020
1241 Clouds 22 1022 83 6000 2.6 130 03:38 03.01.2020
1242 Mist 22 1022 83 5000 2.6 130 02:53 03.01.2020
1243 Mist 21 1021 88 4100 1.5 110 01:50 03.01.2020
1244 Mist 20 1021 94 3800 2.6 110 01:18 03.01.2020
1245 Clouds 21 1021 83 6000 2.6 110 00:34 03.01.2020
1246 Clouds 21 1020 83 6000 3.6 120 23:59 02.01.2020
1247 Mist 21 1020 83 5000 3.1 100 23:39 02.01.2020
1248 Mist 21 1020 83 5000 3.1 100 23:20 02.01.2020
1249 Clouds 21 1020 83 7000 3.1 110 22:58 02.01.2020
1250 Clouds 21 1020 83 7000 3.6 130 22:39 02.01.2020
1251 Clouds 21 1020 83 7000 3.6 130 22:19 02.01.2020
1252 Clouds 21 1020 83 7000 3.1 130 21:55 02.01.2020
1253 Clouds 21 1020 83 8000 3.6 130 21:36 02.01.2020
1254 Clouds 21 1020 83 8000 3.6 130 21:18 02.01.2020
1255 Clouds 21 1020 83 10000 4.6 130 20:40 02.01.2020
1256 Clouds 21 1020 83 10000 4.6 130 20:21 02.01.2020
1257 Clouds 21 1021 83 10000 4.1 130 19:56 02.01.2020
1258 Clouds 21 1021 83 10000 4.1 130 19:38 02.01.2020
1259 Clouds 21 1021 83 10000 4.1 130 19:19 02.01.2020
1260 Clouds 21 1021 88 9000 5.1 130 18:59 02.01.2020
1261 Clouds 21 1021 88 9000 5.1 130 18:59 02.01.2020
1262 Clouds 21 1022 88 9000 5.7 130 18:41 02.01.2020
1263 Clouds 21 1022 88 9000 5.7 130 18:22 02.01.2020
1264 Clouds 21 1022 88 8000 4.6 120 17:57 02.01.2020
1265 Clouds 21 1022 88 8000 4.1 130 17:38 02.01.2020
1266 Clouds 21 1022 88 8000 4.1 130 17:19 02.01.2020
1267 Clouds 21 1022 88 7000 4.1 140 16:57 02.01.2020
1268 Clouds 21 1022 88 6000 2.6 140 16:39 02.01.2020
1269 Clouds 21 1022 88 6000 2.6 140 16:20 02.01.2020
1270 Clouds 21 1022 88 6000 3.1 130 15:56 02.01.2020
1271 Clouds 21 1022 88 6000 3.1 130 15:56 02.01.2020
1272 Clouds 21 1022 88 6000 3.6 120 15:37 02.01.2020
1273 Mist 21 1021 88 5000 3.1 110 15:19 02.01.2020
1274 Mist 21 1021 88 5000 3.1 110 14:54 02.01.2020
1275 Mist 21 1021 88 5000 3.1 110 14:54 02.01.2020
1276 Clouds 21 1021 88 6000 2.6 110 14:36 02.01.2020
1277 Clouds 21 1021 88 6000 3.1 120 14:18 02.01.2020
1278 Mist 22 1021 83 5000 3.1 120 13:45 02.01.2020
1279 Mist 22 1021 83 5000 3.1 120 13:26 02.01.2020
1280 Mist 22 1020 78 4700 2.1 70 12:43 02.01.2020
1281 Mist 23 1020 73 3400 2.1 60 12:24 02.01.2020
1282 Mist 24 1020 69 3900 2.1 60 11:43 02.01.2020
1283 Mist 24 1020 69 3900 2.1 60 11:24 02.01.2020
1284 Mist 24 1020 69 3800 2.1 70 10:56 02.01.2020
1285 Mist 24 1020 69 3800 2.1 70 10:56 02.01.2020
1286 Mist 24 1020 69 3700 2.1 60 10:36 02.01.2020
1287 Mist 24 1020 69 3700 2.1 60 10:18 02.01.2020
1288 Mist 24 1020 69 3800 2.6 70 09:41 02.01.2020
1289 Mist 24 1020 69 3800 2.6 70 09:21 02.01.2020
1290 Mist 24 1021 69 3800 1.5 330 08:41 02.01.2020
1291 Mist 24 1021 69 3800 1.5 330 08:22 02.01.2020
1292 Mist 24 1021 69 3500 2.1 360 07:47 02.01.2020
1293 Mist 24 1022 69 4100 1 0 07:27 02.01.2020
1294 Mist 24 1022 69 3800 1 0 06:43 02.01.2020
1295 Mist 23 1024 73 2400 2.6 110 05:42 02.01.2020
1296 Mist 22 1025 78 2600 2.6 110 04:36 02.01.2020
1297 Mist 22 1025 78 2900 1.5 110 03:54 02.01.2020
1298 Mist 20 1025 94 2300 1.5 110 02:21 02.01.2020
1299 Mist 20 1024 88 2200 1.5 110 01:53 02.01.2020
1300 Mist 20 1024 88 2400 1 0 01:25 02.01.2020
1301 Mist 20 1023 88 2900 1 0 00:45 02.01.2020
1302 Mist 20 1023 88 3300 1.34 125 00:26 02.01.2020
1303 Mist 20 1023 88 2800 1.5 340 23:43 01.01.2020
1304 Mist 20 1023 88 2800 1.5 340 23:21 01.01.2020
1305 Mist 20 1022 88 5000 1 0 22:39 01.01.2020
1306 Mist 20 1022 88 5000 1 0 22:39 01.01.2020
1307 Mist 20 1022 88 5000 1 0 22:39 01.01.2020
1308 Mist 20 1022 88 5000 1 0 22:20 01.01.2020
1309 Mist 20 1022 88 5000 1 0 22:20 01.01.2020
1310 Mist 20 1022 88 5000 1 0 22:20 01.01.2020
1311 Mist 20 1022 88 4000 1.06 139 21:58 01.01.2020
1312 Mist 20 1022 88 4400 1 250 21:39 01.01.2020
1313 Mist 20 1022 88 4400 1 250 21:20 01.01.2020
1314 Mist 20 1022 88 4400 1 250 21:20 01.01.2020
1315 Mist 21 1022 83 5000 1 0 20:57 01.01.2020
1316 Mist 21 1023 83 4500 1 0 20:38 01.01.2020
1317 Mist 21 1023 83 4500 1 0 20:38 01.01.2020
1318 Mist 21 1023 83 4500 1 0 20:19 01.01.2020
1319 Mist 21 1023 83 3500 2.1 260 19:55 01.01.2020
1320 Mist 20 1023 88 3200 1.5 300 19:37 01.01.2020
1321 Mist 20 1023 88 3200 1.5 300 19:19 01.01.2020
1322 Mist 20 1023 88 3200 1.5 330 18:56 01.01.2020
1323 Mist 20 1023 88 2900 1.5 330 18:36 01.01.2020
1324 Mist 20 1023 88 2900 1.5 330 18:18 01.01.2020
1325 Mist 20 1024 88 3300 1 0 17:57 01.01.2020
1326 Mist 20 1024 88 3200 0.5 0 17:38 01.01.2020
1327 Mist 20 1024 88 3200 0.5 0 17:19 01.01.2020
1328 Mist 21 1024 83 3800 2.1 110 16:42 01.01.2020
1329 Mist 21 1024 83 3800 2.1 110 16:24 01.01.2020
1330 Mist 21 1024 83 4200 3.1 130 15:58 01.01.2020
1331 Mist 21 1024 83 4600 2.1 120 15:40 01.01.2020
1332 Mist 21 1024 83 4600 2.1 120 15:40 01.01.2020
1333 Mist 21 1024 83 4600 2.1 120 15:22 01.01.2020
1334 Mist 21 1024 83 4500 0.5 0 14:59 01.01.2020
1335 Mist 21 1024 83 4500 0.5 0 14:40 01.01.2020
1336 Mist 21 1024 77 4800 1 0 14:22 01.01.2020
1337 Mist 22 1024 73 5000 1.5 170 13:56 01.01.2020
1338 Mist 22 1023 73 5000 2.1 150 13:37 01.01.2020
1339 Mist 22 1023 73 5000 2.1 150 13:19 01.01.2020
1340 Mist 22 1023 73 5000 2.6 130 12:57 01.01.2020
1341 Clouds 22 1023 73 6000 3.1 130 12:39 01.01.2020
1342 Clouds 22 1023 73 6000 3.1 130 12:19 01.01.2020
1343 Mist 23 1022 69 4000 1.5 180 11:43 01.01.2020
1344 Mist 23 1022 69 4000 1.5 180 11:23 01.01.2020
1345 Haze 23 1022 69 4000 2.6 130 10:59 01.01.2020
1346 Haze 23 1022 69 4500 2.6 140 10:41 01.01.2020
1347 Haze 23 1022 69 4500 2.6 140 10:21 01.01.2020
1348 Haze 23 1022 69 5000 2.6 150 09:58 01.01.2020
1349 Clouds 23 1022 69 6000 3.1 170 09:37 01.01.2020
1350 Clouds 23 1022 69 6000 3.1 170 09:18 01.01.2020
1351 Clouds 23 1022 69 6000 3.1 170 09:18 01.01.2020
1352 Haze 23 1022 64 5000 2.6 150 08:55 01.01.2020
1353 Haze 23 1022 64 5000 2.6 150 08:55 01.01.2020
1354 Clouds 23 1022 64 6000 2.1 180 08:36 01.01.2020
1355 Clouds 23 1022 64 6000 2.1 180 08:18 01.01.2020
1356 Haze 23 1023 64 4300 2.1 200 07:54 01.01.2020
1357 Haze 23 1023 69 4500 2.6 170 07:35 01.01.2020
1358 Clouds 23 1024 64 6000 2.6 170 06:44 01.01.2020
1359 Clouds 23 1024 64 6000 1 0 06:20 01.01.2020
1360 Clouds 22 1026 68 6000 1.5 10 05:21 01.01.2020
1361 Clouds 22 1026 68 6000 1.5 30 03:43 01.01.2020
1362 Mist 21 1026 73 5000 1.5 20 03:22 01.01.2020
1363 Mist 21 1025 73 4700 1 0 02:56 01.01.2020
1364 Mist 20 1025 77 3700 1.5 40 02:33 01.01.2020
1365 Mist 20 1025 77 3600 1.5 100 01:45 01.01.2020
1366 Mist 20 1024 77 3600 0.5 0 01:25 01.01.2020
1367 Mist 20 1024 77 4900 1 0 00:57 01.01.2020
1368 Mist 20 1024 82 4300 1 0 00:38 01.01.2020
1369 Mist 20 1024 82 4300 1 0 00:20 01.01.2020
1370 Mist 20 1023 88 3500 1.61 11 23:40 31.12.2019
1371 Mist 20 1023 88 3500 1.45 337 23:21 31.12.2019
1372 Mist 20 1023 82 4300 1.45 337 22:57 31.12.2019
1373 Mist 20 1023 82 3800 0.5 0 22:38 31.12.2019
1374 Mist 20 1023 82 3800 0.5 0 22:18 31.12.2019
1375 Rain 20 1023 88 3600 1 350 21:54 31.12.2019
1376 Rain 20 1023 88 3800 1 330 21:36 31.12.2019
1377 Rain 20 1023 88 3800 1 330 21:18 31.12.2019
1378 Mist 20 1024 88 4200 1 0 20:40 31.12.2019
1379 Mist 20 1024 88 4200 1 0 20:22 31.12.2019
1380 Mist 21 1024 83 4200 0.5 0 19:59 31.12.2019
1381 Mist 21 1024 77 4300 1 0 19:40 31.12.2019
1382 Mist 21 1024 77 4300 1 0 19:22 31.12.2019
1383 Mist 21 1024 77 4300 1 0 19:22 31.12.2019
1384 Mist 20 1024 82 4500 1.5 290 18:58 31.12.2019
1385 Mist 20 1024 88 4000 1.5 280 18:40 31.12.2019
1386 Mist 20 1024 88 4000 1.5 280 18:19 31.12.2019
1387 Mist 20 1024 88 3500 1.5 310 17:56 31.12.2019
1388 Mist 21 1024 83 3600 1 310 17:37 31.12.2019
1389 Mist 21 1024 83 3600 1 310 17:19 31.12.2019
1390 Mist 21 1024 83 3600 1 310 17:19 31.12.2019
1391 Mist 21 1024 77 4300 2.1 290 16:56 31.12.2019
1392 Mist 21 1024 83 4600 1.5 290 16:37 31.12.2019
1393 Mist 21 1024 83 4600 1.5 290 16:19 31.12.2019
1394 Mist 21 1024 77 4700 1.5 320 15:56 31.12.2019
1395 Mist 21 1024 77 5000 2.1 300 15:38 31.12.2019
1396 Mist 21 1024 77 5000 2.1 300 15:20 31.12.2019
1397 Mist 21 1024 77 4800 2.1 300 14:56 31.12.2019
1398 Mist 21 1024 77 5000 1.5 300 14:37 31.12.2019
1399 Mist 21 1024 77 5000 1.5 300 14:19 31.12.2019
1400 Mist 21 1024 77 4500 2.6 290 13:56 31.12.2019
1401 Mist 21 1023 77 4900 2.1 260 13:38 31.12.2019
1402 Mist 21 1023 77 4900 2.1 260 13:38 31.12.2019
1403 Mist 21 1023 77 4900 2.1 260 13:20 31.12.2019
1404 Mist 21 1023 77 4400 2.1 290 12:56 31.12.2019
1405 Mist 21 1022 77 4900 2.6 270 12:37 31.12.2019
1406 Mist 21 1022 77 4900 2.6 270 12:19 31.12.2019
1407 Mist 22 1022 73 3800 2.6 270 11:55 31.12.2019
1408 Mist 22 1022 73 3100 3.1 280 11:37 31.12.2019
1409 Mist 22 1022 73 3100 3.1 280 11:19 31.12.2019
1410 Mist 22 1022 73 3100 3.1 280 11:19 31.12.2019
1411 Mist 22 1022 73 3300 2.1 290 10:56 31.12.2019
1412 Haze 22 1022 68 3400 1 350 10:37 31.12.2019
1413 Haze 22 1022 68 3400 1 350 10:19 31.12.2019
1414 Mist 22 1022 68 5000 1 0 09:57 31.12.2019
1415 Mist 22 1022 68 5000 1 0 09:57 31.12.2019
1416 Clouds 22 1022 64 5000 1.5 340 09:38 31.12.2019
1417 Clouds 22 1022 64 5000 1.5 340 09:19 31.12.2019
1418 Clouds 23 1022 60 6000 2.6 350 08:42 31.12.2019
1419 Clouds 23 1022 60 6000 2.6 350 08:23 31.12.2019
1420 Clouds 23 1023 64 7000 3.1 360 07:57 31.12.2019
1421 Clouds 23 1023 60 6000 3.1 20 07:38 31.12.2019
1422 Clouds 23 1023 60 6000 3.1 20 07:18 31.12.2019
1423 Haze 23 1024 64 4800 4.1 20 06:29 31.12.2019
1424 Mist 22 1025 73 5000 2.1 20 04:58 31.12.2019
1425 Mist 22 1026 73 3700 1.5 350 04:25 31.12.2019
1426 Mist 20 1025 88 4400 0.5 0 02:58 31.12.2019
1427 Mist 20 1025 88 3600 1 0 02:21 31.12.2019
1428 Mist 20 1024 88 3100 1 0 01:51 31.12.2019
1429 Mist 20 1024 82 3500 1 0 01:32 31.12.2019
1430 Mist 19 1023 88 4900 1.5 280 00:49 31.12.2019
1431 Mist 19 1023 88 4800 1 280 00:26 31.12.2019
1432 Mist 19 1022 88 5000 1.5 290 23:59 30.12.2019
1433 Mist 20 1022 82 4600 1 0 23:41 30.12.2019
1434 Mist 20 1022 82 4600 1 0 23:23 30.12.2019
1435 Mist 19 1022 88 4400 1 320 22:59 30.12.2019
1436 Mist 19 1022 88 4400 1 320 22:41 30.12.2019
1437 Mist 19 1022 88 3800 1 290 22:21 30.12.2019
1438 Mist 20 1022 82 4100 2.1 320 21:57 30.12.2019
1439 Mist 20 1022 82 4100 2.1 320 21:57 30.12.2019
1440 Mist 20 1022 82 4300 2.1 310 21:39 30.12.2019
1441 Mist 20 1022 82 4300 2.1 310 21:20 30.12.2019
1442 Mist 20 1022 82 4100 2.1 290 20:58 30.12.2019
1443 Mist 20 1022 82 4300 2.1 290 20:40 30.12.2019
1444 Mist 20 1022 82 4300 2.1 290 20:40 30.12.2019
1445 Mist 20 1022 82 4300 2.1 290 20:20 30.12.2019
1446 Mist 20 1022 82 4500 2.6 310 19:58 30.12.2019
1447 Mist 20 1022 82 4500 2.1 300 19:39 30.12.2019
1448 Mist 20 1022 82 4500 2.1 300 19:19 30.12.2019
1449 Mist 20 1022 82 4500 2.1 300 18:59 30.12.2019
1450 Mist 20 1022 82 4500 2.1 300 18:40 30.12.2019
1451 Mist 20 1022 82 4800 3.1 290 18:20 30.12.2019
1452 Mist 20 1022 82 4400 2.6 290 17:57 30.12.2019
1453 Mist 20 1022 82 4000 2.1 290 17:39 30.12.2019
1454 Mist 20 1022 82 4000 2.1 290 17:19 30.12.2019
1455 Mist 20 1022 82 4000 2.6 300 16:58 30.12.2019
1456 Mist 20 1022 82 4200 2.6 310 16:37 30.12.2019
1457 Mist 20 1022 82 4200 2.6 310 16:19 30.12.2019
1458 Mist 19 1022 88 3700 2.6 290 15:55 30.12.2019
1459 Mist 20 1021 77 4100 2.1 290 15:37 30.12.2019
1460 Mist 19 1021 82 4300 2.1 300 15:18 30.12.2019
1461 Mist 19 1021 82 4300 2.1 300 14:43 30.12.2019
1462 Mist 20 1021 77 4300 1.5 280 14:43 30.12.2019
1463 Mist 20 1021 77 4300 1.5 280 14:20 30.12.2019
1464 Mist 20 1021 77 4000 1.5 310 13:57 30.12.2019
1465 Mist 20 1020 77 4100 2.1 330 13:39 30.12.2019
1466 Mist 20 1020 77 4100 2.1 330 13:21 30.12.2019
1467 Mist 20 1020 77 5000 2.1 290 12:56 30.12.2019
1468 Mist 20 1019 77 5000 2.6 290 12:36 30.12.2019
1469 Mist 20 1019 77 5000 2.6 290 12:18 30.12.2019
1470 Mist 22 1019 68 4100 2.1 270 11:40 30.12.2019
1471 Haze 22 1019 68 5000 3.1 260 11:19 30.12.2019
1472 Haze 23 1019 64 5000 2.6 280 10:57 30.12.2019
1473 Haze 23 1018 64 5000 2.6 290 10:38 30.12.2019
1474 Haze 23 1018 64 5000 2.6 290 10:18 30.12.2019
1475 Haze 23 1018 64 5000 2.6 300 09:41 30.12.2019
1476 Haze 23 1018 64 5000 2.6 300 09:20 30.12.2019
1477 Haze 23 1018 64 5000 2.6 0 08:55 30.12.2019
1478 Haze 23 1018 64 4900 2.6 270 08:36 30.12.2019
1479 Haze 23 1018 64 4900 2.6 270 08:18 30.12.2019
1480 Haze 23 1018 64 4900 2.6 270 08:18 30.12.2019
1481 Haze 23 1019 64 4600 2.6 290 07:40 30.12.2019
1482 Mist 22 1020 68 4400 2.1 300 06:55 30.12.2019
1483 Mist 20 1022 77 4500 1 0 05:24 30.12.2019
1484 Mist 19 1022 82 3700 2.1 300 03:58 30.12.2019
1485 Mist 19 1021 82 3500 2.6 300 03:19 30.12.2019
1486 Mist 19 1021 82 3300 2.1 290 02:40 30.12.2019
1487 Mist 18 1020 88 3100 1.5 320 01:55 30.12.2019
1488 Mist 18 1020 88 3100 2.1 290 01:23 30.12.2019
1489 Mist 18 1019 88 4500 1.5 280 00:45 30.12.2019
1490 Mist 18 1019 88 4800 1 300 00:19 30.12.2019
1491 Mist 18 1018 88 5000 1.5 260 23:39 29.12.2019
1492 Mist 18 1018 88 5000 1.5 260 23:21 29.12.2019
1493 Mist 18 1018 88 5000 1 270 22:55 29.12.2019
1494 Mist 18 1018 88 4900 1 0 22:37 29.12.2019
1495 Mist 18 1018 88 4900 1 0 22:18 29.12.2019
1496 Mist 18 1018 88 5000 1 0 21:43 29.12.2019
1497 Mist 18 1018 88 5000 2.1 300 21:21 29.12.2019
1498 Mist 19 1018 82 5000 1.5 290 20:57 29.12.2019
1499 Mist 18 1018 88 5000 2.1 290 20:39 29.12.2019
1500 Mist 18 1018 88 5000 2.1 290 20:20 29.12.2019
1501 Mist 19 1018 82 5000 1 300 19:59 29.12.2019
1502 Mist 19 1018 82 5000 1 300 19:40 29.12.2019
1503 Mist 19 1018 82 5000 1 0 19:21 29.12.2019
1504 Clouds 19 1018 77 6000 1.5 210 18:57 29.12.2019
1505 Clouds 19 1018 77 6000 1 0 18:38 29.12.2019
1506 Clouds 19 1018 77 6000 1 0 18:19 29.12.2019
1507 Mist 19 1018 77 5000 1 0 17:58 29.12.2019
1508 Mist 18 1019 82 5000 0.5 0 17:39 29.12.2019
1509 Mist 18 1019 82 5000 0.5 0 17:20 29.12.2019
1510 Clouds 18 1019 88 6000 2.1 300 16:56 29.12.2019
1511 Clouds 18 1018 82 6000 3.1 290 16:37 29.12.2019
1512 Clouds 18 1018 82 6000 3.1 290 16:19 29.12.2019
1513 Clouds 18 1018 82 6000 3.1 290 15:57 29.12.2019
1514 Clouds 18 1017 82 6000 2.1 280 15:39 29.12.2019
1515 Clouds 18 1017 82 6000 2.1 280 15:20 29.12.2019
1516 Clouds 18 1017 82 6000 1.5 290 14:57 29.12.2019
1517 Clouds 19 1017 77 7000 2.6 280 14:38 29.12.2019
1518 Clear 19 1017 77 7000 2.6 280 14:18 29.12.2019
1519 Clouds 19 1017 77 6000 2.6 290 13:57 29.12.2019
1520 Clear 20 1017 72 6000 3.6 290 13:38 29.12.2019
1521 Clouds 20 1017 72 6000 3.6 290 13:19 29.12.2019
1522 Clouds 21 1016 68 6000 4.1 290 12:45 29.12.2019
1523 Clouds 21 1016 68 6000 3.1 290 12:26 29.12.2019
1524 Haze 22 1016 64 5000 2.6 270 11:57 29.12.2019
1525 Haze 22 1016 64 5000 2.6 270 11:38 29.12.2019
1526 Haze 22 1016 64 5000 2.6 270 11:38 29.12.2019
1527 Haze 22 1016 64 5000 2.6 270 11:20 29.12.2019
1528 Clear 23 1015 60 6000 1.5 330 10:42 29.12.2019
1529 Clear 23 1015 60 6000 1.5 330 10:23 29.12.2019
1530 Clear 23 1015 60 6000 1 0 09:57 29.12.2019
1531 Clouds 24 1015 57 6000 2.1 290 09:38 29.12.2019
1532 Clouds 24 1015 57 6000 2.1 290 09:20 29.12.2019
1533 Clouds 23 1016 56 6000 2.6 300 08:47 29.12.2019
1534 Clouds 23 1016 60 6000 2.1 250 08:24 29.12.2019
1535 Clouds 22 1016 64 6000 1.5 0 07:55 29.12.2019
1536 Haze 22 1017 64 5000 3.1 270 07:28 29.12.2019
1537 Haze 22 1017 60 5000 3.1 280 06:55 29.12.2019
1538 Haze 22 1018 60 5000 3.6 290 06:25 29.12.2019
1539 Haze 21 1019 64 5000 1.5 350 05:51 29.12.2019
1540 Mist 19 1020 72 4700 2.1 300 04:36 29.12.2019
1541 Mist 19 1020 72 4000 3.1 280 03:51 29.12.2019
1542 Mist 18 1020 77 3900 2.6 290 03:20 29.12.2019
1543 Mist 16 1019 87 2700 0.5 0 02:20 29.12.2019
1544 Mist 16 1019 87 2700 2.6 310 01:31 29.12.2019
1545 Mist 16 1018 87 4000 3.6 300 00:57 29.12.2019
1546 Mist 16 1018 87 4600 2.1 300 00:39 29.12.2019
1547 Mist 16 1018 87 4600 2.1 300 00:21 29.12.2019
1548 Mist 16 1018 82 4700 1.5 260 23:42 28.12.2019
1549 Mist 16 1018 82 4700 1.5 260 23:42 28.12.2019
1550 Mist 16 1018 82 4700 1.5 260 23:18 28.12.2019
1551 Mist 16 1018 82 5000 2.1 290 22:39 28.12.2019
1552 Mist 16 1018 82 5000 2.1 290 22:20 28.12.2019
1553 Mist 16 1018 82 4700 1 290 21:58 28.12.2019
1554 Mist 16 1018 82 5000 2.1 310 21:39 28.12.2019
1555 Mist 16 1018 82 5000 2.1 310 21:39 28.12.2019
1556 Mist 16 1018 82 5000 2.1 310 21:20 28.12.2019
1557 Mist 16 1019 82 5000 2.1 310 20:57 28.12.2019
1558 Mist 16 1019 82 5000 2.6 290 20:37 28.12.2019
1559 Mist 16 1019 82 5000 2.6 290 20:19 28.12.2019
1560 Mist 16 1019 82 4900 2.1 280 19:55 28.12.2019
1561 Mist 16 1019 82 4700 2.6 300 19:37 28.12.2019
1562 Mist 16 1019 82 4700 2.6 300 19:18 28.12.2019
1563 Mist 16 1019 82 4700 2.6 290 18:56 28.12.2019
1564 Mist 16 1019 82 4500 2.1 290 18:38 28.12.2019
1565 Mist 16 1019 82 4500 2.1 290 18:18 28.12.2019
1566 Mist 16 1020 82 5000 3.1 290 17:42 28.12.2019
1567 Mist 16 1020 82 5000 3.1 290 17:42 28.12.2019
1568 Mist 16 1020 82 5000 3.1 290 17:21 28.12.2019
1569 Mist 16 1020 82 4900 3.1 290 16:58 28.12.2019
1570 Mist 16 1020 82 4900 3.1 290 16:40 28.12.2019
1571 Mist 16 1020 82 4900 3.1 290 16:21 28.12.2019
1572 Mist 16 1020 82 5000 3.1 290 15:43 28.12.2019
1573 Mist 17 1019 77 5000 3.6 290 15:22 28.12.2019
1574 Mist 17 1019 77 5000 3.1 290 14:48 28.12.2019
1575 Mist 17 1019 77 5000 2.6 300 14:26 28.12.2019
1576 Clouds 18 1019 72 6000 1.5 300 13:58 28.12.2019
1577 Mist 18 1019 72 5000 1 0 13:40 28.12.2019
1578 Mist 18 1019 72 5000 1 0 13:20 28.12.2019
1579 Mist 18 1018 72 5000 1 0 12:57 28.12.2019
1580 Clouds 18 1018 72 6000 1.5 340 12:39 28.12.2019
1581 Clouds 18 1018 72 6000 1.5 340 12:20 28.12.2019
1582 Clouds 18 1018 68 6000 1.5 20 11:40 28.12.2019
1583 Clouds 18 1018 68 6000 1.5 20 11:21 28.12.2019
1584 Clouds 19 1018 63 7000 1 0 10:55 28.12.2019
1585 Clouds 19 1018 63 8000 1 0 10:36 28.12.2019
1586 Clouds 19 1018 63 8000 1 0 10:18 28.12.2019
1587 Clouds 19 1018 63 8000 1 0 10:18 28.12.2019
1588 Clouds 19 1018 63 8000 1 0 09:45 28.12.2019
1589 Clouds 19 1018 63 10000 2.1 320 09:23 28.12.2019
1590 Clouds 19 1018 59 9000 2.1 320 08:57 28.12.2019
1591 Clouds 19 1018 63 8000 2.1 320 08:38 28.12.2019
1592 Clouds 19 1018 63 8000 2.1 320 08:19 28.12.2019
1593 Clouds 19 1019 59 10000 2.6 330 07:41 28.12.2019
1594 Clouds 19 1020 59 8000 2.1 10 06:55 28.12.2019
1595 Clouds 18 1021 59 8000 2.6 350 05:40 28.12.2019
1596 Clouds 16 1022 63 8000 2.1 20 03:48 28.12.2019
1597 Clouds 16 1021 63 9000 1.5 70 02:50 28.12.2019
1598 Clouds 16 1021 67 10000 2.6 30 02:19 28.12.2019
1599 Clouds 16 1020 67 10000 2.6 30 01:50 28.12.2019
1600 Clouds 16 1020 63 10000 2.1 30 01:21 28.12.2019
1601 Clouds 16 1019 63 10000 2.6 30 00:42 28.12.2019
1602 Clouds 16 1019 63 10000 2.6 30 00:23 28.12.2019
1603 Clouds 16 1019 63 10000 2.6 30 00:23 28.12.2019
1604 Clouds 16 1019 63 10000 2.6 40 23:46 27.12.2019
1605 Clouds 16 1019 59 10000 2.1 50 23:21 27.12.2019
1606 Clouds 16 1019 59 10000 2.6 30 22:59 27.12.2019
1607 Clouds 16 1019 63 10000 2.1 20 22:40 27.12.2019
1608 Clouds 16 1019 63 10000 2.1 20 22:40 27.12.2019
1609 Clouds 16 1019 63 10000 2.1 20 22:21 27.12.2019
1610 Clouds 16 1019 63 10000 2.1 360 21:59 27.12.2019
1611 Clouds 16 1019 63 10000 2.1 360 21:40 27.12.2019
1612 Clouds 16 1020 59 10000 2.1 360 21:40 27.12.2019
1613 Clouds 16 1020 59 10000 2.1 360 21:22 27.12.2019
1614 Clouds 16 1020 63 10000 2.6 20 20:42 27.12.2019
1615 Clouds 16 1020 59 10000 3.1 10 20:24 27.12.2019
1616 Clouds 16 1020 63 10000 1.5 30 19:57 27.12.2019
1617 Clouds 16 1020 63 10000 2.1 30 19:38 27.12.2019
1618 Clouds 16 1020 63 10000 2.1 30 19:19 27.12.2019
1619 Clouds 16 1021 63 10000 2.6 20 18:42 27.12.2019
1620 Clouds 16 1021 63 10000 2.6 10 18:24 27.12.2019
1621 Clouds 16 1021 63 10000 2.1 10 18:00 27.12.2019
1622 Clouds 16 1021 67 10000 2.1 340 17:41 27.12.2019
1623 Clouds 16 1021 67 10000 2.1 340 17:20 27.12.2019
1624 Clouds 16 1021 67 10000 2.1 30 16:59 27.12.2019
1625 Clouds 16 1021 67 10000 2.1 30 16:59 27.12.2019
1626 Clouds 16 1021 67 10000 3.1 30 16:39 27.12.2019
1627 Clouds 16 1021 67 10000 3.1 30 16:21 27.12.2019
1628 Clouds 16 1021 63 10000 2.6 30 15:56 27.12.2019
1629 Clouds 16 1021 63 10000 2.6 20 15:37 27.12.2019
1630 Clouds 16 1021 63 10000 2.6 20 15:18 27.12.2019
1631 Clouds 16 1021 67 10000 2.6 20 14:54 27.12.2019
1632 Clouds 16 1021 67 10000 2.6 30 14:36 27.12.2019
1633 Clouds 16 1021 67 10000 2.6 30 14:18 27.12.2019
1634 Clouds 16 1021 67 10000 2.6 30 13:43 27.12.2019
1635 Clouds 16 1020 67 10000 2.6 50 13:22 27.12.2019
1636 Clouds 16 1020 67 10000 2.1 50 12:44 27.12.2019
1637 Clouds 16 1020 63 10000 2.6 40 12:26 27.12.2019
1638 Clouds 16 1020 67 10000 1.5 30 11:56 27.12.2019
1639 Clouds 17 1020 63 10000 2.6 10 11:38 27.12.2019
1640 Clouds 17 1020 63 10000 2.6 10 11:19 27.12.2019
1641 Clouds 17 1020 59 10000 3.1 30 10:45 27.12.2019
1642 Clouds 17 1020 59 10000 3.1 40 10:23 27.12.2019
1643 Clouds 17 1020 59 10000 3.6 50 09:50 27.12.2019
1644 Clouds 17 1020 55 10000 3.6 40 09:22 27.12.2019
1645 Clouds 17 1020 59 10000 3.1 20 08:59 27.12.2019
1646 Clouds 17 1020 59 10000 3.1 360 08:41 27.12.2019
1647 Clouds 17 1020 59 10000 3.1 360 08:22 27.12.2019
1648 Clouds 17 1021 59 10000 3.6 360 07:38 27.12.2019
1649 Clouds 17 1021 55 10000 3.1 10 06:59 27.12.2019
1650 Clouds 17 1022 59 10000 4.1 40 06:23 27.12.2019
1651 Clouds 16 1023 63 10000 3.1 30 04:37 27.12.2019
1652 Clouds 16 1023 63 10000 3.6 20 02:28 27.12.2019
1653 Clouds 16 1022 63 10000 3.6 30 01:42 27.12.2019
1654 Clouds 16 1022 63 10000 4.6 30 01:20 27.12.2019
1655 Clouds 17 1021 59 10000 2.6 10 00:46 27.12.2019
1656 Clouds 17 1021 59 10000 3.6 10 00:25 27.12.2019
1657 Clouds 17 1021 59 10000 3.1 10 23:54 26.12.2019
1658 Clouds 17 1020 59 10000 4.1 20 23:36 26.12.2019
1659 Clouds 17 1020 59 10000 4.1 20 23:18 26.12.2019
1660 Clouds 17 1020 63 10000 5.1 30 22:38 26.12.2019
1661 Clouds 17 1020 63 10000 5.1 30 22:18 26.12.2019
1662 Clouds 17 1020 59 10000 5.1 20 21:40 26.12.2019
1663 Clouds 17 1020 59 10000 5.1 20 21:21 26.12.2019
1664 Clouds 17 1021 63 10000 4.6 20 20:57 26.12.2019
1665 Clouds 17 1021 63 10000 5.1 10 20:38 26.12.2019
1666 Clouds 17 1021 63 10000 5.1 10 20:19 26.12.2019
1667 Clouds 17 1021 63 10000 4.6 10 19:54 26.12.2019
1668 Clouds 18 1021 59 10000 3.6 20 19:36 26.12.2019
1669 Clouds 18 1021 59 10000 3.6 20 19:18 26.12.2019
1670 Clouds 18 1020 59 10000 3.6 20 18:55 26.12.2019
1671 Clouds 18 1020 59 10000 3.6 20 18:55 26.12.2019
1672 Clouds 18 1021 63 10000 3.1 20 18:36 26.12.2019
1673 Clouds 18 1021 63 10000 3.1 20 18:18 26.12.2019
1674 Rain 17 1020 67 10000 3.6 30 17:40 26.12.2019
1675 Rain 17 1020 67 10000 3.6 30 17:20 26.12.2019
1676 Clouds 18 1020 63 10000 5.1 40 16:48 26.12.2019
1677 Clouds 18 1020 63 10000 4.1 40 16:26 26.12.2019
1678 Clouds 18 1020 63 10000 4.1 40 15:57 26.12.2019
1679 Clouds 18 1020 63 10000 5.7 50 15:38 26.12.2019
1680 Clouds 18 1020 63 10000 5.7 50 15:19 26.12.2019
1681 Clouds 18 1020 63 10000 5.7 50 14:41 26.12.2019
1682 Clouds 18 1019 63 10000 6.7 50 14:23 26.12.2019
1683 Clouds 18 1019 63 10000 6.7 50 14:23 26.12.2019
1684 Clouds 18 1019 63 10000 6.7 40 13:45 26.12.2019
1685 Clouds 18 1018 68 10000 6.2 50 13:26 26.12.2019
1686 Clouds 18 1018 72 10000 6.2 50 12:59 26.12.2019
1687 Clouds 18 1018 72 10000 6.2 50 12:59 26.12.2019
1688 Clouds 18 1018 72 10000 6.2 40 12:41 26.12.2019
1689 Clouds 18 1018 72 10000 6.2 40 12:23 26.12.2019
1690 Clouds 18 1017 72 10000 6.7 40 11:58 26.12.2019
1691 Clouds 18 1017 72 10000 6.7 40 11:58 26.12.2019
1692 Rain 18 1017 77 8000 5.7 40 11:40 26.12.2019
1693 Rain 18 1017 77 8000 5.7 40 11:21 26.12.2019
1694 Rain 19 1016 77 10000 6.7 40 10:49 26.12.2019
1695 Clouds 19 1016 82 10000 5.7 40 10:24 26.12.2019
1696 Rain 20 1016 77 10000 8.2 40 09:54 26.12.2019
1697 Rain 25 1015 69 9000 2.6 70 09:33 26.12.2019
1698 Clouds 25 1015 65 10000 3.1 120 08:58 26.12.2019
1699 Clouds 25 1015 69 10000 2.6 90 08:38 26.12.2019
1700 Clouds 25 1015 69 10000 2.6 90 08:20 26.12.2019
1701 Clouds 25 1015 69 10000 3.1 70 07:31 26.12.2019
1702 Clouds 25 1016 65 10000 3.1 110 06:57 26.12.2019
1703 Clouds 25 1016 69 10000 3.1 110 06:34 26.12.2019
1704 Clouds 26 1017 65 10000 3.6 90 05:57 26.12.2019
1705 Clouds 25 1017 69 9000 3.6 80 05:38 26.12.2019
1706 Clouds 23 1018 78 8000 3.6 50 04:32 26.12.2019
1707 Clouds 21 1017 88 7000 2.6 50 03:20 26.12.2019
1708 Clouds 21 1016 88 6000 2.6 60 02:40 26.12.2019
1709 Clouds 21 1016 88 6000 2.6 60 02:20 26.12.2019
1710 Mist 21 1015 94 3800 2.6 60 01:42 26.12.2019
1711 Mist 21 1015 94 3800 2.6 60 01:24 26.12.2019
1712 Mist 21 1014 94 4400 2.1 70 00:42 26.12.2019
1713 Mist 21 1014 94 4400 2.1 70 00:22 26.12.2019
1714 Mist 22 1014 88 4400 1.5 110 23:42 25.12.2019
1715 Mist 22 1014 88 4400 1.5 110 23:21 25.12.2019
1716 Rain 22 1013 88 4100 1 0 22:59 25.12.2019
1717 Rain 22 1013 88 3700 1.5 70 22:40 25.12.2019
1718 Rain 22 1013 88 3700 1.5 70 22:22 25.12.2019
1719 Rain 22 1013 88 3700 1.5 70 22:22 25.12.2019
1720 Clouds 22 1013 88 6000 1.5 80 21:59 25.12.2019
1721 Mist 22 1013 88 5000 2.6 120 21:40 25.12.2019
1722 Mist 22 1013 88 5000 2.6 120 21:22 25.12.2019
1723 Clouds 22 1013 88 6000 3.6 120 20:57 25.12.2019
1724 Mist 22 1013 88 5000 3.1 100 20:39 25.12.2019
1725 Mist 22 1013 88 5000 3.1 100 20:18 25.12.2019
1726 Mist 22 1013 88 4300 3.1 100 19:44 25.12.2019
1727 Mist 22 1013 88 4200 2.6 100 19:25 25.12.2019
1728 Mist 21 1013 94 4400 2.1 80 18:59 25.12.2019
1729 Mist 21 1013 94 4400 2.6 90 18:38 25.12.2019
1730 Mist 21 1013 94 4400 2.6 90 18:38 25.12.2019
1731 Mist 21 1013 94 4400 2.6 90 18:19 25.12.2019
1732 Mist 21 1013 94 4600 2.6 100 17:43 25.12.2019
1733 Mist 22 1013 88 5000 3.1 90 17:20 25.12.2019
1734 Clouds 22 1013 88 6000 3.1 90 16:59 25.12.2019
1735 Clouds 22 1013 83 9000 3.6 140 16:39 25.12.2019
1736 Clouds 22 1013 83 9000 3.6 140 16:19 25.12.2019
1737 Clouds 22 1013 83 10000 3.6 130 15:57 25.12.2019
1738 Clouds 22 1013 83 10000 3.6 110 15:39 25.12.2019
1739 Clouds 22 1013 83 10000 3.6 110 15:20 25.12.2019
1740 Clouds 23 1012 78 10000 3.6 120 14:57 25.12.2019
1741 Clouds 23 1012 78 10000 4.6 130 14:39 25.12.2019
1742 Clouds 23 1012 78 10000 4.6 130 14:20 25.12.2019
1743 Clouds 24 1012 73 10000 4.6 130 13:45 25.12.2019
1744 Clouds 24 1011 73 10000 4.6 130 13:21 25.12.2019
1745 Clouds 24 1011 69 10000 4.1 130 12:57 25.12.2019
1746 Clouds 25 1010 65 10000 4.1 140 12:38 25.12.2019
1747 Clouds 25 1010 65 10000 4.1 140 12:19 25.12.2019
1748 Clouds 25 1010 65 10000 4.6 130 11:43 25.12.2019
1749 Clouds 26 1010 61 10000 4.6 140 11:22 25.12.2019
1750 Clouds 27 1010 57 10000 4.6 140 10:59 25.12.2019
1751 Clouds 27 1010 57 10000 4.6 140 10:59 25.12.2019
1752 Clouds 27 1010 57 10000 4.6 140 10:36 25.12.2019
1753 Clouds 27 1010 57 10000 4.6 140 10:18 25.12.2019
1754 Clouds 27 1010 57 10000 4.6 140 09:44 25.12.2019
1755 Clouds 27 1010 57 10000 4.6 150 09:26 25.12.2019
1756 Clouds 27 1010 57 10000 5.1 150 08:46 25.12.2019
1757 Clouds 27 1010 57 10000 4.6 160 08:26 25.12.2019
1758 Clouds 27 1011 57 10000 4.6 160 07:45 25.12.2019
1759 Clouds 27 1011 57 10000 5.1 160 07:23 25.12.2019
1760 Clouds 28 1012 54 10000 5.1 180 06:47 25.12.2019
1761 Clouds 27 1013 61 10000 4.6 160 06:22 25.12.2019
1762 Clouds 25 1015 69 10000 5.1 140 04:49 25.12.2019
1763 Clouds 24 1015 78 8000 4.6 140 04:25 25.12.2019
1764 Mist 23 1015 83 5000 4.1 130 03:58 25.12.2019
1765 Mist 22 1016 88 5000 4.1 120 03:39 25.12.2019
1766 Mist 22 1015 88 4500 3.1 120 02:32 25.12.2019
1767 Mist 22 1015 88 4300 3.6 120 01:55 25.12.2019
1768 Mist 22 1014 88 4100 3.1 130 01:24 25.12.2019
1769 Mist 22 1014 88 5000 3.1 120 00:46 25.12.2019
1770 Mist 21 1013 94 5000 3.6 130 00:27 25.12.2019
1771 Mist 21 1013 94 4600 3.6 120 23:55 24.12.2019
1772 Mist 21 1013 94 4700 4.1 130 23:36 24.12.2019
1773 Mist 21 1013 94 4700 4.1 130 23:18 24.12.2019
1774 Mist 21 1013 94 5000 5.1 120 22:38 24.12.2019
1775 Mist 21 1013 94 5000 5.1 120 22:20 24.12.2019
1776 Mist 21 1013 94 4200 3.1 110 21:42 24.12.2019
1777 Mist 21 1013 94 4200 3.6 120 21:22 24.12.2019
1778 Mist 21 1013 94 4000 3.6 110 20:43 24.12.2019
1779 Mist 21 1014 94 3800 3.6 110 20:24 24.12.2019
1780 Mist 21 1014 94 4400 4.1 110 19:57 24.12.2019
1781 Mist 22 1014 88 4600 4.1 120 19:37 24.12.2019
1782 Mist 22 1014 88 4600 4.1 120 19:18 24.12.2019
1783 Mist 22 1014 88 4200 3.1 120 18:42 24.12.2019
1784 Mist 22 1014 88 4200 3.1 120 18:19 24.12.2019
1785 Mist 22 1015 88 4500 3.1 110 17:45 24.12.2019
1786 Mist 22 1015 88 5000 3.1 130 17:23 24.12.2019
1787 Mist 22 1015 88 5000 3.6 120 16:58 24.12.2019
1788 Mist 22 1015 88 5000 3.6 120 16:58 24.12.2019
1789 Mist 22 1015 88 5000 3.1 120 16:40 24.12.2019
1790 Mist 22 1015 88 5000 3.1 120 16:40 24.12.2019
1791 Mist 22 1015 88 5000 3.1 120 16:21 24.12.2019
1792 Clouds 22 1015 88 5000 3.6 110 15:58 24.12.2019
1793 Clouds 22 1015 88 6000 3.6 110 15:38 24.12.2019
1794 Clouds 22 1015 88 6000 3.6 110 15:19 24.12.2019
1795 Clouds 22 1015 88 6000 4.6 120 14:58 24.12.2019
1796 Clouds 22 1015 88 5000 4.1 120 14:40 24.12.2019
1797 Clouds 22 1015 88 5000 4.1 120 14:22 24.12.2019
1798 Clouds 22 1014 88 6000 4.6 110 13:56 24.12.2019
1799 Clouds 23 1014 83 6000 4.6 120 13:38 24.12.2019
1800 Clouds 23 1014 83 6000 4.6 120 13:20 24.12.2019
1801 Clouds 23 1014 83 7000 3.6 100 12:56 24.12.2019
1802 Mist 23 1013 83 5000 3.1 100 12:38 24.12.2019
1803 Mist 23 1013 83 5000 3.1 100 12:19 24.12.2019
1804 Mist 23 1013 83 1900 2.6 100 11:56 24.12.2019
1805 Mist 24 1013 78 1900 3.1 90 11:37 24.12.2019
1806 Mist 24 1013 78 1900 3.1 90 11:19 24.12.2019
1807 Mist 25 1013 73 2300 3.1 90 10:56 24.12.2019
1808 Mist 25 1013 73 3400 3.6 120 10:38 24.12.2019
1809 Mist 25 1013 73 3400 3.6 120 10:19 24.12.2019
1810 Mist 25 1013 73 3500 3.1 120 09:55 24.12.2019
1811 Mist 25 1013 73 3300 2.6 140 09:37 24.12.2019
1812 Mist 25 1013 73 3300 2.6 140 09:19 24.12.2019
1813 Mist 25 1013 69 3100 2.1 130 08:46 24.12.2019
1814 Mist 25 1014 73 3200 2.1 110 08:24 24.12.2019
1815 Mist 24 1014 78 3000 1 0 07:46 24.12.2019
1816 Mist 23 1015 83 2300 1.5 160 07:27 24.12.2019
1817 Mist 23 1016 83 2300 1.5 200 06:59 24.12.2019
1818 Mist 22 1016 88 2200 1 0 06:39 24.12.2019
1819 Mist 22 1016 88 2200 1 0 06:19 24.12.2019
1820 Mist 22 1017 83 2000 0.5 0 05:46 24.12.2019
1821 Mist 21 1017 88 1800 1.5 10 05:18 24.12.2019
1822 Mist 20 1018 94 1000 1 0 03:55 24.12.2019
1823 Fog 19 1018 100 800 2.1 290 03:25 24.12.2019
1824 Drizzle 19 1017 93 450 2.1 280 02:25 24.12.2019
1825 Mist 19 1017 93 1000 1.5 280 01:52 24.12.2019
1826 Mist 19 1017 93 1300 2.1 290 01:23 24.12.2019
1827 Mist 19 1016 93 1900 2.1 270 00:47 24.12.2019
1828 Mist 19 1016 93 3000 1.5 250 00:26 24.12.2019
1829 Mist 19 1015 93 2800 1.5 280 23:59 23.12.2019
1830 Rain 19 1015 93 2900 2.1 290 23:41 23.12.2019
1831 Rain 19 1015 93 2900 2.1 290 23:23 23.12.2019
1832 Rain 19 1015 93 2900 2.1 290 23:23 23.12.2019
1833 Mist 19 1015 93 2900 1.5 290 22:56 23.12.2019
1834 Mist 19 1015 93 2900 1.5 290 22:56 23.12.2019
1835 Mist 19 1015 93 3900 2.12 113 22:37 23.12.2019
1836 Mist 19 1015 93 3900 2.12 113 22:19 23.12.2019
1837 Mist 19 1015 93 3700 2.12 113 21:55 23.12.2019
1838 Mist 19 1015 93 3700 2.12 113 21:55 23.12.2019
1839 Mist 19 1015 93 3800 1.5 100 21:36 23.12.2019
1840 Mist 19 1015 93 3800 1.5 100 21:36 23.12.2019
1841 Mist 19 1015 93 3800 1.5 100 21:36 23.12.2019
1842 Mist 19 1015 93 3800 1.5 100 21:18 23.12.2019
1843 Mist 19 1015 93 3900 1.5 110 20:57 23.12.2019
1844 Mist 20 1015 88 3900 1.5 80 20:39 23.12.2019
1845 Mist 20 1015 88 3900 1.5 80 20:18 23.12.2019
1846 Mist 19 1015 93 4300 1.5 70 19:56 23.12.2019
1847 Mist 19 1015 93 4300 1.5 80 19:38 23.12.2019
1848 Mist 19 1015 93 4300 1.5 80 19:19 23.12.2019
1849 Mist 19 1015 93 4200 2.1 90 18:57 23.12.2019
1850 Mist 19 1015 93 4500 2.1 90 18:38 23.12.2019
1851 Mist 19 1015 93 4500 2.1 90 18:20 23.12.2019
1852 Mist 20 1016 88 4800 1.5 100 17:56 23.12.2019
1853 Mist 19 1016 93 4600 1.5 60 17:37 23.12.2019
1854 Mist 19 1016 93 4600 1.5 60 17:19 23.12.2019
1855 Mist 19 1016 93 4000 1.5 80 16:42 23.12.2019
1856 Mist 19 1016 93 4000 1.5 80 16:42 23.12.2019
1857 Mist 20 1016 88 4400 1 0 16:19 23.12.2019
1858 Mist 20 1016 88 4400 1 0 16:19 23.12.2019
1859 Mist 20 1015 88 4300 1 0 15:59 23.12.2019
1860 Mist 19 1015 93 4300 1 0 15:38 23.12.2019
1861 Mist 19 1015 93 4300 1 0 15:20 23.12.2019
1862 Mist 19 1014 93 4200 2.29 118 14:59 23.12.2019
1863 Mist 19 1014 93 4400 0.5 0 14:41 23.12.2019
1864 Mist 19 1014 93 4400 0.5 0 14:22 23.12.2019
1865 Mist 19 1014 93 4700 0.5 0 13:58 23.12.2019
1866 Mist 19 1014 93 4300 1 0 13:40 23.12.2019
1867 Mist 19 1014 93 4300 1 0 13:22 23.12.2019
1868 Mist 19 1013 93 4600 0.5 0 12:56 23.12.2019
1869 Mist 19 1013 93 4300 1.5 60 12:37 23.12.2019
1870 Mist 19 1013 93 4300 1.5 60 12:19 23.12.2019
1871 Mist 19 1012 93 2700 1.5 30 11:44 23.12.2019
1872 Mist 19 1012 93 2700 1.5 30 11:25 23.12.2019
1873 Mist 20 1012 88 2500 2.6 20 10:57 23.12.2019
1874 Mist 20 1012 88 2500 2.6 20 10:57 23.12.2019
1875 Mist 20 1012 88 2300 2.1 50 10:39 23.12.2019
1876 Mist 20 1012 88 2300 2.1 50 10:20 23.12.2019
1877 Mist 20 1012 88 2500 2.1 50 09:59 23.12.2019
1878 Mist 20 1012 88 2500 1.5 40 09:39 23.12.2019
1879 Mist 20 1012 88 2500 1.5 40 09:20 23.12.2019
1880 Mist 20 1012 88 2900 1.5 90 08:55 23.12.2019
1881 Mist 20 1012 88 2900 1 0 08:37 23.12.2019
1882 Mist 20 1012 88 2900 1 0 08:19 23.12.2019
1883 Mist 19 1013 88 3600 1 0 07:43 23.12.2019
1884 Mist 19 1013 88 3600 1 0 07:20 23.12.2019
1885 Mist 19 1014 88 3900 1.5 330 06:52 23.12.2019
1886 Mist 18 1015 93 4200 1 0 06:25 23.12.2019
1887 Drizzle 18 1015 93 4200 0.5 0 05:50 23.12.2019
1888 Drizzle 18 1016 93 2600 1 0 05:26 23.12.2019
1889 Drizzle 17 1016 100 3200 1 0 04:27 23.12.2019
1890 Rain 16 1016 100 2300 1.5 70 02:58 23.12.2019
1891 Rain 16 1015 100 2300 1 80 02:40 23.12.2019
1892 Rain 16 1015 100 2300 1 80 02:18 23.12.2019
1893 Rain 16 1014 100 2200 1 50 01:41 23.12.2019
1894 Rain 16 1014 100 2200 1 50 01:19 23.12.2019
1895 Drizzle 16 1013 93 3200 1 0 00:41 23.12.2019
1896 Drizzle 16 1013 93 3200 1 0 00:19 23.12.2019
1897 Drizzle 16 1013 93 2800 1.5 40 23:39 22.12.2019
1898 Drizzle 16 1013 93 2800 1.5 40 23:20 22.12.2019
1899 Drizzle 16 1013 93 2500 1.5 70 22:58 22.12.2019
1900 Drizzle 16 1013 93 2800 1.5 50 22:38 22.12.2019
1901 Drizzle 16 1013 93 2800 1.5 50 22:19 22.12.2019
1902 Drizzle 16 1013 93 2100 2.1 70 21:57 22.12.2019
1903 Drizzle 16 1013 93 2100 2.1 70 21:57 22.12.2019
1904 Mist 16 1013 93 2400 2.1 70 21:39 22.12.2019
1905 Mist 16 1013 93 2400 2.1 70 21:20 22.12.2019
1906 Drizzle 16 1013 93 2600 1.5 100 20:56 22.12.2019
1907 Mist 16 1013 93 3200 2.6 60 20:38 22.12.2019
1908 Mist 16 1013 93 3200 2.6 60 20:18 22.12.2019
1909 Drizzle 16 1013 93 3500 2.6 60 19:41 22.12.2019
1910 Drizzle 16 1014 93 2900 2.6 60 19:21 22.12.2019
1911 Drizzle 16 1014 93 3100 2.6 60 18:58 22.12.2019
1912 Drizzle 15 1014 100 2400 1.5 60 18:38 22.12.2019
1913 Drizzle 15 1014 100 2400 1.5 60 18:19 22.12.2019
1914 Drizzle 15 1014 100 2700 1.5 80 17:55 22.12.2019
1915 Drizzle 15 1014 100 2400 2.1 70 17:37 22.12.2019
1916 Drizzle 15 1014 100 2400 2.1 70 17:18 22.12.2019
1917 Rain 15 1015 93 3300 2.1 70 16:43 22.12.2019
1918 Rain 15 1015 93 3300 2.1 70 16:43 22.12.2019
1919 Rain 15 1015 93 3300 2.1 70 16:23 22.12.2019
1920 Rain 15 1015 93 3100 2.1 80 15:59 22.12.2019
1921 Rain 15 1015 100 3000 2.1 80 15:39 22.12.2019
1922 Rain 15 1015 100 3000 2.1 80 15:21 22.12.2019
1923 Rain 15 1015 100 3000 2.1 80 15:21 22.12.2019
1924 Drizzle 16 1014 93 3800 2.1 40 14:59 22.12.2019
1925 Drizzle 16 1014 93 3300 2.1 50 14:38 22.12.2019
1926 Drizzle 16 1014 93 3300 2.1 50 14:19 22.12.2019
1927 Rain 16 1014 87 5000 2.1 50 13:56 22.12.2019
1928 Rain 16 1014 87 6000 2.1 30 13:38 22.12.2019
1929 Rain 16 1014 87 6000 2.1 30 13:19 22.12.2019
1930 Rain 16 1014 87 5000 2.1 40 12:57 22.12.2019
1931 Rain 16 1014 87 5000 2.1 40 12:57 22.12.2019
1932 Clouds 16 1014 87 8000 2.6 50 12:38 22.12.2019
1933 Clouds 16 1014 87 8000 2.6 50 12:19 22.12.2019
1934 Clouds 16 1014 87 7000 2.1 60 11:58 22.12.2019
1935 Clouds 16 1013 87 7000 3.1 40 11:38 22.12.2019
1936 Clouds 16 1013 87 7000 3.1 40 11:19 22.12.2019
1937 Clouds 16 1014 87 6000 3.1 50 10:57 22.12.2019
1938 Clouds 16 1014 87 6000 3.1 50 10:38 22.12.2019
1939 Clouds 16 1014 87 6000 3.1 50 10:19 22.12.2019
1940 Clouds 16 1014 87 9000 3.6 50 09:57 22.12.2019
1941 Clouds 16 1014 87 10000 3.6 40 09:39 22.12.2019
1942 Clouds 16 1014 87 10000 3.6 40 09:20 22.12.2019
1943 Clouds 16 1014 87 10000 4.1 50 08:42 22.12.2019
1944 Clouds 16 1014 87 10000 4.1 50 08:22 22.12.2019
1945 Clouds 16 1016 87 10000 3.6 40 07:44 22.12.2019
1946 Clouds 16 1016 87 10000 3.6 40 07:21 22.12.2019
1947 Clouds 16 1016 87 10000 4.1 40 06:53 22.12.2019
1948 Clouds 16 1017 87 8000 4.1 40 06:26 22.12.2019
1949 Clouds 16 1018 87 8000 4.1 40 05:33 22.12.2019
1950 Clouds 16 1019 87 7000 4.6 50 04:46 22.12.2019
1951 Rain 16 1019 87 6000 3.6 50 04:25 22.12.2019
1952 Rain 15 1019 93 8000 3.6 50 02:45 22.12.2019
1953 Drizzle 15 1018 93 5000 3.1 50 02:20 22.12.2019
1954 Drizzle 15 1018 93 3700 3.1 30 01:31 22.12.2019
1955 Drizzle 15 1017 93 4700 2.1 30 00:54 22.12.2019
1956 Drizzle 15 1017 93 6000 2.1 20 00:36 22.12.2019
1957 Drizzle 15 1017 93 6000 2.1 20 00:18 22.12.2019
1958 Drizzle 16 1016 93 5000 1.5 20 23:40 21.12.2019
1959 Drizzle 16 1016 93 5000 1.5 20 23:21 21.12.2019
1960 Rain 16 1016 93 5000 2.1 30 22:47 21.12.2019
1961 Rain 16 1016 93 5000 2.1 50 22:20 21.12.2019
1962 Rain 16 1016 93 5000 2.1 50 22:20 21.12.2019
1963 Drizzle 16 1016 93 6000 2.1 50 21:59 21.12.2019
1964 Drizzle 16 1016 93 5000 1.5 20 21:40 21.12.2019
1965 Drizzle 16 1016 93 5000 1.5 20 21:40 21.12.2019
1966 Drizzle 16 1016 93 5000 1.5 20 21:21 21.12.2019
1967 Drizzle 16 1016 93 4000 2.1 50 20:59 21.12.2019
1968 Drizzle 16 1016 93 4000 2.1 50 20:59 21.12.2019
1969 Drizzle 16 1016 93 4000 2.1 50 20:41 21.12.2019
1970 Mist 16 1016 93 4400 1.5 50 20:22 21.12.2019
1971 Mist 16 1016 93 5000 2.1 30 19:59 21.12.2019
1972 Drizzle 16 1016 93 4700 2.1 30 19:41 21.12.2019
1973 Drizzle 16 1016 93 4700 2.1 30 19:41 21.12.2019
1974 Drizzle 16 1016 93 4700 2.1 30 19:20 21.12.2019
1975 Drizzle 16 1017 93 3400 3.1 50 18:59 21.12.2019
1976 Drizzle 16 1017 93 3400 2.6 50 18:40 21.12.2019
1977 Drizzle 16 1017 93 3400 2.6 50 18:22 21.12.2019
1978 Mist 16 1017 93 3300 2.6 50 17:55 21.12.2019
1979 Mist 16 1017 93 3500 2.1 50 17:37 21.12.2019
1980 Mist 16 1017 93 3500 2.1 50 17:18 21.12.2019
1981 Rain 16 1017 93 2900 2.1 50 16:41 21.12.2019
1982 Rain 16 1017 93 2900 2.1 50 16:19 21.12.2019
1983 Rain 16 1017 93 2900 2.1 40 15:58 21.12.2019
1984 Drizzle 16 1017 93 3300 2.1 50 15:39 21.12.2019
1985 Drizzle 16 1017 93 3300 2.1 50 15:20 21.12.2019
1986 Drizzle 16 1017 93 4500 2.6 40 14:59 21.12.2019
1987 Mist 16 1016 93 5000 2.6 40 14:40 21.12.2019
1988 Mist 16 1016 93 5000 2.6 40 14:22 21.12.2019
1989 Mist 16 1016 93 4000 2.1 40 13:57 21.12.2019
1990 Mist 16 1016 93 4500 2.6 40 13:38 21.12.2019
1991 Mist 16 1016 93 4500 2.6 40 13:18 21.12.2019
1992 Mist 16 1015 93 5000 2.1 60 12:56 21.12.2019
1993 Clouds 16 1015 87 6000 3.1 60 12:37 21.12.2019
1994 Clouds 16 1015 87 6000 3.1 60 12:19 21.12.2019
1995 Clouds 16 1014 93 6000 4.1 60 11:45 21.12.2019
1996 Clouds 16 1014 93 6000 4.1 60 11:26 21.12.2019
1997 Clouds 16 1014 93 6000 4.1 60 10:57 21.12.2019
1998 Mist 16 1014 93 4100 3.6 40 10:39 21.12.2019
1999 Mist 16 1014 93 4100 3.6 40 10:21 21.12.2019
2000 Rain 16 1014 93 4600 4.6 50 09:56 21.12.2019
2001 Mist 16 1014 93 5000 3.6 50 09:37 21.12.2019
2002 Mist 16 1014 93 5000 3.6 50 09:18 21.12.2019
2003 Mist 16 1015 93 3700 3.6 50 08:44 21.12.2019
2004 Mist 16 1015 93 3700 3.6 50 08:25 21.12.2019
2005 Drizzle 16 1015 93 2400 3.1 40 07:46 21.12.2019
2006 Rain 16 1016 93 2500 3.1 50 07:22 21.12.2019
2007 Mist 16 1016 93 3100 4.1 50 06:46 21.12.2019
2008 Rain 16 1017 93 3200 3.6 50 06:26 21.12.2019
2009 Rain 16 1018 93 2700 3.6 40 05:55 21.12.2019
2010 Rain 16 1018 93 2500 3.6 50 04:58 21.12.2019
2011 Rain 16 1018 93 2500 3.6 50 04:58 21.12.2019
2012 Rain 16 1019 93 2500 2.1 70 03:59 21.12.2019
2013 Mist 15 1019 93 4500 3.1 50 03:18 21.12.2019
2014 Rain 15 1019 93 3400 3.6 50 02:18 21.12.2019
2015 Rain 15 1018 93 2600 2.6 40 01:38 21.12.2019
2016 Rain 15 1018 93 2600 2.6 40 01:20 21.12.2019
2017 Rain 15 1017 93 3900 2.6 60 00:37 21.12.2019
2018 Rain 15 1017 93 3900 2.6 60 00:18 21.12.2019
2019 Mist 15 1017 93 4400 3.1 60 23:38 20.12.2019
2020 Mist 15 1017 93 4400 3.1 60 23:19 20.12.2019
2021 Mist 15 1017 93 4800 3.1 60 22:43 20.12.2019
2022 Mist 15 1017 93 4900 3.1 50 22:21 20.12.2019
2023 Mist 15 1017 93 5000 3.1 70 21:59 20.12.2019
2024 Mist 15 1017 93 5000 2.6 60 21:40 20.12.2019
2025 Mist 15 1017 93 5000 2.6 60 21:20 20.12.2019
2026 Rain 15 1018 93 4500 2.6 50 20:41 20.12.2019
2027 Rain 15 1018 93 4500 2.6 50 20:22 20.12.2019
2028 Rain 15 1018 93 4500 2.1 50 19:59 20.12.2019
2029 Rain 15 1018 93 4500 2.1 50 19:59 20.12.2019
2030 Rain 15 1018 93 5000 2.1 20 19:40 20.12.2019
2031 Rain 15 1018 93 5000 2.1 20 19:20 20.12.2019
2032 Mist 15 1018 87 5000 3.1 40 18:55 20.12.2019
2033 Mist 15 1018 87 5000 3.1 40 18:55 20.12.2019
2034 Mist 15 1018 87 5000 3.1 40 18:55 20.12.2019
2035 Rain 15 1018 87 5000 2.6 40 18:36 20.12.2019
2036 Rain 15 1018 87 5000 2.6 40 18:18 20.12.2019
2037 Clouds 15 1019 87 6000 2.1 40 17:42 20.12.2019
2038 Clouds 15 1019 87 6000 2.1 40 17:42 20.12.2019
2039 Clouds 15 1019 87 6000 2.1 40 17:21 20.12.2019
2040 Rain 16 1019 82 6000 2.6 50 16:59 20.12.2019
2041 Clouds 16 1019 82 9000 2.6 40 16:39 20.12.2019
2042 Clouds 16 1019 82 9000 2.6 40 16:20 20.12.2019
2043 Clouds 16 1019 82 10000 2.6 40 15:57 20.12.2019
2044 Clouds 16 1018 82 8000 3.1 40 15:38 20.12.2019
2045 Clouds 16 1018 82 8000 3.1 40 15:19 20.12.2019
2046 Clouds 16 1018 82 8000 3.6 50 14:55 20.12.2019
2047 Clouds 16 1018 82 9000 3.1 40 14:37 20.12.2019
2048 Clouds 16 1018 82 9000 3.1 40 14:18 20.12.2019
2049 Clouds 16 1017 82 8000 3.1 30 13:41 20.12.2019
2050 Clouds 16 1017 82 8000 3.1 30 13:20 20.12.2019
2051 Clouds 16 1017 82 7000 2.6 40 12:57 20.12.2019
2052 Clouds 16 1017 82 7000 3.6 40 12:38 20.12.2019
2053 Clouds 16 1017 82 7000 3.6 40 12:19 20.12.2019
2054 Clouds 16 1017 82 6000 3.1 40 11:58 20.12.2019
2055 Clouds 16 1017 82 6000 3.1 50 11:39 20.12.2019
2056 Clouds 16 1017 82 6000 3.1 50 11:19 20.12.2019
2057 Mist 16 1016 82 5000 3.6 40 10:57 20.12.2019
2058 Mist 16 1016 82 5000 4.1 50 10:39 20.12.2019
2059 Mist 16 1016 82 5000 4.1 50 10:20 20.12.2019
2060 Clouds 16 1016 82 6000 4.6 30 09:44 20.12.2019
2061 Mist 16 1016 82 5000 4.6 30 09:22 20.12.2019
2062 Mist 16 1016 87 4200 4.1 40 08:59 20.12.2019
2063 Drizzle 16 1017 87 3200 3.6 40 08:41 20.12.2019
2064 Drizzle 16 1017 87 3200 3.6 40 08:21 20.12.2019
2065 Mist 16 1017 82 5000 4.1 50 07:57 20.12.2019
2066 Clouds 16 1018 82 6000 3.6 40 07:38 20.12.2019
2067 Clouds 16 1018 82 6000 3.6 40 07:18 20.12.2019
2068 Clouds 16 1018 82 7000 5.1 50 06:48 20.12.2019
2069 Clouds 16 1019 82 7000 5.7 50 06:29 20.12.2019
2070 Clouds 17 1019 77 7000 5.1 50 05:49 20.12.2019
2071 Clouds 17 1020 77 7000 6.2 60 05:20 20.12.2019
2072 Clouds 16 1020 82 7000 6.2 50 03:50 20.12.2019
2073 Clouds 16 1020 82 7000 6.2 50 03:21 20.12.2019
2074 Rain 16 1020 82 6000 4.6 40 02:20 20.12.2019
2075 Clouds 17 1019 77 8000 4.1 40 01:36 20.12.2019
2076 Clouds 17 1019 77 10000 3.6 50 00:58 20.12.2019
2077 Clouds 17 1018 72 9000 4.6 40 00:36 20.12.2019
2078 Clouds 17 1018 72 10000 4.1 40 23:58 19.12.2019
2079 Clouds 17 1017 77 10000 3.6 40 23:40 19.12.2019
2080 Clouds 17 1017 77 10000 3.6 40 23:21 19.12.2019
2081 Clouds 17 1017 77 10000 4.1 50 22:40 19.12.2019
2082 Clouds 17 1017 77 10000 4.1 50 22:22 19.12.2019
2083 Clouds 17 1017 77 10000 4.1 50 21:59 19.12.2019
2084 Clouds 17 1017 77 10000 4.1 50 21:59 19.12.2019
2085 Clouds 18 1017 72 10000 4.6 40 21:41 19.12.2019
2086 Clouds 18 1017 72 10000 4.6 40 21:19 19.12.2019
2087 Clouds 18 1017 72 10000 4.1 40 20:57 19.12.2019
2088 Clouds 18 1018 72 10000 4.6 40 20:38 19.12.2019
2089 Clouds 18 1018 72 10000 4.6 40 20:20 19.12.2019
2090 Clouds 18 1018 72 10000 5.7 40 19:58 19.12.2019
2091 Clouds 18 1018 72 10000 5.1 40 19:39 19.12.2019
2092 Clouds 18 1018 72 10000 5.1 40 19:19 19.12.2019
2093 Clouds 18 1018 72 10000 5.1 40 19:19 19.12.2019
2094 Clouds 18 1018 72 10000 5.1 40 19:19 19.12.2019
2095 Clouds 18 1018 72 10000 4.6 50 18:57 19.12.2019
2096 Clouds 18 1018 72 10000 4.6 50 18:57 19.12.2019
2097 Clouds 18 1019 72 10000 4.6 50 18:39 19.12.2019
2098 Clouds 18 1019 72 10000 4.6 50 18:19 19.12.2019
2099 Clouds 18 1019 72 10000 5.1 60 17:55 19.12.2019
2100 Clouds 18 1019 72 10000 4.6 50 17:37 19.12.2019
2101 Clouds 18 1019 72 10000 4.6 50 17:18 19.12.2019
2102 Clouds 19 1019 72 10000 5.7 50 16:55 19.12.2019
2103 Clouds 19 1019 72 10000 5.7 50 16:55 19.12.2019
2104 Clouds 19 1019 68 10000 5.1 60 16:37 19.12.2019
2105 Clouds 19 1019 68 10000 5.1 60 16:19 19.12.2019
2106 Clouds 19 1018 72 10000 5.1 60 15:55 19.12.2019
2107 Clouds 19 1018 72 10000 5.7 50 15:37 19.12.2019
2108 Clouds 19 1018 72 10000 5.7 50 15:18 19.12.2019
2109 Clouds 19 1018 72 10000 5.1 50 14:42 19.12.2019
2110 Clouds 19 1018 72 10000 5.1 50 14:20 19.12.2019
2111 Clouds 20 1017 68 10000 6.7 50 13:58 19.12.2019
2112 Clouds 20 1017 68 10000 6.7 50 13:58 19.12.2019
2113 Clouds 20 1016 68 10000 5.1 60 13:38 19.12.2019
2114 Clouds 20 1016 68 10000 5.1 60 13:19 19.12.2019
2115 Clouds 20 1016 68 10000 5.1 60 12:57 19.12.2019
2116 Clouds 20 1016 72 8000 5.1 60 12:39 19.12.2019
2117 Clouds 20 1016 72 8000 5.1 60 12:39 19.12.2019
2118 Clouds 20 1016 72 8000 5.1 60 12:19 19.12.2019
2119 Clouds 21 1015 68 6000 7.2 70 11:58 19.12.2019
2120 Clouds 21 1015 68 7000 7.7 70 11:40 19.12.2019
2121 Clouds 21 1015 68 7000 7.7 70 11:18 19.12.2019
2122 Clouds 22 1015 64 6000 6.7 60 11:18 19.12.2019
2123 Clouds 22 1015 64 6000 6.7 60 10:56 19.12.2019
2124 Clouds 22 1015 64 6000 6.7 60 10:37 19.12.2019
2125 Clouds 22 1015 64 6000 6.7 60 10:19 19.12.2019
2126 Clouds 24 1015 64 6000 6.7 70 09:40 19.12.2019
2127 Clouds 24 1015 64 6000 6.7 70 09:40 19.12.2019
2128 Clouds 24 1015 64 6000 6.7 70 09:21 19.12.2019
2129 Clouds 24 1015 64 7000 6.7 60 08:58 19.12.2019
2130 Clouds 25 1015 65 8000 6.2 70 08:40 19.12.2019
2131 Clouds 25 1015 65 8000 6.2 70 08:19 19.12.2019
2132 Clouds 24 1015 69 9000 6.2 70 07:57 19.12.2019
2133 Clouds 24 1016 73 10000 6.7 70 07:38 19.12.2019
2134 Clouds 24 1016 73 10000 6.7 70 07:19 19.12.2019
2135 Clouds 25 1016 73 10000 4.6 70 06:49 19.12.2019
2136 Clouds 25 1017 73 9000 4.1 80 06:28 19.12.2019
2137 Clouds 25 1018 73 9000 4.6 90 05:55 19.12.2019
2138 Clouds 26 1019 69 10000 4.6 130 05:33 19.12.2019
2139 Clouds 26 1019 69 10000 4.1 120 04:48 19.12.2019
2140 Mist 23 1019 88 2800 1 0 02:49 19.12.2019
2141 Mist 20 1017 100 1300 1.5 90 01:47 19.12.2019
2142 Mist 20 1017 100 1300 1.5 90 01:22 19.12.2019
2143 Mist 21 1017 94 2600 2.1 80 00:39 19.12.2019
2144 Mist 21 1017 94 2600 2.1 80 00:39 19.12.2019
2145 Mist 21 1017 94 2600 2.1 80 00:20 19.12.2019
2146 Mist 21 1017 94 2600 2.1 80 23:55 18.12.2019
2147 Mist 21 1017 94 3500 3.1 80 23:36 18.12.2019
2148 Mist 21 1017 94 3500 3.1 80 23:18 18.12.2019
2149 Mist 22 1017 88 4800 3.1 80 22:55 18.12.2019
2150 Mist 22 1017 88 4800 2.1 70 22:36 18.12.2019
2151 Mist 22 1017 88 4800 2.1 70 22:18 18.12.2019
2152 Mist 22 1016 88 5000 2.6 60 21:41 18.12.2019
2153 Mist 22 1016 88 5000 2.6 60 21:21 18.12.2019
2154 Mist 22 1016 88 5000 2.6 60 20:58 18.12.2019
2155 Mist 22 1016 88 4900 2.6 70 20:39 18.12.2019
2156 Mist 22 1016 88 4900 2.6 70 20:20 18.12.2019
2157 Mist 22 1016 88 4900 2.6 70 20:20 18.12.2019
2158 Mist 22 1016 94 4700 4.6 110 19:57 18.12.2019
2159 Mist 22 1016 94 4700 4.6 110 19:39 18.12.2019
2160 Mist 22 1016 94 4700 4.6 110 19:39 18.12.2019
2161 Mist 22 1016 94 4700 4.6 110 19:19 18.12.2019
2162 Clouds 22 1016 88 6000 4.1 110 18:59 18.12.2019
2163 Mist 22 1017 88 5000 3.6 100 18:41 18.12.2019
2164 Mist 22 1017 88 5000 3.6 100 18:22 18.12.2019
2165 Clouds 22 1017 88 7000 4.6 100 17:56 18.12.2019
2166 Clouds 22 1017 88 8000 3.6 100 17:38 18.12.2019
2167 Clouds 22 1017 88 8000 3.6 100 17:38 18.12.2019
2168 Clouds 22 1017 88 8000 3.6 100 17:19 18.12.2019
2169 Clouds 23 1017 83 8000 3.6 130 16:43 18.12.2019
2170 Clouds 23 1017 83 9000 3.1 120 16:24 18.12.2019
2171 Clouds 23 1017 83 10000 3.6 130 15:59 18.12.2019
2172 Clouds 23 1017 83 10000 4.6 130 15:40 18.12.2019
2173 Clouds 23 1017 83 10000 4.6 130 15:21 18.12.2019
2174 Clouds 24 1017 78 10000 5.7 130 14:58 18.12.2019
2175 Clouds 24 1017 83 10000 5.1 130 14:40 18.12.2019
2176 Clouds 24 1017 83 10000 5.1 130 14:19 18.12.2019
2177 Clouds 24 1016 78 10000 5.1 130 13:56 18.12.2019
2178 Clouds 25 1016 73 10000 5.7 130 13:37 18.12.2019
2179 Clouds 25 1016 73 10000 5.7 130 13:19 18.12.2019
2180 Clouds 25 1015 73 10000 4.1 130 12:54 18.12.2019
2181 Clouds 25 1015 73 10000 4.1 130 12:54 18.12.2019
2182 Rain 26 1015 69 10000 4.1 130 12:36 18.12.2019
2183 Rain 26 1015 69 10000 4.1 130 12:18 18.12.2019
2184 Clouds 26 1014 69 10000 4.6 120 11:54 18.12.2019
2185 Clouds 27 1014 65 10000 5.7 130 11:36 18.12.2019
2186 Clouds 27 1014 65 10000 5.7 130 11:18 18.12.2019
2187 Clouds 27 1014 65 10000 4.6 130 10:54 18.12.2019
2188 Clouds 27 1014 65 10000 4.6 130 10:54 18.12.2019
2189 Clouds 28 1013 61 10000 4.6 130 10:36 18.12.2019
2190 Clouds 28 1013 61 10000 4.6 130 10:18 18.12.2019
2191 Clouds 28 1014 58 10000 3.6 150 09:21 18.12.2019
2192 Clouds 28 1014 58 10000 4.1 160 08:57 18.12.2019
2193 Clouds 28 1014 58 10000 4.1 160 08:57 18.12.2019
2194 Clouds 28 1014 58 10000 4.1 160 08:57 18.12.2019
2195 Clouds 29 1014 58 10000 4.1 160 08:39 18.12.2019
2196 Clouds 29 1014 58 10000 4.1 160 08:20 18.12.2019
2197 Clouds 28 1015 58 10000 2.6 170 07:42 18.12.2019
2198 Clouds 28 1015 58 10000 2.6 170 07:21 18.12.2019
2199 Clouds 27 1016 65 10000 1.5 170 06:53 18.12.2019
2200 Clouds 27 1016 65 10000 1.5 140 06:26 18.12.2019
2201 Clouds 26 1017 69 8000 2.6 150 05:39 18.12.2019
2202 Clouds 25 1018 78 7000 3.1 120 04:37 18.12.2019
2203 Mist 23 1017 88 3200 3.1 100 02:50 18.12.2019
2204 Mist 22 1017 94 2400 2.6 100 02:30 18.12.2019
2205 Mist 22 1017 94 1900 4.1 110 01:47 18.12.2019
2206 Mist 22 1016 94 2000 3.6 110 01:28 18.12.2019
2207 Mist 22 1016 94 2400 2.1 100 00:59 18.12.2019
2208 Mist 22 1016 94 3900 1.5 70 00:39 18.12.2019
2209 Mist 22 1016 94 3900 1.5 70 00:21 18.12.2019
2210 Clouds 22 1015 94 3200 2.1 90 23:44 17.12.2019
2211 Clouds 22 1015 94 3200 2.1 90 23:24 17.12.2019
2212 Mist 22 1015 94 3200 2.1 90 22:57 17.12.2019
2213 Mist 21 1015 94 4400 2.1 90 22:39 17.12.2019
2214 Mist 21 1015 94 4400 2.1 90 22:20 17.12.2019
2215 Mist 22 1015 88 5000 3.1 100 21:57 17.12.2019
2216 Mist 22 1015 88 5000 3.1 110 21:39 17.12.2019
2217 Mist 22 1015 88 5000 3.1 110 21:39 17.12.2019
2218 Mist 22 1015 88 5000 3.1 110 21:20 17.12.2019
2219 Clouds 22 1015 88 6000 2.6 100 20:59 17.12.2019
2220 Mist 22 1015 88 5000 3.1 100 20:40 17.12.2019
2221 Mist 22 1015 88 5000 3.1 100 20:19 17.12.2019
2222 Mist 22 1015 88 5000 3.6 100 19:59 17.12.2019
2223 Clouds 22 1016 88 6000 3.6 110 19:41 17.12.2019
2224 Clouds 22 1016 88 6000 3.6 110 19:20 17.12.2019
2225 Clouds 23 1016 83 6000 3.1 120 18:57 17.12.2019
2226 Clouds 22 1016 88 6000 3.6 130 18:38 17.12.2019
2227 Clouds 23 1016 83 7000 3.1 120 18:20 17.12.2019
2228 Clouds 23 1016 83 7000 3.1 120 17:55 17.12.2019
2229 Clouds 23 1016 83 7000 5.1 130 17:37 17.12.2019
2230 Clouds 23 1016 83 7000 5.1 130 17:18 17.12.2019
2231 Clouds 22 1016 88 6000 4.1 130 16:55 17.12.2019
2232 Clouds 22 1016 88 6000 4.1 120 16:36 17.12.2019
2233 Clouds 22 1016 88 6000 4.1 120 16:18 17.12.2019
2234 Clear 23 1016 83 8000 4.1 120 15:38 17.12.2019
2235 Clear 23 1016 83 8000 4.1 120 15:20 17.12.2019
2236 Clouds 23 1016 83 7000 4.1 130 14:57 17.12.2019
2237 Clouds 24 1015 78 7000 5.1 130 14:38 17.12.2019
2238 Clouds 24 1015 78 7000 5.1 130 14:19 17.12.2019
2239 Clouds 24 1015 78 7000 5.1 130 14:19 17.12.2019
2240 Mist 24 1015 78 5000 3.6 110 13:58 17.12.2019
2241 Mist 24 1015 78 4900 2.6 100 13:40 17.12.2019
2242 Mist 24 1015 78 4900 2.6 100 13:19 17.12.2019
2243 Mist 23 1014 83 5000 2.1 90 12:59 17.12.2019
2244 Clouds 24 1014 73 7000 2.6 90 12:38 17.12.2019
2245 Clouds 24 1014 73 7000 2.6 90 12:38 17.12.2019
2246 Clouds 26 1014 65 8000 2.6 130 12:18 17.12.2019
2247 Clouds 26 1014 65 8000 2.6 130 12:18 17.12.2019
2248 Clouds 26 1014 65 8000 2.6 130 11:56 17.12.2019
2249 Clouds 26 1014 61 10000 2.1 150 11:37 17.12.2019
2250 Clouds 27 1014 57 10000 3.1 160 11:18 17.12.2019
2251 Clouds 27 1014 57 10000 3.1 160 10:57 17.12.2019
2252 Clouds 27 1014 61 10000 2.6 170 10:38 17.12.2019
2253 Clouds 27 1014 61 10000 2.6 170 10:19 17.12.2019
2254 Clouds 27 1014 61 8000 2.6 130 09:43 17.12.2019
2255 Haze 26 1014 69 5000 1.5 360 09:22 17.12.2019
2256 Mist 26 1014 69 5000 2.1 360 08:59 17.12.2019
2257 Mist 25 1014 73 5000 2.1 10 08:40 17.12.2019
2258 Mist 25 1014 73 5000 2.1 10 08:22 17.12.2019
2259 Mist 25 1014 73 5000 2.1 10 08:22 17.12.2019
2260 Mist 26 1015 69 4200 1.5 320 07:58 17.12.2019
2261 Mist 25 1015 73 4200 1 0 07:39 17.12.2019
2262 Mist 25 1015 73 4200 1 0 07:21 17.12.2019
2263 Mist 25 1017 78 4000 1.5 0 06:42 17.12.2019
2264 Mist 25 1017 78 4000 1.5 0 06:24 17.12.2019
2265 Mist 24 1017 78 4200 2.1 130 06:24 17.12.2019
2266 Clouds 25 1017 73 6000 2.1 170 05:41 17.12.2019
2267 Clouds 24 1018 78 6000 2.6 150 04:53 17.12.2019
2268 Mist 23 1018 83 4400 2.6 150 03:51 17.12.2019
2269 Mist 22 1018 88 2400 2.1 110 02:25 17.12.2019
2270 Mist 21 1017 94 2100 1 80 01:21 17.12.2019
2271 Mist 21 1016 94 3400 1 0 00:47 17.12.2019
2272 Mist 21 1016 94 3800 1 0 00:21 17.12.2019
2273 Mist 21 1016 94 3800 1 0 00:21 17.12.2019
2274 Mist 21 1016 94 3800 1 0 00:21 17.12.2019
2275 Mist 21 1015 94 4100 1.5 130 23:44 16.12.2019
2276 Mist 21 1015 94 4000 1 0 23:20 16.12.2019
2277 Mist 21 1015 94 4000 1 0 22:59 16.12.2019
2278 Mist 20 1015 94 3200 1.5 90 22:39 16.12.2019
2279 Mist 20 1015 94 3200 1.5 90 22:21 16.12.2019
2280 Mist 20 1015 94 3500 1.5 90 21:57 16.12.2019
2281 Mist 20 1015 94 3500 1.5 90 21:57 16.12.2019
2282 Mist 21 1015 88 4200 2.6 100 21:39 16.12.2019
2283 Mist 21 1015 88 4200 2.6 100 21:20 16.12.2019
2284 Mist 21 1015 88 4400 3.6 110 20:58 16.12.2019
2285 Mist 21 1015 94 4700 4.1 110 20:39 16.12.2019
2286 Mist 21 1015 94 4700 4.1 110 20:39 16.12.2019
2287 Mist 21 1015 94 4700 4.1 110 20:19 16.12.2019
2288 Mist 21 1016 94 4900 3.1 120 19:56 16.12.2019
2289 Mist 20 1016 94 3800 3.1 100 19:37 16.12.2019
2290 Mist 20 1016 94 3800 3.1 100 19:19 16.12.2019
2291 Mist 20 1016 94 4300 2.6 90 18:58 16.12.2019
2292 Mist 21 1016 88 4700 2.6 110 18:40 16.12.2019
2293 Mist 21 1016 88 4700 2.6 110 18:20 16.12.2019
2294 -273 0 0 0 0 0 17:57 16.12.2019
2295 Clear 21 1016 88 7000 3.6 130 17:39 16.12.2019
2296 Clear 21 1016 88 7000 3.6 130 17:21 16.12.2019
2297 Clear 22 1016 83 7000 3.6 120 16:57 16.12.2019
2298 Clear 22 1016 83 6000 3.6 120 16:38 16.12.2019
2299 Clear 22 1016 83 6000 3.6 120 16:19 16.12.2019
2300 Clear 22 1016 88 6000 3.6 0 15:58 16.12.2019
2301 Clear 22 1016 88 6000 3.6 120 15:38 16.12.2019
2302 Clear 22 1016 88 6000 3.6 120 15:20 16.12.2019
2303 Clear 23 1016 83 7000 4.1 120 14:57 16.12.2019
2304 Clear 24 1015 78 8000 4.6 130 14:37 16.12.2019
2305 Clouds 24 1015 78 8000 4.6 130 14:19 16.12.2019
2306 Clouds 24 1015 73 8000 4.1 130 13:56 16.12.2019
2307 Clouds 24 1015 73 7000 3.6 120 13:37 16.12.2019
2308 Clouds 24 1015 73 7000 3.6 120 13:19 16.12.2019
2309 Clouds 25 1014 65 7000 2.6 120 12:57 16.12.2019
2310 Clouds 24 1014 69 8000 1.5 110 12:39 16.12.2019
2311 Clouds 24 1014 69 8000 1.5 110 12:18 16.12.2019
2312 Clouds 26 1014 61 9000 3.1 160 11:57 16.12.2019
2313 Clouds 27 1014 57 10000 3.1 150 11:39 16.12.2019
2314 Clouds 27 1014 57 10000 3.1 150 11:19 16.12.2019
2315 Clouds 27 1013 57 10000 2.6 150 10:54 16.12.2019
2316 Clouds 27 1013 57 10000 2.6 140 10:36 16.12.2019
2317 Clouds 27 1013 57 10000 2.6 140 10:18 16.12.2019
2318 Clouds 27 1013 57 10000 2.6 150 09:43 16.12.2019
2319 Clouds 27 1013 57 9000 2.1 0 09:24 16.12.2019
2320 Clouds 27 1014 57 10000 2.1 170 08:41 16.12.2019
2321 Clouds 27 1014 57 10000 2.1 170 08:20 16.12.2019
2322 Clouds 26 1014 61 8000 1.5 0 07:53 16.12.2019
2323 Clouds 26 1015 65 8000 2.1 260 07:31 16.12.2019
2324 Clouds 26 1016 61 7000 2.6 170 06:58 16.12.2019
2325 Clouds 24 1017 69 6000 2.1 180 06:40 16.12.2019
2326 Mist 24 1017 73 5000 2.1 150 06:20 16.12.2019
2327 Mist 24 1018 73 4600 2.1 170 05:41 16.12.2019
2328 Mist 24 1018 73 4600 2.1 170 05:22 16.12.2019
2329 Mist 21 1018 88 3400 2.1 140 03:28 16.12.2019
2330 Mist 21 1017 88 2500 2.6 130 01:46 16.12.2019
2331 Mist 20 1016 94 1900 3.1 120 01:21 16.12.2019
2332 Mist 20 1015 94 3900 2.6 110 00:39 16.12.2019
2333 Mist 20 1015 94 3900 2.1 110 00:19 16.12.2019
2334 Mist 20 1016 94 3800 1.5 110 23:44 15.12.2019
2335 Mist 20 1016 94 3800 1.5 110 23:25 15.12.2019
2336 Mist 20 1016 94 4000 2.1 100 22:57 15.12.2019
2337 Mist 20 1016 94 3800 2.1 120 22:38 15.12.2019
2338 Mist 20 1016 94 3800 2.1 120 22:19 15.12.2019
2339 Mist 20 1016 94 3900 1.5 90 21:58 15.12.2019
2340 Mist 20 1016 94 3700 2.1 50 21:39 15.12.2019
2341 Mist 20 1016 94 3700 2.1 50 21:20 15.12.2019
2342 Mist 20 1016 94 3200 1.5 60 20:58 15.12.2019
2343 Mist 20 1016 94 3300 2.6 80 20:40 15.12.2019
2344 Mist 20 1016 94 3300 2.6 80 20:21 15.12.2019
2345 Mist 20 1016 94 3300 2.6 80 20:21 15.12.2019
2346 Mist 20 1016 94 4400 3.1 80 19:58 15.12.2019
2347 Mist 21 1016 88 5000 2.1 90 19:40 15.12.2019
2348 Mist 21 1016 88 5000 2.1 90 19:20 15.12.2019
2349 Clouds 21 1016 88 6000 3.1 120 18:57 15.12.2019
2350 Clouds 21 1017 88 6000 4.1 130 18:39 15.12.2019
2351 Clouds 21 1017 88 6000 4.1 130 18:19 15.12.2019
2352 Clouds 21 1017 88 7000 3.1 140 17:56 15.12.2019
2353 Clouds 21 1017 88 6000 3.1 140 17:37 15.12.2019
2354 Clouds 21 1017 88 6000 3.1 140 17:37 15.12.2019
2355 Clouds 21 1017 88 6000 3.6 120 17:19 15.12.2019
2356 Clouds 21 1017 88 6000 3.6 120 16:57 15.12.2019
2357 Clouds 21 1017 88 6000 3.6 120 16:57 15.12.2019
2358 Clouds 21 1017 88 7000 4.6 150 16:39 15.12.2019
2359 Clouds 21 1017 88 7000 4.6 150 16:20 15.12.2019
2360 Clouds 21 1017 88 7000 4.1 140 15:55 15.12.2019
2361 Clouds 21 1017 88 7000 3.6 130 15:37 15.12.2019
2362 Clouds 21 1017 88 7000 3.6 130 15:18 15.12.2019
2363 Clouds 21 1017 88 7000 3.1 120 14:55 15.12.2019
2364 Clouds 22 1017 83 7000 3.1 120 14:36 15.12.2019
2365 Clouds 22 1017 83 7000 3.1 120 14:18 15.12.2019
2366 Clouds 22 1016 83 8000 3.1 130 13:55 15.12.2019
2367 Clouds 23 1016 78 8000 4.1 130 13:36 15.12.2019
2368 Clouds 23 1016 78 8000 4.1 130 13:18 15.12.2019
2369 Clouds 23 1016 78 8000 4.1 130 13:18 15.12.2019
2370 Clouds 23 1016 78 7000 5.1 130 12:55 15.12.2019
2371 Clouds 24 1016 73 7000 5.7 130 12:37 15.12.2019
2372 Clouds 24 1016 73 7000 5.7 130 12:37 15.12.2019
2373 Clouds 24 1016 73 7000 5.7 130 12:37 15.12.2019
2374 Clouds 24 1016 73 7000 5.7 130 12:19 15.12.2019
2375 Clouds 24 1015 73 8000 4.1 120 11:38 15.12.2019
2376 Clouds 25 1015 65 8000 5.1 110 11:19 15.12.2019
2377 Clouds 25 1015 65 8000 5.1 110 10:57 15.12.2019
2378 Clouds 25 1015 65 8000 3.6 110 10:38 15.12.2019
2379 Clouds 25 1015 65 8000 3.6 110 10:19 15.12.2019
2380 Clouds 26 1015 61 10000 4.1 140 09:58 15.12.2019
2381 Clouds 26 1015 61 10000 3.1 140 09:37 15.12.2019
2382 Clouds 26 1015 61 10000 3.1 140 09:19 15.12.2019
2383 Clouds 26 1015 61 10000 2.6 130 08:54 15.12.2019
2384 Clouds 26 1016 61 7000 2.6 0 08:36 15.12.2019
2385 Clouds 26 1016 61 7000 2.6 0 08:18 15.12.2019
2386 Haze 25 1017 65 4900 1.5 0 07:43 15.12.2019
2387 Haze 25 1017 65 4900 1.5 0 07:43 15.12.2019
2388 Haze 25 1017 65 4900 1.5 0 07:25 15.12.2019
2389 Mist 24 1018 69 5000 2.1 80 06:26 15.12.2019
2390 Mist 23 1019 73 3900 2.1 70 05:42 15.12.2019
2391 Mist 23 1019 73 3900 2.1 70 05:21 15.12.2019
2392 Mist 22 1019 78 4500 2.1 70 04:20 15.12.2019
2393 Mist 21 1019 88 3100 2.1 100 02:50 15.12.2019
2394 Mist 21 1019 88 3000 2.6 100 02:31 15.12.2019
2395 Mist 20 1018 88 2000 2.1 70 01:40 15.12.2019
2396 Mist 20 1018 88 2000 2.1 70 01:18 15.12.2019
2397 Mist 21 1018 83 5000 2.1 120 00:47 15.12.2019
2398 Mist 21 1018 83 5000 2.1 120 00:47 15.12.2019
2399 Mist 21 1018 83 5000 2.1 120 00:29 15.12.2019
2400 Mist 20 1017 88 5000 3.1 110 23:41 14.12.2019
2401 Mist 20 1017 88 5000 3.1 110 23:22 14.12.2019
2402 Clouds 21 1017 83 6000 4.1 110 22:59 14.12.2019
2403 Clouds 21 1017 83 7000 3.1 140 22:41 14.12.2019
2404 Clouds 21 1017 83 7000 3.1 140 22:22 14.12.2019
2405 Clouds 21 1017 83 6000 3.6 140 21:56 14.12.2019
2406 Mist 21 1017 83 5000 3.1 120 21:38 14.12.2019
2407 Mist 21 1017 83 4700 3.1 150 21:19 14.12.2019
2408 Mist 21 1017 83 4700 3.1 150 20:57 14.12.2019
2409 Mist 20 1018 88 3700 2.6 110 20:39 14.12.2019
2410 Mist 20 1018 88 3700 2.6 110 20:19 14.12.2019
2411 Mist 21 1018 83 4700 3.1 130 19:57 14.12.2019
2412 Mist 21 1018 83 4600 3.1 140 19:37 14.12.2019
2413 Mist 21 1018 83 4600 3.1 140 19:19 14.12.2019
2414 Mist 21 1018 83 4600 3.1 140 18:56 14.12.2019
2415 Mist 21 1018 83 4400 1.5 140 18:37 14.12.2019
2416 Mist 21 1018 83 4400 1.5 140 18:19 14.12.2019
2417 Mist 21 1018 83 4100 1.5 200 17:43 14.12.2019
2418 Mist 21 1018 83 4100 1.5 200 17:23 14.12.2019
2419 Mist 21 1018 83 4100 1.5 200 16:56 14.12.2019
2420 Mist 21 1018 83 4100 1.5 160 16:38 14.12.2019
2421 Mist 21 1018 83 4100 1.5 160 16:18 14.12.2019
2422 Mist 21 1018 83 3800 1.5 130 15:42 14.12.2019
2423 Mist 21 1018 83 4300 1.5 150 15:21 14.12.2019
2424 Mist 20 1018 82 3500 1 70 14:58 14.12.2019
2425 Mist 20 1018 82 4100 1.5 110 14:38 14.12.2019
2426 Mist 20 1018 82 4100 1.5 110 14:19 14.12.2019
2427 Mist 21 1018 77 4400 2.1 120 13:45 14.12.2019
2428 Mist 21 1018 77 4500 1.5 70 13:20 14.12.2019
2429 Mist 21 1018 77 5000 2.1 100 12:59 14.12.2019
2430 Clouds 22 1017 73 6000 3.1 90 12:40 14.12.2019
2431 Mist 22 1017 73 4500 2.6 100 12:21 14.12.2019
2432 Clouds 22 1017 73 6000 3.1 90 12:21 14.12.2019
2433 Clouds 22 1017 73 6000 3.1 90 12:21 14.12.2019
2434 Mist 22 1017 73 4500 2.6 100 11:59 14.12.2019
2435 Mist 23 1017 69 4500 3.1 100 11:39 14.12.2019
2436 Haze 24 1017 64 4000 2.6 120 11:20 14.12.2019
2437 Haze 24 1017 64 4000 2.6 120 10:57 14.12.2019
2438 Haze 24 1017 64 4300 2.1 90 10:39 14.12.2019
2439 Haze 24 1017 64 4300 2.1 90 10:21 14.12.2019
2440 Haze 24 1017 64 4500 1.5 90 09:57 14.12.2019
2441 Haze 24 1018 64 4700 1.5 90 09:38 14.12.2019
2442 Haze 24 1018 64 4700 1.5 90 09:18 14.12.2019
2443 Haze 24 1019 64 4600 1.5 330 08:42 14.12.2019
2444 Haze 24 1019 64 4600 1.5 330 08:19 14.12.2019
2445 Haze 24 1019 64 4300 1 0 07:44 14.12.2019
2446 Haze 23 1020 69 4100 1.5 0 07:23 14.12.2019
2447 Haze 23 1020 69 4100 2.1 270 06:56 14.12.2019
2448 Mist 22 1021 73 3400 1.5 310 06:37 14.12.2019
2449 Mist 22 1021 73 2600 2.1 0 05:57 14.12.2019
2450 Mist 20 1023 82 2100 1.5 330 04:42 14.12.2019
2451 Mist 17 1022 93 1000 1 0 02:31 14.12.2019
2452 Fog 16 1022 93 800 1.5 100 01:49 14.12.2019
2453 Fog 16 1021 93 900 1 0 01:31 14.12.2019
2454 Mist 16 1021 93 2000 3.1 40 00:44 14.12.2019
2455 Mist 16 1021 93 2000 3.1 40 00:26 14.12.2019
2456 Mist 15 1020 93 1900 1.5 90 23:44 13.12.2019
2457 Mist 15 1020 93 1900 1.5 90 23:22 13.12.2019
2458 Mist 15 1020 93 1900 2.1 80 23:00 13.12.2019
2459 Mist 16 1020 93 1600 1.5 70 22:40 13.12.2019
2460 Mist 16 1020 93 1600 1.5 70 22:19 13.12.2019
2461 Mist 16 1020 93 2100 1.5 80 21:55 13.12.2019
2462 Mist 16 1020 93 1800 1.5 70 21:36 13.12.2019
2463 Mist 16 1020 93 1800 1.5 70 21:18 13.12.2019
2464 Mist 16 1020 93 2600 1 80 20:40 13.12.2019
2465 Mist 16 1020 93 2600 1 80 20:21 13.12.2019
2466 Mist 16 1020 93 2600 1 80 19:58 13.12.2019
2467 Mist 17 1021 88 3100 0.5 0 19:40 13.12.2019
2468 Mist 17 1021 88 3100 0.5 0 19:20 13.12.2019
2469 Mist 17 1021 88 3900 1 0 18:58 13.12.2019
2470 Mist 19 1021 82 4800 2.1 150 18:40 13.12.2019
2471 Mist 19 1021 82 4800 2.1 150 18:18 13.12.2019
2472 Mist 20 1021 77 5000 1.5 150 17:41 13.12.2019
2473 Mist 20 1021 77 5000 1.5 150 17:19 13.12.2019
2474 Mist 20 1021 77 5000 1.5 150 17:19 13.12.2019
2475 Mist 20 1021 77 5000 1.5 150 17:19 13.12.2019
2476 Mist 20 1021 77 5000 2.1 180 16:59 13.12.2019
2477 Mist 20 1021 77 4300 2.1 170 16:39 13.12.2019
2478 Mist 20 1021 77 4300 2.1 170 16:20 13.12.2019
2479 Mist 18 1021 82 3600 1 0 15:43 13.12.2019
2480 Mist 18 1021 82 3600 1 0 15:23 13.12.2019
2481 Mist 18 1020 88 2700 1 0 14:58 13.12.2019
2482 Mist 19 1020 77 4200 2.08 155 14:39 13.12.2019
2483 Mist 19 1020 77 4200 1.68 142 14:20 13.12.2019
2484 Mist 19 1020 77 4200 1.68 142 14:20 13.12.2019
2485 Mist 19 1020 77 4200 1.68 142 14:20 13.12.2019
2486 Mist 21 1020 68 4000 1 0 13:56 13.12.2019
2487 Mist 21 1020 68 4100 1 0 13:37 13.12.2019
2488 Mist 21 1020 68 4100 1 0 13:37 13.12.2019
2489 Mist 21 1020 68 4100 1 0 13:18 13.12.2019
2490 Clouds 23 1019 56 6000 1.5 160 12:42 13.12.2019
2491 Clouds 23 1019 56 6000 1.5 160 12:19 13.12.2019
2492 Haze 23 1019 56 4700 1.5 180 11:57 13.12.2019
2493 Haze 23 1019 60 5000 1.5 170 11:39 13.12.2019
2494 Haze 23 1019 60 5000 1.5 170 11:19 13.12.2019
2495 Haze 24 1019 57 5000 2.1 190 10:41 13.12.2019
2496 Haze 24 1019 57 5000 2.1 190 10:21 13.12.2019
2497 Clouds 24 1019 53 7000 2.6 170 09:43 13.12.2019
2498 Clouds 24 1019 53 7000 2.6 170 09:22 13.12.2019
2499 Clouds 24 1019 57 7000 2.1 240 08:59 13.12.2019
2500 Clouds 24 1020 53 6000 2.1 0 08:40 13.12.2019
2501 Clouds 24 1020 53 6000 2.1 0 08:22 13.12.2019
2502 Haze 23 1021 56 5000 2.1 270 07:43 13.12.2019
2503 Haze 23 1021 56 5000 2.1 270 07:20 13.12.2019
2504 Haze 23 1021 56 4700 2.1 0 06:50 13.12.2019
2505 Haze 22 1022 60 4400 2.1 300 06:28 13.12.2019
2506 Haze 21 1023 64 4100 2.1 320 05:43 13.12.2019
2507 Haze 21 1023 64 4100 2.1 320 05:20 13.12.2019
2508 Mist 19 1023 72 3100 2.6 290 04:33 13.12.2019
2509 Mist 18 1023 77 2500 2.6 280 03:29 13.12.2019
2510 Mist 17 1022 77 2600 2.6 300 02:31 13.12.2019
2511 Mist 16 1021 87 1900 2.6 290 01:39 13.12.2019
2512 Mist 16 1021 87 2700 2.6 290 00:51 13.12.2019
2513 Mist 16 1021 82 4200 1.5 290 00:29 13.12.2019
2514 Mist 16 1020 82 3400 1 220 23:46 12.12.2019
2515 Mist 16 1020 82 3700 1 170 23:27 12.12.2019
2516 Mist 15 1020 82 3600 1 130 22:57 12.12.2019
2517 Mist 15 1020 82 3400 0.5 0 22:39 12.12.2019
2518 Mist 15 1020 82 3400 0.5 0 22:21 12.12.2019
2519 Mist 14 1020 87 2900 1 100 21:56 12.12.2019
2520 Mist 15 1020 82 3100 1.5 110 21:38 12.12.2019
2521 Mist 15 1020 82 3100 1.5 110 21:20 12.12.2019
2522 Mist 15 1020 87 3300 1 0 20:59 12.12.2019
2523 Mist 15 1020 82 3600 1.5 60 20:41 12.12.2019
2524 Mist 15 1020 82 3600 1.5 60 20:23 12.12.2019
2525 Mist 16 1020 77 4000 1.5 70 19:59 12.12.2019
2526 Mist 15 1020 82 3700 1.5 70 19:40 12.12.2019
2527 Mist 15 1020 82 3700 1.5 70 19:21 12.12.2019
2528 Mist 16 1020 77 4300 1.5 80 18:56 12.12.2019
2529 Mist 16 1020 77 4300 1.5 80 18:56 12.12.2019
2530 Mist 15 1020 82 4800 1 0 18:38 12.12.2019
2531 Mist 15 1020 82 4800 1 0 18:19 12.12.2019
2532 Mist 16 1020 77 4300 1 50 17:57 12.12.2019
2533 Mist 16 1020 77 4600 1.5 30 17:38 12.12.2019
2534 Mist 16 1020 77 4600 1.5 30 17:19 12.12.2019
2535 Mist 16 1020 77 5000 1.5 40 16:55 12.12.2019
2536 Mist 17 1020 67 5000 1 0 16:37 12.12.2019
2537 Mist 17 1020 67 5000 1 0 16:19 12.12.2019
2538 Clear 18 1020 68 5000 2.1 120 15:54 12.12.2019
2539 Clear 18 1019 63 6000 2.6 130 15:36 12.12.2019
2540 Clear 18 1019 63 6000 2.6 130 15:18 12.12.2019
2541 Clear 18 1019 63 6000 2.6 130 15:18 12.12.2019
2542 Haze 19 1019 55 5000 3.6 130 14:38 12.12.2019
2543 Haze 19 1019 55 5000 3.6 130 14:19 12.12.2019
2544 Haze 19 1018 55 4200 3.1 120 13:57 12.12.2019
2545 Haze 18 1018 63 3900 1 0 13:38 12.12.2019
2546 Haze 18 1018 63 3900 1 0 13:20 12.12.2019
2547 Haze 19 1018 55 4500 1 0 12:57 12.12.2019
2548 Haze 20 1017 49 5000 1.5 90 12:38 12.12.2019
2549 Haze 20 1017 49 5000 1.5 90 12:38 12.12.2019
2550 Haze 20 1017 49 5000 1.5 90 12:19 12.12.2019
2551 Haze 20 1017 49 5000 2.6 100 11:55 12.12.2019
2552 Haze 20 1017 49 5000 2.6 100 11:55 12.12.2019
2553 Clear 21 1017 43 6000 2.6 110 11:37 12.12.2019
2554 Clear 21 1017 43 6000 2.6 110 11:19 12.12.2019
2555 Clear 23 1016 38 6000 3.1 90 10:42 12.12.2019
2556 Clear 23 1016 38 6000 3.1 90 10:23 12.12.2019
2557 Clear 24 1016 38 7000 1.5 110 09:59 12.12.2019
2558 Clear 24 1016 38 7000 1.5 110 09:59 12.12.2019
2559 Clear 24 1017 36 7000 2.6 100 09:41 12.12.2019
2560 Clear 24 1017 36 7000 2.6 100 09:23 12.12.2019
2561 Clear 24 1017 36 7000 2.6 100 09:23 12.12.2019
2562 Clear 23 1017 38 6000 2.1 140 08:55 12.12.2019
2563 Clear 24 1017 38 7000 1 0 08:37 12.12.2019
2564 Clear 24 1017 38 7000 1 0 08:19 12.12.2019
2565 Clear 22 1019 40 7000 1.5 270 07:41 12.12.2019
2566 Clear 22 1019 40 7000 1.5 270 07:23 12.12.2019
2567 Clear 21 1020 43 6000 1 0 06:44 12.12.2019
2568 Clear 21 1020 43 6000 1 0 06:24 12.12.2019
2569 Haze 20 1021 52 5000 1 0 05:36 12.12.2019
2570 Haze 19 1021 55 3900 2.1 280 04:51 12.12.2019
2571 Mist 14 1022 82 3100 2.1 300 02:57 12.12.2019
2572 Mist 12 1021 87 2300 2.1 290 02:37 12.12.2019
2573 Mist 12 1021 87 2300 2.1 290 02:18 12.12.2019
2574 Mist 11 1021 87 2500 1 300 01:36 12.12.2019
2575 Mist 11 1020 81 3800 1 0 00:58 12.12.2019
2576 Mist 11 1020 87 5000 0.5 0 00:38 12.12.2019
2577 Clear 11 1019 87 6000 2.1 200 00:18 12.12.2019
2578 Mist 11 1019 81 5000 1 0 23:40 11.12.2019
2579 Mist 11 1019 81 5000 1 0 23:19 11.12.2019
2580 Clear 11 1019 87 6000 1 300 22:57 11.12.2019
2581 Mist 11 1019 81 5000 2.1 310 22:38 11.12.2019
2582 Mist 11 1019 81 5000 2.1 310 22:19 11.12.2019
2583 Mist 11 1019 81 5000 2.6 350 21:55 11.12.2019
2584 Clear 11 1019 81 6000 1 0 21:36 11.12.2019
2585 Clear 11 1019 81 6000 1 0 21:18 11.12.2019
2586 Clear 11 1019 81 6000 1 0 21:18 11.12.2019
2587 Clear 12 1019 76 7000 2.1 100 20:55 11.12.2019
2588 Clear 12 1019 76 6000 1 0 20:36 11.12.2019
2589 Clear 12 1019 76 6000 1 0 20:18 11.12.2019
2590 Clear 12 1019 81 6000 1.5 100 19:42 11.12.2019
2591 Clear 12 1019 81 6000 1.5 100 19:23 11.12.2019
2592 Clear 12 1019 81 6000 1 350 18:59 11.12.2019
2593 Clear 13 1019 76 6000 1 0 18:40 11.12.2019
2594 Clear 13 1019 76 6000 1 0 18:20 11.12.2019
2595 Clear 12 1019 81 6000 1.5 70 17:56 11.12.2019
2596 Clear 13 1019 76 6000 0.5 0 17:38 11.12.2019
2597 Clear 13 1019 76 6000 1 0 17:18 11.12.2019
2598 Clear 13 1019 76 6000 1 0 16:55 11.12.2019
2599 Clear 13 1019 76 6000 1.5 310 16:37 11.12.2019
2600 Clear 13 1019 76 6000 1.5 310 16:18 11.12.2019
2601 Mist 13 1019 76 4700 2.1 320 15:56 11.12.2019
2602 Mist 14 1018 71 4700 1 320 15:37 11.12.2019
2603 Mist 14 1018 71 4700 1 320 15:18 11.12.2019
2604 Mist 14 1018 76 4200 2.1 350 14:54 11.12.2019
2605 Haze 15 1018 67 3500 1 0 14:36 11.12.2019
2606 Haze 15 1018 67 3500 1 0 14:36 11.12.2019
2607 Haze 15 1018 67 3500 1 0 14:18 11.12.2019
2608 Haze 17 1017 51 5000 0.45 157 13:42 11.12.2019
2609 Haze 17 1017 51 5000 0.45 157 13:22 11.12.2019
2610 Clear 18 1017 48 6000 1 330 12:58 11.12.2019
2611 Haze 19 1017 42 4500 0.5 0 12:39 11.12.2019
2612 Haze 19 1017 42 4500 0.5 0 12:21 11.12.2019
2613 Haze 19 1017 42 4500 0.5 0 12:21 11.12.2019
2614 Haze 20 1016 40 3000 1 330 11:58 11.12.2019
2615 Clear 22 1016 35 10000 2.1 290 11:39 11.12.2019
2616 Clear 22 1016 35 10000 2.1 290 11:19 11.12.2019
2617 Clear 22 1016 35 10000 2.1 290 11:19 11.12.2019
2618 Clear 22 1016 35 10000 2.1 290 10:57 11.12.2019
2619 Clear 22 1016 35 10000 2.1 290 10:38 11.12.2019
2620 Clear 22 1016 35 10000 2.1 290 10:19 11.12.2019
2621 Clear 23 1016 31 10000 1.5 0 09:43 11.12.2019
2622 Clear 23 1016 31 10000 1.5 0 09:21 11.12.2019
2623 Clear 23 1016 33 10000 2.1 320 08:58 11.12.2019
2624 Clear 23 1017 33 10000 1 0 08:39 11.12.2019
2625 Clear 23 1017 33 10000 1 0 08:19 11.12.2019
2626 Clear 23 1017 33 10000 1 0 08:19 11.12.2019
2627 Clear 22 1017 37 10000 2.1 340 07:57 11.12.2019
2628 Clear 22 1018 40 9000 1.5 0 07:39 11.12.2019
2629 Clear 22 1018 40 9000 1.5 0 07:21 11.12.2019
2630 Clear 21 1019 43 10000 2.1 280 06:44 11.12.2019
2631 Clear 21 1019 43 10000 2.1 280 06:22 11.12.2019
2632 Clear 20 1020 49 6000 2.6 300 05:45 11.12.2019
2633 Clear 19 1021 52 6000 3.1 280 05:21 11.12.2019
2634 Haze 17 1021 63 5000 3.1 310 04:38 11.12.2019
2635 Mist 13 1021 82 3500 1.5 290 02:49 11.12.2019
2636 Mist 10 1020 87 3200 0.5 0 01:26 11.12.2019
2637 Mist 10 1020 93 3400 2.06 331 00:49 11.12.2019
2638 Mist 10 1020 87 4400 0.5 0 00:23 11.12.2019
2639 Mist 10 1019 87 3600 0.5 0 23:58 10.12.2019
2640 Mist 11 1019 81 4100 1 330 23:39 10.12.2019
2641 Mist 11 1019 81 4100 1 330 23:21 10.12.2019
2642 Mist 12 1018 76 5000 1 230 22:40 10.12.2019
2643 Mist 12 1018 76 5000 1 230 22:40 10.12.2019
2644 Mist 12 1018 76 5000 1 230 22:22 10.12.2019
2645 Mist 12 1018 76 5000 1 330 21:57 10.12.2019
2646 Clear 11 1018 81 6000 1 0 21:39 10.12.2019
2647 Mist 12 1018 76 4700 2.44 358 21:21 10.12.2019
2648 Mist 12 1018 76 4700 2.44 358 20:57 10.12.2019
2649 Mist 12 1018 76 4900 1 0 20:38 10.12.2019
2650 Mist 12 1018 76 4900 1 0 20:38 10.12.2019
2651 Mist 12 1018 76 4900 1 0 20:19 10.12.2019
2652 Mist 12 1019 76 4400 1.5 70 19:55 10.12.2019
2653 Mist 14 1019 67 5000 1.5 60 19:37 10.12.2019
2654 Mist 14 1019 67 5000 1.5 60 19:19 10.12.2019
2655 Mist 13 1019 71 4700 1 60 18:40 10.12.2019
2656 Mist 13 1019 71 4700 1 60 18:20 10.12.2019
2657 Mist 13 1019 71 4700 1 60 17:58 10.12.2019
2658 Haze 14 1019 67 4800 2.1 80 17:40 10.12.2019
2659 Haze 14 1019 67 4800 2.1 80 17:20 10.12.2019
2660 Mist 13 1019 71 5000 1 70 16:54 10.12.2019
2661 Clear 14 1018 67 6000 2.1 80 16:36 10.12.2019
2662 Clear 14 1018 67 6000 2.1 80 16:18 10.12.2019
2663 Clear 14 1018 67 6000 2.1 80 16:18 10.12.2019
2664 Clear 14 1018 67 6000 2.1 80 16:18 10.12.2019
2665 Clear 14 1018 67 6000 1 0 15:38 10.12.2019
2666 Clear 14 1018 67 6000 1 0 15:18 10.12.2019
2667 Mist 14 1017 71 5000 1 0 14:56 10.12.2019
2668 Mist 14 1017 71 4500 1 0 14:37 10.12.2019
2669 Mist 14 1017 71 4500 1 0 14:19 10.12.2019
2670 Haze 15 1017 67 5000 1 330 13:56 10.12.2019
2671 Haze 16 1017 59 4400 0.47 164 13:38 10.12.2019
2672 Haze 16 1017 59 4400 0.78 137 13:19 10.12.2019
2673 Clear 18 1016 42 10000 1 0 12:45 10.12.2019
2674 Clear 18 1016 42 10000 1 0 12:45 10.12.2019
2675 Clear 20 1016 32 10000 1.5 220 12:25 10.12.2019
2676 Clear 20 1016 32 10000 1.5 220 11:45 10.12.2019
2677 Clear 21 1016 30 10000 2.1 220 11:25 10.12.2019
2678 Clear 22 1016 30 10000 1.5 250 10:58 10.12.2019
2679 Clear 22 1016 30 10000 2.1 300 10:40 10.12.2019
2680 Clear 22 1016 30 10000 2.1 300 10:22 10.12.2019
2681 Clear 23 1016 31 10000 0.99 348 09:56 10.12.2019
2682 Clear 23 1016 31 10000 1 310 09:38 10.12.2019
2683 Clear 23 1016 31 10000 1 310 09:20 10.12.2019
2684 Clear 22 1016 33 10000 1.5 330 08:57 10.12.2019
2685 Clear 22 1016 33 10000 1.5 330 08:57 10.12.2019
2686 Clear 22 1017 33 10000 2.6 270 08:38 10.12.2019
2687 Clear 22 1017 33 10000 2.6 270 08:19 10.12.2019
2688 Clear 22 1018 35 10000 1.5 270 07:44 10.12.2019
2689 Clear 22 1018 35 10000 1.5 270 07:25 10.12.2019
2690 Clear 21 1019 35 10000 1 300 06:48 10.12.2019
2691 Clear 21 1019 35 8000 3.1 300 06:22 10.12.2019
2692 Clear 20 1020 42 8000 3.1 270 05:55 10.12.2019
2693 Haze 18 1021 48 5000 3.1 310 04:58 10.12.2019
2694 Clear 14 1022 67 7000 2.1 300 03:40 10.12.2019
2695 Clear 12 1022 76 6000 1.5 320 02:47 10.12.2019
2696 Mist 10 1021 87 5000 1.5 330 01:50 10.12.2019
2697 Mist 9 1021 87 5000 2.6 310 01:25 10.12.2019
2698 Clear 10 1020 81 6000 1 290 00:43 10.12.2019
2699 Clear 10 1020 81 6000 1 290 00:24 10.12.2019
2700 Mist 10 1020 81 5000 1.5 270 23:43 09.12.2019
2701 Mist 10 1020 81 5000 1.5 270 23:24 09.12.2019
2702 Clear 10 1019 81 6000 1.5 290 22:58 09.12.2019
2703 Clear 10 1019 81 6000 1.5 290 22:58 09.12.2019
2704 Clear 10 1019 81 6000 1 300 22:40 09.12.2019
2705 Clear 10 1019 81 6000 1 300 22:20 09.12.2019
2706 Clear 11 1019 71 7000 1.7 16 21:57 09.12.2019
2707 Clear 12 1020 66 7000 0.5 0 21:39 09.12.2019
2708 Clear 12 1020 66 7000 0.5 0 21:19 09.12.2019
2709 Clear 11 1020 76 7000 2.1 0 20:57 09.12.2019
2710 Clear 11 1020 76 7000 2.1 0 20:57 09.12.2019
2711 Clear 11 1020 71 6000 1.5 80 20:39 09.12.2019
2712 Clear 11 1020 71 6000 1.5 80 20:20 09.12.2019
2713 Clear 11 1020 76 6000 2.1 90 19:56 09.12.2019
2714 Clear 11 1020 76 6000 1.5 80 19:37 09.12.2019
2715 Haze 12 1020 66 5000 2.1 60 19:19 09.12.2019
2716 Haze 12 1020 66 5000 2.1 60 18:56 09.12.2019
2717 Mist 12 1020 71 5000 1.5 50 18:38 09.12.2019
2718 Mist 12 1020 71 5000 1.5 50 18:19 09.12.2019
2719 Clear 13 1020 66 6000 2.1 50 17:57 09.12.2019
2720 Clear 14 1020 67 6000 2.1 60 17:39 09.12.2019
2721 Clear 14 1020 67 6000 2.1 60 17:20 09.12.2019
2722 Clear 13 1020 71 6000 2.1 80 16:56 09.12.2019
2723 Clear 13 1020 71 8000 1 0 16:37 09.12.2019
2724 Clear 13 1020 71 8000 1 0 16:19 09.12.2019
2725 Clear 14 1020 62 7000 1 0 15:55 09.12.2019
2726 Clear 14 1020 62 7000 1 0 15:55 09.12.2019
2727 Clear 14 1020 67 8000 1.5 330 15:37 09.12.2019
2728 Clear 14 1020 67 8000 1.5 330 15:37 09.12.2019
2729 Clear 14 1020 67 8000 1.5 330 15:19 09.12.2019
2730 Clear 14 1020 62 6000 1 0 14:42 09.12.2019
2731 Clear 14 1020 62 6000 1 0 14:19 09.12.2019
2732 Clear 16 1019 51 6000 0.72 195 13:58 09.12.2019
2733 Clear 18 1019 39 9000 2.6 210 13:38 09.12.2019
2734 Clear 19 1019 37 9000 2.1 210 13:19 09.12.2019
2735 Clear 19 1019 37 9000 2.1 210 12:57 09.12.2019
2736 Clear 20 1019 34 10000 2.1 220 12:38 09.12.2019
2737 Clear 20 1019 34 10000 2.1 220 12:19 09.12.2019
2738 Clear 20 1019 32 9000 1.5 210 11:57 09.12.2019
2739 Clear 19 1019 37 10000 2.1 280 11:37 09.12.2019
2740 Clear 19 1019 37 10000 2.1 280 11:18 09.12.2019
2741 Clear 22 1019 28 10000 2.6 300 10:41 09.12.2019
2742 Clear 22 1019 28 10000 2.6 300 10:20 09.12.2019
2743 Clear 22 1019 24 10000 2.6 260 09:59 09.12.2019
2744 Clear 22 1019 26 10000 2.1 0 09:40 09.12.2019
2745 Clear 22 1019 26 10000 2.1 0 09:21 09.12.2019
2746 Clear 23 1019 20 10000 2.1 0 08:44 09.12.2019
2747 Clouds 22 1020 26 10000 2.6 90 08:26 09.12.2019
2748 Clear 23 1020 20 10000 2.1 0 07:56 09.12.2019
2749 Clear 22 1021 21 10000 2.1 0 07:38 09.12.2019
2750 Clear 22 1021 21 10000 2.1 0 07:20 09.12.2019
2751 Clear 21 1022 26 10000 2.1 300 06:43 09.12.2019
2752 Clear 21 1022 26 10000 2.1 300 06:24 09.12.2019
2753 Clear 21 1022 26 10000 2.1 300 06:24 09.12.2019
2754 Clear 20 1024 34 10000 1.5 0 05:26 09.12.2019
2755 Clear 18 1025 45 10000 2.1 280 04:33 09.12.2019
2756 Clear 15 1025 58 10000 2.6 300 03:19 09.12.2019
2757 Clouds 13 1025 76 6000 3.1 300 02:19 09.12.2019
2758 Clouds 11 1024 76 8000 2.1 290 01:41 09.12.2019
2759 Clouds 10 1023 87 8000 1.5 290 00:45 09.12.2019
2760 Clouds 10 1023 87 8000 1.5 290 00:25 09.12.2019
2761 Clouds 11 1023 81 8000 1 310 23:40 08.12.2019
2762 Clouds 11 1023 81 8000 1 310 23:22 08.12.2019
2763 Clouds 10 1023 87 8000 2.1 320 22:57 08.12.2019
2764 Clouds 11 1023 87 6000 1.5 330 22:38 08.12.2019
2765 Clouds 11 1023 87 6000 1.5 330 22:18 08.12.2019
2766 Clouds 12 1023 71 6000 1 0 21:57 08.12.2019
2767 Clouds 12 1023 71 6000 1.5 100 21:39 08.12.2019
2768 Clouds 12 1023 71 6000 1.5 100 21:39 08.12.2019
2769 Clouds 12 1023 71 6000 1.5 100 21:19 08.12.2019
2770 Clouds 12 1023 71 6000 1 60 20:57 08.12.2019
2771 Clouds 14 1023 62 7000 1 0 20:38 08.12.2019
2772 Clouds 14 1023 62 7000 1 0 20:19 08.12.2019
2773 Clouds 14 1023 58 7000 1.5 70 19:57 08.12.2019
2774 Clouds 14 1023 58 7000 1.5 70 19:57 08.12.2019
2775 Clouds 14 1024 58 8000 1.5 60 19:39 08.12.2019
2776 Clouds 14 1024 58 8000 1.5 60 19:21 08.12.2019
2777 Clouds 14 1024 62 7000 1.5 40 18:55 08.12.2019
2778 Clouds 14 1024 58 6000 1.5 40 18:36 08.12.2019
2779 Clouds 14 1024 58 6000 1.5 40 18:18 08.12.2019
2780 Clouds 15 1024 51 6000 2.1 80 17:56 08.12.2019
2781 Clouds 15 1024 47 7000 2.1 90 17:37 08.12.2019
2782 Clouds 15 1024 47 7000 2.1 90 17:37 08.12.2019
2783 Clouds 15 1024 47 7000 2.1 90 17:19 08.12.2019
2784 Clouds 15 1024 47 8000 1.5 90 16:55 08.12.2019
2785 Clouds 15 1024 51 8000 3.1 100 16:37 08.12.2019
2786 Clouds 15 1024 51 8000 3.1 100 16:18 08.12.2019
2787 Clouds 15 1024 58 8000 2.1 320 15:38 08.12.2019
2788 Clouds 15 1024 58 8000 2.1 320 15:19 08.12.2019
2789 Clouds 15 1024 54 7000 2.1 310 14:58 08.12.2019
2790 Clouds 15 1024 54 7000 1.5 310 14:39 08.12.2019
2791 Clouds 15 1024 54 7000 1.5 310 14:39 08.12.2019
2792 Clouds 15 1024 54 7000 1.5 310 14:21 08.12.2019
2793 Clouds 16 1023 44 7000 1.5 300 13:54 08.12.2019
2794 Clouds 16 1023 48 7000 2.1 300 13:36 08.12.2019
2795 Clouds 16 1023 48 7000 2.1 300 13:18 08.12.2019
2796 Clouds 18 1023 31 7000 2.1 230 12:42 08.12.2019
2797 Clouds 18 1023 31 7000 2.1 230 12:23 08.12.2019
2798 Clouds 19 1023 29 10000 2.1 230 12:00 08.12.2019
2799 Clouds 20 1022 29 10000 2.6 230 11:38 08.12.2019
2800 Clear 20 1022 20 10000 2.6 230 11:19 08.12.2019
2801 Clear 21 1022 19 10000 1 0 10:58 08.12.2019
2802 Clear 21 1022 18 10000 1 0 10:38 08.12.2019
2803 Clear 21 1022 18 10000 1 0 10:19 08.12.2019
2804 Clear 22 1022 18 10000 1.5 180 09:56 08.12.2019
2805 Clear 22 1023 18 10000 2.1 0 09:37 08.12.2019
2806 Clear 22 1023 18 10000 2.1 0 09:19 08.12.2019
2807 Clear 22 1023 18 10000 1.5 0 08:57 08.12.2019
2808 Clear 22 1023 18 10000 2.1 0 08:36 08.12.2019
2809 Clouds 21 1024 18 10000 2.1 140 08:18 08.12.2019
2810 Clouds 22 1025 19 10000 1.5 0 07:41 08.12.2019
2811 Clouds 22 1025 19 10000 1.5 0 07:19 08.12.2019
2812 Clouds 20 1026 22 10000 2.1 310 06:43 08.12.2019
2813 Clouds 20 1026 22 10000 2.1 310 06:21 08.12.2019
2814 Clouds 19 1028 39 10000 2.1 270 05:30 08.12.2019
2815 Clouds 18 1028 39 10000 2.1 260 04:57 08.12.2019
2816 Clouds 14 1029 67 7000 2.1 310 03:41 08.12.2019
2817 Clouds 12 1029 76 7000 2.1 290 02:52 08.12.2019
2818 Clouds 12 1029 76 7000 2.1 290 02:52 08.12.2019
2819 Clouds 11 1028 81 7000 2.6 290 02:27 08.12.2019
2820 Clouds 9 1028 87 7000 1.5 300 01:48 08.12.2019
2821 Clouds 8 1027 87 9000 2.6 330 00:56 08.12.2019
2822 Clouds 8 1027 87 9000 2.6 320 00:37 08.12.2019
2823 Clouds 8 1027 87 9000 2.6 320 00:18 08.12.2019
2824 Clouds 9 1026 81 10000 1 310 23:39 07.12.2019
2825 Clouds 9 1026 81 10000 1 310 23:20 07.12.2019
2826 Clouds 9 1026 81 10000 1.5 320 22:56 07.12.2019
2827 Clouds 9 1025 81 10000 2.92 350 22:37 07.12.2019
2828 Clouds 9 1025 81 10000 2.92 350 22:19 07.12.2019
2829 Clouds 9 1025 81 10000 1.5 310 21:55 07.12.2019
2830 Clouds 10 1025 76 10000 1.5 340 21:37 07.12.2019
2831 Clouds 10 1025 76 10000 1.5 340 21:19 07.12.2019
2832 Clouds 9 1025 81 10000 1 330 20:38 07.12.2019
2833 Clouds 9 1025 81 10000 1 330 20:20 07.12.2019
2834 Clouds 11 1025 71 10000 0.5 0 19:58 07.12.2019
2835 Clouds 11 1026 66 10000 0.5 0 19:39 07.12.2019
2836 Clouds 11 1026 66 10000 0.5 0 19:21 07.12.2019
2837 Clouds 11 1026 66 10000 1.5 100 18:58 07.12.2019
2838 Clouds 12 1026 62 10000 1.5 110 18:40 07.12.2019
2839 Clouds 12 1026 62 10000 1.5 110 18:40 07.12.2019
2840 Clouds 12 1026 62 10000 1.5 110 18:18 07.12.2019
2841 Clouds 12 1026 58 10000 2.34 348 17:56 07.12.2019
2842 Clouds 13 1026 58 10000 1 0 17:37 07.12.2019
2843 Clear 13 1026 58 10000 1 0 17:19 07.12.2019
2844 Clear 13 1026 66 10000 1.75 57 16:56 07.12.2019
2845 Clear 13 1026 66 10000 1.5 360 16:36 07.12.2019
2846 Clear 13 1026 66 10000 1.5 360 16:36 07.12.2019
2847 Clear 13 1026 66 10000 1.5 360 16:18 07.12.2019
2848 Clear 13 1026 66 10000 1.5 360 16:18 07.12.2019
2849 Clear 13 1026 66 9000 1.5 10 15:41 07.12.2019
2850 Clear 13 1026 66 9000 1.5 10 15:23 07.12.2019
2851 Clear 13 1026 66 9000 1.5 10 15:23 07.12.2019
2852 Clear 14 1025 58 8000 1.5 300 14:56 07.12.2019
2853 Clear 15 1025 54 7000 2.1 320 14:38 07.12.2019
2854 Clouds 15 1025 54 7000 2.1 320 14:18 07.12.2019
2855 Smoke 16 1025 51 4800 2.1 330 13:39 07.12.2019
2856 Smoke 16 1025 51 4800 2.1 330 13:20 07.12.2019
2857 Smoke 16 1025 51 4800 2.1 330 13:20 07.12.2019
2858 Smoke 17 1025 45 4800 1.5 340 12:55 07.12.2019
2859 Clouds 17 1024 39 10000 1.5 290 12:37 07.12.2019
2860 Clouds 17 1024 39 10000 1.5 290 12:18 07.12.2019
2861 Clouds 20 1024 33 10000 1.5 300 11:41 07.12.2019
2862 Clouds 20 1024 33 10000 1.5 300 11:23 07.12.2019
2863 Clouds 21 1024 22 10000 1 0 10:56 07.12.2019
2864 Clouds 22 1024 21 10000 1.5 0 10:36 07.12.2019
2865 Clouds 22 1024 21 10000 2.1 330 10:18 07.12.2019
2866 Clouds 22 1024 21 10000 2.1 70 09:39 07.12.2019
2867 Clouds 22 1024 21 10000 2.1 70 09:21 07.12.2019
2868 Clouds 22 1024 19 10000 1 0 08:46 07.12.2019
2869 Clouds 22 1024 19 10000 2.1 0 08:25 07.12.2019
2870 Clouds 22 1024 19 10000 2.1 0 08:25 07.12.2019
2871 Clouds 22 1024 19 10000 2.1 0 08:25 07.12.2019
2872 Clouds 22 1024 19 10000 2.1 0 08:25 07.12.2019
2873 Clouds 22 1025 18 10000 2.1 320 07:53 07.12.2019
2874 Clouds 21 1025 22 10000 2.1 0 07:29 07.12.2019
2875 Clouds 21 1026 22 10000 3.6 20 06:53 07.12.2019
2876 Clouds 21 1027 26 10000 3.6 360 06:27 07.12.2019
2877 Clouds 20 1027 28 10000 4.1 10 05:49 07.12.2019
2878 Clear 19 1029 32 10000 3.6 30 04:44 07.12.2019
2879 Clear 18 1029 36 10000 3.1 20 03:50 07.12.2019
2880 Mist 13 1029 76 5000 1 0 02:23 07.12.2019
2881 Mist 13 1029 76 5000 1 0 02:23 07.12.2019
2882 Mist 10 1028 87 4100 1 290 01:42 07.12.2019
2883 Mist 10 1028 87 4100 1 290 01:24 07.12.2019
2884 Clear 10 1028 87 6000 1.5 230 00:22 07.12.2019
2885 Mist 10 1027 87 5000 1 270 23:59 06.12.2019
2886 Clear 11 1027 87 6000 2.1 310 23:40 06.12.2019
2887 Clear 11 1027 87 6000 2.1 310 23:20 06.12.2019
2888 Clear 10 1027 81 9000 1.5 270 22:39 06.12.2019
2889 Clear 10 1027 81 9000 1.5 270 22:39 06.12.2019
2890 Clear 10 1027 81 9000 1.5 270 22:21 06.12.2019
2891 Clear 10 1027 81 10000 2.1 260 21:59 06.12.2019
2892 Clear 12 1026 62 10000 1.5 290 21:41 06.12.2019
2893 Clear 12 1026 62 10000 1.5 290 21:21 06.12.2019
2894 Clear 12 1027 62 10000 1.5 330 20:56 06.12.2019
2895 Clear 11 1026 66 10000 2.1 0 20:38 06.12.2019
2896 Clear 11 1026 66 10000 2.1 0 20:38 06.12.2019
2897 Clear 11 1026 66 10000 2.1 0 20:19 06.12.2019
2898 Clear 13 1027 58 10000 1.5 310 19:42 06.12.2019
2899 Clear 13 1027 58 10000 1.5 310 19:42 06.12.2019
2900 Clear 13 1027 58 10000 1.5 310 19:24 06.12.2019
2901 Clear 12 1027 71 10000 1.5 310 18:59 06.12.2019
2902 Clear 12 1027 71 10000 1 0 18:40 06.12.2019
2903 Clear 12 1027 71 10000 1 0 18:21 06.12.2019
2904 Clear 13 1027 66 10000 1.5 0 17:57 06.12.2019
2905 Clear 13 1027 66 10000 1.5 0 17:57 06.12.2019
2906 Clear 13 1028 62 10000 2.1 70 17:39 06.12.2019
2907 Clear 13 1028 62 10000 2.1 70 17:21 06.12.2019
2908 Clear 13 1027 62 10000 1.5 90 16:56 06.12.2019
2909 Clear 13 1027 66 10000 1 0 16:37 06.12.2019
2910 Clear 13 1027 66 10000 1 0 16:18 06.12.2019
2911 Clear 14 1027 58 10000 1 0 15:41 06.12.2019
2912 Clear 14 1027 58 10000 1 0 15:19 06.12.2019
2913 Clear 14 1027 62 10000 2.6 320 14:57 06.12.2019
2914 Clear 15 1027 54 10000 2.6 310 14:39 06.12.2019
2915 Clear 15 1027 54 10000 2.6 310 14:19 06.12.2019
2916 Clear 16 1026 48 9000 2.6 320 13:44 06.12.2019
2917 Clear 16 1026 48 9000 2.6 320 13:26 06.12.2019
2918 Clear 17 1025 42 9000 3.1 310 12:44 06.12.2019
2919 Clear 17 1025 42 9000 3.1 310 12:23 06.12.2019
2920 Clear 18 1025 39 8000 2.1 320 11:58 06.12.2019
2921 Clear 20 1025 30 10000 2.6 310 11:40 06.12.2019
2922 Clear 20 1025 30 10000 2.6 310 11:40 06.12.2019
2923 Clear 20 1025 30 10000 2.6 310 11:22 06.12.2019
2924 Clear 21 1025 28 10000 2.6 330 10:44 06.12.2019
2925 Clear 21 1025 26 10000 3.6 320 10:22 06.12.2019
2926 Clear 22 1025 24 10000 4.6 320 09:59 06.12.2019
2927 Clear 21 1025 26 10000 3.1 360 09:39 06.12.2019
2928 Clear 21 1025 26 10000 3.1 360 09:20 06.12.2019
2929 Clear 22 1025 24 10000 4.1 0 08:57 06.12.2019
2930 Clear 21 1026 26 10000 4.1 0 08:38 06.12.2019
2931 Clear 21 1026 26 10000 4.1 0 08:20 06.12.2019
2932 Clear 21 1027 28 10000 3.1 0 07:37 06.12.2019
2933 Clear 21 1027 28 10000 3.1 0 07:19 06.12.2019
2934 Clear 20 1029 28 10000 4.6 350 06:30 06.12.2019
2935 Clear 20 1030 28 10000 5.7 340 05:54 06.12.2019
2936 Clear 20 1030 28 10000 5.7 340 05:54 06.12.2019
2937 Clear 20 1030 28 10000 4.6 360 05:34 06.12.2019
2938 Clear 16 1031 38 10000 3.6 360 02:19 06.12.2019
2939 Clear 14 1030 44 10000 2.6 310 01:34 06.12.2019
2940 Clear 14 1029 44 10000 4.1 320 00:46 06.12.2019
2941 Clear 14 1029 44 10000 2.1 330 00:21 06.12.2019
2942 Clear 14 1029 44 10000 2.1 330 23:47 05.12.2019
2943 Clear 14 1028 44 10000 2.1 340 23:19 05.12.2019
2944 Clear 15 1028 41 10000 1.5 350 22:57 05.12.2019
2945 Clear 15 1028 41 10000 3.1 350 22:37 05.12.2019
2946 Clear 15 1028 41 10000 3.1 350 22:37 05.12.2019
2947 Clear 15 1028 41 10000 3.1 350 22:18 05.12.2019
2948 Clear 15 1028 41 10000 2.1 360 21:44 05.12.2019
2949 Clear 16 1028 38 10000 3.1 340 21:25 05.12.2019
2950 Clear 15 1028 44 10000 2.6 350 20:59 05.12.2019
2951 Clear 15 1028 44 10000 2.6 350 20:40 05.12.2019
2952 Clear 16 1028 41 10000 2.1 350 20:20 05.12.2019
2953 Clear 16 1028 41 10000 2.1 350 20:20 05.12.2019
2954 Clear 16 1028 41 10000 2.1 350 20:20 05.12.2019
2955 Clear 16 1028 41 10000 3.1 10 19:56 05.12.2019
2956 Clear 16 1028 41 10000 2.6 10 19:38 05.12.2019
2957 Clear 16 1028 41 10000 2.6 10 19:19 05.12.2019
2958 Clear 16 1028 41 10000 3.6 0 18:54 05.12.2019
2959 Clear 17 1028 39 10000 3.6 20 18:36 05.12.2019
2960 Clear 17 1028 39 10000 3.6 20 18:18 05.12.2019
2961 Clear 17 1028 45 10000 3.6 10 17:39 05.12.2019
2962 Clear 17 1028 45 10000 3.6 10 17:19 05.12.2019
2963 Clear 17 1028 45 10000 4.1 0 16:55 05.12.2019
2964 Clear 18 1028 42 10000 4.1 20 16:37 05.12.2019
2965 Clear 18 1028 42 10000 4.1 20 16:19 05.12.2019
2966 Clear 18 1028 42 10000 4.6 20 15:56 05.12.2019
2967 Clear 18 1027 39 10000 3.6 20 15:37 05.12.2019
2968 Clear 18 1027 39 10000 3.6 20 15:18 05.12.2019
2969 Clear 18 1027 42 10000 3.6 20 14:55 05.12.2019
2970 Clear 18 1027 42 10000 3.1 20 14:36 05.12.2019
2971 Clear 18 1027 42 10000 3.1 20 14:18 05.12.2019
2972 Clear 19 1026 42 10000 3.6 30 13:55 05.12.2019
2973 Clear 19 1026 42 10000 2.6 20 13:37 05.12.2019
2974 Clear 19 1026 42 10000 2.6 20 13:18 05.12.2019
2975 Clear 19 1025 42 9000 3.1 10 12:43 05.12.2019
2976 Clear 19 1025 42 9000 3.1 10 12:43 05.12.2019
2977 Clear 20 1025 40 8000 1.5 0 12:24 05.12.2019
2978 Clear 21 1024 40 9000 2.1 340 11:56 05.12.2019
2979 Clear 21 1024 37 10000 2.1 340 11:38 05.12.2019
2980 Clear 21 1024 37 10000 2.1 340 11:20 05.12.2019
2981 Clear 21 1024 37 10000 2.1 340 11:20 05.12.2019
2982 Clear 22 1024 35 10000 3.6 330 10:56 05.12.2019
2983 Clear 23 1024 31 10000 4.1 340 10:38 05.12.2019
2984 Clear 23 1024 31 10000 4.1 340 10:18 05.12.2019
2985 Clear 23 1023 31 10000 4.1 330 09:45 05.12.2019
2986 Clear 23 1023 31 10000 4.6 330 09:21 05.12.2019
2987 Clear 23 1023 31 10000 4.1 330 08:58 05.12.2019
2988 Clear 23 1024 28 10000 4.6 340 08:38 05.12.2019
2989 Clear 23 1024 28 10000 4.6 340 08:19 05.12.2019
2990 Clear 23 1024 28 10000 4.6 340 08:19 05.12.2019
2991 Clear 23 1024 28 10000 3.6 340 07:49 05.12.2019
2992 Clear 23 1024 28 10000 3.6 340 07:49 05.12.2019
2993 Clear 23 1024 28 10000 4.1 350 07:31 05.12.2019
2994 Clear 22 1025 30 10000 5.1 340 06:57 05.12.2019
2995 Clear 22 1026 26 10000 4.6 10 06:38 05.12.2019
2996 Clear 22 1026 26 10000 4.6 10 06:18 05.12.2019
2997 Clear 21 1026 30 10000 5.7 0 05:47 05.12.2019
2998 Clear 21 1027 30 10000 4.6 10 05:21 05.12.2019
2999 Clear 20 1028 32 10000 5.1 10 03:52 05.12.2019
3000 Clear 18 1027 39 10000 4.1 360 02:43 05.12.2019
3001 Clear 18 1027 39 10000 4.1 360 02:23 05.12.2019
3002 Clear 17 1027 42 10000 3.6 360 01:51 05.12.2019
3003 Clear 15 1026 47 10000 3.6 0 01:24 05.12.2019
3004 Clear 15 1026 47 10000 3.1 10 00:47 05.12.2019
3005 Clear 15 1025 47 10000 3.1 360 00:24 05.12.2019
3006 Clear 15 1025 47 10000 3.1 10 23:56 04.12.2019
3007 Clear 16 1025 48 10000 3.1 20 23:37 04.12.2019
3008 Clear 16 1025 48 10000 3.1 20 23:19 04.12.2019
3009 Clear 16 1024 48 10000 3.6 10 22:39 04.12.2019
3010 Clear 16 1024 48 10000 3.6 10 22:20 04.12.2019
3011 Clear 15 1024 51 10000 4.1 10 21:58 04.12.2019
3012 Clear 16 1024 48 10000 4.1 10 21:39 04.12.2019
3013 Clear 16 1024 48 10000 4.1 10 21:20 04.12.2019
3014 Clear 16 1024 48 10000 4.1 0 20:58 04.12.2019
3015 Clear 17 1025 45 10000 4.1 0 20:40 04.12.2019
3016 Clear 17 1025 45 10000 4.1 0 20:21 04.12.2019
3017 Clear 17 1025 42 10000 3.1 20 19:58 04.12.2019
3018 Clear 16 1025 48 10000 2.6 20 19:38 04.12.2019
3019 Clear 16 1025 48 10000 2.6 20 19:20 04.12.2019
3020 Clear 16 1025 44 10000 2.6 20 18:42 04.12.2019
3021 Clear 16 1025 44 10000 3.1 20 18:24 04.12.2019
3022 Clear 16 1025 44 10000 3.1 20 18:00 04.12.2019
3023 Clear 17 1025 39 10000 3.1 20 17:40 04.12.2019
3024 Clear 17 1025 39 10000 3.1 20 17:40 04.12.2019
3025 Clear 17 1025 39 10000 3.1 20 17:21 04.12.2019
3026 Clear 18 1025 36 10000 4.6 0 16:57 04.12.2019
3027 Clear 18 1025 36 10000 4.6 0 16:39 04.12.2019
3028 Clear 18 1025 36 10000 4.6 0 16:19 04.12.2019
3029 Clear 18 1025 39 10000 3.6 0 15:55 04.12.2019
3030 Clear 18 1024 42 10000 2.6 0 15:37 04.12.2019
3031 Clear 18 1024 42 10000 2.6 0 15:19 04.12.2019
3032 Clear 18 1024 42 10000 2.6 0 15:19 04.12.2019
3033 Clear 18 1024 45 10000 1.5 350 14:44 04.12.2019
3034 Clear 18 1024 48 10000 1.5 350 14:23 04.12.2019
3035 Clear 17 1024 59 9000 2.6 330 13:58 04.12.2019
3036 Clear 17 1023 63 7000 2.1 0 13:38 04.12.2019
3037 Clear 17 1023 63 7000 2.1 0 13:19 04.12.2019
3038 Smoke 19 1023 48 5000 2.1 320 12:44 04.12.2019
3039 Clear 19 1022 45 7000 1.5 300 12:24 04.12.2019
3040 Smoke 19 1022 45 4800 1.5 300 11:55 04.12.2019
3041 Clear 21 1022 37 7000 2.1 320 11:36 04.12.2019
3042 Clear 21 1022 37 7000 2.1 320 11:18 04.12.2019
3043 Clear 22 1022 30 10000 2.6 360 10:42 04.12.2019
3044 Clear 22 1022 30 10000 2.6 360 10:22 04.12.2019
3045 Clear 23 1022 28 10000 2.6 330 09:55 04.12.2019
3046 Clear 23 1022 28 10000 3.1 340 09:37 04.12.2019
3047 Clear 23 1022 28 10000 3.1 340 09:18 04.12.2019
3048 Clear 23 1022 28 10000 3.1 340 09:18 04.12.2019
3049 Clear 22 1022 30 10000 4.1 40 08:39 04.12.2019
3050 Clear 22 1022 30 10000 4.1 40 08:19 04.12.2019
3051 Clear 23 1023 28 10000 3.6 20 07:47 04.12.2019
3052 Clear 23 1023 28 10000 3.6 20 07:47 04.12.2019
3053 Clear 22 1023 26 10000 3.1 10 07:29 04.12.2019
3054 Clear 22 1025 26 10000 3.6 50 06:34 04.12.2019
3055 Clear 22 1026 30 10000 4.1 10 05:48 04.12.2019
3056 Clear 20 1027 30 10000 4.6 40 04:58 04.12.2019
3057 Clear 19 1028 34 10000 4.1 40 03:54 04.12.2019
3058 Clear 16 1027 63 10000 5.85 25 02:38 04.12.2019
3059 Clear 13 1025 71 8000 0.5 0 00:51 04.12.2019
3060 Clear 13 1025 71 10000 0.5 0 00:23 04.12.2019
3061 Clear 13 1025 62 10000 0.5 0 23:57 03.12.2019
3062 Clear 13 1025 62 10000 0.5 0 23:38 03.12.2019
3063 Clear 13 1025 62 10000 0.5 0 23:19 03.12.2019
3064 Clear 14 1024 54 10000 3.64 4 22:40 03.12.2019
3065 Clear 14 1024 54 10000 3.64 4 22:19 03.12.2019
3066 Clear 14 1024 58 10000 2.1 350 21:58 03.12.2019
3067 Clear 13 1024 66 10000 2.1 340 21:37 03.12.2019
3068 Clear 13 1024 66 10000 2.1 340 21:19 03.12.2019
3069 Clear 14 1024 62 10000 1.5 340 20:57 03.12.2019
3070 Clear 13 1024 71 10000 1.5 330 20:38 03.12.2019
3071 Clear 13 1024 71 10000 1.5 330 20:18 03.12.2019
3072 Clear 14 1024 67 10000 2.1 0 19:54 03.12.2019
3073 Clear 14 1025 67 10000 1.5 0 19:36 03.12.2019
3074 Clear 14 1025 67 10000 1.5 0 19:18 03.12.2019
3075 Clear 15 1025 58 10000 2.1 0 18:55 03.12.2019
3076 Clear 16 1025 55 10000 2.6 40 18:37 03.12.2019
3077 Clear 16 1025 55 10000 2.6 40 18:18 03.12.2019
3078 Clear 16 1025 59 10000 2.6 50 17:40 03.12.2019
3079 Clear 16 1025 59 10000 2.6 50 17:19 03.12.2019
3080 Clear 16 1025 59 10000 2.6 50 16:59 03.12.2019
3081 Clear 17 1025 55 10000 2.6 50 16:40 03.12.2019
3082 Clear 17 1025 55 10000 2.6 50 16:21 03.12.2019
3083 Clear 16 1025 63 9000 2.6 40 15:59 03.12.2019
3084 Clear 16 1024 67 9000 2.6 50 15:39 03.12.2019
3085 Clear 16 1024 67 9000 2.6 50 15:39 03.12.2019
3086 Clear 16 1024 67 9000 2.6 50 15:19 03.12.2019
3087 Clear 16 1024 67 9000 2.6 50 15:19 03.12.2019
3088 Clear 16 1024 67 6000 1.5 10 14:54 03.12.2019
3089 Mist 16 1024 67 5000 1 0 14:36 03.12.2019
3090 Mist 16 1024 67 5000 1 0 14:18 03.12.2019
3091 Clouds 17 1023 59 7000 1.5 330 13:38 03.12.2019
3092 Clouds 17 1023 59 7000 1.5 330 13:20 03.12.2019
3093 Clouds 17 1022 59 10000 1.5 0 12:57 03.12.2019
3094 Clouds 18 1022 48 10000 1.5 280 12:37 03.12.2019
3095 Clouds 18 1022 48 10000 1.5 280 12:18 03.12.2019
3096 Clouds 19 1021 42 10000 1.5 290 11:56 03.12.2019
3097 Clouds 20 1021 37 10000 1.5 320 11:37 03.12.2019
3098 Clouds 21 1021 35 10000 2.1 20 11:18 03.12.2019
3099 Clouds 21 1021 35 10000 2.1 20 10:43 03.12.2019
3100 Clouds 21 1021 35 10000 2.1 20 10:21 03.12.2019
3101 Clouds 21 1021 35 10000 2.1 20 09:59 03.12.2019
3102 Clouds 21 1021 35 10000 3.1 30 09:40 03.12.2019
3103 Clouds 21 1021 35 10000 3.1 30 09:21 03.12.2019
3104 Clouds 21 1021 35 10000 3.6 40 08:55 03.12.2019
3105 Clouds 22 1021 33 10000 3.1 20 08:37 03.12.2019
3106 Clear 22 1021 33 10000 3.1 20 08:18 03.12.2019
3107 Clear 22 1022 30 10000 3.6 0 07:49 03.12.2019
3108 Clear 22 1022 33 10000 3.1 20 07:24 03.12.2019
3109 Clear 20 1024 34 10000 4.1 360 06:24 03.12.2019
3110 Clear 21 1025 35 10000 3.6 10 05:59 03.12.2019
3111 Clear 19 1026 37 10000 4.1 20 04:55 03.12.2019
3112 Clear 18 1026 36 10000 5.1 30 03:40 03.12.2019
3113 Clear 18 1026 36 10000 4.6 30 03:20 03.12.2019
3114 Clear 17 1026 42 10000 4.6 20 02:49 03.12.2019
3115 Clear 17 1026 42 10000 4.6 10 02:31 03.12.2019
3116 Clouds 16 1025 44 10000 4.1 20 01:46 03.12.2019
3117 Clouds 16 1025 44 10000 4.1 10 01:28 03.12.2019
3118 Clear 16 1025 44 10000 3.1 10 00:56 03.12.2019
3119 Clear 16 1024 48 10000 4.6 10 00:38 03.12.2019
3120 Clear 16 1024 48 10000 4.6 10 00:20 03.12.2019
3121 Clear 16 1024 48 10000 4.6 10 23:43 02.12.2019
3122 Clear 16 1024 48 10000 4.1 10 23:20 02.12.2019
3123 Clear 16 1024 48 10000 3.6 10 22:42 02.12.2019
3124 Clear 16 1024 51 10000 4.1 10 22:23 02.12.2019
3125 Clear 16 1024 51 10000 3.6 20 21:59 02.12.2019
3126 Clear 16 1024 55 10000 3.1 20 21:37 02.12.2019
3127 Clear 16 1024 55 10000 3.1 20 21:19 02.12.2019
3128 Clear 16 1024 55 10000 3.1 20 21:19 02.12.2019
3129 Clear 16 1024 59 10000 3.1 0 20:56 02.12.2019
3130 Clear 15 1024 67 10000 2.1 30 20:38 02.12.2019
3131 Clouds 15 1024 67 10000 2.1 30 20:20 02.12.2019
3132 Clear 15 1024 67 10000 3.1 30 19:55 02.12.2019
3133 Clear 16 1024 63 10000 3.1 30 19:36 02.12.2019
3134 Clear 16 1024 63 10000 3.1 30 19:18 02.12.2019
3135 Clear 17 1025 63 10000 2.1 50 18:42 02.12.2019
3136 Clear 17 1025 63 10000 2.1 50 18:20 02.12.2019
3137 Clear 17 1024 67 10000 2.1 60 17:58 02.12.2019
3138 Clear 18 1024 55 10000 2.1 0 17:40 02.12.2019
3139 Clear 18 1024 55 10000 2.1 0 17:20 02.12.2019
3140 Clear 17 1025 67 10000 1 0 16:42 02.12.2019
3141 Clear 17 1025 67 10000 1 0 16:19 02.12.2019
3142 Clear 17 1024 63 10000 2.1 320 15:59 02.12.2019
3143 Clear 17 1024 63 10000 2.1 320 15:40 02.12.2019
3144 Clear 17 1024 63 10000 2.1 320 15:22 02.12.2019
3145 Clear 17 1024 63 10000 1.5 310 14:59 02.12.2019
3146 Clear 17 1024 63 10000 1.5 320 14:38 02.12.2019
3147 Clouds 17 1024 63 10000 1.5 320 14:20 02.12.2019
3148 Clouds 17 1024 63 10000 3.1 310 13:57 02.12.2019
3149 Clouds 17 1024 63 10000 2.6 320 13:39 02.12.2019
3150 Clouds 17 1024 63 10000 2.6 320 13:39 02.12.2019
3151 Clouds 17 1024 63 10000 2.6 320 13:19 02.12.2019
3152 Clouds 17 1023 63 9000 3.1 300 12:55 02.12.2019
3153 Clouds 17 1023 59 9000 2.6 310 12:37 02.12.2019
3154 Clouds 17 1023 59 9000 2.6 310 12:18 02.12.2019
3155 Clouds 19 1022 48 10000 2.6 330 11:38 02.12.2019
3156 Clouds 19 1022 48 10000 2.6 330 11:20 02.12.2019
3157 Clouds 20 1022 42 10000 3.6 340 10:58 02.12.2019
3158 Clouds 20 1022 40 10000 3.6 0 10:40 02.12.2019
3159 Clouds 20 1022 40 10000 3.6 0 10:22 02.12.2019
3160 Clouds 21 1022 37 10000 3.6 340 09:56 02.12.2019
3161 Clouds 21 1022 37 10000 4.1 350 09:38 02.12.2019
3162 Clouds 21 1022 37 10000 4.1 350 09:18 02.12.2019
3163 Clouds 21 1022 37 10000 4.1 350 09:18 02.12.2019
3164 Clouds 21 1022 37 10000 5.7 360 08:55 02.12.2019
3165 Clouds 21 1023 37 10000 6.2 10 08:37 02.12.2019
3166 Clouds 21 1023 37 10000 6.2 10 08:18 02.12.2019
3167 Clouds 21 1024 37 10000 5.1 340 07:39 02.12.2019
3168 Clouds 21 1024 37 10000 5.1 340 07:20 02.12.2019
3169 Clouds 20 1024 40 10000 4.6 340 06:42 02.12.2019
3170 Clouds 20 1026 40 10000 5.7 350 05:49 02.12.2019
3171 Clouds 19 1026 42 10000 5.7 360 05:19 02.12.2019
3172 Clouds 18 1027 42 10000 5.1 10 03:35 02.12.2019
3173 Clouds 18 1026 45 10000 5.7 10 02:50 02.12.2019
3174 Clouds 18 1026 45 10000 5.1 10 01:49 02.12.2019
3175 Clouds 17 1025 48 10000 5.1 10 01:21 02.12.2019
3176 Clouds 18 1024 45 10000 5.7 10 00:39 02.12.2019
3177 Clouds 18 1024 45 10000 5.7 10 00:21 02.12.2019
3178 Clouds 18 1024 48 10000 5.7 20 23:43 01.12.2019
3179 Clouds 17 1024 55 10000 4.6 360 23:22 01.12.2019
3180 Clouds 17 1024 55 10000 4.1 10 22:56 01.12.2019
3181 Clouds 18 1023 52 10000 4.6 10 22:38 01.12.2019
3182 Clouds 18 1023 52 10000 4.6 10 22:19 01.12.2019
3183 Clouds 18 1023 52 10000 3.1 10 21:56 01.12.2019
3184 Clouds 18 1023 52 10000 4.1 360 21:38 01.12.2019
3185 Clouds 18 1023 52 10000 4.1 360 21:38 01.12.2019
3186 Clouds 18 1023 52 10000 4.1 360 21:19 01.12.2019
3187 Clouds 18 1023 52 10000 6.7 20 20:58 01.12.2019
3188 Clouds 18 1023 52 10000 6.2 10 20:39 01.12.2019
3189 Clouds 18 1023 52 10000 6.2 10 20:21 01.12.2019
3190 Clouds 18 1023 55 10000 5.1 10 19:57 01.12.2019
3191 Clouds 18 1023 55 10000 5.1 20 19:38 01.12.2019
3192 Clouds 18 1023 55 10000 5.1 20 19:20 01.12.2019
3193 Clouds 18 1023 55 10000 4.6 20 18:55 01.12.2019
3194 Clouds 18 1023 59 10000 4.6 0 18:37 01.12.2019
3195 Clouds 18 1023 59 10000 4.6 0 18:37 01.12.2019
3196 Clouds 18 1023 59 10000 4.6 0 18:18 01.12.2019
3197 Clouds 18 1023 59 10000 4.1 30 17:56 01.12.2019
3198 Clouds 18 1023 59 10000 4.1 30 17:38 01.12.2019
3199 Clouds 18 1023 59 10000 4.1 30 17:19 01.12.2019
3200 Clouds 18 1022 59 10000 4.1 40 16:44 01.12.2019
3201 Clouds 18 1022 59 10000 4.6 50 16:24 01.12.2019
3202 Clouds 18 1022 63 10000 4.6 0 15:58 01.12.2019
3203 Clouds 18 1022 63 10000 4.6 0 15:58 01.12.2019
3204 Clouds 18 1021 63 10000 5.7 50 15:40 01.12.2019
3205 Clouds 18 1021 63 10000 5.7 50 15:40 01.12.2019
3206 Clouds 18 1021 63 10000 5.7 50 15:20 01.12.2019
3207 Clouds 18 1021 68 10000 6.7 60 14:38 01.12.2019
3208 Clouds 18 1021 68 10000 6.7 60 14:19 01.12.2019
3209 Clouds 19 1021 63 10000 7.2 50 13:40 01.12.2019
3210 Clouds 19 1020 63 10000 7.2 50 13:21 01.12.2019
3211 Clouds 19 1020 63 10000 7.2 50 13:21 01.12.2019
3212 Clouds 19 1020 63 10000 6.7 50 12:47 01.12.2019
3213 Clouds 19 1019 68 10000 7.2 50 12:19 01.12.2019
3214 Clouds 19 1019 68 10000 6.7 50 11:44 01.12.2019
3215 Clouds 20 1018 68 10000 6.2 50 11:24 01.12.2019
3216 Clouds 21 1018 68 10000 6.7 60 10:55 01.12.2019
3217 Clouds 21 1018 64 10000 6.7 60 10:37 01.12.2019
3218 Clouds 21 1018 64 10000 6.7 60 10:18 01.12.2019
3219 Clouds 21 1018 68 8000 7.7 50 09:41 01.12.2019
3220 Clouds 21 1018 68 7000 7.2 60 09:21 01.12.2019
3221 Clouds 21 1017 68 7000 6.7 50 08:49 01.12.2019
3222 Clouds 22 1017 68 6000 6.7 50 08:22 01.12.2019
3223 Clouds 22 1017 68 7000 5.7 50 07:52 01.12.2019
3224 Clouds 23 1018 73 9000 5.7 40 07:32 01.12.2019
3225 Clouds 23 1018 73 9000 5.7 40 07:32 01.12.2019
3226 Clouds 24 1018 69 9000 4.6 50 06:58 01.12.2019
3227 Clouds 24 1018 69 9000 4.6 60 06:36 01.12.2019
3228 Clouds 25 1019 65 10000 4.1 50 05:50 01.12.2019
3229 Clouds 24 1019 69 10000 4.6 40 04:53 01.12.2019
3230 Clouds 22 1020 78 7000 3.6 60 03:39 01.12.2019
3231 Clouds 22 1019 78 6000 3.6 50 02:38 01.12.2019
3232 Clouds 22 1019 78 6000 3.6 50 02:19 01.12.2019
3233 Mist 21 1018 83 5000 2.6 60 01:52 01.12.2019
3234 Mist 21 1018 83 5000 2.6 70 01:26 01.12.2019
3235 Mist 21 1018 83 5000 2.6 70 00:43 01.12.2019
3236 Clouds 21 1018 83 7000 2.6 70 00:24 01.12.2019
3237 Clouds 21 1017 83 6000 2.1 70 23:44 30.11.2019
3238 Clouds 21 1017 83 6000 2.1 70 23:24 30.11.2019
3239 Clouds 21 1017 83 6000 2.1 70 23:24 30.11.2019
3240 Clouds 21 1017 83 6000 2.1 70 22:57 30.11.2019
3241 Clouds 21 1017 83 6000 2.1 60 22:38 30.11.2019
3242 Clouds 21 1017 83 6000 2.1 60 22:20 30.11.2019
3243 Clouds 21 1017 83 6000 2.6 70 21:44 30.11.2019
3244 Clouds 21 1017 83 6000 1.5 60 21:25 30.11.2019
3245 Clouds 21 1017 83 6000 1 70 20:57 30.11.2019
3246 Clouds 21 1017 83 7000 2.1 60 20:38 30.11.2019
3247 Clouds 21 1017 83 7000 2.1 60 20:19 30.11.2019
3248 Clouds 21 1017 83 6000 1.5 60 19:55 30.11.2019
3249 Clouds 21 1017 83 6000 1.5 60 19:55 30.11.2019
3250 Clouds 21 1017 83 6000 1.5 50 19:37 30.11.2019
3251 Clouds 21 1017 83 6000 1.5 50 19:19 30.11.2019
3252 Clouds 22 1017 78 6000 1.5 40 18:57 30.11.2019
3253 Clouds 22 1017 78 7000 2.1 70 18:37 30.11.2019
3254 Clouds 22 1017 78 7000 2.1 70 18:19 30.11.2019
3255 Clouds 22 1017 78 7000 2.6 120 17:57 30.11.2019
3256 Clouds 22 1017 78 9000 2.6 90 17:38 30.11.2019
3257 Clouds 22 1017 78 9000 2.6 90 17:19 30.11.2019
3258 Clouds 22 1017 78 8000 3.1 100 16:56 30.11.2019
3259 Clouds 22 1017 78 7000 4.1 100 16:37 30.11.2019
3260 Clouds 22 1017 78 7000 4.1 100 16:18 30.11.2019
3261 Clouds 22 1017 78 7000 3.1 90 15:42 30.11.2019
3262 Clouds 22 1017 78 6000 2.6 80 15:19 30.11.2019
3263 Clouds 23 1017 73 6000 3.1 100 14:56 30.11.2019
3264 Clouds 23 1017 78 6000 3.1 110 14:38 30.11.2019
3265 Clouds 23 1017 78 6000 3.1 110 14:19 30.11.2019
3266 Clouds 23 1017 78 6000 2.6 100 13:57 30.11.2019
3267 Clouds 23 1016 78 6000 3.1 130 13:36 30.11.2019
3268 Clouds 23 1016 78 6000 3.1 130 13:36 30.11.2019
3269 Clouds 23 1016 78 6000 3.1 130 13:18 30.11.2019
3270 Clouds 23 1016 73 6000 4.1 120 12:43 30.11.2019
3271 Clouds 23 1016 73 6000 4.1 120 12:25 30.11.2019
3272 Haze 24 1015 69 4900 3.1 110 11:45 30.11.2019
3273 Clouds 24 1015 69 6000 4.1 130 11:20 30.11.2019
3274 Clouds 24 1015 69 6000 3.1 110 10:57 30.11.2019
3275 Clouds 24 1015 69 6000 3.1 110 10:57 30.11.2019
3276 Clouds 24 1015 69 6000 3.1 120 10:39 30.11.2019
3277 Clouds 24 1015 69 6000 3.1 120 10:20 30.11.2019
3278 Clouds 24 1015 69 7000 2.6 130 09:46 30.11.2019
3279 Clouds 24 1015 69 7000 2.6 130 09:46 30.11.2019
3280 Clouds 25 1015 65 7000 2.6 150 09:28 30.11.2019
3281 Clouds 25 1016 65 7000 1.5 0 08:44 30.11.2019
3282 Clouds 25 1016 61 7000 1.5 150 08:23 30.11.2019
3283 Clouds 24 1016 69 6000 2.6 150 07:59 30.11.2019
3284 Clouds 24 1017 69 8000 2.6 140 07:40 30.11.2019
3285 Clouds 24 1017 69 8000 2.6 140 07:21 30.11.2019
3286 Clouds 24 1018 64 9000 2.1 80 06:30 30.11.2019
3287 Clouds 24 1019 64 7000 2.6 60 05:55 30.11.2019
3288 Clouds 22 1021 68 6000 2.1 30 03:54 30.11.2019
3289 Mist 20 1020 82 3600 1.5 10 02:53 30.11.2019
3290 Mist 20 1020 82 3600 1.5 10 02:22 30.11.2019
3291 Mist 19 1019 88 3300 1 340 01:38 30.11.2019
3292 Mist 19 1019 88 3300 1 340 01:38 30.11.2019
3293 Mist 19 1019 88 3300 1 340 01:19 30.11.2019
3294 Mist 19 1019 82 5000 2.1 50 00:36 30.11.2019
3295 Mist 19 1019 82 5000 2.1 50 00:18 30.11.2019
3296 Mist 19 1019 82 5000 1.5 70 23:43 29.11.2019
3297 Mist 19 1018 88 5000 1 40 23:23 29.11.2019
3298 Mist 19 1018 88 5000 0.5 40 22:46 29.11.2019
3299 Mist 19 1018 88 5000 1 50 22:26 29.11.2019
3300 Clouds 19 1018 88 6000 1 0 21:45 29.11.2019
3301 Clouds 20 1018 82 6000 1.5 330 21:25 29.11.2019
3302 Clouds 19 1019 88 6000 1.5 340 20:59 29.11.2019
3303 Clouds 19 1019 88 6000 1.5 330 20:39 29.11.2019
3304 Clouds 19 1019 88 6000 1.5 330 20:20 29.11.2019
3305 Clouds 19 1019 88 5000 1.5 340 19:58 29.11.2019
3306 Mist 19 1019 88 4800 1.5 330 19:39 29.11.2019
3307 Mist 19 1019 88 4800 1.5 330 19:39 29.11.2019
3308 Mist 19 1019 88 4800 1.5 330 19:20 29.11.2019
3309 Mist 18 1019 93 5000 1.5 320 18:58 29.11.2019
3310 Mist 19 1019 88 5000 1.5 320 18:39 29.11.2019
3311 Mist 19 1019 88 5000 1.5 320 18:20 29.11.2019
3312 Mist 19 1019 82 5000 2.1 320 17:44 29.11.2019
3313 Clouds 20 1019 77 7000 0.5 0 17:25 29.11.2019
3314 Clouds 20 1019 77 8000 1 0 16:57 29.11.2019
3315 Clouds 20 1019 77 8000 1 0 16:57 29.11.2019
3316 Clouds 20 1019 77 8000 2.6 160 16:39 29.11.2019
3317 Clouds 20 1019 77 8000 2.6 160 16:19 29.11.2019
3318 Clouds 21 1019 73 6000 3.1 140 15:41 29.11.2019
3319 Clouds 21 1019 73 6000 3.1 140 15:23 29.11.2019
3320 Clouds 21 1019 73 6000 3.1 140 14:56 29.11.2019
3321 Clouds 21 1019 73 6000 3.1 130 14:38 29.11.2019
3322 Clouds 21 1019 73 6000 3.1 130 14:19 29.11.2019
3323 Clouds 21 1019 73 6000 3.1 130 14:19 29.11.2019
3324 Clouds 22 1018 64 8000 2.6 150 13:41 29.11.2019
3325 Clouds 22 1018 64 8000 2.6 150 13:21 29.11.2019
3326 Clouds 22 1018 60 7000 3.1 130 12:57 29.11.2019
3327 Clouds 22 1018 60 8000 2.1 90 12:39 29.11.2019
3328 Clouds 22 1018 60 8000 2.1 90 12:39 29.11.2019
3329 Clouds 22 1018 60 8000 2.1 90 12:20 29.11.2019
3330 Clouds 22 1018 56 6000 2.6 110 11:54 29.11.2019
3331 Clouds 22 1018 56 8000 1.5 120 11:36 29.11.2019
3332 Clear 22 1018 56 8000 1.5 120 11:18 29.11.2019
3333 Clear 22 1018 60 10000 3.1 90 10:55 29.11.2019
3334 Clear 23 1018 53 10000 1.5 60 10:36 29.11.2019
3335 Clear 23 1018 53 10000 1.5 60 10:18 29.11.2019
3336 Clear 23 1018 53 10000 2.1 110 09:41 29.11.2019
3337 Clear 23 1018 53 10000 2.1 110 09:22 29.11.2019
3338 Clear 23 1019 53 10000 2.6 90 08:59 29.11.2019
3339 Clouds 23 1019 53 10000 2.1 80 08:38 29.11.2019
3340 Clouds 23 1019 53 10000 2.1 80 08:20 29.11.2019
3341 Clouds 23 1019 53 10000 2.1 80 08:20 29.11.2019
3342 Clouds 23 1019 53 10000 2.1 0 07:47 29.11.2019
3343 Clouds 23 1020 53 10000 3.1 40 07:23 29.11.2019
3344 Clouds 22 1020 56 10000 3.1 40 06:55 29.11.2019
3345 Clouds 22 1021 56 10000 3.6 50 06:36 29.11.2019
3346 Clouds 22 1022 56 10000 4.1 50 05:47 29.11.2019
3347 Clouds 21 1022 56 10000 5.1 60 05:23 29.11.2019
3348 Clouds 19 1023 63 10000 4.1 40 03:58 29.11.2019
3349 Clouds 19 1023 63 10000 4.1 50 03:19 29.11.2019
3350 Clouds 18 1022 68 10000 3.6 50 02:25 29.11.2019
3351 Clouds 18 1022 68 10000 3.6 60 01:50 29.11.2019
3352 Clouds 18 1022 72 10000 3.6 50 01:24 29.11.2019
3353 Clouds 18 1021 63 10000 4.1 60 00:41 29.11.2019
3354 Clouds 18 1021 63 10000 4.1 60 00:20 29.11.2019
3355 Clouds 18 1021 63 10000 4.1 50 23:44 28.11.2019
3356 Clouds 18 1020 68 10000 4.1 60 23:21 28.11.2019
3357 Clouds 18 1020 68 10000 4.1 60 23:21 28.11.2019
3358 Rain 18 1020 68 10000 3.1 60 22:57 28.11.2019
3359 Clouds 18 1020 63 10000 3.6 60 22:37 28.11.2019
3360 Clouds 18 1020 63 10000 3.6 60 22:19 28.11.2019
3361 Clouds 18 1020 68 10000 3.1 50 21:56 28.11.2019
3362 Clouds 18 1020 68 10000 3.1 60 21:37 28.11.2019
3363 Clouds 18 1020 68 10000 3.1 60 21:18 28.11.2019
3364 Clouds 18 1020 68 10000 3.1 60 20:42 28.11.2019
3365 Clouds 19 1021 63 10000 2.6 50 20:22 28.11.2019
3366 Clouds 19 1021 63 10000 3.6 60 19:58 28.11.2019
3367 Clouds 19 1021 63 10000 3.6 60 19:40 28.11.2019
3368 Clouds 19 1021 63 10000 3.6 60 19:22 28.11.2019
3369 Clouds 19 1021 68 10000 3.1 60 18:59 28.11.2019
3370 Clouds 19 1021 68 10000 2.6 50 18:39 28.11.2019
3371 Clouds 19 1021 68 10000 2.6 50 18:18 28.11.2019
3372 -273 0 0 0 0 0 17:59 28.11.2019
3373 Clouds 19 1021 72 10000 1.5 40 17:41 28.11.2019
3374 Clouds 19 1021 72 10000 1.5 40 17:21 28.11.2019
3375 Clouds 19 1021 72 10000 1.5 30 16:56 28.11.2019
3376 Clouds 19 1021 72 10000 1.5 30 16:55 28.11.2019
3377 Clouds 19 1022 72 10000 2.1 50 16:37 28.11.2019
3378 Clouds 19 1022 72 10000 2.1 50 16:18 28.11.2019
3379 Clouds 19 1022 72 10000 2.6 60 15:41 28.11.2019
3380 Clouds 19 1022 72 10000 2.1 60 15:20 28.11.2019
3381 Clouds 19 1021 72 10000 2.1 50 14:58 28.11.2019
3382 Clouds 19 1021 72 9000 1.5 60 14:39 28.11.2019
3383 Clouds 19 1021 72 9000 1.5 60 14:20 28.11.2019
3384 Clouds 19 1020 72 10000 1.5 50 13:44 28.11.2019
3385 Clouds 19 1020 72 10000 1.5 50 13:24 28.11.2019
3386 Clouds 20 1020 68 8000 1.5 30 12:57 28.11.2019
3387 Clouds 20 1020 68 8000 1 0 12:38 28.11.2019
3388 Clouds 20 1020 68 8000 1 0 12:20 28.11.2019
3389 Clouds 20 1020 68 7000 1 0 11:56 28.11.2019
3390 Clouds 21 1020 60 9000 2.1 0 11:37 28.11.2019
3391 Clouds 21 1020 60 9000 2.1 0 11:19 28.11.2019
3392 Clouds 21 1020 60 9000 2.1 0 11:19 28.11.2019
3393 Clouds 21 1020 60 10000 2.1 10 10:42 28.11.2019
3394 Clouds 21 1020 60 10000 2.1 40 10:22 28.11.2019
3395 Clouds 21 1020 60 10000 2.1 30 09:56 28.11.2019
3396 Clouds 22 1020 56 10000 3.1 30 09:38 28.11.2019
3397 Clouds 22 1020 56 10000 3.1 30 09:38 28.11.2019
3398 Clouds 22 1020 56 10000 3.1 30 09:19 28.11.2019
3399 Clouds 22 1020 56 10000 3.1 30 08:41 28.11.2019
3400 Clouds 22 1020 53 10000 3.6 30 08:22 28.11.2019
3401 Clouds 22 1021 53 10000 4.6 30 07:56 28.11.2019
3402 Clouds 22 1021 53 10000 4.6 30 07:38 28.11.2019
3403 Clouds 22 1021 53 10000 4.6 30 07:18 28.11.2019
3404 Clouds 22 1022 53 10000 5.7 20 06:40 28.11.2019
3405 Clouds 21 1023 56 10000 6.2 10 05:53 28.11.2019
3406 Clouds 20 1023 60 10000 5.7 20 05:34 28.11.2019
3407 Clouds 20 1024 60 10000 5.1 20 03:52 28.11.2019
3408 Clouds 19 1023 68 10000 4.6 20 02:30 28.11.2019
3409 Clouds 19 1022 68 10000 4.1 50 01:23 28.11.2019
3410 Clouds 19 1022 72 10000 5.1 40 00:39 28.11.2019
3411 Clouds 19 1022 72 10000 5.1 40 00:18 28.11.2019
3412 Clouds 20 1021 68 10000 4.6 50 23:38 27.11.2019
3413 Clouds 20 1021 68 10000 4.6 50 23:20 27.11.2019
3414 Clouds 20 1021 68 10000 4.6 40 22:56 27.11.2019
3415 Clouds 20 1021 68 10000 5.7 50 22:37 27.11.2019
3416 Clouds 20 1021 68 10000 5.7 50 22:18 27.11.2019
3417 Clouds 20 1020 72 10000 5.7 50 21:55 27.11.2019
3418 Clouds 21 1021 68 10000 6.2 50 21:36 27.11.2019
3419 Clouds 21 1021 68 10000 6.2 50 21:18 27.11.2019
3420 Clouds 21 1020 68 10000 6.2 50 20:55 27.11.2019
3421 Clouds 21 1020 73 10000 6.2 50 20:36 27.11.2019
3422 Clouds 21 1020 73 10000 6.2 50 20:18 27.11.2019
3423 Clouds 21 1020 73 10000 6.7 50 19:54 27.11.2019
3424 Clouds 21 1020 73 9000 6.2 50 19:36 27.11.2019
3425 Clouds 21 1020 73 9000 6.2 50 19:18 27.11.2019
3426 Clouds 22 1020 68 8000 4.1 50 18:38 27.11.2019
3427 Clouds 22 1020 68 8000 4.1 50 18:38 27.11.2019
3428 Clouds 22 1020 68 8000 4.1 50 18:19 27.11.2019
3429 Clouds 22 1020 68 9000 4.6 60 17:59 27.11.2019
3430 Clouds 22 1020 73 8000 4.6 70 17:40 27.11.2019
3431 Rain 22 1020 73 8000 4.6 70 17:22 27.11.2019
3432 Clouds 22 1020 73 9000 4.1 70 16:57 27.11.2019
3433 Rain 23 1020 69 10000 5.1 70 16:39 27.11.2019
3434 Rain 23 1020 69 10000 5.1 70 16:21 27.11.2019
3435 Clouds 23 1020 69 10000 5.1 70 15:57 27.11.2019
3436 Clouds 24 1020 69 9000 4.1 70 15:39 27.11.2019
3437 Clouds 24 1020 69 9000 4.1 70 15:21 27.11.2019
3438 Clouds 24 1019 73 9000 4.1 70 14:57 27.11.2019
3439 Clouds 24 1019 78 6000 3.1 60 14:39 27.11.2019
3440 Clouds 24 1019 78 6000 3.1 60 14:39 27.11.2019
3441 Clouds 24 1019 78 6000 3.1 60 14:39 27.11.2019
3442 Clouds 24 1019 78 6000 3.1 60 14:21 27.11.2019
3443 Rain 24 1019 78 7000 2.1 60 13:57 27.11.2019
3444 Rain 24 1018 78 6000 2.1 50 13:39 27.11.2019
3445 Rain 24 1017 78 8000 2.6 80 13:19 27.11.2019
3446 Rain 24 1017 78 8000 2.6 80 12:56 27.11.2019
3447 Rain 24 1017 78 9000 2.6 80 12:38 27.11.2019
3448 Rain 25 1017 73 8000 2.1 60 12:18 27.11.2019
3449 Rain 26 1017 69 9000 1.5 30 11:38 27.11.2019
3450 Clouds 27 1016 61 10000 2.1 50 11:19 27.11.2019
3451 Clouds 27 1016 61 10000 2.1 50 10:57 27.11.2019
3452 Rain 27 1016 61 10000 2.6 30 10:39 27.11.2019
3453 Rain 27 1016 61 10000 2.6 30 10:21 27.11.2019
3454 Clouds 27 1016 65 10000 2.1 50 09:43 27.11.2019
3455 Clouds 27 1016 65 10000 2.1 50 09:25 27.11.2019
3456 Clouds 27 1017 61 9000 2.1 20 08:43 27.11.2019
3457 Clouds 27 1017 61 9000 2.1 20 08:25 27.11.2019
3458 Clouds 27 1017 65 7000 3.1 60 07:59 27.11.2019
3459 Clouds 26 1018 65 7000 3.1 50 07:40 27.11.2019
3460 Clouds 27 1018 65 7000 2.1 0 07:21 27.11.2019
3461 Clouds 26 1019 69 6000 2.1 50 06:45 27.11.2019
3462 Clouds 26 1019 69 6000 2.1 50 06:25 27.11.2019
3463 Clouds 25 1020 69 7000 2.1 0 05:27 27.11.2019
3464 Clouds 25 1020 69 7000 2.6 50 04:57 27.11.2019
3465 Clouds 25 1021 69 7000 2.1 60 04:37 27.11.2019
3466 Clouds 24 1021 69 6000 2.1 360 03:50 27.11.2019
3467 Mist 24 1021 73 4500 2.1 0 03:21 27.11.2019
3468 Mist 23 1021 78 4400 1 0 02:54 27.11.2019
3469 Mist 22 1019 78 5000 1 0 01:34 27.11.2019
3470 Clouds 22 1018 78 6000 1 0 00:42 27.11.2019
3471 Clouds 22 1018 78 6000 1 0 00:24 27.11.2019
3472 Mist 22 1018 83 5000 1 10 23:44 26.11.2019
3473 Mist 22 1018 83 5000 1 10 23:25 26.11.2019
3474 Clouds 22 1018 83 6000 1 30 22:56 26.11.2019
3475 Mist 22 1018 78 5000 1 0 22:38 26.11.2019
3476 Mist 22 1018 78 5000 1 0 22:19 26.11.2019
3477 Mist 22 1018 83 5000 2.1 40 21:40 26.11.2019
3478 Mist 22 1018 83 5000 2.1 40 21:21 26.11.2019
3479 Mist 22 1018 83 5000 2.1 40 20:58 26.11.2019
3480 Mist 22 1018 83 4800 2.1 70 20:39 26.11.2019
3481 Mist 22 1018 83 4800 2.1 70 20:20 26.11.2019
3482 Mist 22 1018 83 4800 1.5 40 19:56 26.11.2019
3483 Mist 22 1019 83 4800 1.5 70 19:38 26.11.2019
3484 Mist 22 1019 83 4800 1.5 70 19:20 26.11.2019
3485 Mist 22 1019 83 4800 1.5 70 18:58 26.11.2019
3486 Mist 22 1019 83 4800 1.5 80 18:39 26.11.2019
3487 Mist 22 1019 83 5000 2.1 70 18:21 26.11.2019
3488 Mist 22 1019 83 5000 2.1 70 17:59 26.11.2019
3489 Mist 22 1019 83 4800 1.5 50 17:41 26.11.2019
3490 Mist 22 1018 83 4900 2.1 50 17:22 26.11.2019
3491 Mist 22 1018 83 4900 2.1 50 16:57 26.11.2019
3492 Mist 22 1018 78 5000 2.1 70 16:38 26.11.2019
3493 Mist 22 1018 78 5000 2.1 70 16:19 26.11.2019
3494 Mist 22 1018 78 5000 1.5 70 15:59 26.11.2019
3495 Mist 22 1018 78 5000 2.1 80 15:38 26.11.2019
3496 Mist 22 1018 78 5000 2.1 80 15:20 26.11.2019
3497 Mist 21 1018 83 5000 1.5 80 14:51 26.11.2019
3498 Mist 22 1018 78 5000 2.1 100 14:26 26.11.2019
3499 Clouds 23 1018 69 6000 2.1 110 13:57 26.11.2019
3500 Clouds 22 1018 78 6000 2.6 90 13:38 26.11.2019
3501 Clouds 22 1018 78 6000 2.6 90 13:19 26.11.2019
3502 Clouds 22 1018 78 6000 2.6 90 13:19 26.11.2019
3503 Clouds 22 1017 78 7000 3.1 90 12:39 26.11.2019
3504 Clouds 23 1017 69 7000 3.1 90 12:21 26.11.2019
3505 Clouds 23 1017 69 7000 3.1 90 11:58 26.11.2019
3506 Clouds 23 1017 69 7000 2.6 90 11:39 26.11.2019
3507 Clouds 23 1017 69 7000 2.6 90 11:39 26.11.2019
3508 Clouds 24 1016 64 6000 2.1 70 11:20 26.11.2019
3509 Clouds 24 1016 64 6000 2.1 70 10:58 26.11.2019
3510 Clouds 24 1016 64 6000 2.6 60 10:40 26.11.2019
3511 Clouds 24 1016 64 6000 2.6 60 10:20 26.11.2019
3512 Clouds 24 1016 64 6000 2.6 60 10:20 26.11.2019
3513 Clouds 24 1017 64 7000 2.1 50 09:56 26.11.2019
3514 Clouds 24 1017 64 7000 2.6 70 09:37 26.11.2019
3515 Clouds 24 1017 64 7000 2.6 70 09:18 26.11.2019
3516 Clouds 25 1017 61 8000 1.5 0 08:43 26.11.2019
3517 Clouds 24 1017 64 9000 2.6 60 08:22 26.11.2019
3518 Clouds 24 1018 64 10000 2.6 70 07:44 26.11.2019
3519 Clouds 24 1019 60 10000 1.5 70 07:25 26.11.2019
3520 Clouds 24 1019 60 10000 1.5 70 06:55 26.11.2019
3521 Clouds 24 1019 60 9000 2.1 60 06:30 26.11.2019
3522 Clouds 23 1020 64 10000 2.1 0 05:41 26.11.2019
3523 Clouds 23 1021 64 9000 3.1 50 03:59 26.11.2019
3524 Clear 20 1021 72 10000 2.6 50 02:26 26.11.2019
3525 Clear 20 1020 72 9000 3.1 0 01:32 26.11.2019
3526 Clear 19 1020 77 9000 3.1 50 00:50 26.11.2019
3527 Clear 20 1020 72 10000 3.6 40 00:25 26.11.2019
3528 Clear 20 1019 72 10000 1.5 30 23:40 25.11.2019
3529 Clear 20 1019 72 10000 1.5 30 23:20 25.11.2019
3530 Clear 20 1019 77 10000 1 30 22:58 25.11.2019
3531 Clear 20 1019 77 10000 2.6 10 22:37 25.11.2019
3532 Clear 20 1019 77 10000 2.6 10 22:18 25.11.2019
3533 Clear 20 1019 72 10000 2.6 30 21:58 25.11.2019
3534 Clear 21 1019 73 10000 3.1 30 21:39 25.11.2019
3535 Clear 21 1019 73 10000 3.1 30 21:19 25.11.2019
3536 Clear 21 1019 73 10000 3.1 30 20:55 25.11.2019
3537 Clear 21 1019 73 10000 3.1 0 20:36 25.11.2019
3538 Clouds 21 1019 73 10000 3.1 0 20:18 25.11.2019
3539 Clouds 21 1019 73 10000 3.1 30 19:54 25.11.2019
3540 Clouds 21 1019 73 10000 3.1 30 19:54 25.11.2019
3541 Clouds 21 1019 73 10000 4.1 0 19:36 25.11.2019
3542 Clouds 22 1020 68 10000 4.6 30 19:18 25.11.2019
3543 Clouds 22 1020 68 10000 4.6 30 18:55 25.11.2019
3544 Clouds 23 1020 69 10000 4.1 30 18:37 25.11.2019
3545 Clouds 23 1019 69 10000 4.1 40 18:18 25.11.2019
3546 Clouds 23 1019 69 10000 4.1 40 17:55 25.11.2019
3547 Clouds 23 1019 73 10000 3.6 50 17:36 25.11.2019
3548 Clouds 23 1019 73 10000 3.6 50 17:36 25.11.2019
3549 Clouds 24 1019 69 10000 3.6 40 17:18 25.11.2019
3550 Clouds 24 1019 69 10000 4.6 40 16:41 25.11.2019
3551 Clouds 24 1019 69 10000 4.6 40 16:41 25.11.2019
3552 Clouds 24 1019 69 10000 4.6 40 16:23 25.11.2019
3553 Clouds 24 1019 69 10000 2.6 40 15:57 25.11.2019
3554 Clouds 24 1019 64 10000 1.5 30 15:38 25.11.2019
3555 Clouds 24 1019 64 10000 1.5 30 15:19 25.11.2019
3556 Clouds 24 1018 64 10000 2.1 0 14:56 25.11.2019
3557 Clouds 24 1018 64 10000 2.1 0 14:56 25.11.2019
3558 Clouds 24 1018 69 10000 2.1 40 14:37 25.11.2019
3559 Clear 24 1018 69 10000 2.1 40 14:19 25.11.2019
3560 Clear 24 1018 69 8000 1.5 0 13:39 25.11.2019
3561 Clear 24 1018 69 8000 1.5 0 13:20 25.11.2019
3562 Clear 24 1017 69 6000 1.5 0 12:59 25.11.2019
3563 Haze 25 1017 65 5000 1.5 20 12:39 25.11.2019
3564 Smoke 26 1017 57 3700 1.5 0 12:19 25.11.2019
3565 Haze 26 1017 61 5000 1.5 0 11:41 25.11.2019
3566 Clouds 28 1017 45 10000 1 0 11:22 25.11.2019
3567 Clouds 28 1017 45 10000 1 0 11:22 25.11.2019
3568 Clouds 28 1017 45 10000 1 0 10:59 25.11.2019
3569 Clouds 28 1017 48 10000 1 0 10:41 25.11.2019
3570 Clouds 28 1017 48 10000 1 0 10:20 25.11.2019
3571 Clouds 28 1017 48 10000 1 0 09:44 25.11.2019
3572 Clouds 28 1017 48 10000 1.5 360 09:26 25.11.2019
3573 Clouds 28 1017 48 10000 1.5 360 09:26 25.11.2019
3574 Clouds 28 1017 48 10000 1.5 360 08:58 25.11.2019
3575 Clouds 29 1018 45 10000 2.1 330 08:38 25.11.2019
3576 Clouds 29 1018 45 10000 2.1 330 08:19 25.11.2019
3577 Clouds 28 1018 48 10000 2.1 40 07:40 25.11.2019
3578 Clouds 28 1018 48 10000 2.1 40 07:18 25.11.2019
3579 Clouds 28 1020 48 10000 2.1 70 06:39 25.11.2019
3580 Clouds 28 1020 45 10000 2.6 70 06:19 25.11.2019
3581 Clouds 27 1021 54 10000 2.6 100 05:33 25.11.2019
3582 Clouds 27 1021 54 10000 3.1 60 04:50 25.11.2019
3583 Clouds 24 1021 78 6000 2.1 90 02:45 25.11.2019
3584 Mist 21 1020 94 3300 1.5 60 01:56 25.11.2019
3585 Mist 21 1020 88 2500 1 0 01:36 25.11.2019
3586 Mist 21 1019 88 3700 1 0 01:18 25.11.2019
3587 Clouds 21 1019 88 7000 1 130 00:21 25.11.2019
3588 Clouds 21 1018 88 6000 1.5 120 23:45 24.11.2019
3589 Clouds 21 1018 88 6000 1.5 120 23:45 24.11.2019
3590 Clouds 21 1018 88 6000 1.5 120 23:21 24.11.2019
3591 Clouds 21 1018 88 7000 1 110 22:59 24.11.2019
3592 Clouds 21 1018 88 7000 1 110 22:59 24.11.2019
3593 Clouds 21 1018 88 8000 1 70 22:40 24.11.2019
3594 Clouds 21 1018 88 8000 1 70 22:20 24.11.2019
3595 Clouds 21 1018 88 8000 0.5 60 21:57 24.11.2019
3596 Clouds 22 1018 83 8000 1 0 21:39 24.11.2019
3597 Clouds 22 1018 83 8000 1 0 21:20 24.11.2019
3598 Clouds 21 1018 88 8000 1.5 60 20:58 24.11.2019
3599 Clouds 21 1018 88 7000 2.6 70 20:38 24.11.2019
3600 Clouds 21 1018 88 7000 2.6 70 20:18 24.11.2019
3601 Clouds 22 1018 88 8000 2.1 70 19:56 24.11.2019
3602 Clouds 22 1019 88 8000 1.5 0 19:38 24.11.2019
3603 Clouds 22 1019 88 8000 1.5 0 19:20 24.11.2019
3604 Clouds 22 1019 88 9000 2.1 60 18:57 24.11.2019
3605 Clouds 22 1019 88 10000 2.6 80 18:37 24.11.2019
3606 Clouds 22 1019 88 10000 2.6 90 18:19 24.11.2019
3607 Clouds 22 1019 88 10000 2.6 90 18:19 24.11.2019
3608 Clouds 22 1019 88 10000 2.6 100 17:55 24.11.2019
3609 Clouds 22 1019 88 10000 2.6 100 17:37 24.11.2019
3610 Clouds 23 1019 83 10000 3.1 100 17:19 24.11.2019
3611 Clouds 23 1019 83 10000 3.1 100 17:19 24.11.2019
3612 Clouds 23 1019 83 10000 3.1 100 16:56 24.11.2019
3613 Clouds 23 1019 83 10000 3.1 110 16:38 24.11.2019
3614 Clouds 23 1019 83 10000 3.1 110 16:19 24.11.2019
3615 Clouds 23 1018 83 10000 3.1 110 15:43 24.11.2019
3616 Clouds 23 1018 83 10000 4.1 120 15:25 24.11.2019
3617 Clouds 23 1018 83 10000 4.6 120 14:57 24.11.2019
3618 Clouds 24 1017 73 10000 3.6 120 14:38 24.11.2019
3619 Clouds 24 1017 73 10000 3.6 120 14:38 24.11.2019
3620 Clouds 24 1017 73 10000 3.6 120 14:18 24.11.2019
3621 Clouds 24 1016 73 10000 3.6 110 13:40 24.11.2019
3622 Clouds 24 1016 73 10000 3.6 110 13:22 24.11.2019
3623 Clouds 24 1016 78 9000 4.1 100 12:59 24.11.2019
3624 Clouds 25 1015 73 9000 4.1 100 12:40 24.11.2019
3625 Clouds 26 1015 65 8000 5.1 120 12:18 24.11.2019
3626 Clouds 26 1015 65 8000 5.1 120 11:56 24.11.2019
3627 Clouds 26 1014 69 10000 5.7 100 11:36 24.11.2019
3628 Clouds 27 1014 65 10000 4.1 100 11:18 24.11.2019
3629 Clouds 27 1014 65 10000 4.1 100 10:46 24.11.2019
3630 Clouds 28 1014 61 10000 4.1 120 10:28 24.11.2019
3631 Clouds 28 1014 61 10000 5.1 110 09:55 24.11.2019
3632 Clouds 28 1014 61 10000 5.1 100 09:36 24.11.2019
3633 Clouds 28 1014 61 10000 5.1 100 09:18 24.11.2019
3634 Clouds 29 1014 54 10000 4.1 130 08:43 24.11.2019
3635 Clouds 29 1014 54 10000 4.1 130 08:21 24.11.2019
3636 Clouds 28 1015 58 10000 3.1 130 07:55 24.11.2019
3637 Clouds 29 1015 54 10000 4.1 130 07:36 24.11.2019
3638 Clouds 28 1016 58 10000 3.1 130 07:18 24.11.2019
3639 Clouds 28 1017 58 10000 3.6 150 06:19 24.11.2019
3640 Clouds 28 1017 58 10000 3.6 150 06:19 24.11.2019
3641 Clouds 27 1018 65 10000 3.1 140 04:47 24.11.2019
3642 Mist 24 1018 83 2700 3.6 70 03:25 24.11.2019
3643 Mist 22 1016 88 2200 2.6 70 01:58 24.11.2019
3644 Mist 22 1016 88 1800 2.1 70 01:39 24.11.2019
3645 Mist 22 1016 88 1800 2.1 70 01:20 24.11.2019
3646 Mist 22 1015 94 2700 2.1 70 00:46 24.11.2019
3647 Mist 22 1015 94 2700 2.1 70 00:23 24.11.2019
3648 Mist 22 1014 94 2300 2.1 80 23:44 23.11.2019
3649 Mist 22 1014 94 2300 2.1 80 23:22 23.11.2019
3650 Mist 22 1014 94 2300 2.6 70 22:58 23.11.2019
3651 Mist 22 1014 94 2100 2.6 80 22:39 23.11.2019
3652 Mist 22 1014 94 2100 2.6 80 22:21 23.11.2019
3653 Mist 22 1014 94 2200 2.6 80 21:58 23.11.2019
3654 Mist 22 1014 94 2200 2.6 80 21:40 23.11.2019
3655 Mist 22 1014 94 2200 2.6 80 21:21 23.11.2019
3656 Mist 22 1014 94 2700 2.6 110 20:40 23.11.2019
3657 Mist 22 1014 94 2700 2.6 110 20:22 23.11.2019
3658 Mist 23 1014 88 3300 3.1 110 19:58 23.11.2019
3659 Mist 23 1015 88 4100 3.1 110 19:39 23.11.2019
3660 Mist 23 1015 88 4100 3.1 110 19:19 23.11.2019
3661 Mist 23 1015 88 4600 3.1 120 18:59 23.11.2019
3662 Mist 23 1015 88 4400 2.6 110 18:39 23.11.2019
3663 Mist 23 1015 88 4800 2.6 110 18:20 23.11.2019
3664 Mist 23 1015 83 5000 3.6 120 17:45 23.11.2019
3665 Mist 23 1015 83 5000 3.6 120 17:24 23.11.2019
3666 Clouds 23 1015 83 6000 3.6 110 16:57 23.11.2019
3667 Clouds 23 1015 83 7000 2.6 120 16:39 23.11.2019
3668 Clouds 23 1015 83 7000 2.6 120 16:21 23.11.2019
3669 Clouds 24 1015 78 7000 3.6 140 15:59 23.11.2019
3670 Clouds 24 1015 78 7000 3.6 140 15:39 23.11.2019
3671 Clouds 24 1015 78 7000 3.6 140 15:19 23.11.2019
3672 Clouds 24 1015 78 7000 3.6 140 14:57 23.11.2019
3673 Clouds 24 1015 78 6000 4.1 130 14:39 23.11.2019
3674 Clouds 24 1015 78 6000 4.1 130 14:21 23.11.2019
3675 Clouds 24 1015 78 7000 4.1 130 13:54 23.11.2019
3676 Clouds 24 1015 78 7000 4.1 130 13:54 23.11.2019
3677 Clouds 25 1014 73 7000 4.6 120 13:36 23.11.2019
3678 Clouds 25 1014 73 7000 4.6 120 13:18 23.11.2019
3679 Clouds 25 1014 73 7000 3.6 120 12:41 23.11.2019
3680 Clouds 25 1014 73 7000 3.6 120 12:22 23.11.2019
3681 Clouds 26 1013 69 8000 4.6 120 11:44 23.11.2019
3682 Clouds 26 1013 69 8000 4.6 120 11:22 23.11.2019
3683 Clouds 26 1013 69 8000 4.1 120 10:45 23.11.2019
3684 Clouds 26 1013 65 9000 5.1 110 10:22 23.11.2019
3685 Clouds 26 1013 69 9000 5.1 120 09:44 23.11.2019
3686 Clouds 27 1013 57 10000 4.1 140 09:22 23.11.2019
3687 Clouds 27 1013 61 9000 4.1 140 08:59 23.11.2019
3688 Clouds 27 1013 61 9000 3.6 150 08:40 23.11.2019
3689 Clouds 27 1013 61 9000 3.1 150 08:18 23.11.2019
3690 Clouds 27 1014 61 9000 4.1 140 07:41 23.11.2019
3691 Clouds 27 1015 61 9000 3.6 120 06:52 23.11.2019
3692 Clouds 25 1016 69 6000 2.1 80 06:24 23.11.2019
3693 Haze 26 1016 65 4500 3.1 100 05:56 23.11.2019
3694 Haze 26 1016 65 4500 3.1 100 05:31 23.11.2019
3695 Haze 24 1017 73 3300 3.1 80 04:50 23.11.2019
3696 Haze 24 1017 73 3300 2.6 80 04:31 23.11.2019
3697 Haze 23 1017 78 3500 2.6 90 03:21 23.11.2019
3698 Mist 22 1017 78 2800 2.6 90 02:27 23.11.2019
3699 Mist 20 1016 88 2700 2.1 70 01:38 23.11.2019
3700 Mist 20 1015 88 4100 2.1 90 00:45 23.11.2019
3701 Mist 20 1015 88 4500 2.1 70 00:19 23.11.2019
3702 Clouds 21 1017 83 0 2.2 107 23:42 22.11.2019
3703 Clouds 21 1015 84 0 2.57 108 23:21 22.11.2019
3704 Mist 20 1015 88 3800 2.6 100 22:58 22.11.2019
3705 Mist 20 1015 88 3800 2.6 100 22:39 22.11.2019
3706 Mist 20 1015 88 3800 2.6 100 22:20 22.11.2019
3707 Mist 20 1015 88 3800 2.6 100 21:59 22.11.2019
3708 Mist 21 1015 83 4400 2.6 90 21:39 22.11.2019
3709 Mist 21 1015 83 4400 2.6 90 21:20 22.11.2019
3710 Mist 21 1015 88 3100 3.1 80 20:43 22.11.2019
3711 Mist 21 1015 88 3100 3.1 80 20:22 22.11.2019
3712 Mist 21 1015 88 3200 3.6 80 19:57 22.11.2019
3713 Mist 21 1015 88 3300 3.1 80 19:38 22.11.2019
3714 Mist 21 1015 88 3300 3.1 80 19:19 22.11.2019
3715 Mist 21 1015 88 3300 3.1 80 19:19 22.11.2019
3716 Mist 20 1016 94 3400 2.6 80 18:41 22.11.2019
3717 Mist 20 1016 94 3400 2.6 80 18:22 22.11.2019
3718 Mist 21 1016 88 4100 2.6 100 17:59 22.11.2019
3719 Mist 21 1016 88 4700 3.1 130 17:40 22.11.2019
3720 Mist 21 1016 88 4700 3.1 130 17:22 22.11.2019
3721 Mist 22 1016 83 5000 3.1 130 16:47 22.11.2019
3722 Mist 22 1016 83 5000 3.1 140 16:28 22.11.2019
3723 Clouds 22 1016 78 6000 3.1 140 15:47 22.11.2019
3724 Clouds 22 1016 78 6000 3.6 140 15:25 22.11.2019
3725 Clouds 23 1016 73 7000 3.6 130 14:56 22.11.2019
3726 Clouds 23 1016 73 7000 3.6 130 14:56 22.11.2019
3727 Clouds 23 1015 73 8000 4.1 140 14:38 22.11.2019
3728 Clouds 23 1015 73 8000 4.1 140 14:38 22.11.2019
3729 Clouds 23 1015 73 8000 4.1 140 14:19 22.11.2019
3730 Clouds 23 1015 69 8000 3.1 130 13:58 22.11.2019
3731 Clouds 24 1014 64 9000 4.1 140 13:37 22.11.2019
3732 Clouds 24 1014 64 9000 4.1 140 13:18 22.11.2019
3733 Clouds 25 1014 61 8000 3.1 150 12:57 22.11.2019
3734 Clouds 25 1014 61 8000 3.6 130 12:39 22.11.2019
3735 Clouds 25 1014 61 8000 3.6 130 12:18 22.11.2019
3736 Clouds 25 1014 57 9000 4.1 140 11:55 22.11.2019
3737 Clouds 26 1014 54 9000 3.6 150 11:36 22.11.2019
3738 Clouds 26 1014 54 9000 3.6 150 11:18 22.11.2019
3739 Clouds 26 1014 54 9000 3.6 150 11:18 22.11.2019
3740 Clouds 26 1014 54 10000 3.6 160 10:40 22.11.2019
3741 Clouds 26 1014 54 10000 3.6 160 10:22 22.11.2019
3742 Clouds 26 1014 54 10000 3.6 160 09:56 22.11.2019
3743 Clouds 26 1014 54 9000 3.6 150 09:37 22.11.2019
3744 Clouds 26 1014 54 9000 3.6 150 09:19 22.11.2019
3745 Clouds 27 1014 51 10000 3.6 140 08:46 22.11.2019
3746 Clouds 27 1014 47 10000 3.1 180 08:27 22.11.2019
3747 Clouds 27 1014 47 10000 3.1 180 08:27 22.11.2019
3748 Clouds 26 1015 54 7000 3.1 130 07:46 22.11.2019
3749 Clouds 27 1015 51 7000 2.1 160 07:23 22.11.2019
3750 Clouds 27 1016 51 6000 2.1 130 06:57 22.11.2019
3751 Clouds 26 1017 54 7000 2.6 180 06:37 22.11.2019
3752 Clouds 25 1018 61 6000 1.5 0 05:49 22.11.2019
3753 Clear 24 1019 64 7000 3.1 60 04:50 22.11.2019
3754 Mist 21 1020 83 5000 2.1 80 02:55 22.11.2019
3755 Mist 20 1019 82 5000 1 0 02:31 22.11.2019
3756 Mist 20 1019 82 5000 0.5 0 01:45 22.11.2019
3757 Mist 19 1019 88 4300 1 0 01:20 22.11.2019
3758 Mist 19 1019 88 5000 1 10 00:51 22.11.2019
3759 Clear 19 1018 88 7000 1 40 00:24 22.11.2019
3760 Clouds 19 1018 88 7000 1 0 23:49 21.11.2019
3761 Clouds 19 1018 88 8000 1 40 23:31 21.11.2019
3762 Clouds 19 1018 88 8000 0.5 0 22:59 21.11.2019
3763 Clouds 19 1018 88 9000 1 0 22:39 21.11.2019
3764 Clouds 19 1018 88 9000 1 0 22:21 21.11.2019
3765 Clear 20 1018 82 9000 1.5 190 21:57 21.11.2019
3766 Clear 19 1018 82 10000 1 180 21:38 21.11.2019
3767 Clear 19 1018 82 10000 1 180 21:19 21.11.2019
3768 Clear 20 1018 77 10000 2.17 343 20:58 21.11.2019
3769 Clear 20 1018 82 10000 1.5 0 20:38 21.11.2019
3770 Clear 20 1018 82 10000 1.5 0 20:19 21.11.2019
3771 Clear 20 1018 82 10000 1.5 340 19:59 21.11.2019
3772 Clear 20 1018 82 10000 1.5 340 19:59 21.11.2019
3773 Clear 20 1018 82 10000 1.5 340 19:59 21.11.2019
3774 Clear 20 1018 82 10000 1.5 340 19:40 21.11.2019
3775 Clear 20 1018 82 10000 1.5 340 19:21 21.11.2019
3776 Clouds 19 1018 88 8000 2.1 340 18:57 21.11.2019
3777 Clouds 19 1019 88 7000 1.5 300 18:37 21.11.2019
3778 Clouds 19 1019 88 7000 1.5 300 18:19 21.11.2019
3779 Clear 19 1019 82 7000 1 40 17:57 21.11.2019
3780 Clear 19 1019 82 7000 1 0 17:38 21.11.2019
3781 Clear 19 1019 82 7000 1 0 17:19 21.11.2019
3782 Clear 19 1019 82 7000 1 0 16:41 21.11.2019
3783 Clear 19 1019 82 7000 1 0 16:21 21.11.2019
3784 Clear 19 1019 88 8000 0.5 0 15:56 21.11.2019
3785 Clear 20 1019 82 8000 1.5 0 15:38 21.11.2019
3786 Clear 20 1019 82 8000 1.5 0 15:19 21.11.2019
3787 Clear 20 1018 77 8000 1.5 60 14:42 21.11.2019
3788 Clouds 20 1018 77 8000 1.5 60 14:23 21.11.2019
3789 Clouds 20 1018 77 9000 1.5 60 13:59 21.11.2019
3790 Clouds 21 1018 77 9000 1 0 13:38 21.11.2019
3791 Clear 21 1018 77 9000 1 0 13:19 21.11.2019
3792 Clear 21 1017 77 7000 1.5 40 12:56 21.11.2019
3793 Clear 22 1017 73 6000 2.1 0 12:37 21.11.2019
3794 Clear 22 1017 73 6000 2.1 0 12:19 21.11.2019
3795 Clear 22 1017 68 7000 2.1 0 11:41 21.11.2019
3796 Clouds 22 1017 68 7000 2.1 0 11:21 21.11.2019
3797 Clouds 23 1017 64 9000 2.1 0 10:57 21.11.2019
3798 Clouds 24 1017 60 10000 2.6 10 10:39 21.11.2019
3799 Clouds 24 1017 60 10000 2.6 10 10:20 21.11.2019
3800 Clouds 24 1017 60 10000 2.1 30 09:43 21.11.2019
3801 Clouds 25 1017 57 10000 2.6 20 09:24 21.11.2019
3802 Clouds 24 1017 60 10000 2.1 50 08:59 21.11.2019
3803 Clouds 24 1017 60 10000 2.1 50 08:40 21.11.2019
3804 Clouds 24 1017 60 10000 2.1 50 08:40 21.11.2019
3805 Clouds 24 1017 60 10000 2.1 50 08:40 21.11.2019
3806 Clouds 24 1017 60 10000 2.1 50 08:18 21.11.2019
3807 Clouds 23 1018 64 9000 2.6 0 07:40 21.11.2019
3808 Clouds 23 1018 64 9000 2.6 0 07:18 21.11.2019
3809 Clouds 23 1019 64 9000 2.6 60 06:51 21.11.2019
3810 Clouds 23 1020 64 9000 2.6 60 06:33 21.11.2019
3811 Clouds 22 1021 64 10000 2.6 50 05:32 21.11.2019
3812 Clouds 20 1022 77 10000 2.1 50 03:32 21.11.2019
3813 Clouds 20 1021 77 10000 1 0 02:40 21.11.2019
3814 Clouds 19 1021 82 10000 1 0 01:53 21.11.2019
3815 Clouds 19 1020 82 10000 1 0 01:26 21.11.2019
3816 Clouds 20 1020 77 10000 1 0 00:54 21.11.2019
3817 Clouds 19 1020 88 10000 1.5 30 00:20 21.11.2019
3818 Clouds 19 1019 88 10000 2.51 24 23:52 20.11.2019
3819 Clouds 19 1019 82 10000 0.5 0 23:24 20.11.2019
3820 Clouds 18 1019 88 9000 1 330 22:59 20.11.2019
3821 Clouds 18 1019 88 9000 0.5 0 22:41 20.11.2019
3822 Clouds 18 1019 88 9000 0.5 0 22:20 20.11.2019
3823 Clouds 18 1018 88 8000 2.37 19 21:59 20.11.2019
3824 Clouds 18 1018 88 7000 2.37 19 21:40 20.11.2019
3825 Clouds 18 1018 88 7000 2.37 19 21:22 20.11.2019
3826 Clouds 18 1018 88 7000 1 0 20:58 20.11.2019
3827 Clouds 18 1018 88 7000 1 0 20:58 20.11.2019
3828 Clouds 18 1018 88 7000 1 0 20:40 20.11.2019
3829 Clear 18 1018 88 7000 1 0 20:22 20.11.2019
3830 Mist 18 1018 93 5000 1.5 0 19:58 20.11.2019
3831 Clear 18 1018 93 6000 1.5 0 19:37 20.11.2019
3832 Clear 18 1018 93 6000 1.5 0 19:19 20.11.2019
3833 Mist 18 1018 93 5000 1 0 18:59 20.11.2019
3834 Mist 18 1018 93 5000 1.33 25 18:40 20.11.2019
3835 Mist 18 1018 93 5000 1.33 25 18:21 20.11.2019
3836 Clear 19 1018 88 7000 0.5 0 17:57 20.11.2019
3837 Clear 19 1019 88 6000 1 0 17:39 20.11.2019
3838 Clear 19 1019 88 6000 1 0 17:20 20.11.2019
3839 Clear 19 1019 88 8000 1 0 16:57 20.11.2019
3840 Clear 19 1019 88 8000 1 0 16:57 20.11.2019
3841 Clear 19 1019 82 9000 1 0 16:39 20.11.2019
3842 Clear 19 1019 82 9000 1 0 16:18 20.11.2019
3843 Clear 19 1019 88 7000 1.5 310 15:56 20.11.2019
3844 Clear 20 1019 82 8000 2.6 310 15:38 20.11.2019
3845 Clear 20 1019 82 8000 2.6 310 15:18 20.11.2019
3846 Clouds 20 1018 77 8000 1.5 320 14:40 20.11.2019
3847 Clouds 20 1018 77 8000 1.5 320 14:22 20.11.2019
3848 Clouds 20 1018 77 8000 1.5 320 14:22 20.11.2019
3849 Clouds 20 1018 77 8000 1.5 320 14:22 20.11.2019
3850 Clouds 20 1018 77 8000 1.5 320 14:22 20.11.2019
3851 Clouds 20 1018 77 8000 1.5 320 14:22 20.11.2019
3852 Clear 21 1018 73 9000 1.5 20 13:58 20.11.2019
3853 Clear 21 1018 73 9000 1.5 60 13:39 20.11.2019
3854 Clear 21 1018 73 9000 1.5 60 13:20 20.11.2019
3855 Clear 21 1018 73 8000 2.1 50 12:55 20.11.2019
3856 Clear 21 1017 73 8000 1.5 0 12:37 20.11.2019
3857 Clear 21 1017 73 8000 1.5 0 12:19 20.11.2019
3858 Smoke 22 1017 68 8000 1 0 11:45 20.11.2019
3859 Clouds 23 1017 64 8000 1.5 330 11:22 20.11.2019
3860 Clouds 23 1017 64 10000 1.5 330 10:56 20.11.2019
3861 Clouds 23 1017 64 9000 3.1 0 10:38 20.11.2019
3862 Clouds 23 1017 64 9000 3.1 0 10:19 20.11.2019
3863 Clouds 24 1017 60 10000 2.1 0 09:43 20.11.2019
3864 Clouds 24 1017 60 10000 2.6 0 09:23 20.11.2019
3865 Clouds 24 1017 57 10000 1 0 08:58 20.11.2019
3866 Clouds 24 1017 57 10000 2.1 60 08:39 20.11.2019
3867 Clouds 24 1017 57 10000 2.1 60 08:20 20.11.2019
3868 Clouds 24 1017 57 10000 2.1 0 07:47 20.11.2019
3869 Clouds 24 1018 57 10000 2.1 0 07:26 20.11.2019
3870 Clouds 24 1019 57 10000 2.1 360 06:49 20.11.2019
3871 Clouds 23 1019 56 10000 2.6 40 06:22 20.11.2019
3872 Clouds 23 1021 56 10000 3.1 60 05:39 20.11.2019
3873 Clouds 20 1022 68 10000 2.6 0 03:42 20.11.2019
3874 Clouds 20 1022 68 10000 2.1 10 02:21 20.11.2019
3875 Clouds 19 1021 72 10000 3.1 30 01:33 20.11.2019
3876 Clouds 19 1020 72 10000 2.1 20 00:41 20.11.2019
3877 Clouds 19 1020 72 10000 2.1 30 23:55 19.11.2019
3878 Clouds 19 1019 72 10000 2.6 30 23:26 19.11.2019
3879 Clouds 19 1019 68 10000 2.1 30 22:58 19.11.2019
3880 Clouds 19 1019 72 10000 2.1 30 22:40 19.11.2019
3881 Clouds 19 1019 72 10000 2.1 30 22:19 19.11.2019
3882 Clouds 19 1019 68 10000 2.1 40 21:56 19.11.2019
3883 Clouds 19 1019 72 10000 2.6 50 21:37 19.11.2019
3884 Clouds 19 1019 72 10000 2.6 50 21:19 19.11.2019
3885 Clouds 19 1019 68 10000 1.5 50 20:56 19.11.2019
3886 Clouds 18 1019 77 10000 1.5 60 20:38 19.11.2019
3887 Clouds 18 1019 77 10000 1.5 60 20:38 19.11.2019
3888 Clouds 18 1019 77 10000 1.5 60 20:19 19.11.2019
3889 Clouds 18 1019 77 10000 0.5 0 19:55 19.11.2019
3890 Clouds 17 1019 82 10000 1 0 19:37 19.11.2019
3891 Clouds 17 1019 82 10000 1 0 19:18 19.11.2019
3892 Clouds 17 1019 82 10000 1.5 0 18:54 19.11.2019
3893 Clouds 17 1019 82 10000 1 0 18:36 19.11.2019
3894 Clouds 17 1019 82 10000 1 0 18:18 19.11.2019
3895 -273 0 0 0 0 0 17:54 19.11.2019
3896 Clouds 18 1020 77 10000 1.5 0 17:36 19.11.2019
3897 Clear 18 1020 77 10000 1.5 0 17:18 19.11.2019
3898 Clear 18 1020 77 10000 1.5 0 16:41 19.11.2019
3899 Clear 18 1020 77 10000 1.5 0 16:21 19.11.2019
3900 Clear 18 1019 82 10000 1 0 15:47 19.11.2019
3901 Clear 18 1019 82 10000 1 0 15:27 19.11.2019
3902 Clear 19 1019 72 10000 1 0 14:58 19.11.2019
3903 Clear 19 1019 72 10000 1 0 14:39 19.11.2019
3904 Clear 19 1019 72 10000 1 0 14:21 19.11.2019
3905 Clear 19 1019 72 10000 1.5 0 13:57 19.11.2019
3906 Clear 19 1019 72 10000 2.6 60 13:38 19.11.2019
3907 Clear 19 1019 72 10000 2.6 60 13:18 19.11.2019
3908 Clouds 20 1018 64 10000 2.1 60 12:39 19.11.2019
3909 Clouds 20 1018 64 10000 2.1 60 12:21 19.11.2019
3910 Clouds 20 1018 64 10000 2.1 0 11:56 19.11.2019
3911 Clouds 21 1018 60 10000 2.1 40 11:37 19.11.2019
3912 Clouds 21 1018 60 10000 2.1 40 11:37 19.11.2019
3913 Clouds 21 1018 60 10000 2.1 40 11:19 19.11.2019
3914 Clear 21 1018 60 10000 2.6 40 10:44 19.11.2019
3915 Clouds 21 1018 60 10000 3.1 40 10:21 19.11.2019
3916 Clouds 22 1018 56 10000 2.6 40 09:45 19.11.2019
3917 Clouds 22 1018 56 10000 2.6 50 09:22 19.11.2019
3918 Clouds 22 1018 56 10000 3.1 40 08:58 19.11.2019
3919 Clouds 22 1018 56 10000 3.1 40 08:40 19.11.2019
3920 Clouds 22 1018 56 10000 3.1 40 08:21 19.11.2019
3921 Clouds 21 1019 60 10000 3.6 40 07:56 19.11.2019
3922 Clouds 21 1019 60 10000 3.6 40 07:36 19.11.2019
3923 -273 0 0 0 0 0 07:18 19.11.2019
3924 Clouds 21 1020 60 10000 3.6 20 06:42 19.11.2019
3925 Clouds 21 1020 60 10000 3.6 20 06:18 19.11.2019
3926 Clouds 21 1020 60 10000 3.6 20 06:18 19.11.2019
3927 Clouds 20 1021 64 10000 4.1 20 05:19 19.11.2019
3928 Clouds 18 1022 68 10000 4.1 20 03:40 19.11.2019
3929 Clouds 18 1022 68 10000 4.1 20 03:19 19.11.2019
3930 Clouds 18 1022 68 10000 4.1 20 02:47 19.11.2019
3931 Clouds 18 1021 68 10000 4.6 20 01:48 19.11.2019
3932 Clouds 18 1020 72 10000 2.6 10 00:48 19.11.2019
3933 Clouds 17 1020 77 10000 4.6 20 00:19 19.11.2019
3934 Clouds 17 1019 82 10000 3.6 20 23:40 18.11.2019
3935 Clouds 17 1019 82 10000 3.6 20 23:19 18.11.2019
3936 Clouds 17 1019 88 10000 3.1 40 22:46 18.11.2019
3937 Clouds 17 1019 82 10000 2.6 30 22:24 18.11.2019
3938 Clouds 17 1019 88 10000 1.5 50 21:57 18.11.2019
3939 Clouds 17 1019 88 10000 1.5 50 21:57 18.11.2019
3940 Rain 17 1019 88 10000 2.1 40 21:39 18.11.2019
3941 Rain 17 1019 88 10000 2.1 40 21:21 18.11.2019
3942 Rain 17 1019 88 10000 2.6 50 20:57 18.11.2019
3943 Rain 17 1019 82 10000 3.1 50 20:39 18.11.2019
3944 Rain 17 1019 82 10000 3.1 50 20:18 18.11.2019
3945 Clouds 18 1019 77 10000 4.1 50 19:56 18.11.2019
3946 Clouds 19 1019 72 10000 3.6 40 19:37 18.11.2019
3947 Clouds 19 1019 72 10000 3.6 40 19:19 18.11.2019
3948 Rain 19 1019 72 10000 4.1 30 18:55 18.11.2019
3949 Rain 20 1019 64 10000 3.6 20 18:37 18.11.2019
3950 Rain 20 1019 64 10000 3.6 20 18:19 18.11.2019
3951 Rain 20 1019 72 10000 3.1 20 17:54 18.11.2019
3952 Clouds 20 1019 68 10000 3.6 30 17:36 18.11.2019
3953 Clouds 20 1019 68 10000 3.6 30 17:18 18.11.2019
3954 Clouds 20 1019 77 10000 3.6 30 16:42 18.11.2019
3955 Clouds 20 1019 72 10000 4.6 40 16:23 18.11.2019
3956 Rain 20 1019 77 9000 6.2 50 15:56 18.11.2019
3957 Clouds 22 1019 64 10000 6.7 50 15:37 18.11.2019
3958 Clouds 22 1019 64 10000 6.7 50 15:19 18.11.2019
3959 Clouds 23 1018 60 10000 7.2 50 14:43 18.11.2019
3960 Clouds 23 1018 60 10000 7.2 50 14:24 18.11.2019
3961 Clouds 23 1018 64 10000 6.2 50 13:56 18.11.2019
3962 Clouds 23 1017 64 10000 6.2 50 13:37 18.11.2019
3963 Clouds 23 1017 64 10000 6.2 50 13:37 18.11.2019
3964 Clouds 23 1017 64 10000 6.2 50 13:37 18.11.2019
3965 Clouds 23 1017 64 10000 6.2 50 13:19 18.11.2019
3966 Clouds 23 1017 64 10000 6.2 50 13:19 18.11.2019
3967 Clouds 24 1016 60 10000 6.2 50 12:39 18.11.2019
3968 Clouds 24 1016 60 10000 6.2 50 12:19 18.11.2019
3969 Rain 24 1016 64 10000 7.2 70 11:45 18.11.2019
3970 Clouds 24 1015 69 10000 6.7 30 11:27 18.11.2019
3971 Clouds 24 1015 69 10000 6.7 30 11:27 18.11.2019
3972 Clouds 28 1014 69 8000 2.1 0 10:59 18.11.2019
3973 Rain 29 1013 66 10000 2.1 20 10:40 18.11.2019
3974 Rain 29 1013 66 10000 2.1 20 10:22 18.11.2019
3975 Rain 29 1013 62 10000 2.6 30 09:56 18.11.2019
3976 Rain 30 1013 62 10000 3.1 30 09:37 18.11.2019
3977 Rain 30 1013 62 10000 3.1 30 09:18 18.11.2019
3978 Rain 29 1013 66 10000 3.6 0 08:44 18.11.2019
3979 Rain 29 1013 66 10000 3.6 0 08:21 18.11.2019
3980 Rain 29 1014 66 10000 3.6 60 07:48 18.11.2019
3981 Rain 29 1014 66 10000 4.1 40 07:29 18.11.2019
3982 Clouds 30 1015 62 10000 4.1 60 06:56 18.11.2019
3983 Clouds 29 1015 62 10000 3.1 60 06:33 18.11.2019
3984 Clouds 29 1016 66 10000 3.6 80 05:51 18.11.2019
3985 Clouds 28 1016 69 10000 4.1 50 04:57 18.11.2019
3986 Clouds 26 1017 83 8000 4.1 70 02:59 18.11.2019
3987 Mist 24 1015 88 5000 2.1 50 01:31 18.11.2019
3988 Clouds 24 1015 94 6000 2.6 90 00:35 18.11.2019
3989 Mist 24 1014 94 4500 2.6 90 23:45 17.11.2019
3990 Mist 24 1014 94 4500 2.6 90 23:25 17.11.2019
3991 Clouds 24 1014 94 6000 2.6 90 22:58 17.11.2019
3992 Clouds 24 1013 94 6000 3.1 100 22:40 17.11.2019
3993 Clouds 24 1013 94 6000 3.1 100 22:22 17.11.2019
3994 Clouds 24 1013 94 7000 3.1 100 21:59 17.11.2019
3995 Clouds 24 1013 94 6000 3.1 110 21:40 17.11.2019
3996 Clouds 24 1013 94 6000 3.1 110 21:19 17.11.2019
3997 Clouds 25 1013 88 8000 3.6 90 20:56 17.11.2019
3998 Clouds 25 1013 88 9000 3.6 100 20:38 17.11.2019
3999 Clouds 25 1013 88 9000 3.6 100 20:38 17.11.2019
4000 Clouds 25 1013 88 9000 3.6 100 20:19 17.11.2019
4001 Clouds 25 1013 88 9000 3.6 100 20:19 17.11.2019
4002 Clouds 25 1013 88 9000 4.6 120 19:56 17.11.2019
4003 Clouds 25 1013 88 9000 4.1 110 19:37 17.11.2019
4004 Clouds 25 1013 88 9000 4.1 110 19:19 17.11.2019
4005 Clouds 25 1014 88 8000 3.6 80 18:55 17.11.2019
4006 Clouds 25 1013 88 9000 3.6 100 18:37 17.11.2019
4007 Clouds 25 1013 88 9000 3.6 100 18:18 17.11.2019
4008 Clouds 25 1013 88 9000 3.6 100 18:18 17.11.2019
4009 Rain 25 1013 88 8000 3.6 110 17:57 17.11.2019
4010 Clouds 26 1013 83 9000 4.6 120 17:38 17.11.2019
4011 Clouds 26 1013 83 9000 4.6 120 17:19 17.11.2019
4012 Clouds 26 1013 83 9000 4.1 120 16:55 17.11.2019
4013 Clouds 26 1013 83 10000 4.6 120 16:37 17.11.2019
4014 Clouds 26 1013 83 10000 4.6 120 16:19 17.11.2019
4015 Clouds 25 1013 88 9000 4.1 120 15:54 17.11.2019
4016 Clouds 25 1013 88 9000 4.1 120 15:54 17.11.2019
4017 Clouds 25 1013 88 9000 4.1 120 15:54 17.11.2019
4018 Clouds 25 1012 88 9000 4.6 120 15:36 17.11.2019
4019 Clouds 25 1012 88 9000 4.6 120 15:18 17.11.2019
4020 Clouds 25 1012 88 9000 4.6 120 15:18 17.11.2019
4021 Clouds 25 1012 88 9000 4.6 120 15:18 17.11.2019
4022 Clouds 25 1012 88 9000 3.6 110 14:54 17.11.2019
4023 Clouds 25 1012 88 9000 3.6 110 14:54 17.11.2019
4024 Clouds 26 1012 78 10000 4.6 130 14:36 17.11.2019
4025 Clouds 26 1012 78 10000 4.6 130 14:36 17.11.2019
4026 Clouds 26 1012 78 10000 4.6 130 14:18 17.11.2019
4027 Clouds 27 1011 74 10000 5.1 140 13:40 17.11.2019
4028 Clouds 27 1011 74 10000 5.1 140 13:20 17.11.2019
4029 Clouds 27 1010 74 10000 4.1 130 12:55 17.11.2019
4030 Clouds 27 1010 74 10000 3.6 140 12:36 17.11.2019
4031 Clouds 27 1010 74 10000 3.6 140 12:18 17.11.2019
4032 Clouds 27 1010 74 10000 3.6 140 12:18 17.11.2019
4033 Clouds 28 1009 65 8000 5.1 150 11:54 17.11.2019
4034 Clouds 29 1009 66 10000 4.1 150 11:36 17.11.2019
4035 Clouds 29 1009 66 10000 4.1 150 11:18 17.11.2019
4036 Clouds 30 1008 58 10000 4.6 140 10:41 17.11.2019
4037 Clouds 30 1008 58 10000 4.6 140 10:22 17.11.2019
4038 Clouds 30 1008 58 10000 3.6 170 09:42 17.11.2019
4039 Clouds 30 1008 58 10000 3.6 170 09:24 17.11.2019
4040 Clouds 30 1008 62 10000 3.6 150 08:47 17.11.2019
4041 Clouds 30 1008 62 10000 3.6 180 08:27 17.11.2019
4042 Clouds 29 1009 66 10000 3.6 180 07:59 17.11.2019
4043 Clouds 30 1009 62 10000 3.1 150 07:40 17.11.2019
4044 Clouds 30 1009 62 10000 3.1 150 07:20 17.11.2019
4045 Clouds 29 1010 62 10000 3.6 140 06:54 17.11.2019
4046 Clouds 29 1010 66 10000 3.1 180 06:29 17.11.2019
4047 Clouds 28 1012 69 10000 4.1 170 05:24 17.11.2019
4048 Clouds 27 1012 78 10000 4.1 160 04:00 17.11.2019
4049 Clouds 27 1012 78 9000 3.6 140 03:37 17.11.2019
4050 Clouds 27 1012 78 9000 3.6 140 03:19 17.11.2019
4051 Mist 24 1012 94 5000 2.6 120 01:54 17.11.2019
4052 Mist 24 1011 94 4900 2.6 120 00:59 17.11.2019
4053 Clouds 24 1011 88 7000 3.1 130 00:38 17.11.2019
4054 Clouds 24 1011 88 7000 3.1 130 00:19 17.11.2019
4055 Clouds 24 1011 94 7000 2.6 120 23:42 16.11.2019
4056 Clouds 24 1011 94 7000 2.6 120 23:42 16.11.2019
4057 Mist 24 1010 88 5000 2.6 100 23:18 16.11.2019
4058 Mist 24 1010 88 4700 3.1 120 22:42 16.11.2019
4059 Mist 24 1010 88 4700 3.1 120 22:20 16.11.2019
4060 Mist 23 1010 94 3600 3.1 110 21:58 16.11.2019
4061 Mist 23 1010 94 2600 2.6 90 21:40 16.11.2019
4062 Mist 23 1010 94 2600 2.6 90 21:21 16.11.2019
4063 Mist 23 1010 94 2600 2.6 100 20:57 16.11.2019
4064 Mist 23 1010 94 2100 2.6 90 20:39 16.11.2019
4065 Mist 23 1010 94 2100 2.6 90 20:19 16.11.2019
4066 Mist 23 1010 94 2900 2.6 90 19:41 16.11.2019
4067 Mist 23 1010 94 2900 2.6 90 19:22 16.11.2019
4068 Mist 23 1011 94 3100 2.6 100 18:58 16.11.2019
4069 Mist 23 1011 94 3800 3.1 90 18:39 16.11.2019
4070 Mist 23 1011 94 3800 3.1 90 18:20 16.11.2019
4071 Mist 24 1011 88 5000 3.6 130 17:55 16.11.2019
4072 Clouds 24 1011 88 7000 3.6 130 17:36 16.11.2019
4073 Clouds 24 1011 88 7000 3.6 130 17:18 16.11.2019
4074 Clouds 24 1012 88 7000 4.6 130 16:43 16.11.2019
4075 Clouds 24 1012 88 7000 4.6 130 16:25 16.11.2019
4076 Clouds 25 1012 83 8000 4.1 130 15:54 16.11.2019
4077 Clouds 25 1012 83 8000 4.6 130 15:36 16.11.2019
4078 Clouds 25 1012 83 8000 4.6 130 15:18 16.11.2019
4079 Rain 25 1011 78 10000 5.1 140 14:40 16.11.2019
4080 Rain 25 1011 78 10000 5.1 140 14:21 16.11.2019
4081 Rain 25 1011 78 10000 5.1 140 13:56 16.11.2019
4082 Rain 26 1010 74 10000 4.6 140 13:38 16.11.2019
4083 Rain 26 1010 74 10000 4.6 140 13:19 16.11.2019
4084 Clouds 26 1010 69 10000 4.1 140 12:56 16.11.2019
4085 Clouds 26 1010 69 10000 5.1 140 12:38 16.11.2019
4086 Clouds 26 1010 69 10000 5.1 140 12:19 16.11.2019
4087 Clouds 27 1009 65 10000 5.1 140 11:43 16.11.2019
4088 Clouds 27 1009 65 10000 5.7 140 11:25 16.11.2019
4089 Clouds 28 1009 61 10000 5.7 150 10:56 16.11.2019
4090 Clouds 28 1009 61 10000 5.1 150 10:37 16.11.2019
4091 Clouds 28 1009 61 10000 5.1 150 10:19 16.11.2019
4092 Clouds 28 1009 61 10000 5.7 140 09:42 16.11.2019
4093 Clouds 28 1009 61 10000 5.7 140 09:20 16.11.2019
4094 Clouds 28 1009 61 10000 5.1 170 08:57 16.11.2019
4095 Clouds 28 1010 61 10000 5.7 160 08:37 16.11.2019
4096 Clouds 28 1010 61 10000 5.7 160 08:18 16.11.2019
4097 Clouds 28 1011 61 10000 5.1 160 07:41 16.11.2019
4098 Clouds 28 1011 61 10000 5.1 160 07:19 16.11.2019
4099 Clouds 27 1013 65 10000 5.1 160 06:44 16.11.2019
4100 Clouds 27 1013 65 10000 5.1 160 06:25 16.11.2019
4101 Clouds 26 1014 74 7000 4.6 140 04:49 16.11.2019
4102 Mist 25 1015 78 4400 4.1 130 03:26 16.11.2019
4103 Mist 25 1015 78 4400 4.1 130 03:26 16.11.2019
4104 Mist 24 1015 83 3400 4.1 130 02:55 16.11.2019
4105 Mist 23 1014 88 2200 4.6 120 01:43 16.11.2019
4106 Mist 23 1013 88 2100 3.1 120 00:59 16.11.2019
4107 Mist 22 1013 94 3400 2.6 130 00:37 16.11.2019
4108 Mist 22 1013 94 3400 2.6 130 00:18 16.11.2019
4109 Mist 22 1013 94 3300 2.6 90 23:39 15.11.2019
4110 Mist 22 1013 94 3300 2.6 90 23:20 15.11.2019
4111 Mist 22 1013 94 3100 2.1 80 22:42 15.11.2019
4112 Mist 22 1013 94 3100 2.1 80 22:20 15.11.2019
4113 Mist 22 1013 94 2900 2.6 90 21:59 15.11.2019
4114 Mist 22 1013 94 3700 2.6 90 21:40 15.11.2019
4115 Mist 22 1013 94 3700 2.6 90 21:20 15.11.2019
4116 Mist 22 1013 94 3800 2.6 100 20:57 15.11.2019
4117 Mist 22 1013 88 3400 3.1 100 20:39 15.11.2019
4118 Mist 22 1013 88 3400 3.1 100 20:39 15.11.2019
4119 Mist 22 1013 88 3400 3.1 100 20:21 15.11.2019
4120 Mist 22 1013 88 3800 3.6 110 19:57 15.11.2019
4121 Mist 22 1014 88 3700 3.1 120 19:39 15.11.2019
4122 Mist 22 1014 88 3700 3.1 120 19:20 15.11.2019
4123 Mist 22 1014 88 4000 3.1 120 18:56 15.11.2019
4124 Mist 22 1014 88 3900 3.1 110 18:38 15.11.2019
4125 Mist 22 1014 88 3900 3.1 110 18:20 15.11.2019
4126 Mist 22 1014 88 5000 2.6 100 17:42 15.11.2019
4127 Mist 22 1014 88 5000 2.6 100 17:42 15.11.2019
4128 Mist 22 1014 88 5000 2.6 100 17:24 15.11.2019
4129 Clear 22 1014 88 6000 2.6 110 16:56 15.11.2019
4130 Clear 23 1014 83 7000 3.6 130 16:37 15.11.2019
4131 Clear 23 1014 83 7000 3.6 130 16:19 15.11.2019
4132 Clear 23 1014 83 8000 4.1 130 15:38 15.11.2019
4133 Clear 23 1014 83 8000 4.1 130 15:38 15.11.2019
4134 Clear 23 1014 83 8000 4.1 130 15:20 15.11.2019
4135 Clear 23 1014 83 7000 4.1 120 14:57 15.11.2019
4136 Clouds 24 1014 73 6000 4.1 130 14:38 15.11.2019
4137 Clouds 24 1014 73 6000 4.1 130 14:19 15.11.2019
4138 Mist 24 1013 73 5000 3.6 120 13:57 15.11.2019
4139 Mist 24 1013 73 4900 3.1 90 13:39 15.11.2019
4140 Mist 24 1013 73 4900 3.1 90 13:20 15.11.2019
4141 Clouds 25 1013 69 6000 4.1 130 12:57 15.11.2019
4142 Clouds 25 1012 69 6000 3.6 140 12:39 15.11.2019
4143 Clouds 25 1012 69 6000 3.6 140 12:19 15.11.2019
4144 Clouds 25 1012 69 6000 3.6 140 11:56 15.11.2019
4145 Clouds 26 1012 65 8000 4.1 140 11:37 15.11.2019
4146 Clouds 26 1012 65 8000 4.1 140 11:19 15.11.2019
4147 Clouds 26 1012 61 9000 4.1 150 10:40 15.11.2019
4148 Clouds 26 1012 61 9000 4.1 150 10:22 15.11.2019
4149 Clouds 27 1012 61 8000 4.1 140 09:58 15.11.2019
4150 Clouds 27 1013 57 8000 3.6 140 09:40 15.11.2019
4151 Clouds 27 1013 57 8000 3.6 140 09:19 15.11.2019
4152 Clouds 27 1013 57 8000 3.6 150 08:43 15.11.2019
4153 Clouds 27 1013 57 8000 3.6 150 08:22 15.11.2019
4154 Clouds 27 1013 57 8000 3.6 150 08:22 15.11.2019
4155 Clouds 27 1014 57 10000 3.6 160 07:47 15.11.2019
4156 Clouds 27 1014 57 9000 3.1 150 07:27 15.11.2019
4157 Clouds 27 1016 57 9000 2.6 160 06:38 15.11.2019
4158 Clouds 26 1016 61 8000 3.6 150 05:58 15.11.2019
4159 Clouds 26 1017 61 9000 3.6 180 05:39 15.11.2019
4160 Clouds 26 1017 61 9000 3.6 180 05:39 15.11.2019
4161 Clouds 26 1017 61 9000 3.6 180 05:19 15.11.2019
4162 Clouds 23 1018 69 9000 2.1 80 03:46 15.11.2019
4163 Clouds 21 1018 77 9000 2.6 80 02:51 15.11.2019
4164 Clouds 20 1018 82 8000 2.1 70 02:18 15.11.2019
4165 Clouds 20 1017 77 8000 2.1 60 01:32 15.11.2019
4166 Clouds 18 1017 88 10000 1.5 60 00:46 15.11.2019
4167 Clouds 18 1017 88 10000 1.5 60 00:27 15.11.2019
4168 Clouds 19 1016 82 10000 1.5 40 23:49 14.11.2019
4169 Clouds 19 1016 82 10000 1.5 40 23:27 14.11.2019
4170 Clouds 19 1016 82 10000 1.5 50 22:57 14.11.2019
4171 Clouds 19 1016 82 10000 1.5 50 22:39 14.11.2019
4172 Clouds 19 1016 82 10000 1.5 50 22:39 14.11.2019
4173 Clouds 19 1016 82 10000 1.5 50 22:19 14.11.2019
4174 Clouds 19 1016 82 10000 1.5 70 21:42 14.11.2019
4175 Clouds 19 1016 82 10000 1.5 70 21:23 14.11.2019
4176 Clouds 20 1017 77 10000 2.1 60 20:57 14.11.2019
4177 Clouds 19 1017 88 10000 1.5 50 20:39 14.11.2019
4178 Clouds 19 1017 88 10000 1.5 50 20:21 14.11.2019
4179 Clear 19 1017 82 10000 2.6 80 19:58 14.11.2019
4180 Clear 19 1017 82 10000 2.6 80 19:58 14.11.2019
4181 Clear 19 1017 88 10000 2.6 80 19:40 14.11.2019
4182 Clear 19 1018 93 10000 1.5 30 19:18 14.11.2019
4183 Clear 20 1018 82 10000 2.1 100 18:43 14.11.2019
4184 Clear 20 1018 82 10000 2.1 100 18:24 14.11.2019
4185 Clear 20 1019 82 10000 2.6 90 17:58 14.11.2019
4186 Clear 20 1019 82 10000 2.6 90 17:38 14.11.2019
4187 Clear 21 1019 77 10000 2.6 90 17:20 14.11.2019
4188 Clear 21 1019 77 10000 2.6 90 16:58 14.11.2019
4189 Clear 21 1019 77 10000 2.6 90 16:58 14.11.2019
4190 Clear 21 1019 77 10000 2.6 90 16:58 14.11.2019
4191 Clear 21 1019 77 10000 2.1 80 16:37 14.11.2019
4192 Clear 21 1019 77 10000 2.1 80 16:19 14.11.2019
4193 Clear 21 1019 77 10000 2.6 80 15:58 14.11.2019
4194 Clear 21 1019 77 10000 2.6 90 15:38 14.11.2019
4195 Clear 21 1019 77 10000 2.6 90 15:20 14.11.2019
4196 Clear 21 1019 77 10000 3.1 90 14:57 14.11.2019
4197 Clear 21 1018 77 10000 3.1 80 14:38 14.11.2019
4198 Clear 21 1018 77 10000 3.1 80 14:38 14.11.2019
4199 Clouds 21 1018 77 10000 3.1 80 14:20 14.11.2019
4200 Clouds 22 1018 73 10000 2.1 80 13:42 14.11.2019
4201 Clouds 22 1018 73 10000 2.1 80 13:23 14.11.2019
4202 Clouds 22 1018 73 10000 2.6 80 12:57 14.11.2019
4203 Clouds 22 1017 73 10000 2.6 90 12:39 14.11.2019
4204 Clouds 22 1017 73 10000 2.6 90 12:21 14.11.2019
4205 Clouds 22 1017 73 10000 2.6 80 11:55 14.11.2019
4206 Clouds 23 1017 69 10000 1 0 11:37 14.11.2019
4207 Clouds 23 1017 69 10000 1 0 11:18 14.11.2019
4208 Clouds 23 1017 64 10000 3.02 24 10:56 14.11.2019
4209 Clouds 23 1017 64 10000 3.02 24 10:56 14.11.2019
4210 Clouds 23 1017 64 10000 0.5 0 10:37 14.11.2019
4211 Clouds 23 1017 64 10000 0.5 0 10:37 14.11.2019
4212 Clouds 23 1017 64 10000 0.5 0 10:19 14.11.2019
4213 Clouds 24 1018 60 10000 2.1 30 09:41 14.11.2019
4214 Clouds 23 1018 60 10000 2.6 0 09:23 14.11.2019
4215 Clouds 23 1018 60 10000 2.6 0 08:56 14.11.2019
4216 Clouds 23 1018 60 10000 2.6 0 08:38 14.11.2019
4217 Clouds 23 1018 60 10000 2.6 0 08:19 14.11.2019
4218 Clouds 23 1020 64 10000 3.1 10 07:40 14.11.2019
4219 Clouds 23 1020 64 10000 3.1 10 07:22 14.11.2019
4220 Clouds 23 1021 64 10000 3.6 30 06:46 14.11.2019
4221 Clouds 23 1021 64 10000 3.6 10 06:19 14.11.2019
4222 Clouds 22 1023 68 10000 2.6 10 05:20 14.11.2019
4223 Clouds 20 1024 60 0 5.22 17 04:35 14.11.2019
4224 Clouds 21 1024 73 10000 2.1 30 02:50 14.11.2019
4225 Clouds 21 1024 73 10000 1 0 02:29 14.11.2019
4226 Clouds 20 1023 88 10000 2.6 290 01:40 14.11.2019
4227 Clouds 21 1023 73 10000 3.1 320 00:55 14.11.2019
4228 Clouds 21 1022 73 10000 3.1 340 00:36 14.11.2019
4229 Clouds 21 1022 73 10000 3.1 340 00:18 14.11.2019
4230 Clouds 21 1022 73 10000 3.6 330 23:37 13.11.2019
4231 Clouds 21 1022 73 10000 3.6 330 23:19 13.11.2019
4232 Clouds 21 1022 73 10000 3.6 330 23:19 13.11.2019
4233 Clouds 21 1022 77 10000 4.1 330 22:41 13.11.2019
4234 Clouds 21 1022 77 10000 4.1 330 22:23 13.11.2019
4235 Clouds 21 1022 77 10000 4.1 350 21:57 13.11.2019
4236 Clouds 21 1022 77 10000 4.1 340 21:39 13.11.2019
4237 Clouds 21 1022 77 10000 4.1 340 21:20 13.11.2019
4238 Clouds 20 1022 82 10000 4.1 320 20:58 13.11.2019
4239 Clouds 20 1022 88 10000 4.6 330 20:38 13.11.2019
4240 Clouds 20 1022 88 10000 4.6 330 20:19 13.11.2019
4241 Clouds 21 1022 77 10000 4.6 350 19:59 13.11.2019
4242 Rain 21 1022 77 10000 4.1 350 19:40 13.11.2019
4243 Rain 21 1022 77 10000 4.1 350 19:18 13.11.2019
4244 Clouds 21 1022 83 10000 4.1 360 18:55 13.11.2019
4245 Clouds 21 1022 83 10000 6.2 360 18:37 13.11.2019
4246 Clouds 21 1022 83 10000 6.2 360 18:18 13.11.2019
4247 Clouds 21 1022 83 10000 4.1 10 17:56 13.11.2019
4248 Clouds 21 1022 83 10000 6.7 20 17:36 13.11.2019
4249 Rain 21 1022 83 10000 6.7 20 17:18 13.11.2019
4250 Rain 21 1022 83 10000 7.7 20 16:56 13.11.2019
4251 Rain 21 1022 83 10000 7.2 20 16:37 13.11.2019
4252 Rain 21 1022 83 10000 7.2 20 16:18 13.11.2019
4253 Rain 21 1022 88 10000 6.2 40 15:55 13.11.2019
4254 Rain 21 1021 94 5000 4.6 40 15:36 13.11.2019
4255 Rain 21 1021 94 5000 4.6 40 15:18 13.11.2019
4256 Rain 22 1021 88 6000 5.7 50 14:39 13.11.2019
4257 Rain 22 1021 88 6000 5.7 50 14:20 13.11.2019
4258 Rain 23 1019 94 5000 2.6 20 13:38 13.11.2019
4259 Rain 23 1018 100 4700 2.1 0 13:19 13.11.2019
4260 Rain 23 1018 100 4700 2.1 0 12:58 13.11.2019
4261 Rain 24 1018 94 10000 3.1 360 12:40 13.11.2019
4262 Rain 24 1018 94 10000 3.1 360 12:21 13.11.2019
4263 Rain 24 1018 94 5000 3.6 0 11:55 13.11.2019
4264 Clouds 26 1017 74 10000 1 0 11:36 13.11.2019
4265 Clouds 26 1017 74 10000 1 0 11:18 13.11.2019
4266 Clouds 26 1017 74 10000 1 0 10:54 13.11.2019
4267 Clouds 26 1016 78 10000 2.1 220 10:36 13.11.2019
4268 Clouds 26 1016 78 10000 2.1 220 10:18 13.11.2019
4269 Clouds 27 1016 74 10000 2.6 60 09:40 13.11.2019
4270 Clouds 27 1016 74 10000 2.6 60 09:40 13.11.2019
4271 Clouds 27 1016 74 10000 2.6 60 09:20 13.11.2019
4272 Clouds 28 1016 69 10000 2.6 60 08:41 13.11.2019
4273 Mist 26 1016 83 4000 1.5 0 08:21 13.11.2019
4274 Mist 26 1017 83 4400 1 0 07:43 13.11.2019
4275 Mist 26 1017 83 2800 1 0 07:22 13.11.2019
4276 Rain 24 1018 94 5000 3.1 60 06:58 13.11.2019
4277 Rain 26 1018 78 4000 2.6 0 06:36 13.11.2019
4278 Rain 26 1018 78 4000 2.6 0 06:18 13.11.2019
4279 Clouds 26 1019 78 6000 2.1 60 05:45 13.11.2019
4280 Clouds 26 1019 78 6000 2.1 20 04:56 13.11.2019
4281 Mist 25 1019 83 1600 1 330 03:36 13.11.2019
4282 Mist 24 1018 88 1300 1 320 01:48 13.11.2019
4283 Mist 24 1017 88 1400 0.5 340 01:23 13.11.2019
4284 Rain 24 1016 88 2400 1 10 00:37 13.11.2019
4285 Mist 24 1016 88 2800 1.84 11 23:54 12.11.2019
4286 Mist 24 1015 88 2700 1 270 23:36 12.11.2019
4287 Mist 24 1015 88 2700 1 270 23:18 12.11.2019
4288 Mist 24 1015 88 3000 0.5 0 22:40 12.11.2019
4289 Mist 24 1015 88 3000 0.5 0 22:18 12.11.2019
4290 Mist 24 1015 88 3000 1 330 21:45 12.11.2019
4291 Mist 24 1014 88 3000 1 350 21:26 12.11.2019
4292 Mist 24 1015 88 3100 1 0 20:59 12.11.2019
4293 Mist 24 1015 88 2700 1.5 60 20:38 12.11.2019
4294 Mist 24 1015 88 2700 1.5 60 20:19 12.11.2019
4295 Mist 23 1015 94 2700 2.1 80 19:58 12.11.2019
4296 Mist 24 1015 88 2800 3.1 100 19:40 12.11.2019
4297 Mist 24 1015 88 2800 3.1 100 19:20 12.11.2019
4298 Mist 24 1015 88 2700 3.1 120 18:59 12.11.2019
4299 Mist 24 1015 88 2900 2.6 130 18:40 12.11.2019
4300 Mist 24 1015 88 2900 2.6 130 18:22 12.11.2019
4301 Mist 24 1015 88 3500 3.1 120 17:58 12.11.2019
4302 Mist 24 1015 88 3800 3.1 100 17:39 12.11.2019
4303 Mist 24 1015 88 3800 3.1 100 17:21 12.11.2019
4304 Mist 24 1015 88 3900 3.6 120 16:57 12.11.2019
4305 Mist 24 1014 88 4000 3.1 140 16:39 12.11.2019
4306 Mist 24 1014 88 4000 3.1 140 16:21 12.11.2019
4307 Mist 24 1014 83 3900 3.1 130 15:42 12.11.2019
4308 Mist 24 1014 83 3900 3.1 130 15:21 12.11.2019
4309 Mist 25 1014 78 3900 3.1 140 14:57 12.11.2019
4310 Mist 25 1014 73 3700 3.1 150 14:37 12.11.2019
4311 Mist 25 1014 73 3700 3.1 150 14:19 12.11.2019
4312 Mist 25 1013 73 3800 3.1 150 13:56 12.11.2019
4313 Haze 25 1013 69 4100 4.1 150 13:37 12.11.2019
4314 Haze 25 1013 69 4100 4.1 150 13:18 12.11.2019
4315 Haze 26 1013 65 4300 3.1 150 12:42 12.11.2019
4316 Haze 26 1012 65 4700 3.1 150 12:42 12.11.2019
4317 Haze 26 1012 65 4700 3.1 150 12:19 12.11.2019
4318 Haze 27 1012 61 4800 3.1 160 11:58 12.11.2019
4319 Haze 27 1012 61 5000 3.1 150 11:40 12.11.2019
4320 Haze 27 1012 61 5000 3.1 150 11:21 12.11.2019
4321 Clouds 27 1012 61 6000 3.1 160 10:56 12.11.2019
4322 Clouds 27 1011 61 7000 3.1 160 10:37 12.11.2019
4323 Clouds 27 1011 61 7000 3.1 160 10:19 12.11.2019
4324 Clouds 28 1011 58 8000 1.5 180 09:40 12.11.2019
4325 Clouds 28 1011 58 9000 2.1 210 09:21 12.11.2019
4326 Clouds 28 1011 58 9000 2.1 210 09:21 12.11.2019
4327 Clouds 28 1011 58 9000 2.1 210 08:52 12.11.2019
4328 Clouds 28 1012 58 8000 1.5 340 08:30 12.11.2019
4329 Clouds 28 1012 58 8000 1.5 50 07:45 12.11.2019
4330 Clouds 28 1012 58 8000 1.5 50 07:26 12.11.2019
4331 Clouds 28 1013 58 8000 1.5 0 06:58 12.11.2019
4332 Clouds 27 1014 54 7000 1.5 320 06:39 12.11.2019
4333 Clouds 27 1014 54 7000 1.5 320 06:21 12.11.2019
4334 Clouds 26 1014 54 7000 1.5 360 05:43 12.11.2019
4335 Haze 25 1016 61 5000 1.5 360 04:41 12.11.2019
4336 Mist 22 1016 73 3500 2.6 310 03:30 12.11.2019
4337 Mist 20 1015 88 2200 2.6 310 01:42 12.11.2019
4338 Mist 20 1015 88 1700 1 0 01:20 12.11.2019
4339 Mist 19 1014 88 2100 1.5 300 00:46 12.11.2019
4340 Mist 18 1014 88 2700 0.5 10 00:22 12.11.2019
4341 Mist 19 1013 88 4100 0.5 40 23:43 11.11.2019
4342 Mist 19 1013 88 3900 1 80 23:21 11.11.2019
4343 Mist 19 1013 88 4000 1 90 22:40 11.11.2019
4344 Mist 19 1013 88 4000 1 90 22:20 11.11.2019
4345 Mist 19 1013 88 3900 1.5 100 21:59 11.11.2019
4346 Mist 19 1013 88 3900 1.5 100 21:59 11.11.2019
4347 Mist 19 1013 88 3800 1 100 21:40 11.11.2019
4348 Mist 19 1013 88 3800 1 100 21:21 11.11.2019
4349 Mist 20 1013 82 3400 1.5 30 20:59 11.11.2019
4350 Mist 20 1013 82 3400 1.5 30 20:41 11.11.2019
4351 Mist 20 1013 82 3700 2.1 30 20:20 11.11.2019
4352 Haze 21 1013 77 4000 1.5 40 19:56 11.11.2019
4353 Haze 20 1014 82 4300 2.1 80 19:37 11.11.2019
4354 Haze 20 1014 82 4300 2.1 80 19:18 11.11.2019
4355 Haze 21 1014 77 4300 1.5 50 18:41 11.11.2019
4356 Mist 21 1014 77 4500 2.1 60 18:21 11.11.2019
4357 Mist 20 1014 88 4700 2.1 50 17:46 11.11.2019
4358 Mist 21 1014 77 4900 2.1 90 17:28 11.11.2019
4359 Clouds 21 1014 77 6000 1 0 16:59 11.11.2019
4360 Clouds 21 1013 77 7000 1.5 310 16:38 11.11.2019
4361 Clouds 21 1013 77 7000 1.5 310 16:20 11.11.2019
4362 Clouds 21 1013 77 7000 1.5 310 15:42 11.11.2019
4363 Clouds 21 1013 83 6000 1.5 320 15:20 11.11.2019
4364 Mist 21 1013 83 5000 1.5 320 14:56 11.11.2019
4365 Mist 21 1013 83 5000 1.5 320 14:56 11.11.2019
4366 Mist 21 1013 83 5000 1.5 320 14:38 11.11.2019
4367 Haze 22 1013 78 4500 1 0 14:20 11.11.2019
4368 Haze 23 1012 73 4700 1 0 13:56 11.11.2019
4369 Haze 23 1012 73 4700 1 0 13:56 11.11.2019
4370 Haze 23 1012 69 5000 1 0 13:36 11.11.2019
4371 Haze 23 1012 69 5000 1 0 13:36 11.11.2019
4372 Haze 23 1012 69 5000 1 0 13:18 11.11.2019
4373 Clouds 25 1012 61 6000 1 0 12:55 11.11.2019
4374 Clouds 26 1011 54 8000 1.5 220 12:37 11.11.2019
4375 Clouds 26 1011 54 8000 1.5 220 12:19 11.11.2019
4376 Clouds 26 1011 54 8000 1.5 230 11:41 11.11.2019
4377 Clouds 27 1011 42 10000 1 0 11:21 11.11.2019
4378 Clouds 27 1011 44 10000 0.5 0 10:44 11.11.2019
4379 Clouds 28 1011 45 10000 1.5 280 10:19 11.11.2019
4380 Clouds 29 1011 42 10000 1.5 40 09:58 11.11.2019
4381 Clouds 29 1011 42 10000 1.5 40 09:40 11.11.2019
4382 Clouds 28 1011 42 10000 1.5 350 09:19 11.11.2019
4383 Clouds 28 1011 39 10000 1.5 0 08:41 11.11.2019
4384 Clouds 28 1012 42 10000 1.5 80 08:22 11.11.2019
4385 Clouds 28 1012 45 10000 1.5 0 07:57 11.11.2019
4386 Clouds 28 1013 45 10000 2.1 0 07:37 11.11.2019
4387 Clouds 28 1013 45 10000 2.1 0 07:37 11.11.2019
4388 Clouds 28 1013 45 10000 2.1 0 07:19 11.11.2019
4389 Clouds 28 1013 42 10000 2.1 0 06:48 11.11.2019
4390 Clouds 27 1014 51 9000 1 0 06:23 11.11.2019
4391 Clouds 26 1015 57 6000 1.5 0 05:51 11.11.2019
4392 Haze 25 1016 65 5000 1.5 320 04:43 11.11.2019
4393 Mist 21 1016 83 3400 1 0 03:24 11.11.2019
4394 Mist 20 1015 88 3700 1 0 02:26 11.11.2019
4395 Mist 19 1015 88 3000 1.5 340 01:56 11.11.2019
4396 Mist 18 1015 93 3300 0.5 0 01:35 11.11.2019
4397 Mist 18 1014 93 3600 1.94 359 00:50 11.11.2019
4398 Mist 17 1014 100 5000 1.94 359 00:26 11.11.2019
4399 Mist 17 1013 93 4200 1 340 23:40 10.11.2019
4400 Mist 17 1013 93 4200 1 340 23:20 10.11.2019
4401 Mist 17 1013 93 4200 1 340 23:20 10.11.2019
4402 Mist 18 1013 93 5000 1 0 22:58 10.11.2019
4403 Mist 18 1013 93 5000 1 0 22:39 10.11.2019
4404 Clouds 18 1013 93 6000 0.5 10 22:20 10.11.2019
4405 Clouds 18 1013 88 6000 0.5 340 21:58 10.11.2019
4406 Clouds 18 1013 88 6000 0.5 340 21:58 10.11.2019
4407 Clouds 18 1013 88 6000 0.5 340 21:58 10.11.2019
4408 Clouds 18 1013 88 6000 0.5 340 21:40 10.11.2019
4409 Clouds 18 1013 93 6000 1 0 21:21 10.11.2019
4410 Mist 19 1014 88 5000 1 320 20:56 10.11.2019
4411 Clouds 18 1014 93 6000 1.5 330 20:38 10.11.2019
4412 Clouds 18 1014 93 6000 1.5 330 20:20 10.11.2019
4413 Clouds 19 1014 93 6000 1 0 19:54 10.11.2019
4414 Clouds 19 1014 88 6000 1 0 19:36 10.11.2019
4415 Clouds 19 1014 88 6000 1 0 19:18 10.11.2019
4416 Mist 19 1015 93 5000 1 330 18:54 10.11.2019
4417 Clouds 20 1015 88 6000 1 0 18:36 10.11.2019
4418 Clouds 20 1015 88 6000 1 0 18:36 10.11.2019
4419 Clouds 20 1015 88 6000 1 0 18:18 10.11.2019
4420 Clouds 20 1015 88 6000 1 0 18:18 10.11.2019
4421 Clouds 20 1015 82 6000 0.5 0 17:55 10.11.2019
4422 Clouds 20 1015 82 6000 1.5 310 17:36 10.11.2019
4423 Mist 20 1016 82 4800 1 310 17:18 10.11.2019
4424 Mist 20 1016 82 4800 1 310 16:43 10.11.2019
4425 Mist 21 1016 83 5000 2.1 320 16:25 10.11.2019
4426 Clouds 21 1015 77 6000 1.5 290 15:56 10.11.2019
4427 Clouds 22 1015 73 6000 1.5 300 15:37 10.11.2019
4428 Clouds 22 1015 73 6000 1.5 300 15:18 10.11.2019
4429 Clouds 21 1015 77 6000 1.5 280 14:56 10.11.2019
4430 Clouds 21 1015 77 6000 1.5 280 14:38 10.11.2019
4431 Clouds 21 1015 77 6000 2.1 290 14:20 10.11.2019
4432 Clouds 22 1015 73 6000 2.1 310 13:45 10.11.2019
4433 Mist 22 1014 78 5000 1.5 320 13:22 10.11.2019
4434 Clouds 23 1014 69 6000 2.6 320 13:00 10.11.2019
4435 Clouds 23 1014 69 6000 2.6 320 12:41 10.11.2019
4436 Clouds 23 1014 69 7000 3.1 300 12:19 10.11.2019
4437 Clouds 23 1014 69 7000 3.6 290 11:55 10.11.2019
4438 Clouds 25 1013 57 10000 3.6 300 11:37 10.11.2019
4439 Clouds 25 1013 57 10000 3.6 300 11:18 10.11.2019
4440 Clouds 25 1013 53 10000 3.6 290 10:42 10.11.2019
4441 Clouds 26 1013 50 10000 4.1 290 10:21 10.11.2019
4442 Clouds 27 1013 51 10000 3.6 290 09:55 10.11.2019
4443 Clouds 27 1013 51 10000 3.6 290 09:37 10.11.2019
4444 Clouds 27 1013 42 10000 1.5 300 09:18 10.11.2019
4445 Clouds 27 1014 47 10000 3.1 310 08:39 10.11.2019
4446 Clouds 27 1014 44 10000 3.6 330 08:19 10.11.2019
4447 Clouds 27 1014 44 10000 3.6 330 08:19 10.11.2019
4448 Clouds 27 1015 47 10000 3.1 320 07:44 10.11.2019
4449 Clouds 27 1017 42 10000 3.1 350 07:25 10.11.2019
4450 Clouds 27 1017 42 10000 3.1 350 06:38 10.11.2019
4451 Clouds 27 1017 42 10000 3.1 350 06:38 10.11.2019
4452 Clouds 27 1018 42 10000 3.6 330 05:44 10.11.2019
4453 Clouds 22 1020 73 7000 1.5 330 03:26 10.11.2019
4454 Mist 20 1019 82 3600 1 0 02:18 10.11.2019
4455 Mist 18 1019 88 2700 1 330 01:19 10.11.2019
4456 Mist 18 1019 88 2900 1 330 00:42 10.11.2019
4457 Clouds 17 1018 88 6000 0.5 110 23:58 09.11.2019
4458 Mist 17 1017 88 5000 0.5 0 23:38 09.11.2019
4459 Mist 17 1017 88 5000 0.5 0 23:18 09.11.2019
4460 Mist 17 1017 88 5000 1.5 120 22:41 09.11.2019
4461 Mist 17 1017 93 5000 0.5 80 22:21 09.11.2019
4462 Mist 17 1017 93 5000 1.5 100 21:56 09.11.2019
4463 Mist 18 1017 88 4800 1 0 21:37 09.11.2019
4464 Mist 18 1017 88 4800 1 0 21:19 09.11.2019
4465 Mist 18 1017 88 5000 1 40 20:43 09.11.2019
4466 Mist 18 1017 88 5000 1 340 20:22 09.11.2019
4467 Mist 19 1018 82 5000 1 0 19:58 09.11.2019
4468 Mist 19 1018 82 5000 1 0 19:40 09.11.2019
4469 Mist 19 1018 82 5000 1.5 360 19:21 09.11.2019
4470 Mist 19 1018 82 5000 1.5 60 18:56 09.11.2019
4471 Mist 20 1018 77 5000 2.1 60 18:38 09.11.2019
4472 Mist 20 1018 77 5000 2.1 60 18:18 09.11.2019
4473 Mist 20 1018 77 5000 2.6 50 17:41 09.11.2019
4474 Mist 20 1018 77 5000 2.6 50 17:22 09.11.2019
4475 Mist 20 1018 77 5000 3.1 70 16:55 09.11.2019
4476 Clouds 20 1017 77 6000 2.1 60 16:36 09.11.2019
4477 Clouds 20 1017 77 6000 2.1 60 16:18 09.11.2019
4478 Clouds 20 1017 77 7000 1 0 15:41 09.11.2019
4479 Clouds 21 1017 68 7000 1.5 310 15:23 09.11.2019
4480 Clouds 21 1017 68 8000 1 0 14:46 09.11.2019
4481 Clouds 20 1017 77 7000 1 0 14:22 09.11.2019
4482 Clouds 21 1017 68 9000 2.6 320 13:58 09.11.2019
4483 Clouds 21 1017 68 9000 2.6 320 13:39 09.11.2019
4484 Clouds 22 1016 64 9000 2.1 320 13:21 09.11.2019
4485 Clouds 22 1016 68 6000 2.1 340 12:56 09.11.2019
4486 Clouds 22 1016 68 6000 2.1 340 12:56 09.11.2019
4487 Clouds 23 1015 64 6000 1.5 340 12:38 09.11.2019
4488 Clouds 23 1015 64 6000 1.5 340 12:20 09.11.2019
4489 Clouds 25 1015 50 8000 1.5 320 11:48 09.11.2019
4490 Clouds 25 1015 44 10000 1 0 11:21 09.11.2019
4491 Clouds 26 1015 39 10000 1 0 10:57 09.11.2019
4492 Clouds 26 1015 41 10000 1.5 40 10:38 09.11.2019
4493 Clouds 26 1015 41 10000 1.5 40 10:18 09.11.2019
4494 Clouds 27 1015 36 10000 2.1 10 09:44 09.11.2019
4495 Clouds 27 1015 36 10000 2.1 360 09:21 09.11.2019
4496 Clouds 27 1015 39 10000 1.5 0 08:53 09.11.2019
4497 Clouds 27 1016 42 10000 1.5 0 08:26 09.11.2019
4498 Clouds 27 1016 39 10000 2.6 0 07:57 09.11.2019
4499 Clouds 27 1016 39 10000 2.6 0 07:57 09.11.2019
4500 Clouds 27 1017 42 10000 2.6 60 07:39 09.11.2019
4501 Clouds 27 1017 42 10000 2.6 60 07:20 09.11.2019
4502 Clouds 27 1017 42 10000 2.6 30 06:46 09.11.2019
4503 Clouds 26 1018 44 10000 2.1 0 06:28 09.11.2019
4504 Clouds 26 1019 44 10000 2.6 30 05:40 09.11.2019
4505 Clouds 24 1020 57 9000 3.1 50 04:30 09.11.2019
4506 Mist 21 1021 77 5000 2.6 40 02:55 09.11.2019
4507 Mist 20 1020 82 4200 3.1 70 02:36 09.11.2019
4508 Mist 19 1019 88 3200 2.6 70 01:18 09.11.2019
4509 Mist 17 1019 93 5000 1.5 90 00:43 09.11.2019
4510 Mist 17 1019 93 5000 1.5 90 00:25 09.11.2019
4511 Clouds 18 1018 88 7000 1 0 23:41 08.11.2019
4512 Clouds 18 1018 88 7000 1 0 23:23 08.11.2019
4513 Clouds 18 1018 88 6000 1.5 90 22:59 08.11.2019
4514 Clouds 18 1018 88 6000 0.5 0 22:40 08.11.2019
4515 Clouds 18 1018 88 6000 0.5 0 22:21 08.11.2019
4516 Clouds 18 1018 93 7000 2.45 359 21:42 08.11.2019
4517 Clouds 19 1018 82 7000 1 320 21:24 08.11.2019
4518 Mist 18 1018 88 5000 1.5 330 20:58 08.11.2019
4519 Clouds 19 1018 88 6000 1.5 350 20:40 08.11.2019
4520 Clouds 19 1018 88 6000 1.5 350 20:20 08.11.2019
4521 Clouds 20 1018 77 6000 2.1 40 19:55 08.11.2019
4522 Clouds 20 1018 77 6000 1.5 30 19:36 08.11.2019
4523 Clouds 20 1018 77 6000 1.5 30 19:18 08.11.2019
4524 Clouds 20 1018 77 6000 1.5 30 19:18 08.11.2019
4525 Clouds 20 1018 82 6000 1.5 50 18:54 08.11.2019
4526 Clouds 21 1019 77 6000 1.5 40 18:36 08.11.2019
4527 Clouds 21 1019 77 6000 1.5 40 18:18 08.11.2019
4528 Clouds 21 1019 73 6000 1.5 80 17:54 08.11.2019
4529 Mist 21 1019 77 5000 1.5 40 17:36 08.11.2019
4530 Mist 21 1019 77 5000 1.5 40 17:18 08.11.2019
4531 Clouds 21 1019 77 6000 2.1 50 16:57 08.11.2019
4532 Clouds 21 1019 77 6000 2.1 50 16:57 08.11.2019
4533 Clouds 20 1019 82 7000 2.6 80 16:38 08.11.2019
4534 Clouds 20 1019 82 7000 2.6 80 16:18 08.11.2019
4535 Clouds 21 1019 83 8000 2.1 320 15:41 08.11.2019
4536 Clouds 21 1019 77 8000 2.1 330 15:23 08.11.2019
4537 Clouds 21 1018 77 7000 2.1 330 14:57 08.11.2019
4538 Clouds 22 1018 78 6000 1.5 340 14:38 08.11.2019
4539 Clear 22 1018 78 6000 1.5 340 14:20 08.11.2019
4540 Clear 22 1018 73 7000 1.5 340 13:58 08.11.2019
4541 Clear 23 1017 64 7000 1.5 320 13:39 08.11.2019
4542 Clear 23 1017 64 7000 1.5 320 13:21 08.11.2019
4543 Clear 23 1017 64 7000 1.5 320 12:45 08.11.2019
4544 Clear 24 1016 60 8000 1.5 320 12:27 08.11.2019
4545 Clear 24 1016 57 7000 2.1 320 11:58 08.11.2019
4546 Clear 25 1016 53 10000 2.1 320 11:40 08.11.2019
4547 Clear 25 1016 53 10000 2.1 320 11:21 08.11.2019
4548 Clear 25 1016 53 10000 2.1 320 11:21 08.11.2019
4549 Clear 26 1016 47 10000 2.1 310 10:57 08.11.2019
4550 Clear 26 1016 50 10000 2.6 300 10:39 08.11.2019
4551 Clear 26 1016 50 10000 2.6 300 10:21 08.11.2019
4552 Clear 26 1016 50 10000 3.6 300 09:55 08.11.2019
4553 Clear 27 1016 47 10000 3.1 320 09:36 08.11.2019
4554 Clear 27 1016 47 10000 3.1 320 09:18 08.11.2019
4555 Clear 27 1016 44 10000 3.6 320 08:41 08.11.2019
4556 Clouds 27 1017 42 10000 1 0 08:19 08.11.2019
4557 Clouds 26 1018 47 10000 2.6 0 07:41 08.11.2019
4558 Clouds 26 1018 47 10000 2.6 0 07:23 08.11.2019
4559 Clouds 26 1019 44 10000 2.1 40 06:43 08.11.2019
4560 Clouds 26 1019 44 10000 2.1 40 06:25 08.11.2019
4561 Clouds 26 1020 44 10000 2.6 50 05:57 08.11.2019
4562 Clouds 26 1020 44 10000 3.1 40 05:25 08.11.2019
4563 Clouds 25 1021 47 10000 3.6 70 04:18 08.11.2019
4564 Clouds 24 1021 50 10000 3.6 60 03:41 08.11.2019
4565 Clouds 24 1021 53 10000 3.6 70 02:54 08.11.2019
4566 Clouds 22 1020 60 10000 2.1 50 01:49 08.11.2019
4567 Clouds 21 1020 64 10000 2.1 50 01:31 08.11.2019
4568 Clouds 21 1019 64 10000 2.6 60 00:37 08.11.2019
4569 Clouds 21 1019 64 10000 2.6 60 00:19 08.11.2019
4570 Clouds 20 1018 72 10000 2.6 70 23:43 07.11.2019
4571 Clouds 21 1018 68 10000 2.6 60 23:24 07.11.2019
4572 Clouds 22 1017 64 10000 3.6 50 22:55 07.11.2019
4573 Clouds 22 1017 68 9000 3.1 40 22:36 07.11.2019
4574 Clouds 22 1017 68 9000 3.1 40 22:18 07.11.2019
4575 Clouds 23 1017 64 8000 3.1 40 21:38 07.11.2019
4576 Clouds 23 1017 64 8000 3.1 40 21:20 07.11.2019
4577 Clouds 23 1017 69 7000 1.5 50 20:58 07.11.2019
4578 Clouds 23 1017 73 6000 0.5 10 20:40 07.11.2019
4579 Clear 23 1017 73 6000 0.5 10 20:21 07.11.2019
4580 Clear 23 1017 78 6000 1 0 19:56 07.11.2019
4581 Mist 23 1017 78 5000 1 0 19:37 07.11.2019
4582 Mist 23 1017 78 5000 1 0 19:18 07.11.2019
4583 Mist 23 1017 73 4900 1.5 20 18:56 07.11.2019
4584 Clear 23 1018 69 7000 1.5 40 18:37 07.11.2019
4585 Clear 23 1018 69 7000 1.5 40 18:19 07.11.2019
4586 Mist 23 1018 78 5000 2.1 70 17:40 07.11.2019
4587 Mist 23 1017 78 4400 2.1 70 17:22 07.11.2019
4588 Mist 23 1017 78 4400 2.1 70 16:59 07.11.2019
4589 Mist 23 1017 83 4800 2.1 60 16:40 07.11.2019
4590 Mist 23 1017 83 4800 2.1 60 16:20 07.11.2019
4591 Clear 23 1017 78 5000 2.1 50 15:58 07.11.2019
4592 Clear 22 1017 83 6000 2.1 330 15:39 07.11.2019
4593 Mist 22 1016 83 5000 2.1 320 15:19 07.11.2019
4594 Mist 23 1016 78 5000 2.6 320 14:45 07.11.2019
4595 Mist 23 1016 78 5000 2.6 320 14:27 07.11.2019
4596 Mist 24 1016 69 5000 2.1 320 13:57 07.11.2019
4597 Mist 23 1015 78 5000 1 300 13:39 07.11.2019
4598 Mist 23 1015 78 5000 1 300 13:20 07.11.2019
4599 Clouds 24 1015 69 6000 2.6 310 12:58 07.11.2019
4600 Clouds 24 1015 64 9000 2.1 300 12:40 07.11.2019
4601 Clouds 25 1015 65 7000 2.6 290 12:21 07.11.2019
4602 Clouds 25 1015 65 7000 2.6 290 11:58 07.11.2019
4603 Clouds 25 1014 65 6000 2.6 290 11:39 07.11.2019
4604 Clear 26 1014 61 7000 3.1 300 11:20 07.11.2019
4605 Clear 27 1014 57 8000 3.6 300 10:40 07.11.2019
4606 Clear 27 1014 57 8000 3.6 300 10:19 07.11.2019
4607 Clear 28 1014 51 9000 3.6 310 09:43 07.11.2019
4608 Clear 28 1014 51 9000 3.6 310 09:22 07.11.2019
4609 Clear 28 1014 51 10000 3.1 330 08:57 07.11.2019
4610 Clear 28 1014 48 10000 3.6 20 08:38 07.11.2019
4611 Clouds 28 1014 48 10000 3.6 20 08:19 07.11.2019
4612 Clouds 28 1014 48 10000 3.6 20 08:19 07.11.2019
4613 Clouds 28 1014 48 10000 3.6 20 08:19 07.11.2019
4614 Clouds 27 1015 47 10000 3.6 0 07:42 07.11.2019
4615 Clouds 27 1015 47 10000 3.6 0 07:42 07.11.2019
4616 Clouds 27 1015 47 10000 3.6 0 07:22 07.11.2019
4617 Clouds 27 1015 47 10000 3.6 0 07:21 07.11.2019
4618 Clouds 27 1015 47 10000 3.1 20 06:46 07.11.2019
4619 Clouds 28 1016 45 10000 3.1 10 06:27 07.11.2019
4620 Clouds 28 1016 45 10000 3.1 10 06:26 07.11.2019
4621 Clouds 27 1017 47 10000 4.1 40 05:51 07.11.2019
4622 Clouds 27 1017 47 10000 5.7 50 05:32 07.11.2019
4623 Clouds 27 1017 47 10000 5.7 50 05:32 07.11.2019
4624 Clouds 27 1017 47 10000 6.7 40 04:52 07.11.2019
4625 Clouds 27 1017 47 10000 6.7 40 04:52 07.11.2019
4626 Clouds 26 1018 50 10000 5.1 40 04:52 07.11.2019
4627 Clouds 26 1018 50 10000 5.1 40 04:29 07.11.2019
4628 Clouds 23 1016 64 9000 2.6 40 01:29 07.11.2019
4629 Clouds 23 1016 64 9000 2.6 40 01:29 07.11.2019
4630 Clouds 23 1015 69 10000 2.6 20 00:32 07.11.2019
4631 Clouds 23 1015 69 9000 1.5 40 23:59 06.11.2019
4632 Clouds 23 1014 73 8000 2.1 20 23:40 06.11.2019
4633 Clouds 23 1014 78 6000 1.5 20 23:20 06.11.2019
4634 Clouds 23 1014 83 6000 0.5 0 22:40 06.11.2019
4635 Clouds 23 1014 83 6000 0.5 0 22:21 06.11.2019
4636 Clouds 23 1013 78 6000 0.5 0 21:57 06.11.2019
4637 Clouds 23 1013 78 6000 1 40 21:39 06.11.2019
4638 Clouds 23 1013 78 6000 1 40 21:19 06.11.2019
4639 Clouds 23 1013 78 6000 1.5 0 20:57 06.11.2019
4640 Clouds 23 1013 78 6000 1.5 50 20:39 06.11.2019
4641 Clouds 23 1013 78 6000 1.5 50 20:20 06.11.2019
4642 Clouds 23 1013 78 6000 1.5 70 19:56 06.11.2019
4643 Clouds 23 1013 78 6000 1.5 40 19:36 06.11.2019
4644 Clouds 23 1013 78 6000 1.5 30 19:18 06.11.2019
4645 Clouds 23 1013 78 6000 1.5 30 18:54 06.11.2019
4646 Clouds 24 1013 69 6000 1 0 18:36 06.11.2019
4647 Clouds 24 1013 69 6000 1 0 18:18 06.11.2019
4648 Clouds 24 1013 69 7000 1.5 100 17:41 06.11.2019
4649 Clear 24 1013 69 7000 1.5 100 17:23 06.11.2019
4650 Clear 24 1013 69 7000 2.1 90 16:57 06.11.2019
4651 Clouds 24 1013 69 7000 2.6 70 16:39 06.11.2019
4652 Clouds 24 1013 69 7000 2.6 70 16:20 06.11.2019
4653 Clouds 24 1013 73 7000 2.6 90 15:57 06.11.2019
4654 Clouds 24 1012 73 7000 3.6 120 15:37 06.11.2019
4655 Clouds 24 1012 73 7000 3.6 120 15:19 06.11.2019
4656 Clouds 25 1012 69 6000 3.1 100 14:56 06.11.2019
4657 Haze 25 1012 61 5000 2.6 80 14:38 06.11.2019
4658 Haze 25 1012 61 5000 2.6 80 14:20 06.11.2019
4659 Clouds 25 1010 61 6000 2.6 60 13:41 06.11.2019
4660 Clouds 25 1010 61 6000 2.6 60 13:41 06.11.2019
4661 Clouds 25 1010 61 6000 2.6 60 13:22 06.11.2019
4662 Clouds 25 1010 61 6000 2.1 70 12:58 06.11.2019
4663 Clouds 26 1010 57 6000 2.1 60 12:40 06.11.2019
4664 Haze 26 1010 57 5000 2.1 50 12:21 06.11.2019
4665 Haze 26 1010 57 5000 2.1 50 11:58 06.11.2019
4666 Clouds 26 1009 57 6000 2.6 50 11:38 06.11.2019
4667 Clouds 26 1009 57 6000 2.6 50 11:19 06.11.2019
4668 Clouds 27 1009 51 7000 2.6 50 10:57 06.11.2019
4669 Clouds 28 1009 48 9000 2.1 130 10:38 06.11.2019
4670 Clouds 28 1009 48 9000 2.1 130 10:20 06.11.2019
4671 Clouds 28 1009 48 9000 2.1 130 10:20 06.11.2019
4672 Clouds 27 1009 51 8000 2.6 80 09:56 06.11.2019
4673 Clouds 27 1009 51 7000 2.1 70 09:36 06.11.2019
4674 Clouds 27 1009 51 7000 2.1 70 09:18 06.11.2019
4675 Clouds 28 1009 48 8000 1.5 0 08:54 06.11.2019
4676 Clouds 28 1009 48 9000 2.6 110 08:36 06.11.2019
4677 Clear 28 1009 48 9000 2.6 110 08:18 06.11.2019
4678 Clear 27 1010 54 8000 1.5 0 07:40 06.11.2019
4679 Clear 27 1010 54 8000 1.5 0 07:21 06.11.2019
4680 Clear 27 1011 51 9000 2.1 90 06:45 06.11.2019
4681 Clear 27 1011 57 9000 2.1 0 06:25 06.11.2019
4682 Clear 26 1013 54 9000 2.1 80 04:52 06.11.2019
4683 Mist 21 1013 77 5000 2.1 70 02:22 06.11.2019
4684 Mist 19 1013 88 3800 2.1 90 01:37 06.11.2019
4685 Mist 18 1012 93 4100 2.6 100 00:39 06.11.2019
4686 Mist 18 1012 88 4200 2.1 90 23:58 05.11.2019
4687 Mist 18 1012 93 3900 1.5 80 23:38 05.11.2019
4688 Mist 18 1012 93 3900 1.5 80 23:38 05.11.2019
4689 Mist 18 1012 93 3900 1.5 80 23:20 05.11.2019
4690 Mist 19 1012 88 4400 1.5 50 22:43 05.11.2019
4691 Mist 19 1012 88 4400 1.5 50 22:20 05.11.2019
4692 Mist 18 1012 93 4600 2.1 100 21:59 05.11.2019
4693 Mist 19 1012 88 5000 1 90 21:41 05.11.2019
4694 Mist 19 1012 88 5000 1 90 21:20 05.11.2019
4695 Mist 19 1012 88 5000 1.5 60 20:57 05.11.2019
4696 Mist 20 1012 82 5000 2.1 70 20:38 05.11.2019
4697 Mist 20 1012 82 5000 2.1 70 20:20 05.11.2019
4698 Mist 20 1012 82 5000 2.1 60 19:56 05.11.2019
4699 Mist 20 1013 77 5000 1.5 70 19:38 05.11.2019
4700 Mist 20 1013 77 5000 1.5 70 19:19 05.11.2019
4701 Mist 20 1013 82 5000 2.1 80 18:56 05.11.2019
4702 Mist 20 1013 82 5000 2.6 80 18:38 05.11.2019
4703 Mist 20 1013 82 5000 2.6 80 18:19 05.11.2019
4704 Clear 21 1013 73 6000 1.5 90 17:56 05.11.2019
4705 Clear 21 1013 73 6000 2.1 120 17:37 05.11.2019
4706 Clear 21 1013 73 6000 2.1 120 17:18 05.11.2019
4707 Clear 21 1013 73 7000 2.6 100 16:41 05.11.2019
4708 Clear 21 1013 73 7000 2.6 100 16:20 05.11.2019
4709 Clear 21 1013 73 10000 1 0 15:57 05.11.2019
4710 Clear 21 1013 73 9000 1 0 15:36 05.11.2019
4711 Clear 21 1013 73 9000 1 0 15:18 05.11.2019
4712 Clear 21 1012 83 7000 2.1 330 14:54 05.11.2019
4713 Clear 22 1012 78 7000 1 0 14:36 05.11.2019
4714 Clear 22 1012 78 7000 1 0 14:18 05.11.2019
4715 Clear 23 1012 64 6000 0.5 0 13:43 05.11.2019
4716 Clear 23 1012 64 6000 0.5 0 13:24 05.11.2019
4717 Clear 25 1012 50 9000 1 0 12:42 05.11.2019
4718 Clear 25 1012 50 9000 1 0 12:22 05.11.2019
4719 Clear 25 1011 50 10000 0.5 0 11:58 05.11.2019
4720 Clear 26 1011 50 10000 1 0 11:39 05.11.2019
4721 Clear 26 1011 50 10000 1 0 11:20 05.11.2019
4722 Clear 27 1011 39 10000 1.5 0 10:55 05.11.2019
4723 Clear 27 1011 42 10000 2.1 60 10:37 05.11.2019
4724 Clear 27 1011 42 10000 2.1 60 10:18 05.11.2019
4725 Clear 28 1011 37 10000 1.5 70 09:54 05.11.2019
4726 Clear 28 1011 37 10000 2.1 50 09:36 05.11.2019
4727 Clear 28 1011 37 10000 2.1 50 09:18 05.11.2019
4728 Clear 28 1012 34 10000 2.6 30 08:38 05.11.2019
4729 Clear 28 1012 34 10000 2.6 30 08:19 05.11.2019
4730 Clear 27 1012 42 10000 3.1 0 07:55 05.11.2019
4731 Clear 28 1013 37 10000 2.6 0 07:36 05.11.2019
4732 Clear 28 1013 37 10000 2.6 0 07:18 05.11.2019
4733 Clear 27 1014 42 10000 3.6 60 06:40 05.11.2019
4734 Clear 27 1015 42 10000 5.1 50 05:51 05.11.2019
4735 Clear 26 1015 41 10000 4.1 30 05:21 05.11.2019
4736 Clear 26 1017 44 10000 5.1 30 04:24 05.11.2019
4737 Clear 25 1017 47 10000 4.1 30 03:32 05.11.2019
4738 Clear 24 1017 57 10000 3.6 0 02:43 05.11.2019
4739 Clouds 22 1016 64 10000 2.6 30 01:57 05.11.2019
4740 Clouds 20 1016 72 10000 2.1 30 00:48 05.11.2019
4741 Clouds 20 1015 72 10000 2.1 30 00:27 05.11.2019
4742 Clouds 21 1015 68 10000 2.6 40 23:43 04.11.2019
4743 Clouds 21 1015 68 10000 2.6 40 23:19 04.11.2019
4744 Clouds 21 1015 68 10000 2.1 40 22:58 04.11.2019
4745 Clouds 21 1015 68 10000 1 0 22:40 04.11.2019
4746 Clouds 21 1015 68 10000 1 0 22:21 04.11.2019
4747 Clouds 21 1015 73 10000 1 80 21:55 04.11.2019
4748 Clouds 21 1015 73 10000 1 80 21:55 04.11.2019
4749 Clouds 20 1015 82 10000 0.5 350 21:37 04.11.2019
4750 Clouds 20 1015 82 10000 0.5 350 21:18 04.11.2019
4751 Clouds 20 1015 82 10000 0.5 350 21:18 04.11.2019
4752 Clouds 20 1015 82 9000 1.5 310 20:56 04.11.2019
4753 Clouds 20 1015 82 9000 1.5 310 20:56 04.11.2019
4754 Clouds 21 1015 83 9000 1.5 20 20:37 04.11.2019
4755 Clouds 21 1015 83 9000 1.5 20 20:19 04.11.2019
4756 Clouds 21 1015 77 10000 2.1 10 19:56 04.11.2019
4757 Clouds 22 1015 73 10000 1.5 0 19:38 04.11.2019
4758 Clouds 22 1015 73 10000 1.5 0 19:20 04.11.2019
4759 Clouds 22 1016 78 10000 2.6 50 18:42 04.11.2019
4760 Clouds 22 1016 78 10000 2.6 50 18:23 04.11.2019
4761 Clouds 22 1016 78 10000 2.6 40 17:59 04.11.2019
4762 Clouds 22 1016 83 9000 2.6 50 17:37 04.11.2019
4763 Clouds 22 1016 83 9000 2.6 50 17:19 04.11.2019
4764 Clouds 22 1016 83 9000 2.6 60 16:44 04.11.2019
4765 Clouds 22 1016 83 9000 1.5 70 16:25 04.11.2019
4766 Clouds 22 1016 88 9000 1.5 70 15:59 04.11.2019
4767 Clouds 22 1016 88 9000 1.5 70 15:41 04.11.2019
4768 Clouds 23 1016 78 10000 1.5 80 15:21 04.11.2019
4769 Clouds 22 1016 83 10000 1 0 14:58 04.11.2019
4770 Clouds 23 1015 83 10000 1 0 14:40 04.11.2019
4771 Clear 23 1015 83 10000 1 0 14:20 04.11.2019
4772 Clear 23 1015 83 10000 0.5 0 13:58 04.11.2019
4773 Clear 23 1014 83 10000 1.5 340 13:39 04.11.2019
4774 Clear 23 1014 83 10000 1.5 340 13:21 04.11.2019
4775 Clear 24 1014 78 10000 1.5 340 12:55 04.11.2019
4776 Clear 25 1014 73 10000 1.5 340 12:37 04.11.2019
4777 Clear 25 1014 73 10000 1.5 340 12:18 04.11.2019
4778 Clear 26 1014 65 10000 1.5 330 11:42 04.11.2019
4779 Clear 26 1014 65 10000 1.5 330 11:23 04.11.2019
4780 Clear 26 1014 65 10000 1.5 330 11:23 04.11.2019
4781 Clear 27 1013 57 10000 1.5 330 10:58 04.11.2019
4782 Clear 27 1013 57 10000 2.1 10 10:39 04.11.2019
4783 Clear 27 1013 57 10000 2.1 10 10:20 04.11.2019
4784 Clear 28 1013 51 10000 2.1 320 09:44 04.11.2019
4785 Clouds 29 1014 48 10000 3.1 20 09:26 04.11.2019
4786 Clouds 28 1014 54 10000 3.1 0 08:56 04.11.2019
4787 Clear 29 1014 48 10000 3.6 0 08:37 04.11.2019
4788 Clear 29 1014 48 10000 3.6 0 08:18 04.11.2019
4789 Clouds 29 1015 51 10000 3.6 360 07:42 04.11.2019
4790 Clouds 29 1015 51 10000 3.6 360 07:20 04.11.2019
4791 Clouds 28 1016 54 10000 4.1 10 06:49 04.11.2019
4792 Clouds 28 1016 51 10000 4.6 20 06:18 04.11.2019
4793 Clear 27 1018 54 10000 5.1 20 05:32 04.11.2019
4794 Clear 27 1018 54 10000 5.1 10 04:34 04.11.2019
4795 Clear 26 1019 57 10000 4.6 20 03:39 04.11.2019
4796 Clouds 23 1018 73 10000 3.6 20 01:37 04.11.2019
4797 Clear 23 1018 73 10000 3.6 20 01:18 04.11.2019
4798 Clear 23 1017 73 10000 3.1 10 00:22 04.11.2019
4799 Clear 23 1017 73 10000 2.6 20 23:58 03.11.2019
4800 Clear 23 1016 73 10000 2.6 10 23:38 03.11.2019
4801 Clear 23 1016 73 10000 2.6 10 23:19 03.11.2019
4802 Clear 23 1016 73 10000 2.1 20 22:56 03.11.2019
4803 Clear 23 1016 73 10000 2.1 20 22:56 03.11.2019
4804 Clear 23 1016 73 10000 1.5 350 22:38 03.11.2019
4805 Clear 23 1016 73 10000 1.5 350 22:19 03.11.2019
4806 Clear 23 1016 73 10000 2.1 10 21:43 03.11.2019
4807 Clear 23 1016 73 10000 2.1 10 21:43 03.11.2019
4808 Clear 23 1016 73 10000 2.6 360 21:21 03.11.2019
4809 Clear 23 1016 73 10000 2.1 10 20:58 03.11.2019
4810 Clear 22 1016 83 10000 2.1 350 20:38 03.11.2019
4811 Clear 22 1016 83 10000 2.1 350 20:19 03.11.2019
4812 Clear 22 1016 83 10000 2.1 340 19:57 03.11.2019
4813 Clear 22 1016 83 10000 2.6 340 19:38 03.11.2019
4814 Clear 22 1016 83 10000 2.6 340 19:20 03.11.2019
4815 Clear 23 1016 78 10000 1.5 350 18:55 03.11.2019
4816 Clear 23 1016 78 10000 1 0 18:36 03.11.2019
4817 Clear 23 1016 78 10000 1 0 18:18 03.11.2019
4818 Clear 23 1016 83 10000 1.5 330 17:42 03.11.2019
4819 Clear 23 1016 83 10000 2.1 350 17:20 03.11.2019
4820 Clear 24 1016 73 10000 1.5 0 16:56 03.11.2019
4821 Clear 24 1016 78 10000 2.1 10 16:38 03.11.2019
4822 Clear 24 1016 78 10000 2.1 10 16:20 03.11.2019
4823 Clear 24 1016 78 10000 1.5 350 15:57 03.11.2019
4824 Clear 24 1016 78 10000 2.1 0 15:39 03.11.2019
4825 Clear 24 1016 78 10000 2.1 0 15:21 03.11.2019
4826 Clear 25 1016 73 10000 1.5 0 14:42 03.11.2019
4827 Clouds 24 1016 78 10000 1.5 0 14:19 03.11.2019
4828 Clouds 24 1016 78 10000 1.5 0 13:58 03.11.2019
4829 Clouds 24 1015 78 10000 2.1 350 13:40 03.11.2019
4830 Clouds 24 1015 78 10000 2.1 350 13:18 03.11.2019
4831 Clouds 25 1015 78 10000 2.1 0 12:38 03.11.2019
4832 Clouds 25 1015 78 10000 2.1 0 12:20 03.11.2019
4833 Clouds 25 1015 78 10000 2.1 0 12:20 03.11.2019
4834 Clouds 25 1015 78 10000 2.1 0 12:20 03.11.2019
4835 Clouds 25 1015 78 10000 2.6 20 11:58 03.11.2019
4836 Clouds 26 1014 78 10000 2.6 320 11:40 03.11.2019
4837 Rain 26 1014 78 10000 2.6 320 11:20 03.11.2019
4838 Rain 26 1014 78 10000 2.6 320 11:20 03.11.2019
4839 Rain 26 1014 78 10000 2.6 0 10:42 03.11.2019
4840 Rain 26 1014 78 10000 2.6 310 10:22 03.11.2019
4841 Rain 26 1014 78 10000 2.6 310 09:59 03.11.2019
4842 Rain 26 1014 78 10000 2.1 290 09:41 03.11.2019
4843 Rain 26 1014 78 10000 2.1 290 09:23 03.11.2019
4844 Rain 26 1014 78 10000 1.5 310 08:53 03.11.2019
4845 Rain 26 1014 78 10000 1.5 310 08:26 03.11.2019
4846 Clouds 27 1014 69 10000 2.1 300 07:55 03.11.2019
4847 Clouds 27 1014 69 10000 2.6 320 07:37 03.11.2019
4848 Clouds 27 1014 69 10000 2.6 320 07:18 03.11.2019
4849 Clouds 27 1015 74 10000 3.1 290 06:38 03.11.2019
4850 Clouds 27 1016 69 10000 2.6 300 05:41 03.11.2019
4851 Clouds 27 1016 69 10000 2.6 300 05:18 03.11.2019
4852 Clouds 27 1016 74 10000 2.1 290 04:47 03.11.2019
4853 Clouds 24 1017 83 6000 3.1 300 03:40 03.11.2019
4854 Mist 23 1017 94 5000 3.1 300 02:46 03.11.2019
4855 Mist 22 1016 94 3700 2.6 300 02:21 03.11.2019
4856 Mist 22 1016 94 2800 2.6 300 01:44 03.11.2019
4857 Mist 22 1016 94 2500 2.6 300 01:21 03.11.2019
4858 Mist 22 1016 94 2300 1.5 310 00:46 03.11.2019
4859 Mist 21 1016 100 3800 2.1 290 00:28 03.11.2019
4860 Mist 21 1015 100 4100 2.1 310 23:58 02.11.2019
4861 Mist 21 1015 100 3800 3.1 300 23:39 02.11.2019
4862 Mist 21 1015 100 3800 3.1 300 23:19 02.11.2019
4863 Rain 21 1015 100 3500 2.6 300 22:56 02.11.2019
4864 Rain 21 1015 100 3500 2.6 300 22:56 02.11.2019
4865 Rain 21 1015 100 3500 2.6 300 22:38 02.11.2019
4866 Rain 21 1015 100 3500 2.6 300 22:19 02.11.2019
4867 Rain 21 1015 100 3600 3.1 290 21:56 02.11.2019
4868 Rain 21 1015 100 3700 3.1 310 21:38 02.11.2019
4869 Rain 21 1015 100 3700 3.1 310 21:18 02.11.2019
4870 Rain 21 1015 100 3700 3.1 310 21:18 02.11.2019
4871 Rain 22 1015 94 4300 2.6 310 20:59 02.11.2019
4872 Mist 21 1015 100 3900 2.1 300 20:39 02.11.2019
4873 Mist 21 1015 100 3900 2.1 300 20:20 02.11.2019
4874 Mist 21 1015 100 4400 3.6 300 19:55 02.11.2019
4875 Mist 21 1015 100 3900 2.6 290 19:36 02.11.2019
4876 Mist 21 1015 100 3900 2.6 290 19:18 02.11.2019
4877 Rain 22 1016 94 4300 3.1 290 18:42 02.11.2019
4878 Rain 22 1016 94 4300 3.1 290 18:24 02.11.2019
4879 Rain 22 1016 94 3900 3.1 300 17:59 02.11.2019
4880 Rain 22 1016 94 4500 4.1 300 17:39 02.11.2019
4881 Rain 22 1016 94 4500 4.1 300 17:21 02.11.2019
4882 Rain 22 1016 94 4700 3.6 300 16:57 02.11.2019
4883 Rain 22 1016 94 5000 4.6 300 16:38 02.11.2019
4884 Rain 22 1016 94 5000 4.6 300 16:18 02.11.2019
4885 Mist 22 1016 94 5000 4.6 300 15:42 02.11.2019
4886 Rain 22 1016 94 4500 4.1 300 15:20 02.11.2019
4887 Rain 22 1016 94 6000 3.6 300 14:43 02.11.2019
4888 Rain 22 1016 94 6000 3.6 300 14:24 02.11.2019
4889 Rain 22 1016 94 6000 3.6 300 14:24 02.11.2019
4890 Rain 22 1016 94 6000 3.1 290 13:58 02.11.2019
4891 Rain 22 1015 94 6000 4.1 300 13:39 02.11.2019
4892 Rain 22 1015 94 6000 4.1 300 13:19 02.11.2019
4893 Rain 22 1015 94 7000 4.1 290 12:41 02.11.2019
4894 Clouds 23 1014 88 10000 4.1 300 12:41 02.11.2019
4895 Clouds 23 1014 88 10000 4.1 300 12:23 02.11.2019
4896 Clouds 23 1014 88 10000 4.1 300 11:58 02.11.2019
4897 Clouds 23 1014 88 10000 4.6 280 11:39 02.11.2019
4898 Clouds 23 1014 88 10000 4.6 280 11:39 02.11.2019
4899 Clouds 23 1014 88 10000 4.6 280 11:21 02.11.2019
4900 Clouds 23 1014 88 10000 3.6 290 10:50 02.11.2019
4901 Clouds 24 1014 83 10000 4.1 300 10:29 02.11.2019
4902 Clouds 24 1013 83 10000 4.1 290 09:59 02.11.2019
4903 Clouds 24 1013 83 10000 4.1 290 09:40 02.11.2019
4904 Clouds 24 1013 83 10000 4.1 290 09:20 02.11.2019
4905 Clouds 24 1014 83 10000 4.1 290 08:46 02.11.2019
4906 Clouds 24 1014 83 10000 4.1 290 08:22 02.11.2019
4907 Clouds 24 1014 83 9000 3.6 290 07:50 02.11.2019
4908 Clouds 24 1015 83 10000 2.6 290 07:32 02.11.2019
4909 Clouds 24 1015 83 9000 2.6 290 06:58 02.11.2019
4910 Clouds 23 1016 88 8000 3.6 300 06:37 02.11.2019
4911 Clouds 23 1016 83 8000 3.1 290 05:56 02.11.2019
4912 Clouds 22 1016 88 9000 3.1 290 05:20 02.11.2019
4913 Clouds 22 1017 88 10000 3.1 310 04:21 02.11.2019
4914 Clouds 22 1017 88 10000 3.6 300 03:49 02.11.2019
4915 Clouds 21 1017 94 10000 3.6 300 02:42 02.11.2019
4916 Clouds 21 1016 94 10000 3.1 300 01:44 02.11.2019
4917 Clouds 20 1016 100 8000 2.6 300 01:23 02.11.2019
4918 Clouds 20 1016 94 10000 3.6 300 00:51 02.11.2019
4919 Clouds 20 1015 94 8000 3.6 290 00:26 02.11.2019
4920 Clouds 20 1015 94 8000 3.1 290 23:46 01.11.2019
4921 Clouds 20 1015 100 7000 3.1 290 23:22 01.11.2019
4922 Clouds 20 1015 100 6000 3.1 290 22:57 01.11.2019
4923 Clouds 20 1015 100 6000 2.1 300 22:39 01.11.2019
4924 Clouds 20 1015 100 6000 2.1 300 22:20 01.11.2019
4925 Rain 20 1015 94 5000 3.1 300 21:41 01.11.2019
4926 Rain 20 1015 94 5000 3.1 300 21:23 01.11.2019
4927 Rain 20 1015 94 3900 3.1 290 20:56 01.11.2019
4928 Rain 20 1015 94 4400 3.6 280 20:38 01.11.2019
4929 Rain 20 1015 94 4400 3.6 280 20:19 01.11.2019
4930 Rain 20 1015 94 3200 3.6 280 19:42 01.11.2019
4931 Rain 20 1015 94 4100 3.6 300 19:22 01.11.2019
4932 Rain 20 1016 94 3300 2.6 300 18:59 01.11.2019
4933 Rain 20 1016 94 3400 3.6 280 18:39 01.11.2019
4934 Rain 20 1016 94 3400 3.6 280 18:19 01.11.2019
4935 Rain 20 1016 94 4900 3.1 270 17:41 01.11.2019
4936 Rain 20 1016 94 4900 3.1 270 17:23 01.11.2019
4937 Rain 20 1017 94 5000 3.1 270 17:00 01.11.2019
4938 Rain 20 1016 94 6000 2.6 290 16:37 01.11.2019
4939 Rain 20 1016 94 6000 2.6 290 16:18 01.11.2019
4940 Clouds 20 1016 94 6000 2.6 290 15:41 01.11.2019
4941 Clouds 20 1016 94 6000 2.6 290 15:22 01.11.2019
4942 Clouds 20 1016 94 8000 3.1 300 14:57 01.11.2019
4943 Clouds 20 1016 94 7000 2.1 280 14:39 01.11.2019
4944 Clouds 20 1016 94 7000 2.1 280 14:21 01.11.2019
4945 Clouds 20 1016 94 7000 2.1 290 13:55 01.11.2019
4946 Clouds 20 1016 94 8000 3.1 300 13:36 01.11.2019
4947 Clouds 20 1016 94 8000 3.1 300 13:18 01.11.2019
4948 Clouds 20 1016 94 8000 3.1 300 13:18 01.11.2019
4949 Rain 20 1015 94 9000 4.1 300 12:43 01.11.2019
4950 Clouds 20 1015 94 8000 3.6 290 12:24 01.11.2019
4951 Rain 20 1015 94 8000 3.1 300 11:43 01.11.2019
4952 Rain 20 1015 94 8000 3.1 300 11:24 01.11.2019
4953 Rain 20 1015 94 9000 3.6 300 10:57 01.11.2019
4954 Rain 20 1015 94 9000 3.1 300 10:38 01.11.2019
4955 Rain 20 1015 94 9000 3.1 300 10:20 01.11.2019
4956 Rain 20 1015 94 7000 3.1 300 09:43 01.11.2019
4957 Rain 20 1015 94 7000 3.1 300 09:25 01.11.2019
4958 Rain 20 1015 94 6000 3.6 300 08:57 01.11.2019
4959 Rain 20 1016 94 5000 3.1 300 08:39 01.11.2019
4960 Rain 20 1016 94 5000 3.1 300 08:20 01.11.2019
4961 Rain 20 1016 94 4000 2.6 310 07:51 01.11.2019
4962 Rain 20 1017 94 4100 3.1 310 07:24 01.11.2019
4963 Rain 20 1017 94 3700 3.1 310 06:56 01.11.2019
4964 Rain 19 1017 100 2700 2.6 300 06:23 01.11.2019
4965 Rain 19 1018 100 2000 3.1 300 05:58 01.11.2019
4966 Rain 20 1018 94 1900 3.1 310 05:38 01.11.2019
4967 Rain 19 1019 93 3400 3.1 320 03:32 01.11.2019
4968 Rain 19 1018 93 1800 2.1 310 01:48 01.11.2019
4969 Rain 18 1017 100 2100 1.5 300 01:19 01.11.2019
4970 Rain 18 1017 100 2500 1.5 270 00:20 01.11.2019
4971 Rain 19 1017 93 4200 1 0 23:45 31.10.2019
4972 Rain 19 1016 93 9000 0.5 0 23:25 31.10.2019
4973 Rain 19 1016 93 8000 2.1 310 22:58 31.10.2019
4974 Rain 18 1016 93 7000 1.5 340 22:40 31.10.2019
4975 Rain 18 1016 93 7000 1.5 340 22:22 31.10.2019
4976 Rain 18 1016 100 7000 3.1 320 21:45 31.10.2019
4977 Rain 18 1016 100 7000 3.1 320 21:23 31.10.2019
4978 Rain 18 1016 100 7000 2.1 320 20:59 31.10.2019
4979 Rain 19 1016 88 4300 2.6 340 20:40 31.10.2019
4980 Rain 19 1016 88 4300 2.6 340 20:22 31.10.2019
4981 Rain 19 1016 93 8000 2.1 340 19:45 31.10.2019
4982 Rain 19 1016 93 7000 1 0 19:26 31.10.2019
4983 Rain 20 1017 88 6000 1 0 18:58 31.10.2019
4984 Rain 20 1016 82 9000 3.1 200 18:39 31.10.2019
4985 Rain 20 1016 82 9000 3.1 200 18:21 31.10.2019
4986 Clouds 22 1017 60 10000 0.5 0 17:43 31.10.2019
4987 Clouds 22 1017 60 10000 0.5 0 17:24 31.10.2019
4988 Clouds 22 1017 60 10000 1 0 16:59 31.10.2019
4989 Rain 22 1017 60 10000 1.5 80 16:40 31.10.2019
4990 Rain 22 1017 60 10000 1.5 80 16:20 31.10.2019
4991 Clouds 23 1017 53 10000 1.5 60 15:57 31.10.2019
4992 Clouds 23 1016 56 10000 1.5 50 15:38 31.10.2019
4993 Clouds 23 1016 56 10000 1.5 50 15:19 31.10.2019
4994 Clouds 23 1016 53 10000 2.1 50 14:56 31.10.2019
4995 Clouds 23 1016 56 10000 1.5 50 14:38 31.10.2019
4996 Clouds 23 1016 56 10000 1.5 50 14:38 31.10.2019
4997 Clouds 23 1016 56 10000 1.5 50 14:20 31.10.2019
4998 Clouds 23 1016 53 10000 2.1 70 13:55 31.10.2019
4999 Clouds 23 1016 56 9000 2.1 80 13:37 31.10.2019
5000 Clouds 23 1016 56 9000 2.1 80 13:19 31.10.2019
5001 Clouds 23 1015 56 8000 3.1 90 12:43 31.10.2019
5002 Clouds 23 1015 56 8000 3.1 90 12:23 31.10.2019
5003 Clouds 24 1015 53 7000 5.1 80 11:57 31.10.2019
5004 Smoke 25 1015 47 5000 2.6 70 11:38 31.10.2019
5005 Smoke 25 1015 47 5000 2.6 70 11:18 31.10.2019
5006 Clouds 25 1015 47 9000 3.6 80 10:40 31.10.2019
5007 Clouds 25 1015 47 9000 3.6 80 10:22 31.10.2019
5008 Clouds 25 1015 50 10000 1.5 40 09:59 31.10.2019
5009 Clouds 26 1015 44 10000 2.1 350 09:41 31.10.2019
5010 Clouds 26 1015 44 10000 2.1 350 09:18 31.10.2019
5011 Clouds 26 1015 44 10000 2.1 350 09:18 31.10.2019
5012 Clouds 26 1015 41 10000 2.1 0 08:48 31.10.2019
5013 Clouds 27 1015 39 10000 3.1 0 08:29 31.10.2019
5014 Clouds 27 1015 39 10000 3.1 40 07:54 31.10.2019
5015 Clouds 27 1016 39 10000 2.6 0 07:36 31.10.2019
5016 Clouds 27 1016 39 10000 2.6 0 07:18 31.10.2019
5017 Clouds 26 1016 39 10000 3.6 10 06:33 31.10.2019
5018 Clouds 26 1017 39 10000 3.6 360 05:58 31.10.2019
5019 Clouds 21 1018 77 8000 2.1 300 03:22 31.10.2019
5020 Mist 19 1018 88 5000 2.6 300 02:38 31.10.2019
5021 Mist 18 1018 93 4300 2.6 310 01:43 31.10.2019
5022 Clouds 17 1017 93 6000 1.5 320 00:35 31.10.2019
5023 Clouds 17 1017 93 8000 1.5 310 23:53 30.10.2019
5024 Clouds 17 1016 88 10000 1.5 310 23:28 30.10.2019
5025 Clouds 17 1016 88 10000 2.1 310 22:43 30.10.2019
5026 Clouds 18 1016 82 10000 2.6 320 22:21 30.10.2019
5027 Clouds 18 1016 82 10000 1.5 310 21:55 30.10.2019
5028 Clouds 18 1016 82 10000 2.1 320 21:37 30.10.2019
5029 Clouds 18 1016 82 10000 2.1 320 21:18 30.10.2019
5030 Clouds 19 1016 77 10000 1 0 20:58 30.10.2019
5031 Clouds 18 1016 88 10000 1 0 20:39 30.10.2019
5032 Clouds 18 1016 88 10000 1 0 20:21 30.10.2019
5033 Clouds 18 1016 88 10000 1 0 19:57 30.10.2019
5034 Clouds 19 1016 77 10000 1.5 0 19:37 30.10.2019
5035 Clouds 19 1016 77 10000 1.5 0 19:19 30.10.2019
5036 Clouds 19 1017 77 10000 1 0 18:39 30.10.2019
5037 Clouds 19 1017 77 10000 1 0 18:20 30.10.2019
5038 Clouds 19 1017 82 10000 1 0 17:58 30.10.2019
5039 Clouds 19 1017 82 10000 1 0 17:40 30.10.2019
5040 Clouds 19 1017 82 10000 1 0 17:19 30.10.2019
5041 Clouds 20 1017 82 10000 1.5 0 16:55 30.10.2019
5042 Clouds 20 1017 82 10000 1.5 0 16:55 30.10.2019
5043 Clouds 20 1017 82 8000 1.5 340 16:37 30.10.2019
5044 Clouds 20 1017 82 8000 1.5 340 16:37 30.10.2019
5045 Clouds 21 1017 77 7000 1 0 16:18 30.10.2019
5046 Clouds 21 1017 77 7000 1 0 15:54 30.10.2019
5047 Clouds 20 1017 77 9000 1 0 15:36 30.10.2019
5048 Clouds 20 1017 77 9000 1 0 15:18 30.10.2019
5049 Clouds 20 1017 82 9000 2.6 330 14:41 30.10.2019
5050 Clouds 21 1017 77 7000 1.5 320 14:22 30.10.2019
5051 Clouds 22 1016 73 6000 2.1 330 13:58 30.10.2019
5052 Haze 23 1016 69 4800 1.5 320 13:39 30.10.2019
5053 Haze 23 1016 69 4800 1.5 320 13:19 30.10.2019
5054 Clouds 24 1015 57 8000 1.5 290 12:56 30.10.2019
5055 Clouds 24 1015 57 9000 1 0 12:37 30.10.2019
5056 Clouds 24 1015 57 9000 1 0 12:18 30.10.2019
5057 Clouds 26 1015 47 10000 1.5 310 11:41 30.10.2019
5058 Clouds 26 1015 47 10000 1.5 310 11:21 30.10.2019
5059 Clouds 28 1015 39 10000 1.5 0 10:45 30.10.2019
5060 Clouds 28 1015 34 10000 2.1 30 10:24 30.10.2019
5061 Clouds 28 1014 34 10000 3.6 10 09:57 30.10.2019
5062 Clouds 28 1014 34 10000 3.1 360 09:38 30.10.2019
5063 Clouds 28 1014 34 10000 3.1 360 09:19 30.10.2019
5064 Clouds 29 1015 32 10000 4.1 30 08:40 30.10.2019
5065 Clouds 29 1015 32 10000 4.1 30 08:21 30.10.2019
5066 Clouds 29 1015 32 10000 3.6 0 07:47 30.10.2019
5067 Clouds 28 1016 37 10000 3.6 0 07:28 30.10.2019
5068 Clouds 28 1017 34 10000 3.1 10 06:43 30.10.2019
5069 Clouds 27 1017 39 10000 3.6 360 06:21 30.10.2019
5070 Clouds 27 1018 39 10000 3.1 50 05:42 30.10.2019
5071 Clouds 27 1018 36 10000 3.6 50 05:19 30.10.2019
5072 Clouds 25 1020 53 10000 2.1 360 03:45 30.10.2019
5073 Clouds 23 1020 64 10000 1 0 03:18 30.10.2019
5074 Clouds 20 1019 82 9000 1.5 320 02:19 30.10.2019
5075 Clouds 19 1018 82 7000 1 310 01:32 30.10.2019
5076 Clouds 17 1017 82 10000 2.1 310 00:31 30.10.2019
5077 Clouds 17 1017 88 10000 0.5 0 23:46 29.10.2019
5078 Clouds 17 1017 88 10000 1 340 23:25 29.10.2019
5079 Clouds 17 1017 88 10000 1.5 10 22:49 29.10.2019
5080 Clouds 17 1017 88 10000 1.5 10 22:49 29.10.2019
5081 Clouds 17 1017 82 10000 1.5 350 22:20 29.10.2019
5082 Clouds 18 1017 82 10000 3.71 1 21:59 29.10.2019
5083 Clouds 18 1017 82 10000 1.5 110 21:41 29.10.2019
5084 Clouds 18 1017 82 10000 1.5 110 21:20 29.10.2019
5085 Clouds 17 1017 88 10000 2.1 110 20:58 29.10.2019
5086 Clouds 19 1017 72 10000 1 0 20:40 29.10.2019
5087 Clear 19 1017 72 10000 1 0 20:21 29.10.2019
5088 Clear 18 1017 77 10000 1.5 0 19:56 29.10.2019
5089 Clear 18 1017 77 10000 1.5 0 19:56 29.10.2019
5090 Clear 19 1017 77 10000 1 0 19:38 29.10.2019
5091 Clear 19 1017 77 10000 1 0 19:19 29.10.2019
5092 Clear 19 1017 82 10000 1.5 10 18:55 29.10.2019
5093 Clear 19 1017 82 10000 1 0 18:37 29.10.2019
5094 Clear 19 1017 82 10000 1 0 18:37 29.10.2019
5095 Clear 19 1017 82 10000 1 0 18:18 29.10.2019
5096 Clear 20 1018 77 10000 1.5 0 17:54 29.10.2019
5097 Clear 20 1018 77 10000 1.5 0 17:54 29.10.2019
5098 Clear 21 1018 73 10000 1.5 0 17:36 29.10.2019
5099 Clear 21 1018 73 10000 1.5 0 17:36 29.10.2019
5100 Clear 21 1018 73 10000 1.5 0 17:18 29.10.2019
5101 Clear 21 1018 73 10000 1.5 0 17:18 29.10.2019
5102 Clear 22 1017 68 10000 1 0 16:39 29.10.2019
5103 Clear 22 1017 68 10000 1 0 16:39 29.10.2019
5104 Clear 22 1017 68 10000 1 0 16:19 29.10.2019
5105 Clear 22 1017 73 10000 1.5 350 15:55 29.10.2019
5106 Clear 22 1017 73 10000 1 0 15:37 29.10.2019
5107 Clear 22 1017 73 10000 1 0 15:19 29.10.2019
5108 Clear 22 1017 73 9000 1 0 14:54 29.10.2019
5109 Clear 23 1017 60 10000 1 0 14:36 29.10.2019
5110 Clear 23 1017 60 10000 1 0 14:18 29.10.2019
5111 Clear 24 1016 57 9000 1 30 13:40 29.10.2019
5112 Clear 24 1016 57 9000 1 30 13:21 29.10.2019
5113 Clear 25 1015 44 10000 1.5 0 12:44 29.10.2019
5114 Clear 25 1015 44 10000 1.5 0 12:25 29.10.2019
5115 Clear 26 1015 44 10000 2.1 0 11:56 29.10.2019
5116 Clear 26 1015 44 10000 2.1 360 11:38 29.10.2019
5117 Clear 26 1015 44 10000 2.1 360 11:18 29.10.2019
5118 Clear 27 1015 39 10000 2.6 20 10:57 29.10.2019
5119 Clear 28 1015 37 10000 3.1 0 10:38 29.10.2019
5120 Clear 28 1015 37 10000 3.1 0 10:19 29.10.2019
5121 Clear 28 1015 37 10000 3.1 0 10:19 29.10.2019
5122 Clear 28 1015 37 10000 2.1 0 09:42 29.10.2019
5123 Clear 28 1015 37 10000 2.1 0 09:23 29.10.2019
5124 Clear 28 1015 37 10000 2.1 0 09:23 29.10.2019
5125 Clear 28 1015 37 10000 2.1 0 09:23 29.10.2019
5126 Clear 28 1015 34 10000 3.6 20 08:57 29.10.2019
5127 Clear 28 1015 39 10000 3.6 0 08:39 29.10.2019
5128 Clear 28 1015 39 10000 3.6 0 08:20 29.10.2019
5129 Clear 27 1016 42 10000 3.6 0 07:48 29.10.2019
5130 Clear 27 1017 42 10000 4.1 320 07:21 29.10.2019
5131 Clear 27 1017 42 10000 4.1 340 06:54 29.10.2019
5132 Clear 27 1018 42 10000 4.1 330 06:31 29.10.2019
5133 Clear 26 1018 47 10000 5.7 20 05:56 29.10.2019
5134 Clear 26 1019 44 10000 4.6 360 05:38 29.10.2019
5135 Clear 25 1020 61 10000 1.5 310 04:41 29.10.2019
5136 Clear 21 1020 83 10000 2.1 310 02:39 29.10.2019
5137 Clear 20 1019 88 6000 2.1 290 01:56 29.10.2019
5138 Clouds 19 1019 88 10000 1 0 01:35 29.10.2019
5139 Clouds 18 1019 93 10000 2.1 290 00:52 29.10.2019
5140 Clouds 19 1018 88 10000 1 350 23:59 28.10.2019
5141 Clouds 19 1018 88 10000 1 340 23:37 28.10.2019
5142 Clouds 19 1018 88 10000 1 340 23:19 28.10.2019
5143 Clouds 18 1018 100 10000 1.5 310 22:39 28.10.2019
5144 Clouds 18 1018 100 10000 1.5 310 22:20 28.10.2019
5145 Clouds 19 1018 93 10000 1.5 290 21:57 28.10.2019
5146 Clouds 19 1018 93 10000 1.5 270 21:39 28.10.2019
5147 Clouds 19 1018 93 10000 1.5 270 21:21 28.10.2019
5148 Clouds 20 1018 88 10000 2.1 300 20:57 28.10.2019
5149 Clouds 20 1018 88 10000 1.5 310 20:39 28.10.2019
5150 Clouds 20 1018 88 10000 1.5 310 20:20 28.10.2019
5151 Clouds 20 1019 88 10000 2.1 320 19:54 28.10.2019
5152 Clouds 20 1019 88 10000 3.1 300 19:36 28.10.2019
5153 Clouds 20 1019 88 10000 3.1 300 19:18 28.10.2019
5154 Clouds 20 1019 88 10000 2.6 290 18:54 28.10.2019
5155 Clouds 20 1019 88 10000 1.5 310 18:36 28.10.2019
5156 Clouds 20 1019 88 10000 1.5 310 18:18 28.10.2019
5157 Clouds 20 1020 94 10000 2.1 300 17:54 28.10.2019
5158 Clouds 20 1020 94 10000 2.6 300 17:36 28.10.2019
5159 Clouds 20 1020 94 10000 2.6 300 17:18 28.10.2019
5160 Clouds 20 1020 94 10000 3.1 280 16:43 28.10.2019
5161 Clouds 20 1020 77 10000 1 300 16:24 28.10.2019
5162 Clouds 20 1020 82 10000 1.5 320 15:59 28.10.2019
5163 Clouds 20 1020 82 10000 2.1 320 15:40 28.10.2019
5164 Clouds 20 1020 82 10000 2.1 320 15:21 28.10.2019
5165 Clouds 20 1020 88 10000 2.1 320 14:58 28.10.2019
5166 Clouds 20 1019 94 10000 2.6 300 14:40 28.10.2019
5167 Clouds 20 1019 94 10000 2.6 300 14:19 28.10.2019
5168 Rain 19 1019 100 9000 2.6 310 13:57 28.10.2019
5169 Rain 19 1019 100 7000 2.1 290 13:38 28.10.2019
5170 Rain 19 1019 100 7000 2.1 290 13:18 28.10.2019
5171 Rain 20 1018 94 10000 3.6 280 12:42 28.10.2019
5172 Rain 20 1018 94 10000 3.6 280 12:21 28.10.2019
5173 Clouds 21 1017 77 10000 2.6 320 11:40 28.10.2019
5174 Clouds 21 1017 77 10000 2.6 320 11:22 28.10.2019
5175 Clouds 21 1017 77 10000 2.6 320 11:22 28.10.2019
5176 Clouds 21 1017 73 10000 3.6 340 10:58 28.10.2019
5177 Clouds 21 1017 77 10000 3.6 350 10:39 28.10.2019
5178 Clouds 21 1017 77 10000 3.6 350 10:20 28.10.2019
5179 Clouds 21 1016 77 10000 4.6 360 09:57 28.10.2019
5180 Clouds 20 1016 77 10000 4.6 10 09:38 28.10.2019
5181 Clouds 20 1016 77 10000 4.6 10 09:19 28.10.2019
5182 Clouds 20 1016 82 10000 5.7 50 08:56 28.10.2019
5183 Rain 19 1016 82 10000 6.7 50 08:37 28.10.2019
5184 Rain 19 1016 82 10000 6.7 50 08:18 28.10.2019
5185 Rain 19 1017 82 10000 6.7 40 07:55 28.10.2019
5186 Rain 19 1017 82 8000 7.2 40 07:36 28.10.2019
5187 Rain 19 1017 82 8000 7.2 40 07:18 28.10.2019
5188 Rain 20 1017 94 10000 5.1 20 06:39 28.10.2019
5189 Rain 21 1017 88 8000 8.7 40 05:33 28.10.2019
5190 Rain 22 1017 94 2000 4.6 60 03:45 28.10.2019
5191 Rain 23 1017 88 3700 4.6 60 02:46 28.10.2019
5192 Mist 23 1016 88 4800 4.1 60 01:52 28.10.2019
5193 Mist 23 1016 88 4800 4.1 60 01:52 28.10.2019
5194 Mist 23 1015 94 4800 4.1 60 00:53 28.10.2019
5195 Mist 24 1014 88 4600 3.6 60 00:31 28.10.2019
5196 Mist 24 1014 94 4800 3.1 60 23:46 27.10.2019
5197 Mist 24 1014 94 5000 3.1 70 23:23 27.10.2019
5198 Mist 24 1013 94 4400 2.1 70 22:57 27.10.2019
5199 Mist 24 1013 94 4400 2.1 70 22:57 27.10.2019
5200 Mist 24 1013 94 4200 2.1 100 22:39 27.10.2019
5201 Mist 24 1013 94 4200 2.1 100 22:20 27.10.2019
5202 Mist 24 1013 94 4400 1.5 60 21:57 27.10.2019
5203 Mist 24 1014 94 5000 2.1 70 21:39 27.10.2019
5204 Mist 24 1014 94 5000 2.1 70 21:20 27.10.2019
5205 Mist 24 1013 94 4200 3.1 80 20:54 27.10.2019
5206 Mist 24 1014 94 3700 3.1 70 20:36 27.10.2019
5207 Mist 24 1014 94 3700 3.1 70 20:36 27.10.2019
5208 Mist 24 1014 94 3700 3.1 70 20:18 27.10.2019
5209 Mist 25 1014 88 3900 2.6 80 19:40 27.10.2019
5210 Mist 25 1014 88 3900 2.6 80 19:20 27.10.2019
5211 Mist 25 1014 88 4000 2.1 60 18:57 27.10.2019
5212 Mist 25 1015 88 4700 1.5 110 18:39 27.10.2019
5213 Mist 25 1015 88 4700 1.5 110 18:21 27.10.2019
5214 Mist 25 1014 88 4800 1.5 110 17:56 27.10.2019
5215 Mist 25 1014 88 5000 1 0 17:37 27.10.2019
5216 Mist 25 1014 88 5000 1 0 17:19 27.10.2019
5217 Clouds 25 1014 88 6000 2.6 130 16:55 27.10.2019
5218 Clear 25 1014 88 7000 2.6 140 16:37 27.10.2019
5219 Clear 25 1014 88 7000 2.6 140 16:19 27.10.2019
5220 Clear 25 1014 88 7000 2.6 140 15:55 27.10.2019
5221 Clear 26 1014 83 8000 1.5 150 15:37 27.10.2019
5222 Clear 26 1014 83 8000 1.5 150 15:18 27.10.2019
5223 Clear 26 1013 83 7000 2.1 90 14:41 27.10.2019
5224 Clouds 26 1013 83 7000 2.1 90 14:20 27.10.2019
5225 Clouds 26 1013 83 9000 3.1 130 13:56 27.10.2019
5226 Clouds 26 1012 78 9000 3.6 130 13:37 27.10.2019
5227 Clouds 26 1012 78 9000 3.6 130 13:19 27.10.2019
5228 Clouds 27 1012 74 10000 2.6 130 12:43 27.10.2019
5229 Clouds 27 1012 74 10000 2.6 130 12:24 27.10.2019
5230 Clouds 27 1012 74 10000 4.6 150 11:55 27.10.2019
5231 Clouds 28 1012 69 10000 4.6 150 11:37 27.10.2019
5232 Clouds 28 1012 69 10000 4.6 150 11:18 27.10.2019
5233 Clouds 28 1012 69 10000 4.6 170 10:42 27.10.2019
5234 Clouds 28 1012 74 10000 4.1 160 10:23 27.10.2019
5235 Clouds 28 1011 74 10000 4.1 170 09:44 27.10.2019
5236 Clouds 28 1011 74 10000 5.7 150 09:19 27.10.2019
5237 Clouds 29 1012 66 10000 4.1 150 08:59 27.10.2019
5238 Clouds 29 1012 70 10000 4.6 140 08:39 27.10.2019
5239 Clouds 29 1012 70 10000 4.6 140 08:19 27.10.2019
5240 Clouds 29 1012 70 7000 2.6 100 07:48 27.10.2019
5241 Clouds 31 1013 62 8000 2.6 110 07:28 27.10.2019
5242 Clouds 30 1014 66 7000 2.1 0 06:55 27.10.2019
5243 Clouds 28 1014 74 6000 2.1 70 06:29 27.10.2019
5244 Clouds 29 1015 70 6000 2.6 70 05:58 27.10.2019
5245 Clouds 29 1015 70 6000 2.6 70 05:58 27.10.2019
5246 Clouds 28 1015 74 6000 2.6 80 05:36 27.10.2019
5247 Clouds 28 1016 74 6000 2.6 50 04:25 27.10.2019
5248 Mist 25 1016 83 5000 2.1 50 02:41 27.10.2019
5249 Mist 24 1015 94 3700 2.1 60 01:28 27.10.2019
5250 Mist 24 1014 94 5000 2.1 60 00:55 27.10.2019
5251 Mist 24 1014 88 5000 3.6 60 00:36 27.10.2019
5252 Rain 24 1014 94 4900 2.6 60 23:58 26.10.2019
5253 Rain 24 1014 94 4900 2.6 60 23:40 26.10.2019
5254 Rain 24 1014 94 4900 2.6 60 23:21 26.10.2019
5255 Clouds 25 1014 88 6000 1 0 22:57 26.10.2019
5256 Clouds 25 1014 83 7000 1 0 22:38 26.10.2019
5257 Clouds 25 1014 83 7000 1 0 22:19 26.10.2019
5258 Clouds 25 1014 83 6000 1 0 21:55 26.10.2019
5259 Mist 24 1014 94 5000 1 0 21:37 26.10.2019
5260 Mist 24 1014 94 5000 1 0 21:19 26.10.2019
5261 Mist 24 1015 94 5000 1 90 20:42 26.10.2019
5262 Mist 24 1015 94 5000 1 90 20:19 26.10.2019
5263 Mist 24 1015 88 5000 1 0 19:43 26.10.2019
5264 Mist 24 1015 94 5000 1.5 70 19:21 26.10.2019
5265 Clear 24 1015 94 6000 1.5 40 18:58 26.10.2019
5266 Clear 25 1015 88 6000 1 0 18:40 26.10.2019
5267 Clear 25 1015 88 6000 1 0 18:20 26.10.2019
5268 Mist 25 1015 88 5000 2.1 60 17:58 26.10.2019
5269 Mist 25 1015 88 4800 1.5 50 17:39 26.10.2019
5270 Mist 25 1015 88 4800 1.5 50 17:20 26.10.2019
5271 Mist 25 1015 88 4700 1.5 50 16:46 26.10.2019
5272 Mist 26 1016 83 4500 2.1 130 16:25 26.10.2019
5273 Mist 26 1016 83 5000 2.6 100 15:59 26.10.2019
5274 Mist 26 1015 83 5000 1.5 70 15:39 26.10.2019
5275 Clouds 27 1015 78 6000 1.5 50 15:18 26.10.2019
5276 Rain 27 1014 78 7000 2.1 80 14:39 26.10.2019
5277 Rain 27 1014 78 7000 2.1 80 14:19 26.10.2019
5278 Rain 25 1015 84 0 3.51 146 13:56 26.10.2019
5279 Rain 25 1015 84 0 3.51 146 13:37 26.10.2019
5280 Rain 25 1015 84 0 3.51 146 13:18 26.10.2019
5281 Clouds 28 1014 69 7000 1.5 0 12:42 26.10.2019
5282 Clouds 29 1014 66 10000 1.5 0 12:19 26.10.2019
5283 Clouds 29 1014 66 10000 1.5 0 11:47 26.10.2019
5284 Clouds 29 1014 66 10000 1.5 0 11:25 26.10.2019
5285 Clouds 29 1014 62 10000 1.5 0 10:47 26.10.2019
5286 Clouds 29 1014 62 10000 1.5 0 10:47 26.10.2019
5287 Clouds 29 1014 66 10000 1 0 10:26 26.10.2019
5288 Clouds 29 1014 66 10000 1.5 40 09:50 26.10.2019
5289 Clouds 30 1014 62 10000 1.5 30 09:30 26.10.2019
5290 Clouds 29 1015 70 10000 1.5 60 08:55 26.10.2019
5291 Clouds 28 1015 69 10000 1 0 08:36 26.10.2019
5292 Clouds 28 1015 69 10000 1 0 08:18 26.10.2019
5293 Clouds 28 1016 69 9000 1.5 0 07:42 26.10.2019
5294 Clouds 27 1016 74 8000 1.5 0 07:22 26.10.2019
5295 Clouds 27 1018 74 8000 2.1 0 06:40 26.10.2019
5296 Clouds 26 1018 78 8000 2.6 40 05:56 26.10.2019
5297 Clouds 26 1018 78 7000 2.6 0 05:19 26.10.2019
5298 Clouds 24 1018 88 7000 1 0 03:45 26.10.2019
5299 Mist 24 1017 88 4900 1 320 02:29 26.10.2019
5300 Mist 24 1017 88 5000 1.5 320 01:46 26.10.2019
5301 Mist 23 1016 94 5000 1 320 00:51 26.10.2019
5302 Mist 23 1015 94 4200 1 0 23:48 25.10.2019
5303 Mist 23 1015 94 4500 1.99 350 23:22 25.10.2019
5304 Mist 23 1015 94 4000 0.5 0 22:58 25.10.2019
5305 Mist 23 1015 94 4000 0.5 0 22:58 25.10.2019
5306 Mist 23 1015 94 3900 1.5 330 22:39 25.10.2019
5307 Mist 23 1015 94 3900 1.5 330 22:39 25.10.2019
5308 Mist 23 1015 94 3900 1.5 330 22:21 25.10.2019
5309 Mist 23 1015 94 3900 1.5 330 21:55 25.10.2019
5310 Mist 23 1015 94 3600 1.5 320 21:37 25.10.2019
5311 Mist 23 1015 94 3600 1.5 320 21:18 25.10.2019
5312 Mist 23 1016 94 3900 2.1 310 20:42 25.10.2019
5313 Mist 23 1016 94 3900 2.1 310 20:19 25.10.2019
5314 Mist 23 1016 94 3900 2.1 310 20:19 25.10.2019
5315 Mist 23 1016 100 4100 1.5 310 19:47 25.10.2019
5316 Mist 24 1016 88 4000 1.5 300 19:27 25.10.2019
5317 Mist 24 1016 88 4400 1 0 18:48 25.10.2019
5318 Mist 24 1016 88 4400 1 0 18:48 25.10.2019
5319 Mist 23 1016 94 4200 1 0 18:29 25.10.2019
5320 Mist 24 1016 88 5000 1.5 330 17:59 25.10.2019
5321 Mist 24 1017 94 4500 2.1 330 17:36 25.10.2019
5322 Mist 24 1017 94 4500 2.1 330 17:36 25.10.2019
5323 Mist 24 1017 94 4500 2.1 330 17:18 25.10.2019
5324 Mist 24 1017 88 4700 2.1 310 16:46 25.10.2019
5325 Mist 24 1017 88 4800 2.1 320 16:22 25.10.2019
5326 Mist 24 1017 88 5000 2.1 300 15:55 25.10.2019
5327 Mist 24 1016 88 5000 2.1 310 15:37 25.10.2019
5328 Mist 24 1016 88 5000 2.1 310 15:18 25.10.2019
5329 Mist 24 1015 88 3900 2.1 320 14:42 25.10.2019
5330 Mist 24 1015 88 3900 2.1 320 14:23 25.10.2019
5331 Mist 24 1015 88 4200 2.1 320 13:56 25.10.2019
5332 Mist 24 1015 88 4500 1.5 300 13:37 25.10.2019
5333 Mist 24 1015 88 4500 1.5 300 13:18 25.10.2019
5334 Mist 24 1015 88 4500 1.5 300 13:18 25.10.2019
5335 Mist 25 1014 83 3800 2.1 310 12:41 25.10.2019
5336 Mist 25 1014 83 3800 2.1 310 12:21 25.10.2019
5337 Mist 25 1014 83 4300 1 0 11:57 25.10.2019
5338 Mist 25 1014 78 5000 2.6 310 11:38 25.10.2019
5339 Mist 25 1014 78 5000 2.6 310 11:18 25.10.2019
5340 Clouds 26 1014 74 6000 2.1 320 10:40 25.10.2019
5341 Clouds 26 1014 74 6000 2.1 320 10:21 25.10.2019
5342 Clouds 26 1014 74 10000 1.5 310 09:57 25.10.2019
5343 Clouds 25 1015 73 10000 1 0 09:38 25.10.2019
5344 Clouds 25 1015 73 10000 1 0 09:19 25.10.2019
5345 Clouds 25 1016 73 10000 1 0 08:45 25.10.2019
5346 Clouds 25 1016 73 10000 1 0 08:27 25.10.2019
5347 Clouds 25 1016 73 10000 1.5 0 07:53 25.10.2019
5348 Clouds 24 1017 78 10000 2.1 350 07:34 25.10.2019
5349 Clouds 24 1018 78 10000 2.1 10 06:42 25.10.2019
5350 Clouds 24 1018 78 10000 2.6 0 05:51 25.10.2019
5351 Clouds 24 1018 73 10000 2.6 0 05:33 25.10.2019
5352 Clouds 24 1018 73 10000 2.6 30 04:52 25.10.2019
5353 Clouds 23 1017 78 10000 2.1 30 03:30 25.10.2019
5354 Clouds 22 1016 83 10000 2.6 30 01:54 25.10.2019
5355 Clouds 22 1016 83 10000 2.6 30 01:54 25.10.2019
5356 Clouds 22 1015 83 10000 2.1 20 00:50 25.10.2019
5357 Clouds 22 1015 88 10000 1.5 30 00:20 25.10.2019
5358 Clouds 22 1015 88 10000 1 20 23:40 24.10.2019
5359 Clouds 22 1015 88 10000 1 20 23:22 24.10.2019
5360 Clouds 22 1015 83 10000 0.5 0 22:54 24.10.2019
5361 Clouds 22 1015 83 10000 2.6 10 22:36 24.10.2019
5362 Clouds 22 1015 83 10000 2.6 10 22:18 24.10.2019
5363 Clouds 22 1015 83 10000 2.6 30 21:55 24.10.2019
5364 Clouds 22 1015 83 10000 2.1 20 21:37 24.10.2019
5365 Clouds 22 1015 83 10000 2.1 20 21:18 24.10.2019
5366 Clouds 22 1016 83 10000 2.6 30 20:54 24.10.2019
5367 Clouds 22 1016 83 10000 3.1 20 20:36 24.10.2019
5368 Clouds 22 1016 83 10000 3.1 20 20:18 24.10.2019
5369 Clouds 22 1016 83 10000 3.1 10 19:42 24.10.2019
5370 Clouds 22 1016 83 10000 3.1 10 19:23 24.10.2019
5371 Clouds 22 1016 83 10000 2.1 30 18:58 24.10.2019
5372 Clouds 22 1016 83 10000 2.1 30 18:58 24.10.2019
5373 Clouds 22 1016 83 10000 2.6 20 18:39 24.10.2019
5374 Clouds 22 1016 83 10000 2.6 20 18:21 24.10.2019
5375 Clouds 22 1016 83 10000 2.6 20 17:56 24.10.2019
5376 Clouds 22 1016 83 10000 3.6 20 17:37 24.10.2019
5377 Clouds 22 1016 83 10000 3.6 20 17:18 24.10.2019
5378 Clouds 22 1016 88 10000 2.6 20 16:42 24.10.2019
5379 Clouds 22 1016 88 10000 2.6 20 16:23 24.10.2019
5380 Clouds 22 1016 88 10000 2.6 20 16:23 24.10.2019
5381 Clouds 22 1016 88 10000 2.1 0 15:59 24.10.2019
5382 Clouds 23 1016 83 10000 3.1 30 15:41 24.10.2019
5383 Clouds 23 1016 83 10000 3.1 30 15:23 24.10.2019
5384 Clouds 23 1015 83 10000 2.6 360 14:59 24.10.2019
5385 Clouds 23 1015 83 10000 2.6 30 14:41 24.10.2019
5386 Clouds 23 1015 83 10000 2.6 30 14:22 24.10.2019
5387 Clouds 23 1014 83 10000 2.1 30 13:42 24.10.2019
5388 Clouds 23 1014 83 10000 2.6 0 13:20 24.10.2019
5389 Clouds 23 1014 83 10000 2.6 0 12:58 24.10.2019
5390 Clouds 24 1015 83 0 1.4 353 12:40 24.10.2019
5391 Clouds 24 1013 81 0 2.76 340 12:20 24.10.2019
5392 Clouds 24 1013 81 0 2.76 340 11:57 24.10.2019
5393 Clouds 22 1013 88 10000 3.1 50 11:38 24.10.2019
5394 Clouds 22 1013 88 10000 3.1 50 11:20 24.10.2019
5395 Clouds 22 1013 88 10000 3.1 50 10:58 24.10.2019
5396 Clouds 22 1013 88 10000 2.1 20 10:38 24.10.2019
5397 Clouds 22 1013 88 10000 2.1 20 10:20 24.10.2019
5398 Rain 22 1014 88 10000 3.1 30 09:38 24.10.2019
5399 Rain 22 1014 88 10000 3.1 30 09:19 24.10.2019
5400 Rain 22 1014 88 10000 3.1 30 08:54 24.10.2019
5401 Rain 22 1015 88 10000 3.1 20 08:36 24.10.2019
5402 Rain 22 1015 88 10000 3.1 20 08:36 24.10.2019
5403 Rain 22 1015 88 10000 3.1 20 08:18 24.10.2019
5404 Clouds 23 1015 78 10000 5.1 10 07:42 24.10.2019
5405 Clouds 23 1015 78 10000 5.1 10 07:21 24.10.2019
5406 Clouds 22 1016 88 10000 4.6 20 06:40 24.10.2019
5407 Clouds 22 1016 88 10000 4.6 20 06:20 24.10.2019
5408 Clouds 22 1016 88 10000 5.1 20 05:48 24.10.2019
5409 Clouds 22 1016 88 10000 4.1 0 05:27 24.10.2019
5410 Rain 22 1016 88 10000 4.6 10 03:37 24.10.2019
5411 Clouds 22 1015 88 10000 5.1 30 02:55 24.10.2019
5412 Clouds 22 1015 88 10000 3.6 40 02:24 24.10.2019
5413 Clouds 23 1013 78 10000 5.7 40 01:34 24.10.2019
5414 Clouds 23 1013 78 10000 4.6 50 00:58 24.10.2019
5415 Clouds 23 1012 78 10000 4.6 60 00:38 24.10.2019
5416 Clouds 23 1012 78 10000 4.6 60 00:18 24.10.2019
5417 Clouds 24 1011 78 10000 4.6 40 23:42 23.10.2019
5418 Clouds 24 1011 78 10000 4.6 40 23:23 23.10.2019
5419 Rain 23 1011 83 10000 5.1 50 22:57 23.10.2019
5420 Clouds 24 1012 78 10000 4.1 60 22:38 23.10.2019
5421 Clouds 24 1012 78 10000 4.1 60 22:18 23.10.2019
5422 Clouds 24 1011 78 10000 4.1 50 21:57 23.10.2019
5423 Rain 24 1011 78 10000 4.6 60 21:38 23.10.2019
5424 Rain 24 1011 78 10000 4.6 60 21:19 23.10.2019
5425 Clouds 25 1011 73 10000 4.6 50 20:56 23.10.2019
5426 Clouds 24 1011 78 10000 4.6 50 20:37 23.10.2019
5427 Clouds 24 1011 78 10000 4.6 50 20:19 23.10.2019
5428 Rain 24 1011 83 10000 5.7 50 19:45 23.10.2019
5429 Clouds 25 1012 78 10000 5.1 50 19:20 23.10.2019
5430 Clouds 25 1012 78 10000 5.1 50 18:59 23.10.2019
5431 Clouds 25 1011 83 10000 6.2 50 18:39 23.10.2019
5432 Clouds 25 1011 83 10000 6.2 50 18:19 23.10.2019
5433 Rain 25 1011 83 10000 5.1 50 17:57 23.10.2019
5434 Rain 26 1011 83 10000 6.7 50 17:39 23.10.2019
5435 Rain 26 1011 83 10000 6.7 50 17:18 23.10.2019
5436 Clouds 28 1011 83 10000 4.1 90 16:41 23.10.2019
5437 Clouds 28 1011 83 10000 4.1 90 16:21 23.10.2019
5438 Clouds 28 1011 78 10000 4.6 80 15:57 23.10.2019
5439 Clouds 28 1011 78 10000 4.6 80 15:57 23.10.2019
5440 Clouds 28 1010 83 9000 4.6 90 15:39 23.10.2019
5441 Clouds 28 1010 83 9000 4.6 90 15:21 23.10.2019
5442 Clouds 28 1009 78 9000 5.1 100 14:56 23.10.2019
5443 Clouds 28 1009 78 9000 4.6 100 14:37 23.10.2019
5444 Clouds 28 1009 78 9000 4.6 100 14:18 23.10.2019
5445 Clouds 28 1009 78 9000 4.6 100 14:18 23.10.2019
5446 Clouds 29 1008 74 9000 4.6 100 13:43 23.10.2019
5447 Clouds 29 1008 74 9000 4.6 100 13:25 23.10.2019
5448 Clouds 30 1007 70 10000 5.7 100 12:57 23.10.2019
5449 Clouds 30 1007 74 10000 5.1 100 12:38 23.10.2019
5450 Clouds 30 1007 74 10000 5.1 100 12:19 23.10.2019
5451 Clouds 31 1007 66 10000 5.7 100 11:58 23.10.2019
5452 Clouds 31 1006 66 10000 5.1 110 11:39 23.10.2019
5453 Clouds 31 1006 66 10000 5.1 110 11:20 23.10.2019
5454 Clouds 31 1006 66 10000 5.1 110 10:46 23.10.2019
5455 Clouds 32 1006 62 10000 3.1 140 10:26 23.10.2019
5456 Clouds 32 1006 66 10000 3.6 140 09:58 23.10.2019
5457 Clouds 31 1007 66 10000 3.6 110 09:40 23.10.2019
5458 Clouds 31 1007 66 10000 3.6 110 09:21 23.10.2019
5459 Clouds 31 1007 66 10000 3.6 110 08:43 23.10.2019
5460 Clouds 31 1007 66 10000 3.6 110 08:43 23.10.2019
5461 Clouds 31 1007 66 10000 3.6 110 08:25 23.10.2019
5462 Clouds 31 1008 66 10000 3.6 120 07:47 23.10.2019
5463 Clouds 30 1008 70 10000 3.6 150 07:27 23.10.2019
5464 Clouds 30 1009 70 10000 2.6 140 06:48 23.10.2019
5465 Clouds 30 1009 70 10000 4.1 140 06:23 23.10.2019
5466 Clouds 30 1010 70 10000 4.1 130 05:59 23.10.2019
5467 Clouds 30 1010 70 10000 4.6 140 05:18 23.10.2019
5468 Clouds 28 1010 83 9000 3.6 140 03:37 23.10.2019
5469 Clouds 27 1009 83 8000 2.6 120 02:42 23.10.2019
5470 Clouds 26 1008 88 8000 3.1 130 01:34 23.10.2019
5471 Clouds 26 1008 88 8000 3.1 130 00:59 23.10.2019
5472 Clouds 26 1007 88 10000 3.1 120 00:32 23.10.2019
5473 Clouds 26 1007 88 10000 3.6 130 23:42 22.10.2019
5474 Clouds 26 1007 88 10000 3.1 120 23:19 22.10.2019
5475 Clouds 27 1007 83 10000 3.6 130 22:58 22.10.2019
5476 Clouds 26 1007 88 10000 3.6 130 22:40 22.10.2019
5477 Clouds 26 1007 88 10000 3.6 130 22:40 22.10.2019
5478 Clouds 26 1007 88 10000 3.6 130 22:21 22.10.2019
5479 Clouds 27 1007 83 10000 4.1 140 21:56 22.10.2019
5480 Clouds 27 1007 83 10000 4.1 130 21:38 22.10.2019
5481 Clouds 27 1007 83 10000 4.1 130 21:18 22.10.2019
5482 Clouds 27 1008 83 8000 3.6 130 20:58 22.10.2019
5483 Clouds 27 1008 83 9000 4.1 130 20:39 22.10.2019
5484 Clouds 27 1008 83 9000 4.1 130 20:21 22.10.2019
5485 Clouds 27 1008 83 10000 3.6 130 19:55 22.10.2019
5486 Clouds 27 1008 83 10000 4.6 130 19:37 22.10.2019
5487 Clouds 27 1008 83 10000 4.6 130 19:19 22.10.2019
5488 Clouds 27 1009 83 10000 4.6 130 18:41 22.10.2019
5489 Clouds 27 1009 83 10000 4.6 130 18:22 22.10.2019
5490 Clouds 27 1009 83 10000 5.1 130 17:59 22.10.2019
5491 Clouds 27 1009 83 10000 5.1 130 17:39 22.10.2019
5492 Clouds 27 1009 83 10000 5.1 130 17:39 22.10.2019
5493 Clouds 27 1009 83 10000 5.1 130 17:20 22.10.2019
5494 Clouds 27 1009 83 10000 4.6 140 16:57 22.10.2019
5495 Clouds 27 1008 83 10000 4.1 140 16:38 22.10.2019
5496 Clouds 27 1008 83 10000 4.1 140 16:19 22.10.2019
5497 Clouds 27 1008 83 10000 4.1 140 16:19 22.10.2019
5498 Clouds 28 1008 74 10000 4.6 140 15:58 22.10.2019
5499 Clouds 28 1008 74 10000 5.1 150 15:39 22.10.2019
5500 Clouds 28 1008 74 10000 5.1 150 15:18 22.10.2019
5501 Clouds 28 1007 74 10000 5.7 150 14:43 22.10.2019
5502 Clouds 29 1007 66 10000 5.1 140 14:20 22.10.2019
5503 Clouds 29 1007 66 10000 4.1 140 13:42 22.10.2019
5504 Clouds 29 1007 70 10000 4.1 150 13:22 22.10.2019
5505 Clouds 30 1006 66 10000 4.6 150 12:58 22.10.2019
5506 Clouds 31 1006 58 10000 4.6 140 12:40 22.10.2019
5507 Clouds 31 1006 58 10000 4.6 140 12:21 22.10.2019
5508 Clouds 31 1006 62 10000 4.6 140 11:56 22.10.2019
5509 Clouds 31 1005 58 10000 4.1 140 11:37 22.10.2019
5510 Clouds 31 1005 58 10000 4.1 140 11:19 22.10.2019
5511 Clouds 31 1006 58 10000 3.6 150 10:55 22.10.2019
5512 Clouds 31 1006 58 10000 3.6 150 10:55 22.10.2019
5513 Clouds 31 1006 58 10000 4.1 150 10:36 22.10.2019
5514 Clouds 31 1006 58 10000 4.1 150 10:18 22.10.2019
5515 Clouds 31 1006 58 10000 3.6 130 09:42 22.10.2019
5516 Clouds 31 1006 58 10000 4.1 170 09:22 22.10.2019
5517 Clouds 32 1007 55 10000 3.6 170 08:59 22.10.2019
5518 Clouds 32 1007 55 10000 3.6 170 08:59 22.10.2019
5519 Clouds 32 1007 52 10000 4.1 180 08:41 22.10.2019
5520 Clouds 32 1007 52 10000 4.1 180 08:19 22.10.2019
5521 Clouds 31 1007 55 10000 3.1 170 07:44 22.10.2019
5522 Clouds 32 1008 55 10000 4.1 140 07:26 22.10.2019
5523 Clouds 31 1009 58 10000 3.6 150 06:45 22.10.2019
5524 Clouds 30 1010 58 10000 4.1 150 06:27 22.10.2019
5525 Clouds 30 1010 62 10000 4.1 170 05:48 22.10.2019
5526 Clouds 29 1011 70 10000 4.6 160 04:50 22.10.2019
5527 Mist 25 1011 88 3100 3.1 90 02:31 22.10.2019
5528 Mist 24 1010 88 3600 3.1 90 01:39 22.10.2019
5529 Mist 24 1010 88 3600 3.1 90 01:19 22.10.2019
5530 Mist 24 1010 94 4600 3.1 70 00:43 22.10.2019
5531 Mist 24 1010 94 5000 3.1 80 00:24 22.10.2019
5532 Mist 24 1009 94 5000 3.6 80 23:59 21.10.2019
5533 Clouds 24 1009 94 6000 2.6 90 23:38 21.10.2019
5534 Clouds 24 1009 94 6000 2.6 90 23:19 21.10.2019
5535 Clouds 24 1009 94 6000 3.1 80 22:58 21.10.2019
5536 Clouds 25 1009 88 6000 3.6 110 22:39 21.10.2019
5537 Clouds 25 1009 88 6000 3.6 110 22:20 21.10.2019
5538 Clouds 25 1009 88 6000 3.1 100 21:57 21.10.2019
5539 Clouds 25 1010 88 6000 2.6 80 21:38 21.10.2019
5540 Clouds 25 1010 88 6000 2.6 80 21:19 21.10.2019
5541 Clouds 25 1010 88 6000 2.6 70 20:57 21.10.2019
5542 Clouds 25 1010 88 6000 2.1 80 20:38 21.10.2019
5543 Clouds 25 1010 88 6000 2.1 80 20:20 21.10.2019
5544 Clouds 25 1011 88 6000 2.6 90 19:55 21.10.2019
5545 Clouds 25 1011 88 6000 2.6 90 19:55 21.10.2019
5546 Clouds 25 1011 88 6000 3.1 110 19:36 21.10.2019
5547 Clouds 25 1011 88 6000 3.1 110 19:18 21.10.2019
5548 Clouds 25 1011 88 6000 3.1 110 18:54 21.10.2019
5549 Clouds 25 1011 88 7000 3.6 130 18:36 21.10.2019
5550 Clouds 25 1011 88 7000 3.6 130 18:36 21.10.2019
5551 Clouds 25 1011 88 7000 3.6 130 18:18 21.10.2019
5552 Clouds 25 1011 83 7000 3.6 100 17:39 21.10.2019
5553 Clouds 25 1011 83 7000 3.6 100 17:19 21.10.2019
5554 Clouds 25 1011 83 7000 4.1 100 16:58 21.10.2019
5555 Clouds 26 1011 83 7000 4.1 110 16:40 21.10.2019
5556 Clouds 26 1011 83 7000 4.1 110 16:21 21.10.2019
5557 Clouds 26 1011 78 6000 3.1 110 15:49 21.10.2019
5558 Clouds 26 1011 78 8000 3.1 120 15:27 21.10.2019
5559 Clouds 27 1010 74 8000 3.6 130 15:00 21.10.2019
5560 Clouds 27 1010 74 8000 3.6 130 15:00 21.10.2019
5561 Clouds 27 1010 74 8000 3.6 130 14:40 21.10.2019
5562 Clouds 27 1010 74 8000 3.6 130 14:21 21.10.2019
5563 Clouds 27 1010 74 8000 3.6 130 14:21 21.10.2019
5564 Clouds 28 1010 65 8000 4.6 130 13:57 21.10.2019
5565 Clouds 28 1010 69 9000 4.1 140 13:39 21.10.2019
5566 Clouds 28 1010 69 9000 4.1 140 13:20 21.10.2019
5567 Clouds 29 1009 66 9000 4.1 130 12:43 21.10.2019
5568 Clouds 29 1010 66 10000 5.1 140 12:23 21.10.2019
5569 Clouds 30 1009 62 9000 3.6 100 11:58 21.10.2019
5570 Clouds 30 1010 62 9000 3.1 100 11:39 21.10.2019
5571 Clouds 30 1010 62 9000 3.1 100 11:21 21.10.2019
5572 Clouds 30 1010 62 9000 3.1 100 10:57 21.10.2019
5573 Clouds 30 1010 62 9000 3.1 100 10:57 21.10.2019
5574 Clouds 31 1010 58 8000 2.6 110 10:38 21.10.2019
5575 Clouds 31 1010 58 8000 2.6 110 10:19 21.10.2019
5576 Clouds 31 1010 58 8000 2.6 110 10:19 21.10.2019
5577 Clouds 30 1010 62 7000 4.1 90 09:51 21.10.2019
5578 Clouds 31 1010 58 10000 2.6 170 09:26 21.10.2019
5579 Clouds 31 1010 58 10000 2.6 170 09:26 21.10.2019
5580 Clouds 30 1011 62 8000 2.1 0 08:59 21.10.2019
5581 Clouds 29 1012 66 6000 1.5 0 08:40 21.10.2019
5582 Clouds 29 1012 66 6000 1.5 0 08:22 21.10.2019
5583 Clouds 29 1012 70 6000 2.1 20 07:44 21.10.2019
5584 Clouds 29 1013 66 6000 2.1 320 07:21 21.10.2019
5585 Clouds 29 1013 66 6000 2.1 320 06:57 21.10.2019
5586 Mist 29 1014 70 4900 2.1 0 06:39 21.10.2019
5587 Mist 29 1014 70 4800 2.6 80 05:57 21.10.2019
5588 Mist 29 1014 70 4800 2.6 80 05:57 21.10.2019
5589 Mist 29 1014 70 4800 2.6 80 05:57 21.10.2019
5590 Mist 28 1015 74 3800 2.6 70 04:49 21.10.2019
5591 Mist 25 1015 88 2100 1.5 50 03:38 21.10.2019
5592 Mist 24 1014 94 1400 1.5 100 02:25 21.10.2019
5593 Mist 24 1014 94 1400 0.5 0 01:59 21.10.2019
5594 Rain 24 1014 94 2500 2.1 110 01:38 21.10.2019
5595 Rain 24 1014 94 3700 1 0 00:51 21.10.2019
5596 Rain 24 1013 94 2700 1.5 330 00:27 21.10.2019
5597 Rain 24 1013 94 2400 1.5 300 23:43 20.10.2019
5598 Mist 25 1013 88 3500 2.1 360 23:22 20.10.2019
5599 Mist 25 1013 88 3500 2.1 80 22:57 20.10.2019
5600 Mist 24 1013 94 3500 2.1 70 22:39 20.10.2019
5601 Mist 24 1013 94 3500 2.1 70 22:19 20.10.2019
5602 Mist 25 1013 88 3600 2.1 80 21:59 20.10.2019
5603 Mist 25 1014 88 3500 2.6 70 21:39 20.10.2019
5604 Mist 25 1014 88 3500 2.6 70 21:21 20.10.2019
5605 Mist 25 1014 88 4000 2.1 60 20:42 20.10.2019
5606 Mist 25 1014 88 4500 1.5 60 20:20 20.10.2019
5607 Mist 24 1014 88 5000 1 0 19:57 20.10.2019
5608 Clear 25 1015 83 6000 1.5 160 19:39 20.10.2019
5609 Clear 25 1015 83 6000 1.5 160 19:20 20.10.2019
5610 Clear 25 1015 83 6000 2.1 150 18:56 20.10.2019
5611 Clear 25 1015 83 6000 2.1 150 18:56 20.10.2019
5612 Clear 26 1015 78 6000 2.6 160 18:38 20.10.2019
5613 Clear 26 1015 78 6000 2.6 160 18:20 20.10.2019
5614 Clear 26 1015 78 6000 3.1 150 17:54 20.10.2019
5615 Clear 26 1014 78 6000 3.6 150 17:36 20.10.2019
5616 Clear 26 1014 78 6000 3.6 150 17:18 20.10.2019
5617 Clear 26 1015 78 7000 4.1 140 16:41 20.10.2019
5618 Clear 26 1015 78 7000 3.6 140 16:23 20.10.2019
5619 Clear 26 1015 74 8000 4.1 140 15:58 20.10.2019
5620 Clear 27 1014 69 10000 4.1 140 15:38 20.10.2019
5621 Clear 27 1014 69 10000 4.1 140 15:20 20.10.2019
5622 Clear 27 1014 69 10000 4.1 140 15:20 20.10.2019
5623 Clouds 27 1014 69 8000 4.6 140 14:57 20.10.2019
5624 Clouds 28 1014 69 6000 3.1 140 14:37 20.10.2019
5625 Clouds 28 1014 69 6000 3.1 140 14:19 20.10.2019
5626 Clouds 28 1014 69 7000 3.1 140 13:55 20.10.2019
5627 Clouds 28 1014 69 8000 2.1 50 13:36 20.10.2019
5628 Clouds 28 1014 69 8000 2.1 50 13:18 20.10.2019
5629 Clouds 29 1013 58 10000 1.5 70 12:55 20.10.2019
5630 Clouds 29 1013 58 10000 1.5 70 12:55 20.10.2019
5631 Clouds 30 1014 55 10000 2.1 50 12:37 20.10.2019
5632 Clouds 30 1014 55 10000 2.1 50 12:37 20.10.2019
5633 Clouds 30 1014 55 10000 2.1 50 12:19 20.10.2019
5634 Clouds 30 1013 55 10000 1 0 11:41 20.10.2019
5635 Clouds 30 1013 55 10000 1.5 50 11:23 20.10.2019
5636 Clouds 30 1013 55 10000 1 0 10:59 20.10.2019
5637 Clouds 30 1014 58 10000 1.5 300 10:39 20.10.2019
5638 Clouds 30 1014 58 10000 1.5 300 10:21 20.10.2019
5639 Clouds 30 1014 55 10000 1.5 270 09:56 20.10.2019
5640 Clouds 30 1014 55 10000 1.5 220 09:38 20.10.2019
5641 Clouds 30 1014 55 10000 1.5 220 09:20 20.10.2019
5642 Clouds 31 1014 52 10000 1.5 0 08:44 20.10.2019
5643 Clouds 30 1015 55 10000 1.5 0 08:22 20.10.2019
5644 Clouds 29 1015 58 10000 1 0 07:49 20.10.2019
5645 Clouds 28 1016 61 10000 1.5 210 07:29 20.10.2019
5646 Clouds 29 1017 62 10000 1 0 06:31 20.10.2019
5647 Clear 27 1018 69 9000 1 0 04:41 20.10.2019
5648 Clear 26 1018 78 8000 1 0 03:53 20.10.2019
5649 Clouds 25 1018 78 8000 1 0 03:23 20.10.2019
5650 Clouds 24 1018 83 6000 1 0 02:55 20.10.2019
5651 Clouds 24 1018 83 7000 1 340 02:26 20.10.2019
5652 Clouds 23 1017 83 8000 1 0 01:53 20.10.2019
5653 Clouds 23 1017 83 7000 1 0 01:22 20.10.2019
5654 Clouds 22 1016 94 7000 1.05 313.839 00:53 20.10.2019
5655 Clouds 22 1016 94 6000 0.49 227.837 00:21 20.10.2019
5656 Clouds 22 1016 94 6000 1 0 23:55 19.10.2019
5657 Clouds 22 1016 88 6000 1.5 100 23:36 19.10.2019
5658 Clouds 22 1016 88 6000 1.5 100 23:18 19.10.2019
5659 Mist 22 1016 94 5000 1 50 22:41 19.10.2019
5660 Mist 22 1016 94 5000 1 50 22:22 19.10.2019
5661 Mist 23 1016 88 5000 1.5 60 21:57 19.10.2019
5662 Mist 24 1016 83 5000 2.1 60 21:39 19.10.2019
5663 Mist 24 1016 83 5000 2.1 60 21:20 19.10.2019
5664 Clear 23 1016 88 6000 1.5 50 20:42 19.10.2019
5665 Clear 24 1016 83 6000 1.5 70 20:21 19.10.2019
5666 Clear 24 1017 83 6000 1.5 80 19:45 19.10.2019
5667 Clear 24 1017 83 6000 1.5 40 19:26 19.10.2019
5668 Clear 24 1017 83 7000 2.6 100 18:57 19.10.2019
5669 Clear 24 1017 83 7000 3.1 90 18:39 19.10.2019
5670 Clear 24 1017 83 7000 3.1 90 18:19 19.10.2019
5671 Clear 25 1017 73 8000 3.6 100 17:41 19.10.2019
5672 Clear 25 1017 73 8000 3.6 100 17:23 19.10.2019
5673 Clear 24 1017 78 10000 2.6 100 16:57 19.10.2019
5674 Clear 25 1016 73 10000 2.1 50 16:37 19.10.2019
5675 Clear 25 1016 73 10000 2.1 50 16:19 19.10.2019
5676 Clear 25 1016 73 10000 1.5 70 15:41 19.10.2019
5677 Clear 25 1016 78 10000 1 0 15:23 19.10.2019
5678 Clear 26 1015 69 10000 1.5 340 14:39 19.10.2019
5679 Clear 26 1015 69 10000 1.5 340 14:20 19.10.2019
5680 Clouds 27 1015 61 8000 1 0 13:58 19.10.2019
5681 Clouds 27 1015 65 8000 1.5 10 13:40 19.10.2019
5682 Clouds 27 1015 65 8000 1.5 10 13:19 19.10.2019
5683 Clear 28 1015 58 10000 1.5 10 12:57 19.10.2019
5684 Clear 29 1015 51 10000 1 0 12:37 19.10.2019
5685 Clear 29 1015 51 10000 1 0 12:18 19.10.2019
5686 Clear 30 1015 51 10000 1.5 310 11:41 19.10.2019
5687 Clear 30 1015 51 10000 1.5 310 11:23 19.10.2019
5688 Clear 30 1015 48 10000 1 0 10:56 19.10.2019
5689 Clear 30 1015 48 10000 1.5 0 10:38 19.10.2019
5690 Clear 30 1015 48 10000 1.5 0 10:20 19.10.2019
5691 Clear 31 1016 45 10000 1.5 340 09:42 19.10.2019
5692 Clear 31 1016 45 10000 1.5 340 09:24 19.10.2019
5693 Clear 29 1017 48 10000 1.5 0 08:59 19.10.2019
5694 Clear 29 1017 48 10000 1.5 0 08:40 19.10.2019
5695 Clear 29 1017 48 10000 1.5 0 08:21 19.10.2019
5696 Clear 29 1018 51 10000 3.1 10 07:44 19.10.2019
5697 Clear 29 1018 51 10000 3.1 10 07:24 19.10.2019
5698 Clear 29 1018 51 10000 3.1 10 07:24 19.10.2019
5699 Clear 28 1019 54 10000 3.1 0 06:47 19.10.2019
5700 Clear 27 1020 54 10000 3.6 0 05:57 19.10.2019
5701 Clear 27 1020 54 10000 3.1 10 05:28 19.10.2019
5702 Clear 24 1020 73 10000 1.5 0 03:59 19.10.2019
5703 Clear 23 1020 78 10000 1 0 02:44 19.10.2019
5704 Clear 21 1020 83 10000 0.5 0 01:53 19.10.2019
5705 Clear 21 1019 83 10000 1.5 340 01:20 19.10.2019
5706 Clear 21 1019 83 10000 1.5 10 00:46 19.10.2019
5707 Clear 21 1018 88 10000 0.5 0 00:25 19.10.2019
5708 Clear 21 1018 88 10000 0.5 0 23:42 18.10.2019
5709 Clear 21 1018 88 10000 0.5 0 23:42 18.10.2019
5710 Clear 21 1018 88 10000 1 330 23:23 18.10.2019
5711 Clear 21 1018 88 10000 1.5 330 22:56 18.10.2019
5712 Clear 21 1018 88 10000 1.5 340 22:38 18.10.2019
5713 Clear 21 1018 88 10000 1.5 340 22:38 18.10.2019
5714 Clear 21 1018 88 10000 1.5 340 22:20 18.10.2019
5715 Clear 21 1018 94 10000 2.1 330 21:57 18.10.2019
5716 Clear 21 1018 94 10000 2.1 330 21:38 18.10.2019
5717 Clear 21 1018 94 10000 2.1 330 21:19 18.10.2019
5718 Clear 21 1018 94 10000 2.6 320 20:54 18.10.2019
5719 Clear 21 1018 94 10000 2.1 330 20:36 18.10.2019
5720 Clear 21 1018 94 10000 2.1 330 20:18 18.10.2019
5721 Clear 21 1018 94 10000 1.5 340 19:54 18.10.2019
5722 Clear 21 1018 94 10000 1.5 340 19:36 18.10.2019
5723 Clear 21 1018 94 10000 1.5 340 19:18 18.10.2019
5724 Clear 22 1018 88 10000 1.5 320 18:42 18.10.2019
5725 Clear 22 1018 88 10000 1.5 320 18:23 18.10.2019
5726 Clear 22 1019 88 10000 2.1 320 17:57 18.10.2019
5727 Clear 22 1019 88 10000 1.5 320 17:38 18.10.2019
5728 Clear 22 1019 88 10000 1.5 320 17:20 18.10.2019
5729 Clear 22 1019 88 10000 2.1 320 16:44 18.10.2019
5730 Clear 22 1019 88 10000 1 0 16:22 18.10.2019
5731 Clear 23 1018 83 10000 1 0 15:59 18.10.2019
5732 Clear 22 1018 88 10000 1.5 290 15:39 18.10.2019
5733 Clear 22 1018 88 10000 1.5 290 15:20 18.10.2019
5734 Clear 23 1018 83 10000 1.5 270 14:57 18.10.2019
5735 Clear 23 1017 83 10000 1.5 300 14:38 18.10.2019
5736 Clear 23 1017 83 10000 1.5 300 14:20 18.10.2019
5737 Clear 24 1017 73 10000 1 0 13:57 18.10.2019
5738 Clear 24 1017 73 10000 1 0 13:39 18.10.2019
5739 Clear 24 1017 73 10000 1 0 13:20 18.10.2019
5740 Clear 25 1017 69 10000 1 0 12:55 18.10.2019
5741 Clouds 25 1017 65 10000 2.1 340 12:37 18.10.2019
5742 Clouds 25 1017 65 10000 2.1 340 12:19 18.10.2019
5743 Clouds 26 1017 61 10000 2.6 310 11:42 18.10.2019
5744 Clouds 26 1017 65 10000 3.1 310 11:21 18.10.2019
5745 Clouds 26 1017 69 10000 3.1 290 10:59 18.10.2019
5746 Clouds 26 1017 69 10000 3.1 290 10:59 18.10.2019
5747 Clouds 26 1017 69 10000 3.1 290 10:59 18.10.2019
5748 Clouds 27 1017 57 10000 2.6 340 10:41 18.10.2019
5749 Clouds 27 1017 57 10000 2.6 340 10:22 18.10.2019
5750 Clouds 27 1017 57 10000 3.1 20 09:58 18.10.2019
5751 Clouds 26 1017 61 10000 3.1 0 09:39 18.10.2019
5752 Clouds 26 1017 61 10000 3.1 0 09:19 18.10.2019
5753 Clouds 26 1018 61 10000 4.1 330 08:45 18.10.2019
5754 Clouds 26 1018 61 10000 3.6 350 08:25 18.10.2019
5755 Clouds 26 1018 61 10000 3.6 350 08:25 18.10.2019
5756 Clouds 26 1019 61 10000 3.6 350 07:57 18.10.2019
5757 Clouds 26 1019 61 10000 4.6 360 07:38 18.10.2019
5758 Clouds 25 1020 65 10000 3.6 360 06:56 18.10.2019
5759 Clouds 24 1020 69 10000 4.1 350 06:36 18.10.2019
5760 Clouds 24 1020 69 10000 4.1 350 06:18 18.10.2019
5761 Clouds 24 1020 69 10000 3.6 0 05:52 18.10.2019
5762 Clouds 24 1021 64 10000 3.1 10 05:18 18.10.2019
5763 Clear 23 1020 73 10000 5.1 20 03:36 18.10.2019
5764 Clear 23 1019 73 10000 5.1 30 02:51 18.10.2019
5765 Clear 22 1019 78 10000 4.6 20 02:32 18.10.2019
5766 Clear 22 1018 78 10000 6.2 30 01:39 18.10.2019
5767 Clear 22 1018 78 10000 6.2 30 01:20 18.10.2019
5768 Clear 22 1017 78 10000 7.2 30 00:41 18.10.2019
5769 Clear 22 1017 78 10000 7.2 30 00:19 18.10.2019
5770 Clear 22 1017 83 10000 5.1 30 23:39 17.10.2019
5771 Clear 22 1017 83 10000 5.1 30 23:20 17.10.2019
5772 Clear 22 1017 83 10000 6.2 20 22:56 17.10.2019
5773 Clear 22 1017 83 10000 6.2 20 22:56 17.10.2019
5774 Clear 22 1017 83 10000 6.2 20 22:56 17.10.2019
5775 Clouds 23 1017 83 10000 5.7 30 22:38 17.10.2019
5776 Clouds 23 1017 83 10000 5.7 30 22:19 17.10.2019
5777 Clouds 23 1017 83 10000 5.1 40 21:56 17.10.2019
5778 Clouds 24 1017 78 10000 5.7 50 21:38 17.10.2019
5779 Clouds 24 1017 78 10000 5.7 50 21:20 17.10.2019
5780 Clouds 24 1017 78 10000 5.7 50 21:20 17.10.2019
5781 Clouds 24 1017 83 10000 4.6 40 20:57 17.10.2019
5782 Clouds 24 1017 88 9000 4.6 50 20:38 17.10.2019
5783 Clouds 24 1017 88 9000 4.6 50 20:19 17.10.2019
5784 Clouds 25 1017 83 7000 4.1 50 19:56 17.10.2019
5785 Clouds 25 1018 83 6000 2.1 50 19:37 17.10.2019
5786 Clouds 25 1018 83 6000 2.1 50 19:18 17.10.2019
5787 Clouds 25 1018 83 6000 2.1 50 18:42 17.10.2019
5788 Clouds 25 1018 83 7000 2.1 50 18:21 17.10.2019
5789 Clouds 25 1018 83 7000 2.1 60 17:55 17.10.2019
5790 Clouds 25 1018 83 7000 1 0 17:37 17.10.2019
5791 Clouds 25 1018 83 7000 1 0 17:19 17.10.2019
5792 Clouds 25 1018 83 7000 0.5 0 16:42 17.10.2019
5793 Clouds 25 1017 78 7000 0.5 0 16:19 17.10.2019
5794 Clouds 25 1017 83 8000 1 0 15:59 17.10.2019
5795 Rain 25 1017 78 8000 2.445 50 15:41 17.10.2019
5796 Rain 25 1017 78 8000 2.968 143 15:20 17.10.2019
5797 Rain 25 1016 78 8000 1.5 140 14:58 17.10.2019
5798 Rain 25 1016 78 9000 2.6 150 14:39 17.10.2019
5799 Rain 25 1016 78 9000 2.6 150 14:21 17.10.2019
5800 Rain 26 1015 74 8000 3.1 150 13:41 17.10.2019
5801 Rain 26 1015 74 8000 3.1 150 13:21 17.10.2019
5802 Clouds 26 1015 78 7000 2.6 160 12:58 17.10.2019
5803 Clouds 26 1015 78 7000 4.6 140 12:39 17.10.2019
5804 Clouds 26 1015 78 7000 4.6 140 12:20 17.10.2019
5805 Clouds 27 1015 74 7000 4.6 140 11:56 17.10.2019
5806 Clouds 27 1015 78 7000 5.1 140 11:38 17.10.2019
5807 Clouds 27 1015 78 7000 5.1 140 11:18 17.10.2019
5808 Clouds 28 1014 74 7000 4.1 180 10:42 17.10.2019
5809 Clouds 28 1014 74 7000 4.1 180 10:20 17.10.2019
5810 -273 0 0 0 0 0 09:57 17.10.2019
5811 -273 0 0 0 0 0 09:57 17.10.2019
5812 Clouds 29 1015 66 10000 1.5 290 09:38 17.10.2019
5813 Clouds 29 1015 66 10000 1.5 290 09:38 17.10.2019
5814 Clouds 29 1015 66 10000 1.5 290 09:20 17.10.2019
5815 Clouds 29 1015 66 10000 2.1 320 08:56 17.10.2019
5816 Clouds 29 1016 66 10000 2.1 30 08:37 17.10.2019
5817 Clouds 29 1016 66 10000 2.1 30 08:18 17.10.2019
5818 Clouds 29 1016 66 10000 2.1 30 08:18 17.10.2019
5819 Clouds 30 1016 62 9000 2.1 0 07:43 17.10.2019
5820 Clouds 29 1017 70 9000 1.5 0 07:21 17.10.2019
5821 Clouds 29 1017 70 9000 1.5 0 07:21 17.10.2019
5822 Clouds 29 1017 74 8000 1 0 06:55 17.10.2019
5823 Clouds 28 1018 74 7000 1.5 330 06:37 17.10.2019
5824 Clouds 28 1018 74 7000 1.5 330 06:18 17.10.2019
5825 Clouds 28 1018 78 6000 2.1 320 05:40 17.10.2019
5826 Clouds 28 1018 78 6000 2.1 320 05:19 17.10.2019
5827 Mist 26 1019 83 4800 2.1 310 04:48 17.10.2019
5828 Mist 25 1018 88 4300 0.5 0 03:46 17.10.2019
5829 Mist 24 1018 88 5000 1.438 8 02:32 17.10.2019
5830 Mist 24 1017 94 4700 1.438 8 00:42 17.10.2019
5831 Mist 24 1017 94 4200 0.5 0 00:21 17.10.2019
5832 Mist 23 1016 100 4100 1 0 23:59 16.10.2019
5833 Mist 23 1016 100 4100 1 320 23:40 16.10.2019
5834 Mist 23 1016 100 4100 1 320 23:18 16.10.2019
5835 Mist 24 1017 88 4100 1.5 320 22:54 16.10.2019
5836 Mist 24 1017 94 4000 2.1 310 22:36 16.10.2019
5837 Mist 24 1017 94 4000 2.1 310 22:18 16.10.2019
5838 -273 0 0 0 0 0 21:54 16.10.2019
5839 Mist 24 1017 94 5000 2.1 310 21:54 16.10.2019
5840 Mist 24 1017 94 4600 2.1 310 21:36 16.10.2019
5841 Mist 24 1017 94 4600 2.1 310 21:18 16.10.2019
5842 Mist 24 1017 94 4600 2.1 320 20:55 16.10.2019
5843 -273 0 0 0 0 0 20:55 16.10.2019
5844 Mist 24 1017 94 3900 2.1 310 20:37 16.10.2019
5845 Mist 24 1017 94 3900 2.1 310 20:19 16.10.2019
5846 Mist 24 1017 94 4300 2.1 310 19:40 16.10.2019
5847 Mist 24 1017 94 4300 2.1 310 19:40 16.10.2019
5848 Mist 24 1017 94 4300 2.1 310 19:21 16.10.2019
5849 Mist 24 1017 94 4300 2.1 310 19:21 16.10.2019
5850 Rain 24 1018 94 4300 2.6 270 18:58 16.10.2019
5851 Rain 24 1018 94 3800 2.6 0 18:37 16.10.2019
5852 Rain 24 1018 94 3800 2.6 0 18:18 16.10.2019
5853 Rain 25 1018 88 4000 2.1 50 17:55 16.10.2019
5854 Rain 25 1018 83 4500 3.6 150 17:36 16.10.2019
5855 Rain 25 1018 83 4500 3.6 150 17:18 16.10.2019
5856 Clouds 26 1018 83 6000 2.1 220 16:43 16.10.2019
5857 Clouds 26 1017 78 9000 1 0 16:23 16.10.2019
5858 Clouds 26 1017 78 7000 1.5 80 15:59 16.10.2019
5859 Clouds 27 1016 69 9000 1.5 40 15:39 16.10.2019
5860 Clouds 27 1016 69 9000 1.5 40 15:19 16.10.2019
5861 Clouds 27 1016 69 9000 1.5 40 14:58 16.10.2019
5862 Clouds 27 1016 69 9000 1.5 40 14:58 16.10.2019
5863 Clouds 27 1016 69 9000 1.5 40 14:39 16.10.2019
5864 Clouds 27 1016 69 10000 2.1 60 14:20 16.10.2019
5865 -273 0 0 0 0 0 13:57 16.10.2019
5866 Clouds 27 1016 69 10000 1.5 40 13:39 16.10.2019
5867 Clouds 27 1015 69 10000 1.5 0 13:21 16.10.2019
5868 Clouds 28 1015 69 10000 2.1 0 12:42 16.10.2019
5869 Clouds 28 1015 69 10000 2.1 0 12:42 16.10.2019
5870 Rain 28 1015 69 10000 2.6 40 12:20 16.10.2019
5871 Rain 29 1015 66 10000 3.1 30 11:55 16.10.2019
5872 Rain 29 1015 66 10000 3.1 30 11:36 16.10.2019
5873 Clouds 29 1015 62 10000 3.1 20 11:18 16.10.2019
5874 Clouds 29 1015 62 10000 3.1 20 10:36 16.10.2019
5875 Clouds 30 1015 58 10000 1.5 20 10:18 16.10.2019
5876 Clouds 30 1015 58 10000 3.1 30 09:40 16.10.2019
5877 Clouds 30 1015 58 10000 3.1 30 09:40 16.10.2019
5878 Clouds 30 1016 58 10000 3.6 50 09:22 16.10.2019
5879 Clouds 30 1016 58 10000 3.1 40 08:48 16.10.2019
5880 -273 0 0 0 0 0 08:30 16.10.2019
5881 Clouds 29 1017 58 10000 3.1 40 08:30 16.10.2019
5882 Clouds 30 1017 58 10000 2.6 0 07:59 16.10.2019
5883 Clouds 30 1017 58 10000 2.6 0 07:41 16.10.2019
5884 Clouds 30 1018 58 10000 2.1 0 07:22 16.10.2019
5885 Clouds 30 1018 62 10000 2.1 0 06:47 16.10.2019
5886 Rain 28 1019 65 10000 3.1 50 06:28 16.10.2019
5887 Clouds 26 1020 69 10000 1.5 20 04:25 16.10.2019
5888 Clouds 25 1019 78 10000 2.1 320 02:51 16.10.2019
5889 Mist 24 1018 94 4500 1 320 01:20 16.10.2019
5890 Mist 24 1018 94 5000 1 0 00:58 16.10.2019
5891 Mist 24 1018 94 5000 1 0 00:58 16.10.2019
5892 Mist 24 1018 94 5000 1 0 00:39 16.10.2019
5893 Mist 24 1017 94 5000 1.5 330 23:42 15.10.2019
5894 Mist 24 1017 88 5000 1.5 330 23:23 15.10.2019
5895 Rain 24 1017 88 6000 1.5 320 22:59 15.10.2019
5896 Rain 24 1017 88 6000 1.5 320 22:40 15.10.2019
5897 Rain 24 1017 88 6000 1 300 22:21 15.10.2019
5898 Rain 24 1018 88 7000 1.5 310 21:57 15.10.2019
5899 Rain 24 1018 88 7000 1.5 310 21:39 15.10.2019
5900 Rain 24 1018 88 8000 1 0 21:20 15.10.2019
5901 Rain 24 1018 88 7000 2.1 300 20:58 15.10.2019
5902 Rain 24 1018 88 7000 2.1 300 20:40 15.10.2019
5903 Rain 24 1018 88 8000 1.5 290 20:22 15.10.2019
5904 Rain 25 1018 73 10000 0.5 0 19:59 15.10.2019
5905 Rain 25 1018 73 10000 0.5 0 19:41 15.10.2019
5906 Rain 24 1019 88 7000 1 0 19:20 15.10.2019
5907 Rain 24 1019 88 7000 1 0 19:20 15.10.2019
5908 Rain 24 1019 88 7000 1.5 310 18:55 15.10.2019
5909 Rain 24 1019 88 7000 1.5 310 18:55 15.10.2019
5910 Rain 24 1019 88 7000 1.5 310 18:37 15.10.2019
5911 Clouds 25 1019 83 8000 2.6 310 18:19 15.10.2019
5912 Clouds 25 1019 83 9000 2.1 310 17:42 15.10.2019
5913 Clouds 25 1019 83 8000 2.1 320 17:21 15.10.2019
5914 Clouds 25 1019 83 8000 2.1 320 16:59 15.10.2019
5915 Clouds 25 1019 83 8000 2.1 320 16:59 15.10.2019
5916 Clouds 25 1019 83 8000 2.1 320 16:40 15.10.2019
5917 Clouds 25 1019 83 8000 1.5 300 16:21 15.10.2019
5918 Clouds 25 1019 83 8000 1.5 300 16:21 15.10.2019
5919 Clouds 25 1019 83 9000 1.5 320 15:55 15.10.2019
5920 Clouds 25 1019 83 9000 1.5 320 15:37 15.10.2019
5921 Clouds 25 1018 78 10000 1.5 320 15:19 15.10.2019
5922 Rain 25 1018 78 10000 2.1 0 14:38 15.10.2019
5923 Rain 26 1018 74 10000 1 0 14:20 15.10.2019
5924 Rain 26 1018 74 10000 1.5 360 13:59 15.10.2019
5925 Rain 26 1018 74 10000 1.5 360 13:40 15.10.2019
5926 Rain 26 1017 74 10000 1.5 10 13:20 15.10.2019
5927 Rain 26 1017 74 10000 1.5 350 12:44 15.10.2019
5928 Clouds 26 1017 74 10000 2.6 0 12:22 15.10.2019
5929 Clouds 27 1017 69 10000 3.6 0 11:58 15.10.2019
5930 Clouds 27 1017 69 10000 3.6 0 11:40 15.10.2019
5931 Clouds 27 1017 65 10000 3.1 360 11:19 15.10.2019
5932 Clouds 27 1017 65 10000 3.6 350 10:46 15.10.2019
5933 Clouds 27 1017 65 10000 4.1 340 10:23 15.10.2019
5934 Clear 27 1017 65 10000 3.1 360 09:59 15.10.2019
5935 Clear 27 1017 65 10000 3.6 340 09:40 15.10.2019
5936 Clear 27 1017 65 10000 3.6 340 09:21 15.10.2019
5937 Clouds 28 1018 61 10000 4.1 340 08:57 15.10.2019
5938 Clouds 28 1018 61 10000 4.1 340 08:57 15.10.2019
5939 Clouds 27 1018 65 10000 4.1 10 08:37 15.10.2019
5940 Clouds 27 1018 65 10000 4.1 10 08:18 15.10.2019
5941 Clouds 28 1019 65 10000 3.1 0 07:43 15.10.2019
5942 Clouds 27 1019 65 10000 3.6 0 07:21 15.10.2019
5943 Clouds 26 1019 69 10000 2.6 0 06:54 15.10.2019
5944 Clouds 26 1019 69 10000 2.6 0 06:36 15.10.2019
5945 Clouds 26 1020 69 10000 4.6 0 05:54 15.10.2019
5946 Clouds 26 1020 69 10000 4.6 0 05:35 15.10.2019
5947 Clouds 25 1021 73 10000 3.6 20 04:39 15.10.2019
5948 Clouds 26 1020 69 10000 3.6 0 03:57 15.10.2019
5949 Clouds 25 1020 73 10000 2.6 10 03:27 15.10.2019
5950 Rain 24 1019 78 10000 3.1 20 01:51 15.10.2019
5951 Clouds 24 1019 78 10000 3.1 10 01:23 15.10.2019
5952 Clear 24 1018 78 10000 3.1 20 00:52 15.10.2019
5953 Clear 24 1018 78 10000 3.1 20 00:22 15.10.2019
5954 Clear 24 1018 83 10000 3.1 10 23:46 14.10.2019
5955 Clouds 24 1018 83 10000 3.6 10 23:21 14.10.2019
5956 Rain 24 1018 83 10000 3.6 360 22:59 14.10.2019
5957 Rain 24 1018 83 10000 3.6 360 22:39 14.10.2019
5958 Clear 25 1018 73 10000 3.6 360 22:19 14.10.2019
5959 Clear 25 1018 73 10000 3.6 360 22:19 14.10.2019
5960 Clear 25 1018 73 10000 3.6 360 22:19 14.10.2019
5961 Clear 25 1018 73 10000 3.6 10 21:56 14.10.2019
5962 Clear 25 1018 73 10000 3.6 10 21:56 14.10.2019
5963 Clear 25 1018 73 10000 3.6 10 21:37 14.10.2019
5964 Clear 25 1018 73 10000 3.1 10 21:19 14.10.2019
5965 Clear 25 1018 73 10000 3.1 20 20:55 14.10.2019
5966 Clear 25 1018 73 10000 3.1 30 20:37 14.10.2019
5967 Clear 25 1018 73 10000 3.1 30 20:18 14.10.2019
5968 Clouds 25 1019 73 10000 3.6 0 19:42 14.10.2019
5969 Clear 25 1019 73 10000 3.6 0 19:23 14.10.2019
5970 Clear 25 1019 78 10000 3.6 30 18:59 14.10.2019
5971 Clear 25 1019 78 10000 3.6 20 18:39 14.10.2019
5972 Clear 25 1019 78 10000 3.6 20 18:19 14.10.2019
5973 Clear 25 1019 78 10000 3.6 20 18:19 14.10.2019
5974 Clear 25 1019 78 10000 3.6 20 18:19 14.10.2019
5975 Clear 25 1019 78 10000 1.5 0 17:57 14.10.2019
5976 Clear 24 1019 83 10000 3.1 30 17:38 14.10.2019
5977 Clear 24 1019 83 10000 3.1 30 17:20 14.10.2019
5978 Rain 26 1019 74 10000 4.6 60 16:44 14.10.2019
5979 Rain 26 1019 74 10000 4.6 60 16:21 14.10.2019
5980 Clear 27 1018 69 10000 4.6 50 15:43 14.10.2019
5981 Clear 27 1018 69 10000 4.6 50 15:24 14.10.2019
5982 Clear 27 1018 69 10000 3.1 50 14:58 14.10.2019
5983 Clear 27 1017 69 10000 3.6 40 14:39 14.10.2019
5984 Clear 27 1017 69 10000 3.6 40 14:20 14.10.2019
5985 Clouds 27 1017 69 10000 4.1 30 13:44 14.10.2019
5986 Clouds 27 1016 69 10000 4.1 0 13:21 14.10.2019
5987 Clouds 28 1016 69 10000 3.6 30 12:55 14.10.2019
5988 Clouds 28 1016 69 10000 4.1 20 12:37 14.10.2019
5989 Clouds 28 1016 69 10000 4.1 20 12:18 14.10.2019
5990 Clear 29 1016 66 10000 4.1 0 11:44 14.10.2019
5991 -273 0 0 0 0 0 11:26 14.10.2019
5992 Clouds 30 1015 62 10000 4.6 10 10:57 14.10.2019
5993 Clouds 30 1015 62 10000 4.6 10 10:57 14.10.2019
5994 Clouds 30 1016 62 10000 4.6 10 10:38 14.10.2019
5995 Clouds 30 1016 62 10000 4.6 10 10:19 14.10.2019
5996 Clouds 30 1016 62 10000 3.6 30 09:42 14.10.2019
5997 -273 0 0 0 0 0 09:41 14.10.2019
5998 Clouds 30 1016 62 10000 3.6 30 09:21 14.10.2019
5999 Clouds 30 1017 66 10000 4.6 30 08:51 14.10.2019
6000 Clouds 30 1017 66 10000 4.6 30 08:23 14.10.2019
6001 Clouds 29 1018 62 10000 4.6 360 07:47 14.10.2019
6002 Clouds 29 1018 66 10000 3.6 20 07:25 14.10.2019
6003 Clouds 29 1018 66 10000 4.1 20 06:59 14.10.2019
6004 Clouds 28 1019 69 10000 3.6 360 06:28 14.10.2019
6005 Clouds 28 1019 69 10000 3.6 10 05:57 14.10.2019
6006 Clouds 28 1019 69 10000 3.6 20 05:26 14.10.2019
6007 Clouds 27 1019 69 10000 3.1 20 03:50 14.10.2019
6008 Clouds 27 1018 69 10000 3.6 10 03:25 14.10.2019
6009 Clouds 25 1017 83 9000 1 320 02:31 14.10.2019
6010 Clouds 24 1017 88 9000 1 0 01:21 14.10.2019
6011 Clouds 24 1016 88 8000 1 280 00:42 14.10.2019
6012 Clouds 24 1016 88 8000 1 280 00:18 14.10.2019
6013 Clouds 25 1016 83 10000 2.1 290 23:41 13.10.2019
6014 Clouds 25 1016 83 10000 2.1 290 23:19 13.10.2019
6015 Clouds 25 1016 83 10000 2.1 290 23:19 13.10.2019
6016 Clouds 25 1016 83 10000 1 0 22:57 13.10.2019
6017 Clouds 25 1016 83 10000 1 0 22:57 13.10.2019
6018 Clouds 25 1016 83 10000 1 0 22:39 13.10.2019
6019 Clouds 25 1016 83 10000 1 0 22:20 13.10.2019
6020 Clouds 25 1016 83 10000 1 0 21:57 13.10.2019
6021 Clear 25 1016 83 10000 1 0 21:36 13.10.2019
6022 Clear 25 1016 83 10000 1 0 21:18 13.10.2019
6023 Clear 25 1016 83 10000 1 0 21:18 13.10.2019
6024 -273 0 0 0 0 0 20:55 13.10.2019
6025 Clouds 25 1016 83 10000 2.1 310 20:37 13.10.2019
6026 Clouds 25 1016 83 10000 2.1 310 20:18 13.10.2019
6027 Clouds 25 1016 88 9000 1.5 290 19:54 13.10.2019
6028 Clouds 25 1016 88 10000 1 0 19:36 13.10.2019
6029 Clouds 25 1016 88 10000 1 0 19:36 13.10.2019
6030 Clouds 25 1016 88 10000 1 0 19:18 13.10.2019
6031 Clouds 25 1016 88 9000 1.5 280 18:40 13.10.2019
6032 Clouds 25 1016 88 9000 1.5 280 18:21 13.10.2019
6033 Clouds 25 1016 83 10000 1.5 320 17:59 13.10.2019
6034 Clouds 25 1016 83 10000 1.5 0 17:41 13.10.2019
6035 Clouds 25 1016 83 10000 1.5 0 17:23 13.10.2019
6036 Clouds 26 1016 78 10000 2.1 0 16:43 13.10.2019
6037 Clouds 26 1016 78 9000 2.6 0 16:20 13.10.2019
6038 Clouds 26 1015 78 10000 1.5 320 15:58 13.10.2019
6039 Clouds 26 1014 74 10000 1 0 15:39 13.10.2019
6040 Clouds 26 1014 74 10000 1 0 15:20 13.10.2019
6041 Clouds 26 1014 74 10000 1 0 15:20 13.10.2019
6042 Clouds 26 1014 78 10000 1.5 350 14:58 13.10.2019
6043 Clouds 26 1014 83 10000 2.6 40 14:39 13.10.2019
6044 Clouds 26 1014 83 10000 2.6 40 14:20 13.10.2019
6045 Clouds 26 1013 83 9000 1.5 300 13:55 13.10.2019
6046 Clouds 26 1013 74 10000 1.5 270 13:37 13.10.2019
6047 Clouds 26 1013 74 10000 1.5 270 13:37 13.10.2019
6048 Clouds 26 1013 74 10000 1.5 270 13:18 13.10.2019
6049 Clouds 26 1013 74 10000 1.5 270 13:18 13.10.2019
6050 Clouds 26 1012 78 10000 2.1 340 12:55 13.10.2019
6051 Clouds 26 1012 78 10000 2.1 340 12:55 13.10.2019
6052 Clouds 27 1013 74 8000 2.1 350 12:36 13.10.2019
6053 Clouds 27 1013 74 8000 2.1 350 12:36 13.10.2019
6054 Clouds 27 1013 74 8000 2.1 350 12:18 13.10.2019
6055 Clouds 27 1013 83 9000 3.1 290 11:54 13.10.2019
6056 Rain 27 1012 74 10000 4.1 200 11:36 13.10.2019
6057 Rain 27 1012 74 10000 4.1 200 11:18 13.10.2019
6058 Clouds 31 1012 58 10000 3.6 30 10:41 13.10.2019
6059 Clouds 31 1012 58 10000 3.6 30 10:22 13.10.2019
6060 Clouds 31 1012 58 10000 3.6 30 10:22 13.10.2019
6061 Clouds 31 1012 58 10000 3.6 30 10:22 13.10.2019
6062 Clouds 31 1012 58 10000 3.6 30 09:40 13.10.2019
6063 Clouds 31 1012 58 10000 3.6 30 09:21 13.10.2019
6064 Clouds 31 1012 58 10000 3.6 30 09:21 13.10.2019
6065 Clouds 31 1013 58 10000 3.6 50 08:57 13.10.2019
6066 Clouds 31 1013 58 10000 4.1 30 08:37 13.10.2019
6067 Clouds 31 1013 58 10000 4.1 30 08:18 13.10.2019
6068 Clouds 31 1014 58 10000 3.6 40 07:45 13.10.2019
6069 Clouds 31 1014 58 10000 3.6 40 07:45 13.10.2019
6070 Clouds 30 1014 66 10000 4.6 30 06:55 13.10.2019
6071 Clouds 30 1015 66 10000 4.6 40 06:26 13.10.2019
6072 Clouds 29 1015 70 10000 5.1 60 05:34 13.10.2019
6073 Clouds 28 1015 74 10000 4.6 60 04:38 13.10.2019
6074 Clouds 27 1015 78 9000 4.1 50 03:37 13.10.2019
6075 Clouds 26 1014 88 9000 3.1 60 02:35 13.10.2019
6076 Clouds 26 1014 88 7000 3.1 50 01:51 13.10.2019
6077 Clouds 26 1013 88 6000 3.1 50 01:21 13.10.2019
6078 Clouds 26 1012 88 6000 3.1 60 00:43 13.10.2019
6079 Clouds 26 1012 88 6000 3.1 60 00:20 13.10.2019
6080 Clouds 26 1012 88 6000 2.6 50 23:54 12.10.2019
6081 Clouds 26 1012 88 6000 2.6 50 23:54 12.10.2019
6082 Clouds 26 1012 88 7000 3.1 50 23:36 12.10.2019
6083 Clouds 26 1012 88 7000 3.1 50 23:36 12.10.2019
6084 Clouds 26 1012 88 7000 3.1 50 23:18 12.10.2019
6085 Clouds 26 1012 88 7000 3.1 50 22:54 12.10.2019
6086 Clouds 26 1012 88 7000 2.6 50 22:36 12.10.2019
6087 Clouds 26 1012 88 7000 2.6 50 22:18 12.10.2019
6088 Clouds 26 1012 88 7000 2.6 60 21:41 12.10.2019
6089 Clouds 26 1012 88 7000 2.6 60 21:23 12.10.2019
6090 Clouds 26 1012 88 6000 2.6 60 20:56 12.10.2019
6091 Clouds 26 1012 88 6000 2.1 70 20:37 12.10.2019
6092 Clouds 26 1012 88 6000 2.1 70 20:19 12.10.2019
6093 Clouds 26 1013 88 8000 3.1 60 19:36 12.10.2019
6094 Clouds 26 1013 88 8000 3.1 60 19:18 12.10.2019
6095 -273 0 0 0 0 0 18:44 12.10.2019
6096 Clouds 26 1013 88 8000 2.6 60 18:26 12.10.2019
6097 Clear 26 1013 88 8000 3.6 60 17:56 12.10.2019
6098 Clear 26 1013 88 8000 3.6 60 17:56 12.10.2019
6099 Clear 26 1013 88 9000 3.1 60 17:37 12.10.2019
6100 Clear 26 1013 88 9000 3.1 60 17:18 12.10.2019
6101 Clouds 26 1012 88 9000 3.1 70 16:40 12.10.2019
6102 Clouds 26 1012 88 9000 3.1 70 16:21 12.10.2019
6103 Rain 26 1012 88 8000 3.1 60 15:57 12.10.2019
6104 Rain 26 1012 88 8000 3.1 60 15:57 12.10.2019
6105 Rain 26 1012 88 9000 4.1 50 15:38 12.10.2019
6106 Rain 26 1011 88 8000 3.1 50 15:18 12.10.2019
6107 Clouds 27 1011 83 8000 3.6 50 14:40 12.10.2019
6108 Clouds 27 1011 83 8000 3.6 50 14:20 12.10.2019
6109 Clouds 27 1010 83 8000 3.1 60 13:51 12.10.2019
6110 Rain 27 1010 88 7000 4.1 50 13:32 12.10.2019
6111 Rain 28 1010 78 7000 3.6 40 12:56 12.10.2019
6112 Thunderstorm 30 1009 70 10000 5.1 100 12:38 12.10.2019
6113 Thunderstorm 30 1009 70 10000 5.1 100 12:38 12.10.2019
6114 Thunderstorm 30 1009 70 10000 5.1 100 12:20 12.10.2019
6115 Thunderstorm 30 1009 70 10000 5.1 100 12:20 12.10.2019
6116 Thunderstorm 30 1009 70 10000 5.7 140 11:45 12.10.2019
6117 Clouds 31 1009 66 10000 6.7 140 11:24 12.10.2019
6118 Clouds 31 1008 62 10000 3.1 170 10:58 12.10.2019
6119 Clouds 33 1009 55 10000 3.1 190 10:39 12.10.2019
6120 Clouds 33 1009 55 10000 3.1 190 10:20 12.10.2019
6121 -273 0 0 0 0 0 09:57 12.10.2019
6122 Clouds 33 1009 52 10000 3.1 190 09:57 12.10.2019
6123 Clouds 32 1009 59 10000 3.1 220 09:37 12.10.2019
6124 Clouds 32 1009 59 10000 3.1 220 09:19 12.10.2019
6125 Clouds 32 1010 55 10000 3.1 0 08:44 12.10.2019
6126 Clouds 32 1010 55 10000 3.1 0 08:23 12.10.2019
6127 Clouds 32 1011 55 10000 3.1 150 07:49 12.10.2019
6128 Clouds 31 1011 58 10000 3.1 170 07:30 12.10.2019
6129 Clouds 31 1012 62 10000 4.1 150 05:54 12.10.2019
6130 Clouds 30 1013 70 10000 3.6 140 05:26 12.10.2019
6131 Clouds 30 1013 70 10000 3.6 140 04:34 12.10.2019
6132 Clouds 29 1013 79 8000 3.6 110 03:53 12.10.2019
6133 Mist 26 1012 94 3500 2.6 80 02:37 12.10.2019
6134 Mist 25 1011 94 2700 3.1 80 01:32 12.10.2019
6135 Mist 25 1011 94 4700 2.6 90 00:54 12.10.2019
6136 Mist 25 1011 94 5000 3.1 90 00:35 12.10.2019
6137 Mist 25 1011 94 5000 2.6 90 23:54 11.10.2019
6138 Clouds 25 1011 94 6000 2.6 80 23:36 11.10.2019
6139 Clouds 25 1011 94 6000 2.6 80 23:36 11.10.2019
6140 Clouds 25 1011 94 6000 2.6 80 23:18 11.10.2019
6141 Clouds 25 1011 94 6000 2.6 80 23:18 11.10.2019
6142 Clouds 26 1010 88 6000 2.6 80 22:37 11.10.2019
6143 Clouds 26 1010 88 6000 2.6 80 22:18 11.10.2019
6144 Clouds 26 1011 88 6000 3.1 100 21:42 11.10.2019
6145 Clouds 26 1011 88 6000 3.1 100 21:21 11.10.2019
6146 Mist 26 1011 88 5000 2.6 80 20:55 11.10.2019
6147 Clouds 26 1011 88 7000 2.6 90 20:37 11.10.2019
6148 Clouds 26 1011 88 7000 2.6 90 20:18 11.10.2019
6149 Clouds 26 1011 88 8000 3.1 110 19:55 11.10.2019
6150 Clouds 27 1012 83 9000 3.1 120 19:36 11.10.2019
6151 Clouds 27 1012 83 9000 3.1 120 19:18 11.10.2019
6152 Clear 27 1012 83 10000 3.1 130 18:39 11.10.2019
6153 Clear 27 1012 83 10000 3.1 130 18:19 11.10.2019
6154 Clear 27 1011 83 10000 3.6 130 17:59 11.10.2019
6155 Clear 27 1011 83 10000 3.6 130 17:38 11.10.2019
6156 Clear 27 1011 83 10000 3.6 130 17:20 11.10.2019
6157 Clear 28 1011 78 10000 3.6 140 16:59 11.10.2019
6158 Clear 28 1011 78 10000 3.6 140 16:39 11.10.2019
6159 Clear 28 1011 78 10000 3.6 140 16:19 11.10.2019
6160 Clear 28 1011 78 9000 4.1 130 15:57 11.10.2019
6161 Clouds 28 1010 78 9000 5.1 120 15:37 11.10.2019
6162 Clouds 28 1010 78 9000 5.1 120 15:18 11.10.2019
6163 Clouds 29 1010 74 10000 5.1 130 14:43 11.10.2019
6164 Clouds 29 1010 74 10000 5.1 130 14:43 11.10.2019
6165 Clouds 29 1009 74 9000 4.6 110 14:23 11.10.2019
6166 Clouds 29 1009 74 10000 4.6 100 13:47 11.10.2019
6167 Clouds 30 1009 70 10000 4.6 110 13:26 11.10.2019
6168 Clouds 30 1008 70 10000 5.1 120 12:58 11.10.2019
6169 Clouds 32 1008 55 10000 3.6 150 12:40 11.10.2019
6170 Clouds 32 1008 55 10000 3.6 150 12:21 11.10.2019
6171 Clouds 32 1008 55 10000 4.1 150 11:59 11.10.2019
6172 Clouds 33 1008 52 10000 4.1 160 11:39 11.10.2019
6173 Clouds 33 1008 52 10000 4.1 160 11:21 11.10.2019
6174 Clouds 33 1008 52 10000 3.1 150 10:56 11.10.2019
6175 Clouds 33 1008 52 10000 3.1 150 10:56 11.10.2019
6176 Clouds 33 1009 52 10000 3.1 160 10:36 11.10.2019
6177 Clouds 33 1009 52 10000 3.1 160 10:18 11.10.2019
6178 Clouds 33 1009 52 10000 3.1 140 09:42 11.10.2019
6179 Clouds 33 1009 52 10000 3.1 160 09:21 11.10.2019
6180 Clouds 33 1010 52 10000 2.6 180 08:57 11.10.2019
6181 Clouds 32 1010 55 10000 3.1 190 08:38 11.10.2019
6182 Clouds 32 1010 55 10000 3.1 190 08:20 11.10.2019
6183 Clouds 32 1011 55 10000 3.6 160 07:52 11.10.2019
6184 Clouds 32 1011 59 10000 3.6 150 07:33 11.10.2019
6185 Clouds 31 1012 62 10000 4.1 160 06:50 11.10.2019
6186 Clouds 31 1013 62 10000 4.6 140 06:25 11.10.2019
6187 Clouds 31 1013 58 10000 3.6 170 05:47 11.10.2019
6188 Clouds 30 1013 70 10000 4.6 130 05:29 11.10.2019
6189 Clouds 29 1013 74 10000 3.1 120 04:50 11.10.2019
6190 Mist 27 1013 88 3900 3.6 90 03:20 11.10.2019
6191 Mist 25 1012 94 3500 2.1 80 00:54 11.10.2019
6192 Mist 25 1011 94 4600 2.6 90 00:31 11.10.2019
6193 Mist 25 1011 94 5000 3.1 80 23:57 10.10.2019
6194 Mist 25 1011 94 4800 2.1 80 23:39 10.10.2019
6195 Mist 25 1011 94 4800 2.1 80 23:18 10.10.2019
6196 Mist 25 1011 94 5000 2.6 80 22:54 10.10.2019
6197 Mist 25 1011 94 4700 2.6 90 22:36 10.10.2019
6198 Mist 25 1011 94 4700 2.6 90 22:18 10.10.2019
6199 Mist 26 1012 88 5000 3.1 100 21:42 10.10.2019
6200 Mist 26 1012 88 5000 3.1 100 21:22 10.10.2019
6201 Mist 26 1012 88 5000 3.1 100 21:22 10.10.2019
6202 Mist 25 1012 94 5000 2.6 100 20:58 10.10.2019
6203 Mist 26 1012 88 5000 3.1 110 20:39 10.10.2019
6204 Mist 26 1012 88 5000 3.1 110 20:39 10.10.2019
6205 Mist 26 1012 88 5000 3.1 110 20:19 10.10.2019
6206 Clear 26 1012 88 6000 2.6 100 19:55 10.10.2019
6207 Clear 26 1012 88 6000 2.6 100 19:55 10.10.2019
6208 Clear 26 1012 88 7000 3.1 100 19:37 10.10.2019
6209 Clear 26 1012 88 7000 3.1 100 19:19 10.10.2019
6210 Clear 26 1012 88 9000 2.6 110 18:42 10.10.2019
6211 Clear 26 1012 88 9000 2.6 110 18:20 10.10.2019
6212 Clear 27 1012 83 9000 3.6 130 17:57 10.10.2019
6213 Clear 27 1012 83 9000 2.6 130 17:37 10.10.2019
6214 Clear 27 1012 83 9000 2.6 130 17:18 10.10.2019
6215 Clear 27 1012 83 9000 2.6 130 17:18 10.10.2019
6216 Clear 27 1012 83 9000 3.6 130 16:49 10.10.2019
6217 Clear 27 1012 83 9000 3.6 110 16:27 10.10.2019
6218 Clear 27 1012 83 9000 4.6 120 15:59 10.10.2019
6219 Clear 28 1011 78 10000 3.6 120 15:39 10.10.2019
6220 Clear 28 1011 78 10000 3.6 120 15:39 10.10.2019
6221 Clear 28 1011 78 10000 3.6 120 15:20 10.10.2019
6222 Clear 28 1011 74 10000 4.1 130 14:56 10.10.2019
6223 Clear 28 1011 74 10000 4.6 130 14:37 10.10.2019
6224 Clear 28 1011 74 10000 4.6 130 14:18 10.10.2019
6225 Clouds 29 1010 70 10000 5.1 130 13:47 10.10.2019
6226 Clouds 29 1010 74 10000 6.2 130 13:29 10.10.2019
6227 Clouds 31 1010 58 10000 3.1 140 12:59 10.10.2019
6228 Clouds 31 1010 58 10000 2.6 180 12:40 10.10.2019
6229 Clouds 31 1010 58 10000 2.6 180 12:20 10.10.2019
6230 Clouds 32 1010 52 10000 2.6 170 11:58 10.10.2019
6231 Clouds 32 1010 55 10000 2.6 180 11:38 10.10.2019
6232 Clouds 32 1010 55 10000 2.6 180 11:19 10.10.2019
6233 Clouds 32 1009 55 10000 2.6 180 10:45 10.10.2019
6234 Clouds 32 1010 55 10000 2.6 190 10:26 10.10.2019
6235 Clouds 33 1010 52 10000 2.6 200 09:58 10.10.2019
6236 Clouds 32 1010 62 10000 2.1 0 09:39 10.10.2019
6237 Clouds 32 1010 62 10000 2.1 0 09:21 10.10.2019
6238 Clouds 31 1011 62 10000 2.1 210 08:57 10.10.2019
6239 Clouds 31 1011 62 10000 2.1 220 08:38 10.10.2019
6240 Clouds 31 1011 62 10000 2.1 220 08:19 10.10.2019
6241 Clouds 31 1011 62 10000 2.1 220 08:19 10.10.2019
6242 Clouds 31 1012 66 9000 1.5 220 07:45 10.10.2019
6243 Clouds 30 1013 66 10000 2.1 210 07:22 10.10.2019
6244 Clouds 30 1013 66 9000 2.1 200 06:48 10.10.2019
6245 Clouds 30 1014 70 8000 1.5 20 06:29 10.10.2019
6246 Mist 28 1015 78 5000 2.6 40 05:28 10.10.2019
6247 Mist 27 1015 83 4200 3.1 60 04:47 10.10.2019
6248 Mist 26 1015 88 4400 3.1 60 04:26 10.10.2019
6249 Mist 26 1015 88 4400 3.1 60 04:26 10.10.2019
6250 Mist 24 1013 94 3800 2.6 80 01:44 10.10.2019
6251 Mist 24 1013 94 3800 2.6 80 01:25 10.10.2019
6252 Clouds 24 1013 94 6000 1.5 70 00:54 10.10.2019
6253 Thunderstorm 24 1013 100 7000 2.1 30 00:22 10.10.2019
6254 Thunderstorm 24 1012 94 2700 3.1 250 23:40 09.10.2019
6255 Thunderstorm 24 1012 94 2700 3.1 250 23:20 09.10.2019
6256 Thunderstorm 24 1012 94 7000 1.5 50 22:56 09.10.2019
6257 Clouds 24 1012 94 7000 1 0 22:37 09.10.2019
6258 Clouds 24 1012 94 7000 1 0 22:19 09.10.2019
6259 Clouds 24 1012 94 7000 1.5 40 21:40 09.10.2019
6260 Clouds 24 1012 94 7000 1.5 40 21:20 09.10.2019
6261 Clouds 24 1012 94 7000 2.1 60 20:56 09.10.2019
6262 Clouds 24 1013 88 7000 1 0 20:38 09.10.2019
6263 Clouds 24 1013 88 7000 1 0 20:38 09.10.2019
6264 Clouds 24 1013 88 7000 1 0 20:19 09.10.2019
6265 Clouds 24 1013 88 7000 1 0 20:19 09.10.2019
6266 Clouds 24 1013 94 7000 1.5 40 19:57 09.10.2019
6267 Mist 24 1013 94 5000 1.5 80 19:39 09.10.2019
6268 Mist 24 1013 94 5000 1.5 80 19:20 09.10.2019
6269 Clouds 24 1013 94 6000 2.1 60 18:38 09.10.2019
6270 Clouds 24 1013 94 6000 2.1 60 18:19 09.10.2019
6271 Clouds 24 1013 94 7000 1.5 40 17:57 09.10.2019
6272 Clouds 24 1013 94 6000 1.5 60 17:37 09.10.2019
6273 Clouds 24 1013 94 6000 1.5 60 17:19 09.10.2019
6274 Clouds 24 1013 94 6000 1.5 60 17:19 09.10.2019
6275 Clouds 25 1013 88 7000 1.5 40 16:55 09.10.2019
6276 Clouds 24 1013 94 7000 1 0 16:36 09.10.2019
6277 Clouds 24 1013 94 7000 1 0 16:18 09.10.2019
6278 Clouds 25 1013 88 8000 1 0 15:54 09.10.2019
6279 Clouds 25 1013 88 9000 1 0 15:36 09.10.2019
6280 Rain 25 1013 88 9000 1 0 15:18 09.10.2019
6281 Rain 25 1013 88 9000 1 0 15:18 09.10.2019
6282 Clear 25 1012 88 10000 1.5 30 14:41 09.10.2019
6283 Clear 25 1012 88 10000 1.5 30 14:18 09.10.2019
6284 Clear 26 1012 88 10000 1 0 13:40 09.10.2019
6285 Clear 26 1012 88 10000 1 0 13:22 09.10.2019
6286 Clear 26 1012 88 10000 1 0 13:22 09.10.2019
6287 Clear 26 1011 88 10000 1.5 300 12:59 09.10.2019
6288 Clear 27 1011 78 10000 1.5 310 12:41 09.10.2019
6289 Clear 27 1011 78 10000 1.5 310 12:22 09.10.2019
6290 Clear 27 1011 78 10000 1.5 310 12:22 09.10.2019
6291 Clear 27 1011 78 10000 0.5 0 11:56 09.10.2019
6292 Clear 27 1011 83 10000 1.5 300 11:37 09.10.2019
6293 Clear 27 1011 83 10000 1.5 300 11:37 09.10.2019
6294 Clear 27 1011 83 10000 1.5 300 11:19 09.10.2019
6295 Clouds 26 1012 88 10000 2.6 350 10:44 09.10.2019
6296 Clouds 26 1012 88 10000 2.6 350 10:22 09.10.2019
6297 Rain 25 1013 88 10000 4.1 310 09:59 09.10.2019
6298 Rain 24 1013 94 8000 4.1 290 09:41 09.10.2019
6299 Rain 24 1013 94 8000 4.1 290 09:19 09.10.2019
6300 Rain 25 1014 88 10000 5.1 260 08:41 09.10.2019
6301 Rain 25 1014 88 10000 5.1 260 08:23 09.10.2019
6302 Clouds 26 1014 83 10000 4.1 270 07:58 09.10.2019
6303 Clouds 26 1015 83 9000 4.1 290 07:39 09.10.2019
6304 Clouds 26 1015 83 9000 4.1 290 07:20 09.10.2019
6305 Clouds 26 1015 83 10000 3.6 300 06:51 09.10.2019
6306 Clouds 26 1015 83 10000 3.6 300 06:51 09.10.2019
6307 Clouds 27 1016 78 10000 2.6 280 05:56 09.10.2019
6308 Clouds 26 1016 83 10000 2.1 290 05:28 09.10.2019
6309 Clouds 24 1016 88 10000 2.1 310 04:24 09.10.2019
6310 Clouds 23 1016 94 10000 2.1 320 02:50 09.10.2019
6311 Clouds 23 1015 94 10000 2.6 320 01:43 09.10.2019
6312 Clouds 23 1015 94 10000 2.6 320 01:20 09.10.2019
6313 Clouds 23 1015 94 10000 3.1 330 00:56 09.10.2019
6314 Clouds 23 1014 94 10000 3.1 260 00:38 09.10.2019
6315 Clouds 23 1014 94 10000 3.1 260 00:19 09.10.2019
6316 Rain 23 1014 94 10000 2.1 310 23:39 08.10.2019
6317 Rain 23 1014 94 10000 2.1 310 23:18 08.10.2019
6318 Rain 23 1014 94 10000 2.1 320 22:56 08.10.2019
6319 Rain 23 1014 94 10000 1.5 270 22:38 08.10.2019
6320 Rain 23 1014 94 10000 1.5 270 22:19 08.10.2019
6321 Rain 23 1014 94 10000 1.5 240 21:57 08.10.2019
6322 Thunderstorm 23 1014 94 9000 4.6 200 21:38 08.10.2019
6323 Thunderstorm 23 1014 94 9000 4.6 200 21:18 08.10.2019
6324 Thunderstorm 25 1015 94 10000 1 0 20:55 08.10.2019
6325 Clouds 25 1015 94 9000 1 0 20:37 08.10.2019
6326 Clouds 25 1015 94 9000 1 0 20:18 08.10.2019
6327 Clouds 25 1015 94 8000 1.5 320 19:55 08.10.2019
6328 Clouds 25 1015 94 8000 3.1 310 19:36 08.10.2019
6329 Clouds 25 1015 94 8000 3.1 310 19:36 08.10.2019
6330 Clouds 25 1015 94 8000 3.1 310 19:36 08.10.2019
6331 Clouds 25 1015 94 8000 3.1 310 19:18 08.10.2019
6332 Clouds 25 1016 94 8000 2.6 310 18:41 08.10.2019
6333 Clouds 25 1016 94 8000 2.6 310 18:23 08.10.2019
6334 Clouds 25 1016 94 9000 2.6 310 17:57 08.10.2019
6335 Rain 25 1016 94 10000 2.1 320 17:39 08.10.2019
6336 Rain 25 1016 94 10000 2.1 320 17:18 08.10.2019
6337 Rain 26 1016 88 10000 2.6 310 16:55 08.10.2019
6338 Clouds 26 1016 88 10000 2.1 280 16:37 08.10.2019
6339 Clouds 26 1016 88 10000 2.1 280 16:18 08.10.2019
6340 Clouds 26 1016 88 10000 1.5 330 15:38 08.10.2019
6341 Clouds 26 1016 88 10000 1.5 330 15:19 08.10.2019
6342 Clouds 26 1015 83 10000 1 0 14:42 08.10.2019
6343 Clear 26 1015 83 10000 1 0 14:22 08.10.2019
6344 Clear 26 1014 83 10000 1 0 13:59 08.10.2019
6345 Clear 26 1014 83 10000 1 30 13:39 08.10.2019
6346 Clear 26 1014 83 10000 1 30 13:21 08.10.2019
6347 Clear 26 1014 83 10000 1 0 12:59 08.10.2019
6348 Clear 27 1014 78 10000 1 0 12:40 08.10.2019
6349 Clear 27 1014 78 10000 1 0 12:20 08.10.2019
6350 Clear 27 1014 78 10000 1 0 11:56 08.10.2019
6351 Clouds 27 1014 78 10000 2.1 0 11:37 08.10.2019
6352 Clouds 27 1014 78 10000 2.1 0 11:19 08.10.2019
6353 Clouds 27 1014 78 10000 2.1 0 10:40 08.10.2019
6354 Clouds 27 1014 78 10000 2.1 0 10:21 08.10.2019
6355 Clouds 27 1014 78 10000 2.1 10 09:58 08.10.2019
6356 Clouds 27 1014 78 10000 2.1 10 09:58 08.10.2019
6357 Clouds 27 1014 78 10000 2.6 0 09:39 08.10.2019
6358 Clouds 27 1014 78 10000 2.6 0 09:20 08.10.2019
6359 Clouds 27 1015 78 10000 3.6 30 08:43 08.10.2019
6360 Clouds 27 1015 78 10000 3.6 30 08:25 08.10.2019
6361 Clouds 27 1015 83 10000 3.6 0 07:46 08.10.2019
6362 Clouds 27 1016 78 10000 4.6 20 07:22 08.10.2019
6363 Clouds 27 1016 78 10000 3.6 0 06:56 08.10.2019
6364 Clouds 26 1017 83 10000 2.6 0 06:32 08.10.2019
6365 Clouds 26 1017 83 10000 2.6 30 05:57 08.10.2019
6366 Clouds 25 1017 88 10000 2.1 30 05:36 08.10.2019
6367 Mist 25 1017 94 5000 2.1 0 04:33 08.10.2019
6368 Rain 25 1016 94 3500 1.5 30 03:29 08.10.2019
6369 Rain 25 1016 94 3900 0.5 60 02:39 08.10.2019
6370 Rain 25 1015 94 3300 0.5 0 01:49 08.10.2019
6371 Rain 25 1014 94 4300 1.5 290 01:31 08.10.2019
6372 Rain 25 1014 94 6000 0.5 0 00:48 08.10.2019
6373 Rain 24 1014 94 5000 1 0 00:21 08.10.2019
6374 Rain 25 1013 88 10000 1 0 23:41 07.10.2019
6375 Rain 25 1013 88 10000 1 0 23:20 07.10.2019
6376 Rain 25 1013 88 10000 1 0 23:20 07.10.2019
6377 Clear 26 1013 78 10000 1.5 300 22:57 07.10.2019
6378 Clear 25 1013 88 10000 1 0 22:39 07.10.2019
6379 Clear 25 1013 88 10000 1 0 22:20 07.10.2019
6380 Clear 26 1013 83 10000 2.6 340 21:57 07.10.2019
6381 Clear 26 1013 78 10000 2.1 0 21:38 07.10.2019
6382 Clear 26 1013 78 10000 2.1 0 21:20 07.10.2019
6383 Clear 26 1013 78 10000 2.1 0 21:20 07.10.2019
6384 Clear 25 1013 88 10000 1 0 20:57 07.10.2019
6385 Clear 25 1014 88 10000 1 0 20:39 07.10.2019
6386 Clear 25 1014 88 10000 1 0 20:20 07.10.2019
6387 Clear 25 1014 83 10000 1.5 50 19:58 07.10.2019
6388 Clear 25 1014 88 10000 0.5 0 19:39 07.10.2019
6389 Clear 25 1014 88 10000 0.5 0 19:18 07.10.2019
6390 Clear 25 1014 88 10000 1 0 18:56 07.10.2019
6391 Clouds 25 1015 88 10000 1 0 18:38 07.10.2019
6392 Clouds 25 1015 88 10000 1 0 18:18 07.10.2019
6393 Clouds 25 1014 88 10000 1.5 60 17:42 07.10.2019
6394 Clouds 25 1014 88 10000 1.5 60 17:20 07.10.2019
6395 Rain 25 1014 88 10000 3.1 0 16:56 07.10.2019
6396 Clouds 25 1014 88 10000 8.2 30 16:37 07.10.2019
6397 Clouds 25 1014 88 10000 8.2 30 16:19 07.10.2019
6398 Clouds 27 1014 83 10000 2.6 80 15:43 07.10.2019
6399 -273 0 0 0 0 0 15:24 07.10.2019
6400 Clear 27 1012 78 10000 1.5 60 14:42 07.10.2019
6401 Clear 27 1012 78 10000 1.5 60 14:24 07.10.2019
6402 Clear 26 1012 83 10000 2.1 60 13:59 07.10.2019
6403 Clear 26 1012 83 10000 2.1 60 13:59 07.10.2019
6404 Clear 27 1012 78 10000 1 0 13:40 07.10.2019
6405 Clear 27 1012 78 10000 1 0 13:18 07.10.2019
6406 Clear 27 1012 83 10000 1.5 0 12:55 07.10.2019
6407 Clear 27 1012 83 10000 1.5 0 12:55 07.10.2019
6408 Clear 28 1011 74 10000 1 0 12:36 07.10.2019
6409 Clear 28 1011 74 10000 1 0 12:18 07.10.2019
6410 Clear 27 1011 83 10000 1 0 11:56 07.10.2019
6411 Clouds 26 1011 88 10000 2.6 0 11:36 07.10.2019
6412 Clouds 26 1011 88 10000 2.6 0 11:18 07.10.2019
6413 Thunderstorm 25 1012 88 6000 7.2 40 10:40 07.10.2019
6414 Thunderstorm 25 1012 88 6000 7.2 40 10:20 07.10.2019
6415 Clouds 33 1011 49 10000 1.5 30 09:42 07.10.2019
6416 Clouds 33 1011 49 10000 1.5 30 09:23 07.10.2019
6417 Clouds 32 1012 55 10000 1.5 0 08:56 07.10.2019
6418 Clouds 32 1012 55 10000 2.6 0 08:37 07.10.2019
6419 Clouds 32 1012 55 10000 2.6 0 08:18 07.10.2019
6420 Clouds 32 1013 55 10000 1.5 0 07:40 07.10.2019
6421 Clouds 32 1013 55 10000 1.5 0 07:20 07.10.2019
6422 Clouds 32 1014 59 10000 2.6 280 06:44 07.10.2019
6423 Clear 31 1015 58 10000 3.1 290 06:23 07.10.2019
6424 Clear 30 1015 66 9000 1.5 300 05:30 07.10.2019
6425 Clear 29 1015 70 8000 1.5 0 04:58 07.10.2019
6426 Clear 28 1015 74 7000 1 0 04:20 07.10.2019
6427 Clear 26 1015 78 6000 1 0 03:44 07.10.2019
6428 Clear 26 1015 78 6000 1 0 03:18 07.10.2019
6429 Clear 25 1015 83 6000 1 0 02:20 07.10.2019
6430 Mist 23 1014 94 4400 2.1 280 01:42 07.10.2019
6431 Mist 23 1014 94 4400 2.1 280 01:18 07.10.2019
6432 Clear 24 1013 88 8000 2.32 299.987 00:38 07.10.2019
6433 Clear 24 1013 88 8000 1.73 296.12 00:19 07.10.2019
6434 Clear 24 1013 88 8000 0.5 0 23:42 06.10.2019
6435 Clear 24 1013 88 8000 0.5 0 23:21 06.10.2019
6436 Clear 24 1013 88 8000 1 0 22:58 06.10.2019
6437 Clear 24 1013 88 8000 1 0 22:39 06.10.2019
6438 Clear 24 1013 88 8000 1 0 22:21 06.10.2019
6439 Clear 24 1013 88 8000 1.5 70 21:56 06.10.2019
6440 Clear 25 1013 83 9000 2.1 340 21:37 06.10.2019
6441 Clear 25 1013 83 9000 2.1 340 21:19 06.10.2019
6442 Clear 25 1013 83 9000 2.1 340 20:56 06.10.2019
6443 Clear 25 1014 83 8000 2.1 330 20:38 06.10.2019
6444 Clear 25 1014 83 8000 2.1 330 20:38 06.10.2019
6445 Clear 25 1014 83 8000 2.1 330 20:19 06.10.2019
6446 Clear 25 1014 83 8000 2.1 330 20:19 06.10.2019
6447 Clear 25 1014 83 7000 1.5 310 19:56 06.10.2019
6448 Clear 25 1014 88 8000 1.5 330 19:36 06.10.2019
6449 Clear 25 1014 88 8000 1.5 330 19:36 06.10.2019
6450 Clear 25 1014 88 8000 1.5 330 19:18 06.10.2019
6451 Clear 25 1014 88 7000 1.5 310 18:55 06.10.2019
6452 Clear 26 1014 78 10000 1 0 18:36 06.10.2019
6453 Clear 26 1014 78 10000 1 0 18:18 06.10.2019
6454 Clear 26 1014 78 10000 1 0 18:18 06.10.2019
6455 Clear 26 1014 78 10000 1 0 18:18 06.10.2019
6456 Clear 26 1014 78 10000 1 0 18:18 06.10.2019
6457 Clear 28 1014 69 10000 2.1 140 17:42 06.10.2019
6458 Clear 28 1014 65 10000 3.6 150 17:20 06.10.2019
6459 Clear 28 1014 65 10000 3.6 150 17:20 06.10.2019
6460 Clear 28 1014 69 10000 2.1 140 17:20 06.10.2019
6461 Clear 28 1014 65 10000 3.6 150 16:55 06.10.2019
6462 Clear 28 1013 69 10000 3.1 150 16:37 06.10.2019
6463 Clear 28 1013 69 10000 3.1 150 16:18 06.10.2019
6464 Clear 29 1013 66 9000 3.6 140 15:42 06.10.2019
6465 Clouds 29 1013 66 9000 3.6 140 15:21 06.10.2019
6466 Clouds 30 1012 62 8000 3.1 130 14:44 06.10.2019
6467 Clear 29 1012 66 10000 2.6 100 14:26 06.10.2019
6468 Clear 29 1011 62 10000 2.6 90 13:59 06.10.2019
6469 Clear 29 1011 66 10000 2.6 100 13:40 06.10.2019
6470 Clear 29 1011 66 10000 2.6 100 13:21 06.10.2019
6471 Clear 31 1011 58 10000 2.6 80 12:58 06.10.2019
6472 Clear 32 1011 52 10000 2.1 90 12:39 06.10.2019
6473 Clear 32 1011 52 10000 2.1 90 12:21 06.10.2019
6474 Clear 32 1011 55 10000 2.1 50 11:58 06.10.2019
6475 Clear 33 1011 52 10000 2.1 60 11:39 06.10.2019
6476 Clear 33 1011 52 10000 2.1 60 11:20 06.10.2019
6477 Clouds 32 1011 49 10000 1 0 10:46 06.10.2019
6478 Clouds 32 1011 52 10000 1 0 10:27 06.10.2019
6479 Clouds 33 1012 52 10000 2.1 40 09:58 06.10.2019
6480 Clouds 32 1012 55 10000 1.5 0 09:40 06.10.2019
6481 Clouds 32 1012 55 10000 1.5 0 09:19 06.10.2019
6482 Clouds 32 1012 55 10000 1.5 0 09:19 06.10.2019
6483 Clouds 32 1013 55 10000 1.5 0 08:45 06.10.2019
6484 Clouds 32 1013 55 10000 1.5 0 08:21 06.10.2019
6485 Clouds 32 1013 55 10000 2.1 60 07:57 06.10.2019
6486 Clouds 31 1014 58 10000 2.1 80 07:35 06.10.2019
6487 Clouds 31 1015 62 10000 1.5 40 06:32 06.10.2019
6488 Clouds 30 1015 66 10000 1 0 05:35 06.10.2019
6489 Clear 29 1016 74 7000 2.1 340 04:26 06.10.2019
6490 Mist 27 1015 83 4500 1 0 02:46 06.10.2019
6491 Mist 25 1015 88 3500 1.5 20 02:27 06.10.2019
6492 Mist 25 1015 88 3600 1 0 01:46 06.10.2019
6493 Mist 25 1014 88 2800 1 50 01:27 06.10.2019
6494 Mist 24 1014 94 4800 1.5 60 00:57 06.10.2019
6495 Mist 25 1014 88 5000 2.1 70 00:28 06.10.2019
6496 Clouds 24 1013 94 6000 1 0 23:45 05.10.2019
6497 Clouds 24 1013 94 8000 1.5 60 23:22 05.10.2019
6498 Clouds 25 1013 88 6000 2.1 0 22:58 05.10.2019
6499 Clouds 24 1013 94 6000 1.5 70 22:40 05.10.2019
6500 Clouds 24 1013 94 6000 1.5 70 22:20 05.10.2019
6501 Clouds 25 1013 88 6000 1.5 60 21:57 05.10.2019
6502 Clouds 25 1013 88 6000 2.6 70 21:38 05.10.2019
6503 Rain 25 1013 88 6000 2.6 70 21:18 05.10.2019
6504 Rain 25 1013 88 6000 2.1 70 20:56 05.10.2019
6505 Rain 25 1013 88 7000 1.5 70 20:37 05.10.2019
6506 Rain 25 1013 88 7000 1.5 70 20:37 05.10.2019
6507 Rain 25 1013 88 7000 1.5 70 20:18 05.10.2019
6508 Mist 26 1014 88 5000 2.6 60 19:38 05.10.2019
6509 Mist 26 1014 88 5000 2.6 60 19:19 05.10.2019
6510 Rain 26 1014 88 6000 2.1 50 18:55 05.10.2019
6511 Rain 26 1014 88 6000 2.1 50 18:55 05.10.2019
6512 Rain 26 1014 88 6000 2.1 50 18:37 05.10.2019
6513 Rain 26 1014 88 6000 2.1 50 18:19 05.10.2019
6514 Rain 26 1014 88 6000 1.5 30 17:43 05.10.2019
6515 Rain 26 1013 88 7000 1 0 17:24 05.10.2019
6516 Rain 27 1013 78 7000 2.1 110 16:57 05.10.2019
6517 Rain 27 1013 78 8000 2.1 90 16:39 05.10.2019
6518 Rain 27 1013 78 8000 2.1 90 16:20 05.10.2019
6519 Rain 28 1012 74 9000 2.1 140 15:56 05.10.2019
6520 Clear 28 1012 74 10000 2.6 140 15:38 05.10.2019
6521 Clear 28 1012 74 10000 2.6 140 15:19 05.10.2019
6522 Clear 28 1011 74 10000 3.6 140 14:43 05.10.2019
6523 Clear 28 1011 74 10000 3.6 140 14:24 05.10.2019
6524 Clouds 29 1010 70 10000 4.6 140 13:58 05.10.2019
6525 Clouds 29 1010 70 10000 4.1 130 13:40 05.10.2019
6526 Clouds 29 1010 70 10000 4.1 130 13:19 05.10.2019
6527 Clouds 31 1010 58 10000 4.1 130 12:43 05.10.2019
6528 Clouds 31 1010 66 10000 2.6 90 12:19 05.10.2019
6529 Clouds 31 1010 62 10000 2.6 180 11:43 05.10.2019
6530 Clouds 31 1010 62 10000 2.6 180 11:21 05.10.2019
6531 Clouds 31 1010 62 10000 1 0 10:57 05.10.2019
6532 Clouds 30 1010 58 10000 2.1 230 10:39 05.10.2019
6533 Clouds 30 1010 58 10000 2.1 230 10:21 05.10.2019
6534 Thunderstorm 29 1011 70 8000 4.6 190 09:45 05.10.2019
6535 Thunderstorm 29 1011 70 8000 4.6 190 09:23 05.10.2019
6536 Clouds 31 1011 62 10000 1.5 70 08:56 05.10.2019
6537 Clouds 32 1012 59 10000 2.1 330 08:38 05.10.2019
6538 Clouds 32 1012 59 10000 2.1 330 08:18 05.10.2019
6539 Clouds 32 1012 59 10000 1.5 0 07:46 05.10.2019
6540 Clouds 31 1013 62 10000 1 0 07:28 05.10.2019
6541 Clouds 31 1013 62 10000 1.5 0 06:56 05.10.2019
6542 Clouds 30 1014 70 9000 1.5 0 06:22 05.10.2019
6543 Clouds 29 1014 74 8000 2.1 80 05:20 05.10.2019
6544 Mist 26 1014 83 4600 2.1 310 03:32 05.10.2019
6545 Mist 25 1013 88 3300 2.1 310 02:29 05.10.2019
6546 Mist 24 1012 94 4300 1 0 01:27 05.10.2019
6547 Clouds 24 1012 88 6000 1 0 00:49 05.10.2019
6548 Mist 24 1011 94 5000 1.5 290 00:27 05.10.2019
6549 Clouds 24 1011 88 6000 0.3 138.302 23:57 04.10.2019
6550 Clouds 24 1011 88 6000 0.3 138.302 23:39 04.10.2019
6551 Clouds 24 1011 88 6000 0.3 138.302 23:21 04.10.2019
6552 Mist 23 1011 94 5000 1 0 22:42 04.10.2019
6553 Mist 23 1011 94 5000 1 0 22:24 04.10.2019
6554 Mist 23 1011 94 5000 1 90 21:59 04.10.2019
6555 Mist 23 1011 94 5000 2.1 80 21:40 04.10.2019
6556 Mist 23 1011 94 5000 2.1 80 21:22 04.10.2019
6557 Clouds 24 1011 88 6000 1.5 70 20:58 04.10.2019
6558 Clouds 24 1011 88 6000 2.1 80 20:39 04.10.2019
6559 Clouds 24 1011 88 6000 2.1 80 20:21 04.10.2019
6560 Clouds 24 1011 88 6000 2.6 60 19:55 04.10.2019
6561 Clouds 23 1011 94 7000 2.6 70 19:37 04.10.2019
6562 Clouds 23 1011 94 7000 2.6 70 19:18 04.10.2019
6563 Clouds 24 1012 88 7000 1 80 18:40 04.10.2019
6564 Rain 24 1012 88 7000 1 80 18:20 04.10.2019
6565 Rain 24 1012 88 7000 1 80 18:20 04.10.2019
6566 Rain 24 1012 88 7000 1.5 60 17:58 04.10.2019
6567 Rain 24 1012 88 6000 2.6 80 17:39 04.10.2019
6568 Rain 24 1012 88 6000 2.6 80 17:20 04.10.2019
6569 Rain 23 1011 94 7000 2.1 100 16:55 04.10.2019
6570 Rain 23 1011 94 7000 2.1 100 16:55 04.10.2019
6571 Rain 23 1011 94 7000 2.1 100 16:55 04.10.2019
6572 Rain 24 1011 88 9000 2.1 60 16:37 04.10.2019
6573 Rain 24 1011 88 9000 2.1 60 16:18 04.10.2019
6574 Clear 24 1011 88 10000 2.1 60 15:55 04.10.2019
6575 Clear 24 1011 88 10000 2.1 60 15:55 04.10.2019
6576 Clear 24 1010 88 10000 1 90 15:37 04.10.2019
6577 Clear 24 1010 88 10000 1 90 15:37 04.10.2019
6578 Clear 24 1010 88 10000 1 90 15:37 04.10.2019
6579 Clear 24 1010 88 10000 1 90 15:18 04.10.2019
6580 Clear 24 1010 88 10000 1.5 50 14:42 04.10.2019
6581 Clear 25 1009 78 10000 2.6 130 14:22 04.10.2019
6582 Clear 25 1009 78 10000 2.6 130 13:59 04.10.2019
6583 Clear 25 1009 83 10000 2.1 140 13:41 04.10.2019
6584 Clear 25 1009 83 10000 2.1 140 13:19 04.10.2019
6585 Clear 25 1009 83 10000 2.1 140 13:19 04.10.2019
6586 Clouds 26 1009 83 10000 3.6 230 12:46 04.10.2019
6587 Clouds 26 1009 83 10000 3.6 230 12:46 04.10.2019
6588 Clouds 26 1009 83 10000 3.6 230 12:27 04.10.2019
6589 Clouds 27 1009 83 10000 3.1 230 11:57 04.10.2019
6590 Clouds 27 1008 83 10000 2.6 130 11:38 04.10.2019
6591 Clouds 27 1008 83 10000 2.6 130 11:19 04.10.2019
6592 Rain 28 1008 83 8000 3.6 130 10:39 04.10.2019
6593 Rain 28 1008 83 8000 3.6 130 10:20 04.10.2019
6594 Clouds 29 1008 79 10000 3.1 60 09:45 04.10.2019
6595 Clouds 29 1008 79 10000 3.1 60 09:27 04.10.2019
6596 Clouds 29 1009 79 10000 2.1 70 08:56 04.10.2019
6597 Clouds 28 1010 83 8000 3.1 70 08:37 04.10.2019
6598 Clouds 28 1010 83 8000 3.1 70 08:19 04.10.2019
6599 Rain 27 1011 88 4600 2.1 80 07:43 04.10.2019
6600 Rain 27 1011 88 4600 2.1 80 07:21 04.10.2019
6601 Clouds 26 1012 88 6000 2.1 30 06:41 04.10.2019
6602 Clouds 26 1012 88 6000 2.1 30 06:23 04.10.2019
6603 Thunderstorm 26 1013 88 5000 2.1 60 05:23 04.10.2019
6604 Thunderstorm 26 1013 88 3900 1 0 04:54 04.10.2019
6605 Thunderstorm 25 1012 94 3100 1.5 50 03:43 04.10.2019
6606 Mist 25 1011 94 2300 1.5 350 02:53 04.10.2019
6607 Mist 25 1011 94 2300 1.5 350 02:53 04.10.2019
6608 Thunderstorm 25 1011 94 3400 1 50 01:55 04.10.2019
6609 Mist 25 1011 94 2800 1 0 01:29 04.10.2019
6610 Mist 25 1011 94 4200 1.5 40 00:50 04.10.2019
6611 Mist 25 1010 94 3900 1 0 23:54 03.10.2019
6612 Mist 25 1010 94 3900 2.1 100 23:36 03.10.2019
6613 Mist 25 1010 94 3900 2.1 100 23:18 03.10.2019
6614 Rain 25 1010 94 4000 1.5 90 22:54 03.10.2019
6615 Mist 25 1011 94 3900 1 0 22:36 03.10.2019
6616 Mist 25 1011 94 3900 1 0 22:18 03.10.2019
6617 Mist 25 1011 94 3800 1 0 21:41 03.10.2019
6618 Mist 25 1011 94 3800 1 0 21:21 03.10.2019
6619 Mist 25 1011 94 3800 1 0 20:59 03.10.2019
6620 Mist 25 1011 94 4200 1.5 40 20:41 03.10.2019
6621 Mist 25 1011 94 4200 1.5 40 20:23 03.10.2019
6622 Mist 25 1012 94 4000 1.5 50 19:59 03.10.2019
6623 Mist 25 1012 94 4500 2.1 50 19:41 03.10.2019
6624 Mist 25 1012 94 4500 2.1 50 19:20 03.10.2019
6625 Mist 25 1012 94 4600 1.5 50 18:57 03.10.2019
6626 Mist 25 1012 94 5000 1.5 50 18:38 03.10.2019
6627 Mist 25 1012 94 5000 1.5 50 18:38 03.10.2019
6628 Clouds 25 1012 94 6000 1 0 18:19 03.10.2019
6629 Clouds 25 1012 94 6000 1 0 17:43 03.10.2019
6630 Mist 26 1012 83 5000 0.5 0 17:23 03.10.2019
6631 Clouds 25 1012 94 6000 1 0 16:58 03.10.2019
6632 Rain 25 1011 94 6000 1 0 16:40 03.10.2019
6633 Rain 25 1011 94 6000 1 0 16:21 03.10.2019
6634 -273 0 0 0 0 0 15:54 03.10.2019
6635 Rain 25 1011 88 6000 1.5 40 15:36 03.10.2019
6636 Rain 25 1011 88 6000 1.5 40 15:18 03.10.2019
6637 Clear 26 1010 83 10000 0.5 0 14:39 03.10.2019
6638 Clear 26 1010 83 10000 0.5 0 14:20 03.10.2019
6639 Clear 26 1010 83 10000 1 0 13:55 03.10.2019
6640 Clear 26 1009 83 10000 1 0 13:36 03.10.2019
6641 Clear 26 1009 83 10000 1 0 13:18 03.10.2019
6642 Clear 27 1009 78 10000 1.5 330 12:40 03.10.2019
6643 Clear 27 1009 78 10000 1.5 330 12:20 03.10.2019
6644 Clear 27 1009 78 10000 1.5 330 12:20 03.10.2019
6645 Clear 27 1009 78 10000 2.1 340 11:59 03.10.2019
6646 Clear 27 1009 78 10000 2.1 340 11:59 03.10.2019
6647 Rain 27 1009 78 9000 1 0 11:40 03.10.2019
6648 Rain 27 1009 78 9000 1 0 11:21 03.10.2019
6649 Clouds 26 1009 83 10000 2.6 140 10:58 03.10.2019
6650 Clear 26 1009 83 10000 4.1 140 10:39 03.10.2019
6651 Clear 26 1009 83 10000 4.1 140 10:18 03.10.2019
6652 Clear 26 1009 78 10000 3.1 110 09:56 03.10.2019
6653 Clear 27 1009 78 10000 3.6 0 09:38 03.10.2019
6654 Clear 27 1009 78 10000 3.6 0 09:19 03.10.2019
6655 Clouds 26 1011 78 10000 1.5 0 08:43 03.10.2019
6656 Clouds 26 1011 78 10000 1.5 0 08:43 03.10.2019
6657 Clouds 26 1011 78 10000 1.5 0 08:25 03.10.2019
6658 Clouds 25 1012 83 10000 2.1 30 07:45 03.10.2019
6659 Clouds 24 1013 88 10000 2.6 40 07:20 03.10.2019
6660 Clouds 24 1013 88 10000 3.6 70 06:56 03.10.2019
6661 Clouds 24 1013 88 10000 2.6 80 06:27 03.10.2019
6662 Clouds 24 1013 88 10000 2.1 40 05:49 03.10.2019
6663 Clouds 23 1012 94 10000 2.1 10 05:29 03.10.2019
6664 Rain 23 1012 94 10000 3.6 40 04:45 03.10.2019
6665 Thunderstorm 23 1013 94 7000 2.6 120 03:54 03.10.2019
6666 Thunderstorm 22 1013 94 1500 5.7 320 03:19 03.10.2019
6667 Thunderstorm 22 1013 94 1500 5.7 320 03:19 03.10.2019
6668 Clouds 25 1012 78 10000 4.1 10 02:27 03.10.2019
6669 Clouds 25 1011 78 10000 2.1 30 01:40 03.10.2019
6670 Clouds 27 1010 83 6000 3.1 80 00:53 03.10.2019
6671 Mist 27 1010 88 5000 3.1 100 00:31 03.10.2019
6672 Mist 27 1010 88 5000 2.6 90 23:55 02.10.2019
6673 Clouds 27 1010 88 6000 3.1 110 23:36 02.10.2019
6674 Clouds 27 1010 88 6000 3.1 110 23:18 02.10.2019
6675 Clouds 27 1010 88 6000 3.6 100 22:41 02.10.2019
6676 Clouds 27 1010 88 6000 3.6 100 22:20 02.10.2019
6677 Mist 27 1010 88 5000 3.1 100 21:55 02.10.2019
6678 Mist 27 1010 88 5000 3.1 100 21:55 02.10.2019
6679 Clouds 27 1010 88 6000 3.6 100 21:37 02.10.2019
6680 Clouds 27 1010 88 6000 3.6 100 21:18 02.10.2019
6681 Clouds 27 1010 88 6000 3.6 100 21:18 02.10.2019
6682 Clouds 28 1010 78 8000 2.6 120 20:55 02.10.2019
6683 Clouds 28 1010 78 8000 2.6 120 20:55 02.10.2019
6684 Clouds 28 1010 78 8000 2.6 120 20:55 02.10.2019
6685 Clouds 28 1010 78 8000 2.6 120 20:54 02.10.2019
6686 Clouds 28 1011 83 8000 3.1 130 20:36 02.10.2019
6687 Clouds 28 1011 83 8000 3.1 130 20:18 02.10.2019
6688 Clouds 28 1011 83 8000 3.1 130 20:18 02.10.2019
6689 Clouds 28 1011 78 9000 4.1 140 19:42 02.10.2019
6690 Clouds 28 1011 78 9000 4.1 140 19:21 02.10.2019
6691 Clouds 28 1011 78 9000 3.6 140 18:57 02.10.2019
6692 Clouds 28 1011 78 9000 3.1 140 18:38 02.10.2019
6693 Clouds 28 1011 78 9000 3.1 140 18:20 02.10.2019
6694 Clouds 28 1011 78 7000 3.1 160 17:56 02.10.2019
6695 Clouds 28 1011 78 7000 3.1 140 17:37 02.10.2019
6696 Clouds 28 1011 78 7000 3.1 140 17:19 02.10.2019
6697 Clouds 28 1011 78 8000 4.1 140 16:42 02.10.2019
6698 Clouds 29 1010 74 8000 4.6 140 16:22 02.10.2019
6699 Clouds 29 1010 74 8000 4.6 140 15:59 02.10.2019
6700 Clouds 29 1010 74 6000 4.1 130 15:38 02.10.2019
6701 Clouds 29 1010 74 6000 4.1 130 15:20 02.10.2019
6702 Clouds 29 1009 74 7000 5.1 120 14:57 02.10.2019
6703 Mist 29 1009 74 5000 4.1 130 14:39 02.10.2019
6704 Mist 29 1009 74 5000 4.1 130 14:20 02.10.2019
6705 Mist 30 1008 70 5000 4.1 120 13:43 02.10.2019
6706 Mist 30 1008 70 5000 4.1 120 13:24 02.10.2019
6707 Clouds 30 1008 70 6000 4.1 100 12:58 02.10.2019
6708 Clouds 31 1008 66 8000 4.6 100 12:37 02.10.2019
6709 Clouds 32 1008 62 7000 3.6 90 12:18 02.10.2019
6710 Clouds 31 1008 66 7000 3.6 80 11:44 02.10.2019
6711 Clouds 31 1008 66 7000 3.6 80 11:23 02.10.2019
6712 Clouds 31 1008 66 7000 3.1 80 10:42 02.10.2019
6713 Clouds 31 1008 66 7000 3.1 80 10:20 02.10.2019
6714 Clouds 32 1008 62 6000 2.6 90 09:57 02.10.2019
6715 Clouds 32 1009 62 6000 2.6 90 09:36 02.10.2019
6716 Clouds 32 1009 62 6000 2.6 90 09:18 02.10.2019
6717 Haze 31 1010 66 5000 2.1 70 08:43 02.10.2019
6718 Haze 31 1010 66 5000 2.1 70 08:22 02.10.2019
6719 Mist 30 1010 70 5000 2.6 80 07:56 02.10.2019
6720 Mist 30 1010 70 5000 2.6 80 07:56 02.10.2019
6721 Mist 30 1011 70 4900 2.1 70 07:37 02.10.2019
6722 Haze 30 1011 70 5000 2.1 130 07:19 02.10.2019
6723 Haze 30 1011 70 5000 2.1 130 07:19 02.10.2019
6724 Mist 29 1012 74 4500 2.1 60 06:31 02.10.2019
6725 Mist 29 1012 74 5000 3.1 80 05:52 02.10.2019
6726 Mist 29 1012 74 5000 3.1 80 05:23 02.10.2019
6727 Mist 28 1012 78 4300 2.6 70 04:41 02.10.2019
6728 Mist 27 1012 78 3600 3.1 60 03:51 02.10.2019
6729 Mist 26 1012 83 2800 2.1 50 02:39 02.10.2019
6730 Mist 26 1012 83 2800 2.1 50 02:20 02.10.2019
6731 Mist 25 1011 88 2800 2.6 70